<?xml version="1.0" encoding="UTF-8"?>
<gpx version="1.1" creator="https://www.youtrack.es" xsi:schemaLocation="http://www.topografix.com/GPX/1/1 http://www.topografix.com/GPX/1/1/gpx.xsd http://www.garmin.com/xmlschemas/GpxExtensions/v3 http://www.garmin.com/xmlschemas/GpxExtensionsv3.xsd http://www.garmin.com/xmlschemas/TrackPointExtension/v1 http://www.garmin.com/xmlschemas/TrackPointExtensionv1.xsd" xmlns:gpxtpx="http://www.garmin.com/xmlschemas/TrackPointExtension/v1" xmlns:gpxx="http://www.garmin.com/xmlschemas/GpxExtensions/v3" xmlns:xsi="http://www.w3.org/2001/XMLSchema-instance">
  <metadata>
    <link href="https://www.youtrack.es">
      <text>YouTrack.es</text>
    </link>
    <time>2026-05-08T04:27:50Z</time>
  </metadata>
  <trk>
    <src>https://www.youtrack.es</src>
    <link href="https://www.youtrack.es/ruta/24290-arcas-cuenca-arcas">
      <text>YouTrack.es</text>
    </link>
    <trkseg>
      <trkpt lat="39.990417" lon="-2.1131184">
        <ele>-20000.0</ele>
        <time>2021-07-27T17:20:27Z</time>
      </trkpt>
      <trkpt lat="39.990417" lon="-2.1131184">
        <ele>-20000.0</ele>
        <time>2021-07-27T17:20:27Z</time>
      </trkpt>
      <trkpt lat="39.990417" lon="-2.11309">
        <ele>-20000.0</ele>
        <time>2021-07-27T17:20:28Z</time>
      </trkpt>
      <trkpt lat="39.990417" lon="-2.1130834">
        <ele>-20000.0</ele>
        <time>2021-07-27T17:20:29Z</time>
      </trkpt>
      <trkpt lat="39.99042" lon="-2.1130714">
        <ele>-20000.0</ele>
        <time>2021-07-27T17:20:30Z</time>
      </trkpt>
      <trkpt lat="39.99043" lon="-2.1130557">
        <ele>-20000.0</ele>
        <time>2021-07-27T17:20:31Z</time>
      </trkpt>
      <trkpt lat="39.990448" lon="-2.1130433">
        <ele>-20000.0</ele>
        <time>2021-07-27T17:20:32Z</time>
      </trkpt>
      <trkpt lat="39.990467" lon="-2.113032">
        <ele>-20000.0</ele>
        <time>2021-07-27T17:20:33Z</time>
      </trkpt>
      <trkpt lat="39.99054" lon="-2.1129878">
        <ele>-20000.0</ele>
        <time>2021-07-27T17:20:36Z</time>
      </trkpt>
      <trkpt lat="39.99061" lon="-2.1129477">
        <ele>963.0</ele>
        <time>2021-07-27T17:20:38Z</time>
      </trkpt>
      <trkpt lat="39.99067" lon="-2.112891">
        <ele>963.0</ele>
        <time>2021-07-27T17:20:40Z</time>
      </trkpt>
      <trkpt lat="39.990723" lon="-2.1128287">
        <ele>963.0</ele>
        <time>2021-07-27T17:20:42Z</time>
      </trkpt>
      <trkpt lat="39.99077" lon="-2.112762">
        <ele>963.0</ele>
        <time>2021-07-27T17:20:44Z</time>
      </trkpt>
      <trkpt lat="39.990803" lon="-2.1126895">
        <ele>963.0</ele>
        <time>2021-07-27T17:20:46Z</time>
      </trkpt>
      <trkpt lat="39.99083" lon="-2.1126049">
        <ele>963.0</ele>
        <time>2021-07-27T17:20:48Z</time>
      </trkpt>
      <trkpt lat="39.990845" lon="-2.1125066">
        <ele>963.0</ele>
        <time>2021-07-27T17:20:50Z</time>
      </trkpt>
      <trkpt lat="39.990864" lon="-2.1124067">
        <ele>963.0</ele>
        <time>2021-07-27T17:20:52Z</time>
      </trkpt>
      <trkpt lat="39.99093" lon="-2.1122854">
        <ele>963.0</ele>
        <time>2021-07-27T17:20:55Z</time>
      </trkpt>
      <trkpt lat="39.990993" lon="-2.1122391">
        <ele>963.0</ele>
        <time>2021-07-27T17:20:57Z</time>
      </trkpt>
      <trkpt lat="39.99107" lon="-2.11222">
        <ele>963.0</ele>
        <time>2021-07-27T17:20:59Z</time>
      </trkpt>
      <trkpt lat="39.991146" lon="-2.1122115">
        <ele>963.0</ele>
        <time>2021-07-27T17:21:01Z</time>
      </trkpt>
      <trkpt lat="39.991215" lon="-2.1122115">
        <ele>963.0</ele>
        <time>2021-07-27T17:21:03Z</time>
      </trkpt>
      <trkpt lat="39.991287" lon="-2.1122065">
        <ele>963.0</ele>
        <time>2021-07-27T17:21:05Z</time>
      </trkpt>
      <trkpt lat="39.991356" lon="-2.1121957">
        <ele>964.0</ele>
        <time>2021-07-27T17:21:07Z</time>
      </trkpt>
      <trkpt lat="39.99143" lon="-2.1121774">
        <ele>964.0</ele>
        <time>2021-07-27T17:21:09Z</time>
      </trkpt>
      <trkpt lat="39.991505" lon="-2.1121633">
        <ele>964.0</ele>
        <time>2021-07-27T17:21:11Z</time>
      </trkpt>
      <trkpt lat="39.991577" lon="-2.1121554">
        <ele>964.0</ele>
        <time>2021-07-27T17:21:13Z</time>
      </trkpt>
      <trkpt lat="39.99165" lon="-2.112156">
        <ele>964.0</ele>
        <time>2021-07-27T17:21:15Z</time>
      </trkpt>
      <trkpt lat="39.99172" lon="-2.112159">
        <ele>965.0</ele>
        <time>2021-07-27T17:21:17Z</time>
      </trkpt>
      <trkpt lat="39.991787" lon="-2.112159">
        <ele>965.0</ele>
        <time>2021-07-27T17:21:19Z</time>
      </trkpt>
      <trkpt lat="39.991856" lon="-2.11216">
        <ele>965.0</ele>
        <time>2021-07-27T17:21:21Z</time>
      </trkpt>
      <trkpt lat="39.991913" lon="-2.1121633">
        <ele>965.0</ele>
        <time>2021-07-27T17:21:23Z</time>
      </trkpt>
      <trkpt lat="39.991962" lon="-2.1121662">
        <ele>965.0</ele>
        <time>2021-07-27T17:21:25Z</time>
      </trkpt>
      <trkpt lat="39.992035" lon="-2.1121714">
        <ele>965.0</ele>
        <time>2021-07-27T17:21:28Z</time>
      </trkpt>
      <trkpt lat="39.99209" lon="-2.1121714">
        <ele>966.0</ele>
        <time>2021-07-27T17:21:30Z</time>
      </trkpt>
      <trkpt lat="39.99214" lon="-2.1121724">
        <ele>966.0</ele>
        <time>2021-07-27T17:21:32Z</time>
      </trkpt>
      <trkpt lat="39.9922" lon="-2.1121747">
        <ele>966.0</ele>
        <time>2021-07-27T17:21:34Z</time>
      </trkpt>
      <trkpt lat="39.99226" lon="-2.1121774">
        <ele>966.0</ele>
        <time>2021-07-27T17:21:36Z</time>
      </trkpt>
      <trkpt lat="39.99232" lon="-2.1121833">
        <ele>966.0</ele>
        <time>2021-07-27T17:21:38Z</time>
      </trkpt>
      <trkpt lat="39.992386" lon="-2.11219">
        <ele>966.0</ele>
        <time>2021-07-27T17:21:40Z</time>
      </trkpt>
      <trkpt lat="39.992447" lon="-2.112194">
        <ele>967.0</ele>
        <time>2021-07-27T17:21:42Z</time>
      </trkpt>
      <trkpt lat="39.992508" lon="-2.1121953">
        <ele>967.0</ele>
        <time>2021-07-27T17:21:44Z</time>
      </trkpt>
      <trkpt lat="39.992573" lon="-2.112196">
        <ele>967.0</ele>
        <time>2021-07-27T17:21:46Z</time>
      </trkpt>
      <trkpt lat="39.992634" lon="-2.1121993">
        <ele>967.0</ele>
        <time>2021-07-27T17:21:48Z</time>
      </trkpt>
      <trkpt lat="39.992733" lon="-2.1122022">
        <ele>967.0</ele>
        <time>2021-07-27T17:21:51Z</time>
      </trkpt>
      <trkpt lat="39.9928" lon="-2.1122043">
        <ele>967.0</ele>
        <time>2021-07-27T17:21:53Z</time>
      </trkpt>
      <trkpt lat="39.99287" lon="-2.1122026">
        <ele>967.0</ele>
        <time>2021-07-27T17:21:55Z</time>
      </trkpt>
      <trkpt lat="39.992935" lon="-2.1121979">
        <ele>967.0</ele>
        <time>2021-07-27T17:21:57Z</time>
      </trkpt>
      <trkpt lat="39.993004" lon="-2.112192">
        <ele>968.0</ele>
        <time>2021-07-27T17:21:59Z</time>
      </trkpt>
      <trkpt lat="39.993073" lon="-2.1121898">
        <ele>968.0</ele>
        <time>2021-07-27T17:22:01Z</time>
      </trkpt>
      <trkpt lat="39.993137" lon="-2.1121876">
        <ele>968.0</ele>
        <time>2021-07-27T17:22:03Z</time>
      </trkpt>
      <trkpt lat="39.99321" lon="-2.1121793">
        <ele>968.0</ele>
        <time>2021-07-27T17:22:05Z</time>
      </trkpt>
      <trkpt lat="39.99328" lon="-2.1121683">
        <ele>969.0</ele>
        <time>2021-07-27T17:22:07Z</time>
      </trkpt>
      <trkpt lat="39.993347" lon="-2.112159">
        <ele>969.0</ele>
        <time>2021-07-27T17:22:09Z</time>
      </trkpt>
      <trkpt lat="39.993412" lon="-2.1121473">
        <ele>969.0</ele>
        <time>2021-07-27T17:22:11Z</time>
      </trkpt>
      <trkpt lat="39.993484" lon="-2.1121345">
        <ele>969.0</ele>
        <time>2021-07-27T17:22:13Z</time>
      </trkpt>
      <trkpt lat="39.993565" lon="-2.1121254">
        <ele>969.0</ele>
        <time>2021-07-27T17:22:15Z</time>
      </trkpt>
      <trkpt lat="39.993645" lon="-2.1121197">
        <ele>969.0</ele>
        <time>2021-07-27T17:22:17Z</time>
      </trkpt>
      <trkpt lat="39.993732" lon="-2.1121144">
        <ele>969.0</ele>
        <time>2021-07-27T17:22:19Z</time>
      </trkpt>
      <trkpt lat="39.99382" lon="-2.1121094">
        <ele>969.0</ele>
        <time>2021-07-27T17:22:21Z</time>
      </trkpt>
      <trkpt lat="39.9939" lon="-2.1121037">
        <ele>969.0</ele>
        <time>2021-07-27T17:22:23Z</time>
      </trkpt>
      <trkpt lat="39.993988" lon="-2.1120963">
        <ele>969.0</ele>
        <time>2021-07-27T17:22:25Z</time>
      </trkpt>
      <trkpt lat="39.994076" lon="-2.1120908">
        <ele>969.0</ele>
        <time>2021-07-27T17:22:27Z</time>
      </trkpt>
      <trkpt lat="39.994164" lon="-2.112086">
        <ele>969.0</ele>
        <time>2021-07-27T17:22:29Z</time>
      </trkpt>
      <trkpt lat="39.994255" lon="-2.1120844">
        <ele>969.0</ele>
        <time>2021-07-27T17:22:31Z</time>
      </trkpt>
      <trkpt lat="39.994347" lon="-2.1120849">
        <ele>969.0</ele>
        <time>2021-07-27T17:22:33Z</time>
      </trkpt>
      <trkpt lat="39.994442" lon="-2.1120844">
        <ele>968.0</ele>
        <time>2021-07-27T17:22:35Z</time>
      </trkpt>
      <trkpt lat="39.99454" lon="-2.1120818">
        <ele>968.0</ele>
        <time>2021-07-27T17:22:37Z</time>
      </trkpt>
      <trkpt lat="39.994625" lon="-2.112071">
        <ele>968.0</ele>
        <time>2021-07-27T17:22:39Z</time>
      </trkpt>
      <trkpt lat="39.994705" lon="-2.112054">
        <ele>968.0</ele>
        <time>2021-07-27T17:22:41Z</time>
      </trkpt>
      <trkpt lat="39.994785" lon="-2.1120358">
        <ele>968.0</ele>
        <time>2021-07-27T17:22:43Z</time>
      </trkpt>
      <trkpt lat="39.994858" lon="-2.1120207">
        <ele>968.0</ele>
        <time>2021-07-27T17:22:45Z</time>
      </trkpt>
      <trkpt lat="39.994934" lon="-2.1120174">
        <ele>968.0</ele>
        <time>2021-07-27T17:22:47Z</time>
      </trkpt>
      <trkpt lat="39.995003" lon="-2.112034">
        <ele>968.0</ele>
        <time>2021-07-27T17:22:49Z</time>
      </trkpt>
      <trkpt lat="39.995068" lon="-2.1120737">
        <ele>969.0</ele>
        <time>2021-07-27T17:22:51Z</time>
      </trkpt>
      <trkpt lat="39.995132" lon="-2.1121209">
        <ele>969.0</ele>
        <time>2021-07-27T17:22:53Z</time>
      </trkpt>
      <trkpt lat="39.995193" lon="-2.1121652">
        <ele>969.0</ele>
        <time>2021-07-27T17:22:55Z</time>
      </trkpt>
      <trkpt lat="39.99526" lon="-2.1122143">
        <ele>970.0</ele>
        <time>2021-07-27T17:22:57Z</time>
      </trkpt>
      <trkpt lat="39.995323" lon="-2.1122575">
        <ele>970.0</ele>
        <time>2021-07-27T17:22:59Z</time>
      </trkpt>
      <trkpt lat="39.99539" lon="-2.112285">
        <ele>970.0</ele>
        <time>2021-07-27T17:23:01Z</time>
      </trkpt>
      <trkpt lat="39.995464" lon="-2.1123095">
        <ele>971.0</ele>
        <time>2021-07-27T17:23:03Z</time>
      </trkpt>
      <trkpt lat="39.99553" lon="-2.1123357">
        <ele>971.0</ele>
        <time>2021-07-27T17:23:05Z</time>
      </trkpt>
      <trkpt lat="39.995583" lon="-2.1123807">
        <ele>971.0</ele>
        <time>2021-07-27T17:23:07Z</time>
      </trkpt>
      <trkpt lat="39.995625" lon="-2.112444">
        <ele>972.0</ele>
        <time>2021-07-27T17:23:09Z</time>
      </trkpt>
      <trkpt lat="39.99565" lon="-2.112517">
        <ele>972.0</ele>
        <time>2021-07-27T17:23:11Z</time>
      </trkpt>
      <trkpt lat="39.995663" lon="-2.112591">
        <ele>972.0</ele>
        <time>2021-07-27T17:23:13Z</time>
      </trkpt>
      <trkpt lat="39.995663" lon="-2.1126642">
        <ele>973.0</ele>
        <time>2021-07-27T17:23:15Z</time>
      </trkpt>
      <trkpt lat="39.99564" lon="-2.112736">
        <ele>973.0</ele>
        <time>2021-07-27T17:23:17Z</time>
      </trkpt>
      <trkpt lat="39.995613" lon="-2.1127968">
        <ele>974.0</ele>
        <time>2021-07-27T17:23:19Z</time>
      </trkpt>
      <trkpt lat="39.99558" lon="-2.1128492">
        <ele>974.0</ele>
        <time>2021-07-27T17:23:21Z</time>
      </trkpt>
      <trkpt lat="39.995544" lon="-2.1129055">
        <ele>974.0</ele>
        <time>2021-07-27T17:23:23Z</time>
      </trkpt>
      <trkpt lat="39.995506" lon="-2.1129627">
        <ele>974.0</ele>
        <time>2021-07-27T17:23:25Z</time>
      </trkpt>
      <trkpt lat="39.99546" lon="-2.1130257">
        <ele>974.0</ele>
        <time>2021-07-27T17:23:27Z</time>
      </trkpt>
      <trkpt lat="39.995403" lon="-2.1131027">
        <ele>974.0</ele>
        <time>2021-07-27T17:23:29Z</time>
      </trkpt>
      <trkpt lat="39.995342" lon="-2.113185">
        <ele>974.0</ele>
        <time>2021-07-27T17:23:31Z</time>
      </trkpt>
      <trkpt lat="39.995277" lon="-2.11328">
        <ele>974.0</ele>
        <time>2021-07-27T17:23:33Z</time>
      </trkpt>
      <trkpt lat="39.99524" lon="-2.113329">
        <ele>974.0</ele>
        <time>2021-07-27T17:23:34Z</time>
      </trkpt>
      <trkpt lat="39.99517" lon="-2.1134286">
        <ele>974.0</ele>
        <time>2021-07-27T17:23:36Z</time>
      </trkpt>
      <trkpt lat="39.995136" lon="-2.113477">
        <ele>974.0</ele>
        <time>2021-07-27T17:23:37Z</time>
      </trkpt>
      <trkpt lat="39.995102" lon="-2.113523">
        <ele>974.0</ele>
        <time>2021-07-27T17:23:38Z</time>
      </trkpt>
      <trkpt lat="39.995037" lon="-2.113609">
        <ele>974.0</ele>
        <time>2021-07-27T17:23:40Z</time>
      </trkpt>
      <trkpt lat="39.99498" lon="-2.113693">
        <ele>974.0</ele>
        <time>2021-07-27T17:23:42Z</time>
      </trkpt>
      <trkpt lat="39.994926" lon="-2.113776">
        <ele>974.0</ele>
        <time>2021-07-27T17:23:44Z</time>
      </trkpt>
      <trkpt lat="39.994873" lon="-2.1138546">
        <ele>974.0</ele>
        <time>2021-07-27T17:23:46Z</time>
      </trkpt>
      <trkpt lat="39.99482" lon="-2.113934">
        <ele>974.0</ele>
        <time>2021-07-27T17:23:48Z</time>
      </trkpt>
      <trkpt lat="39.994774" lon="-2.1140122">
        <ele>974.0</ele>
        <time>2021-07-27T17:23:50Z</time>
      </trkpt>
      <trkpt lat="39.99472" lon="-2.1140883">
        <ele>974.0</ele>
        <time>2021-07-27T17:23:52Z</time>
      </trkpt>
      <trkpt lat="39.99467" lon="-2.1141634">
        <ele>974.0</ele>
        <time>2021-07-27T17:23:54Z</time>
      </trkpt>
      <trkpt lat="39.994617" lon="-2.1142366">
        <ele>974.0</ele>
        <time>2021-07-27T17:23:56Z</time>
      </trkpt>
      <trkpt lat="39.99456" lon="-2.1143093">
        <ele>974.0</ele>
        <time>2021-07-27T17:23:58Z</time>
      </trkpt>
      <trkpt lat="39.994495" lon="-2.1143892">
        <ele>974.0</ele>
        <time>2021-07-27T17:24:00Z</time>
      </trkpt>
      <trkpt lat="39.994434" lon="-2.1144693">
        <ele>974.0</ele>
        <time>2021-07-27T17:24:02Z</time>
      </trkpt>
      <trkpt lat="39.99437" lon="-2.1145575">
        <ele>974.0</ele>
        <time>2021-07-27T17:24:04Z</time>
      </trkpt>
      <trkpt lat="39.994305" lon="-2.1146634">
        <ele>974.0</ele>
        <time>2021-07-27T17:24:06Z</time>
      </trkpt>
      <trkpt lat="39.994278" lon="-2.1147108">
        <ele>973.0</ele>
        <time>2021-07-27T17:24:07Z</time>
      </trkpt>
      <trkpt lat="39.994236" lon="-2.1147943">
        <ele>973.0</ele>
        <time>2021-07-27T17:24:09Z</time>
      </trkpt>
      <trkpt lat="39.994205" lon="-2.114866">
        <ele>973.0</ele>
        <time>2021-07-27T17:24:11Z</time>
      </trkpt>
      <trkpt lat="39.99417" lon="-2.1149287">
        <ele>973.0</ele>
        <time>2021-07-27T17:24:13Z</time>
      </trkpt>
      <trkpt lat="39.994137" lon="-2.114991">
        <ele>973.0</ele>
        <time>2021-07-27T17:24:15Z</time>
      </trkpt>
      <trkpt lat="39.9941" lon="-2.1150513">
        <ele>973.0</ele>
        <time>2021-07-27T17:24:17Z</time>
      </trkpt>
      <trkpt lat="39.994064" lon="-2.1151025">
        <ele>973.0</ele>
        <time>2021-07-27T17:24:19Z</time>
      </trkpt>
      <trkpt lat="39.994003" lon="-2.1151125">
        <ele>973.0</ele>
        <time>2021-07-27T17:24:22Z</time>
      </trkpt>
      <trkpt lat="39.993923" lon="-2.1150687">
        <ele>973.0</ele>
        <time>2021-07-27T17:24:25Z</time>
      </trkpt>
      <trkpt lat="39.993862" lon="-2.1150613">
        <ele>973.0</ele>
        <time>2021-07-27T17:24:27Z</time>
      </trkpt>
      <trkpt lat="39.993797" lon="-2.1150668">
        <ele>973.0</ele>
        <time>2021-07-27T17:24:29Z</time>
      </trkpt>
      <trkpt lat="39.99373" lon="-2.115072">
        <ele>972.0</ele>
        <time>2021-07-27T17:24:31Z</time>
      </trkpt>
      <trkpt lat="39.99365" lon="-2.1150706">
        <ele>972.0</ele>
        <time>2021-07-27T17:24:33Z</time>
      </trkpt>
      <trkpt lat="39.993572" lon="-2.1150713">
        <ele>972.0</ele>
        <time>2021-07-27T17:24:35Z</time>
      </trkpt>
      <trkpt lat="39.993484" lon="-2.1150742">
        <ele>972.0</ele>
        <time>2021-07-27T17:24:37Z</time>
      </trkpt>
      <trkpt lat="39.993404" lon="-2.1150742">
        <ele>972.0</ele>
        <time>2021-07-27T17:24:39Z</time>
      </trkpt>
      <trkpt lat="39.993313" lon="-2.1150694">
        <ele>972.0</ele>
        <time>2021-07-27T17:24:41Z</time>
      </trkpt>
      <trkpt lat="39.99322" lon="-2.1150649">
        <ele>972.0</ele>
        <time>2021-07-27T17:24:43Z</time>
      </trkpt>
      <trkpt lat="39.99313" lon="-2.115063">
        <ele>972.0</ele>
        <time>2021-07-27T17:24:45Z</time>
      </trkpt>
      <trkpt lat="39.993034" lon="-2.1150606">
        <ele>971.0</ele>
        <time>2021-07-27T17:24:47Z</time>
      </trkpt>
      <trkpt lat="39.99294" lon="-2.1150606">
        <ele>971.0</ele>
        <time>2021-07-27T17:24:49Z</time>
      </trkpt>
      <trkpt lat="39.99285" lon="-2.115062">
        <ele>971.0</ele>
        <time>2021-07-27T17:24:51Z</time>
      </trkpt>
      <trkpt lat="39.992767" lon="-2.1150606">
        <ele>971.0</ele>
        <time>2021-07-27T17:24:53Z</time>
      </trkpt>
      <trkpt lat="39.99268" lon="-2.115062">
        <ele>971.0</ele>
        <time>2021-07-27T17:24:55Z</time>
      </trkpt>
      <trkpt lat="39.992584" lon="-2.115062">
        <ele>971.0</ele>
        <time>2021-07-27T17:24:57Z</time>
      </trkpt>
      <trkpt lat="39.99249" lon="-2.115061">
        <ele>971.0</ele>
        <time>2021-07-27T17:24:59Z</time>
      </trkpt>
      <trkpt lat="39.99244" lon="-2.1150606">
        <ele>971.0</ele>
        <time>2021-07-27T17:25:00Z</time>
      </trkpt>
      <trkpt lat="39.992332" lon="-2.1150594">
        <ele>971.0</ele>
        <time>2021-07-27T17:25:02Z</time>
      </trkpt>
      <trkpt lat="39.992275" lon="-2.1150591">
        <ele>971.0</ele>
        <time>2021-07-27T17:25:03Z</time>
      </trkpt>
      <trkpt lat="39.99222" lon="-2.1150587">
        <ele>971.0</ele>
        <time>2021-07-27T17:25:04Z</time>
      </trkpt>
      <trkpt lat="39.992165" lon="-2.1150582">
        <ele>970.0</ele>
        <time>2021-07-27T17:25:05Z</time>
      </trkpt>
      <trkpt lat="39.99211" lon="-2.115058">
        <ele>970.0</ele>
        <time>2021-07-27T17:25:06Z</time>
      </trkpt>
      <trkpt lat="39.99206" lon="-2.1150572">
        <ele>970.0</ele>
        <time>2021-07-27T17:25:07Z</time>
      </trkpt>
      <trkpt lat="39.99195" lon="-2.1150582">
        <ele>970.0</ele>
        <time>2021-07-27T17:25:09Z</time>
      </trkpt>
      <trkpt lat="39.991898" lon="-2.1150582">
        <ele>970.0</ele>
        <time>2021-07-27T17:25:10Z</time>
      </trkpt>
      <trkpt lat="39.991848" lon="-2.1150582">
        <ele>970.0</ele>
        <time>2021-07-27T17:25:11Z</time>
      </trkpt>
      <trkpt lat="39.99179" lon="-2.1150577">
        <ele>970.0</ele>
        <time>2021-07-27T17:25:12Z</time>
      </trkpt>
      <trkpt lat="39.991737" lon="-2.1150568">
        <ele>970.0</ele>
        <time>2021-07-27T17:25:13Z</time>
      </trkpt>
      <trkpt lat="39.991684" lon="-2.1150572">
        <ele>970.0</ele>
        <time>2021-07-27T17:25:14Z</time>
      </trkpt>
      <trkpt lat="39.99163" lon="-2.1150587">
        <ele>969.0</ele>
        <time>2021-07-27T17:25:15Z</time>
      </trkpt>
      <trkpt lat="39.991577" lon="-2.1150622">
        <ele>969.0</ele>
        <time>2021-07-27T17:25:16Z</time>
      </trkpt>
      <trkpt lat="39.991528" lon="-2.115074">
        <ele>969.0</ele>
        <time>2021-07-27T17:25:17Z</time>
      </trkpt>
      <trkpt lat="39.991467" lon="-2.115123">
        <ele>969.0</ele>
        <time>2021-07-27T17:25:19Z</time>
      </trkpt>
      <trkpt lat="39.991444" lon="-2.1151962">
        <ele>969.0</ele>
        <time>2021-07-27T17:25:21Z</time>
      </trkpt>
      <trkpt lat="39.99145" lon="-2.115285">
        <ele>969.0</ele>
        <time>2021-07-27T17:25:23Z</time>
      </trkpt>
      <trkpt lat="39.99148" lon="-2.1153743">
        <ele>969.0</ele>
        <time>2021-07-27T17:25:25Z</time>
      </trkpt>
      <trkpt lat="39.99152" lon="-2.1154687">
        <ele>969.0</ele>
        <time>2021-07-27T17:25:27Z</time>
      </trkpt>
      <trkpt lat="39.99156" lon="-2.115572">
        <ele>969.0</ele>
        <time>2021-07-27T17:25:29Z</time>
      </trkpt>
      <trkpt lat="39.991604" lon="-2.115673">
        <ele>969.0</ele>
        <time>2021-07-27T17:25:31Z</time>
      </trkpt>
      <trkpt lat="39.991646" lon="-2.1157663">
        <ele>969.0</ele>
        <time>2021-07-27T17:25:33Z</time>
      </trkpt>
      <trkpt lat="39.991688" lon="-2.1158633">
        <ele>969.0</ele>
        <time>2021-07-27T17:25:35Z</time>
      </trkpt>
      <trkpt lat="39.99173" lon="-2.1159565">
        <ele>970.0</ele>
        <time>2021-07-27T17:25:37Z</time>
      </trkpt>
      <trkpt lat="39.991776" lon="-2.1160512">
        <ele>970.0</ele>
        <time>2021-07-27T17:25:39Z</time>
      </trkpt>
      <trkpt lat="39.99182" lon="-2.1161468">
        <ele>970.0</ele>
        <time>2021-07-27T17:25:41Z</time>
      </trkpt>
      <trkpt lat="39.991863" lon="-2.116248">
        <ele>970.0</ele>
        <time>2021-07-27T17:25:43Z</time>
      </trkpt>
      <trkpt lat="39.99191" lon="-2.1163492">
        <ele>970.0</ele>
        <time>2021-07-27T17:25:45Z</time>
      </trkpt>
      <trkpt lat="39.991955" lon="-2.1164422">
        <ele>970.0</ele>
        <time>2021-07-27T17:25:47Z</time>
      </trkpt>
      <trkpt lat="39.99201" lon="-2.116533">
        <ele>970.0</ele>
        <time>2021-07-27T17:25:49Z</time>
      </trkpt>
      <trkpt lat="39.99206" lon="-2.1166246">
        <ele>970.0</ele>
        <time>2021-07-27T17:25:51Z</time>
      </trkpt>
      <trkpt lat="39.99211" lon="-2.1167176">
        <ele>970.0</ele>
        <time>2021-07-27T17:25:53Z</time>
      </trkpt>
      <trkpt lat="39.992165" lon="-2.1168108">
        <ele>971.0</ele>
        <time>2021-07-27T17:25:55Z</time>
      </trkpt>
      <trkpt lat="39.992214" lon="-2.1169078">
        <ele>971.0</ele>
        <time>2021-07-27T17:25:57Z</time>
      </trkpt>
      <trkpt lat="39.992256" lon="-2.117009">
        <ele>971.0</ele>
        <time>2021-07-27T17:25:59Z</time>
      </trkpt>
      <trkpt lat="39.9923" lon="-2.1171126">
        <ele>971.0</ele>
        <time>2021-07-27T17:26:01Z</time>
      </trkpt>
      <trkpt lat="39.992344" lon="-2.1172159">
        <ele>971.0</ele>
        <time>2021-07-27T17:26:03Z</time>
      </trkpt>
      <trkpt lat="39.99239" lon="-2.1173205">
        <ele>971.0</ele>
        <time>2021-07-27T17:26:05Z</time>
      </trkpt>
      <trkpt lat="39.99243" lon="-2.1174276">
        <ele>971.0</ele>
        <time>2021-07-27T17:26:07Z</time>
      </trkpt>
      <trkpt lat="39.992477" lon="-2.1175358">
        <ele>971.0</ele>
        <time>2021-07-27T17:26:09Z</time>
      </trkpt>
      <trkpt lat="39.99252" lon="-2.1176493">
        <ele>972.0</ele>
        <time>2021-07-27T17:26:11Z</time>
      </trkpt>
      <trkpt lat="39.99254" lon="-2.1177032">
        <ele>972.0</ele>
        <time>2021-07-27T17:26:12Z</time>
      </trkpt>
      <trkpt lat="39.992603" lon="-2.1178656">
        <ele>972.0</ele>
        <time>2021-07-27T17:26:15Z</time>
      </trkpt>
      <trkpt lat="39.99264" lon="-2.1179774">
        <ele>972.0</ele>
        <time>2021-07-27T17:26:17Z</time>
      </trkpt>
      <trkpt lat="39.992672" lon="-2.1180825">
        <ele>972.0</ele>
        <time>2021-07-27T17:26:19Z</time>
      </trkpt>
      <trkpt lat="39.99271" lon="-2.1181962">
        <ele>972.0</ele>
        <time>2021-07-27T17:26:21Z</time>
      </trkpt>
      <trkpt lat="39.99274" lon="-2.1183069">
        <ele>972.0</ele>
        <time>2021-07-27T17:26:23Z</time>
      </trkpt>
      <trkpt lat="39.992767" lon="-2.118421">
        <ele>972.0</ele>
        <time>2021-07-27T17:26:25Z</time>
      </trkpt>
      <trkpt lat="39.992798" lon="-2.11854">
        <ele>972.0</ele>
        <time>2021-07-27T17:26:27Z</time>
      </trkpt>
      <trkpt lat="39.992825" lon="-2.1186633">
        <ele>972.0</ele>
        <time>2021-07-27T17:26:29Z</time>
      </trkpt>
      <trkpt lat="39.99285" lon="-2.118794">
        <ele>972.0</ele>
        <time>2021-07-27T17:26:31Z</time>
      </trkpt>
      <trkpt lat="39.992867" lon="-2.1188607">
        <ele>972.0</ele>
        <time>2021-07-27T17:26:32Z</time>
      </trkpt>
      <trkpt lat="39.99288" lon="-2.1189282">
        <ele>972.0</ele>
        <time>2021-07-27T17:26:33Z</time>
      </trkpt>
      <trkpt lat="39.992893" lon="-2.1189916">
        <ele>973.0</ele>
        <time>2021-07-27T17:26:34Z</time>
      </trkpt>
      <trkpt lat="39.99292" lon="-2.1191225">
        <ele>973.0</ele>
        <time>2021-07-27T17:26:36Z</time>
      </trkpt>
      <trkpt lat="39.992935" lon="-2.1191895">
        <ele>973.0</ele>
        <time>2021-07-27T17:26:37Z</time>
      </trkpt>
      <trkpt lat="39.99295" lon="-2.119258">
        <ele>973.0</ele>
        <time>2021-07-27T17:26:38Z</time>
      </trkpt>
      <trkpt lat="39.992966" lon="-2.1193273">
        <ele>973.0</ele>
        <time>2021-07-27T17:26:39Z</time>
      </trkpt>
      <trkpt lat="39.992977" lon="-2.1193967">
        <ele>973.0</ele>
        <time>2021-07-27T17:26:40Z</time>
      </trkpt>
      <trkpt lat="39.992992" lon="-2.1194663">
        <ele>973.0</ele>
        <time>2021-07-27T17:26:41Z</time>
      </trkpt>
      <trkpt lat="39.99301" lon="-2.1195397">
        <ele>973.0</ele>
        <time>2021-07-27T17:26:42Z</time>
      </trkpt>
      <trkpt lat="39.99303" lon="-2.1196125">
        <ele>973.0</ele>
        <time>2021-07-27T17:26:43Z</time>
      </trkpt>
      <trkpt lat="39.993046" lon="-2.1196795">
        <ele>973.0</ele>
        <time>2021-07-27T17:26:44Z</time>
      </trkpt>
      <trkpt lat="39.99306" lon="-2.119747">
        <ele>973.0</ele>
        <time>2021-07-27T17:26:45Z</time>
      </trkpt>
      <trkpt lat="39.99308" lon="-2.1198149">
        <ele>973.0</ele>
        <time>2021-07-27T17:26:46Z</time>
      </trkpt>
      <trkpt lat="39.9931" lon="-2.1198885">
        <ele>973.0</ele>
        <time>2021-07-27T17:26:47Z</time>
      </trkpt>
      <trkpt lat="39.993122" lon="-2.119961">
        <ele>973.0</ele>
        <time>2021-07-27T17:26:48Z</time>
      </trkpt>
      <trkpt lat="39.993145" lon="-2.1200337">
        <ele>973.0</ele>
        <time>2021-07-27T17:26:49Z</time>
      </trkpt>
      <trkpt lat="39.993164" lon="-2.1201007">
        <ele>973.0</ele>
        <time>2021-07-27T17:26:50Z</time>
      </trkpt>
      <trkpt lat="39.993183" lon="-2.1201692">
        <ele>973.0</ele>
        <time>2021-07-27T17:26:51Z</time>
      </trkpt>
      <trkpt lat="39.993206" lon="-2.1202378">
        <ele>973.0</ele>
        <time>2021-07-27T17:26:52Z</time>
      </trkpt>
      <trkpt lat="39.993225" lon="-2.1203113">
        <ele>973.0</ele>
        <time>2021-07-27T17:26:53Z</time>
      </trkpt>
      <trkpt lat="39.993248" lon="-2.1203852">
        <ele>973.0</ele>
        <time>2021-07-27T17:26:54Z</time>
      </trkpt>
      <trkpt lat="39.993275" lon="-2.1204581">
        <ele>973.0</ele>
        <time>2021-07-27T17:26:55Z</time>
      </trkpt>
      <trkpt lat="39.993294" lon="-2.1205263">
        <ele>973.0</ele>
        <time>2021-07-27T17:26:56Z</time>
      </trkpt>
      <trkpt lat="39.993317" lon="-2.120595">
        <ele>972.0</ele>
        <time>2021-07-27T17:26:57Z</time>
      </trkpt>
      <trkpt lat="39.99334" lon="-2.1206698">
        <ele>972.0</ele>
        <time>2021-07-27T17:26:58Z</time>
      </trkpt>
      <trkpt lat="39.993362" lon="-2.120743">
        <ele>972.0</ele>
        <time>2021-07-27T17:26:59Z</time>
      </trkpt>
      <trkpt lat="39.993385" lon="-2.1208158">
        <ele>972.0</ele>
        <time>2021-07-27T17:27:00Z</time>
      </trkpt>
      <trkpt lat="39.993404" lon="-2.120883">
        <ele>972.0</ele>
        <time>2021-07-27T17:27:01Z</time>
      </trkpt>
      <trkpt lat="39.993427" lon="-2.1209517">
        <ele>972.0</ele>
        <time>2021-07-27T17:27:02Z</time>
      </trkpt>
      <trkpt lat="39.99345" lon="-2.1210265">
        <ele>972.0</ele>
        <time>2021-07-27T17:27:03Z</time>
      </trkpt>
      <trkpt lat="39.993473" lon="-2.1211">
        <ele>972.0</ele>
        <time>2021-07-27T17:27:04Z</time>
      </trkpt>
      <trkpt lat="39.993496" lon="-2.1211739">
        <ele>972.0</ele>
        <time>2021-07-27T17:27:05Z</time>
      </trkpt>
      <trkpt lat="39.99352" lon="-2.1212423">
        <ele>972.0</ele>
        <time>2021-07-27T17:27:06Z</time>
      </trkpt>
      <trkpt lat="39.99354" lon="-2.1213129">
        <ele>972.0</ele>
        <time>2021-07-27T17:27:07Z</time>
      </trkpt>
      <trkpt lat="39.993565" lon="-2.1213846">
        <ele>972.0</ele>
        <time>2021-07-27T17:27:08Z</time>
      </trkpt>
      <trkpt lat="39.993587" lon="-2.121461">
        <ele>971.0</ele>
        <time>2021-07-27T17:27:09Z</time>
      </trkpt>
      <trkpt lat="39.99361" lon="-2.121535">
        <ele>971.0</ele>
        <time>2021-07-27T17:27:10Z</time>
      </trkpt>
      <trkpt lat="39.993633" lon="-2.121607">
        <ele>971.0</ele>
        <time>2021-07-27T17:27:11Z</time>
      </trkpt>
      <trkpt lat="39.993652" lon="-2.1216726">
        <ele>971.0</ele>
        <time>2021-07-27T17:27:12Z</time>
      </trkpt>
      <trkpt lat="39.993675" lon="-2.12174">
        <ele>971.0</ele>
        <time>2021-07-27T17:27:13Z</time>
      </trkpt>
      <trkpt lat="39.9937" lon="-2.1218114">
        <ele>971.0</ele>
        <time>2021-07-27T17:27:14Z</time>
      </trkpt>
      <trkpt lat="39.99372" lon="-2.1218812">
        <ele>971.0</ele>
        <time>2021-07-27T17:27:15Z</time>
      </trkpt>
      <trkpt lat="39.99374" lon="-2.1219497">
        <ele>971.0</ele>
        <time>2021-07-27T17:27:16Z</time>
      </trkpt>
      <trkpt lat="39.993763" lon="-2.1220129">
        <ele>971.0</ele>
        <time>2021-07-27T17:27:17Z</time>
      </trkpt>
      <trkpt lat="39.993805" lon="-2.1221478">
        <ele>971.0</ele>
        <time>2021-07-27T17:27:19Z</time>
      </trkpt>
      <trkpt lat="39.993828" lon="-2.122216">
        <ele>971.0</ele>
        <time>2021-07-27T17:27:20Z</time>
      </trkpt>
      <trkpt lat="39.99385" lon="-2.1222835">
        <ele>971.0</ele>
        <time>2021-07-27T17:27:21Z</time>
      </trkpt>
      <trkpt lat="39.993896" lon="-2.122407">
        <ele>971.0</ele>
        <time>2021-07-27T17:27:23Z</time>
      </trkpt>
      <trkpt lat="39.99392" lon="-2.122468">
        <ele>971.0</ele>
        <time>2021-07-27T17:27:24Z</time>
      </trkpt>
      <trkpt lat="39.99395" lon="-2.1225314">
        <ele>970.0</ele>
        <time>2021-07-27T17:27:25Z</time>
      </trkpt>
      <trkpt lat="39.993973" lon="-2.122593">
        <ele>970.0</ele>
        <time>2021-07-27T17:27:26Z</time>
      </trkpt>
      <trkpt lat="39.994003" lon="-2.1226535">
        <ele>970.0</ele>
        <time>2021-07-27T17:27:27Z</time>
      </trkpt>
      <trkpt lat="39.994026" lon="-2.1227133">
        <ele>970.0</ele>
        <time>2021-07-27T17:27:28Z</time>
      </trkpt>
      <trkpt lat="39.994057" lon="-2.122768">
        <ele>969.0</ele>
        <time>2021-07-27T17:27:29Z</time>
      </trkpt>
      <trkpt lat="39.994087" lon="-2.1228268">
        <ele>969.0</ele>
        <time>2021-07-27T17:27:30Z</time>
      </trkpt>
      <trkpt lat="39.994118" lon="-2.122885">
        <ele>969.0</ele>
        <time>2021-07-27T17:27:31Z</time>
      </trkpt>
      <trkpt lat="39.99415" lon="-2.122943">
        <ele>969.0</ele>
        <time>2021-07-27T17:27:32Z</time>
      </trkpt>
      <trkpt lat="39.994175" lon="-2.1230013">
        <ele>969.0</ele>
        <time>2021-07-27T17:27:33Z</time>
      </trkpt>
      <trkpt lat="39.994205" lon="-2.1230564">
        <ele>969.0</ele>
        <time>2021-07-27T17:27:34Z</time>
      </trkpt>
      <trkpt lat="39.994236" lon="-2.1231163">
        <ele>969.0</ele>
        <time>2021-07-27T17:27:35Z</time>
      </trkpt>
      <trkpt lat="39.99426" lon="-2.1231709">
        <ele>969.0</ele>
        <time>2021-07-27T17:27:36Z</time>
      </trkpt>
      <trkpt lat="39.994324" lon="-2.12328">
        <ele>970.0</ele>
        <time>2021-07-27T17:27:38Z</time>
      </trkpt>
      <trkpt lat="39.99435" lon="-2.1233342">
        <ele>970.0</ele>
        <time>2021-07-27T17:27:39Z</time>
      </trkpt>
      <trkpt lat="39.994408" lon="-2.123446">
        <ele>970.0</ele>
        <time>2021-07-27T17:27:41Z</time>
      </trkpt>
      <trkpt lat="39.994442" lon="-2.1235073">
        <ele>970.0</ele>
        <time>2021-07-27T17:27:42Z</time>
      </trkpt>
      <trkpt lat="39.994473" lon="-2.1235635">
        <ele>970.0</ele>
        <time>2021-07-27T17:27:43Z</time>
      </trkpt>
      <trkpt lat="39.994503" lon="-2.1236207">
        <ele>970.0</ele>
        <time>2021-07-27T17:27:44Z</time>
      </trkpt>
      <trkpt lat="39.994534" lon="-2.1236782">
        <ele>970.0</ele>
        <time>2021-07-27T17:27:45Z</time>
      </trkpt>
      <trkpt lat="39.994568" lon="-2.1237392">
        <ele>970.0</ele>
        <time>2021-07-27T17:27:46Z</time>
      </trkpt>
      <trkpt lat="39.9946" lon="-2.1237996">
        <ele>970.0</ele>
        <time>2021-07-27T17:27:47Z</time>
      </trkpt>
      <trkpt lat="39.99463" lon="-2.123859">
        <ele>970.0</ele>
        <time>2021-07-27T17:27:48Z</time>
      </trkpt>
      <trkpt lat="39.994656" lon="-2.1239142">
        <ele>970.0</ele>
        <time>2021-07-27T17:27:49Z</time>
      </trkpt>
      <trkpt lat="39.994717" lon="-2.1240253">
        <ele>970.0</ele>
        <time>2021-07-27T17:27:51Z</time>
      </trkpt>
      <trkpt lat="39.99475" lon="-2.1240773">
        <ele>970.0</ele>
        <time>2021-07-27T17:27:52Z</time>
      </trkpt>
      <trkpt lat="39.994785" lon="-2.124123">
        <ele>970.0</ele>
        <time>2021-07-27T17:27:53Z</time>
      </trkpt>
      <trkpt lat="39.99487" lon="-2.1241846">
        <ele>970.0</ele>
        <time>2021-07-27T17:27:55Z</time>
      </trkpt>
      <trkpt lat="39.994965" lon="-2.1242056">
        <ele>970.0</ele>
        <time>2021-07-27T17:27:57Z</time>
      </trkpt>
      <trkpt lat="39.995056" lon="-2.124204">
        <ele>970.0</ele>
        <time>2021-07-27T17:27:59Z</time>
      </trkpt>
      <trkpt lat="39.995148" lon="-2.1241922">
        <ele>971.0</ele>
        <time>2021-07-27T17:28:01Z</time>
      </trkpt>
      <trkpt lat="39.995193" lon="-2.1241844">
        <ele>971.0</ele>
        <time>2021-07-27T17:28:02Z</time>
      </trkpt>
      <trkpt lat="39.99529" lon="-2.124166">
        <ele>971.0</ele>
        <time>2021-07-27T17:28:04Z</time>
      </trkpt>
      <trkpt lat="39.995377" lon="-2.124147">
        <ele>971.0</ele>
        <time>2021-07-27T17:28:06Z</time>
      </trkpt>
      <trkpt lat="39.995464" lon="-2.12413">
        <ele>972.0</ele>
        <time>2021-07-27T17:28:08Z</time>
      </trkpt>
      <trkpt lat="39.995552" lon="-2.1241133">
        <ele>972.0</ele>
        <time>2021-07-27T17:28:10Z</time>
      </trkpt>
      <trkpt lat="39.995636" lon="-2.124095">
        <ele>972.0</ele>
        <time>2021-07-27T17:28:12Z</time>
      </trkpt>
      <trkpt lat="39.99572" lon="-2.124078">
        <ele>973.0</ele>
        <time>2021-07-27T17:28:14Z</time>
      </trkpt>
      <trkpt lat="39.9958" lon="-2.1240654">
        <ele>973.0</ele>
        <time>2021-07-27T17:28:16Z</time>
      </trkpt>
      <trkpt lat="39.99588" lon="-2.1240566">
        <ele>973.0</ele>
        <time>2021-07-27T17:28:18Z</time>
      </trkpt>
      <trkpt lat="39.99597" lon="-2.1240456">
        <ele>973.0</ele>
        <time>2021-07-27T17:28:20Z</time>
      </trkpt>
      <trkpt lat="39.996056" lon="-2.124032">
        <ele>973.0</ele>
        <time>2021-07-27T17:28:22Z</time>
      </trkpt>
      <trkpt lat="39.996143" lon="-2.1240203">
        <ele>974.0</ele>
        <time>2021-07-27T17:28:24Z</time>
      </trkpt>
      <trkpt lat="39.996227" lon="-2.1240053">
        <ele>974.0</ele>
        <time>2021-07-27T17:28:26Z</time>
      </trkpt>
      <trkpt lat="39.99632" lon="-2.1239934">
        <ele>974.0</ele>
        <time>2021-07-27T17:28:28Z</time>
      </trkpt>
      <trkpt lat="39.99641" lon="-2.1239865">
        <ele>974.0</ele>
        <time>2021-07-27T17:28:30Z</time>
      </trkpt>
      <trkpt lat="39.996502" lon="-2.123984">
        <ele>974.0</ele>
        <time>2021-07-27T17:28:32Z</time>
      </trkpt>
      <trkpt lat="39.996593" lon="-2.1239889">
        <ele>974.0</ele>
        <time>2021-07-27T17:28:34Z</time>
      </trkpt>
      <trkpt lat="39.996685" lon="-2.1240015">
        <ele>974.0</ele>
        <time>2021-07-27T17:28:36Z</time>
      </trkpt>
      <trkpt lat="39.996735" lon="-2.1240108">
        <ele>974.0</ele>
        <time>2021-07-27T17:28:37Z</time>
      </trkpt>
      <trkpt lat="39.996838" lon="-2.1240363">
        <ele>974.0</ele>
        <time>2021-07-27T17:28:39Z</time>
      </trkpt>
      <trkpt lat="39.99689" lon="-2.1240501">
        <ele>973.0</ele>
        <time>2021-07-27T17:28:40Z</time>
      </trkpt>
      <trkpt lat="39.996944" lon="-2.1240659">
        <ele>973.0</ele>
        <time>2021-07-27T17:28:41Z</time>
      </trkpt>
      <trkpt lat="39.996998" lon="-2.1240807">
        <ele>973.0</ele>
        <time>2021-07-27T17:28:42Z</time>
      </trkpt>
      <trkpt lat="39.99705" lon="-2.1240957">
        <ele>973.0</ele>
        <time>2021-07-27T17:28:43Z</time>
      </trkpt>
      <trkpt lat="39.99711" lon="-2.1241117">
        <ele>973.0</ele>
        <time>2021-07-27T17:28:44Z</time>
      </trkpt>
      <trkpt lat="39.997166" lon="-2.1241267">
        <ele>972.0</ele>
        <time>2021-07-27T17:28:45Z</time>
      </trkpt>
      <trkpt lat="39.997223" lon="-2.124143">
        <ele>972.0</ele>
        <time>2021-07-27T17:28:46Z</time>
      </trkpt>
      <trkpt lat="39.99728" lon="-2.12416">
        <ele>972.0</ele>
        <time>2021-07-27T17:28:47Z</time>
      </trkpt>
      <trkpt lat="39.99734" lon="-2.1241777">
        <ele>972.0</ele>
        <time>2021-07-27T17:28:48Z</time>
      </trkpt>
      <trkpt lat="39.9974" lon="-2.124196">
        <ele>972.0</ele>
        <time>2021-07-27T17:28:49Z</time>
      </trkpt>
      <trkpt lat="39.997463" lon="-2.1242163">
        <ele>972.0</ele>
        <time>2021-07-27T17:28:50Z</time>
      </trkpt>
      <trkpt lat="39.997524" lon="-2.1242359">
        <ele>972.0</ele>
        <time>2021-07-27T17:28:51Z</time>
      </trkpt>
      <trkpt lat="39.99758" lon="-2.1242533">
        <ele>972.0</ele>
        <time>2021-07-27T17:28:52Z</time>
      </trkpt>
      <trkpt lat="39.997646" lon="-2.1242695">
        <ele>971.0</ele>
        <time>2021-07-27T17:28:53Z</time>
      </trkpt>
      <trkpt lat="39.997704" lon="-2.1242843">
        <ele>971.0</ele>
        <time>2021-07-27T17:28:54Z</time>
      </trkpt>
      <trkpt lat="39.99777" lon="-2.124297">
        <ele>971.0</ele>
        <time>2021-07-27T17:28:55Z</time>
      </trkpt>
      <trkpt lat="39.997833" lon="-2.1243076">
        <ele>971.0</ele>
        <time>2021-07-27T17:28:56Z</time>
      </trkpt>
      <trkpt lat="39.997902" lon="-2.1243153">
        <ele>971.0</ele>
        <time>2021-07-27T17:28:57Z</time>
      </trkpt>
      <trkpt lat="39.997963" lon="-2.1243217">
        <ele>971.0</ele>
        <time>2021-07-27T17:28:58Z</time>
      </trkpt>
      <trkpt lat="39.998028" lon="-2.1243284">
        <ele>971.0</ele>
        <time>2021-07-27T17:28:59Z</time>
      </trkpt>
      <trkpt lat="39.998093" lon="-2.1243348">
        <ele>971.0</ele>
        <time>2021-07-27T17:29:00Z</time>
      </trkpt>
      <trkpt lat="39.998158" lon="-2.1243412">
        <ele>970.0</ele>
        <time>2021-07-27T17:29:01Z</time>
      </trkpt>
      <trkpt lat="39.998226" lon="-2.1243482">
        <ele>970.0</ele>
        <time>2021-07-27T17:29:02Z</time>
      </trkpt>
      <trkpt lat="39.998295" lon="-2.1243553">
        <ele>970.0</ele>
        <time>2021-07-27T17:29:03Z</time>
      </trkpt>
      <trkpt lat="39.998363" lon="-2.1243615">
        <ele>970.0</ele>
        <time>2021-07-27T17:29:04Z</time>
      </trkpt>
      <trkpt lat="39.998432" lon="-2.1243663">
        <ele>970.0</ele>
        <time>2021-07-27T17:29:05Z</time>
      </trkpt>
      <trkpt lat="39.9985" lon="-2.1243713">
        <ele>969.0</ele>
        <time>2021-07-27T17:29:06Z</time>
      </trkpt>
      <trkpt lat="39.99858" lon="-2.1243765">
        <ele>969.0</ele>
        <time>2021-07-27T17:29:07Z</time>
      </trkpt>
      <trkpt lat="39.99865" lon="-2.1243825">
        <ele>969.0</ele>
        <time>2021-07-27T17:29:08Z</time>
      </trkpt>
      <trkpt lat="39.99872" lon="-2.1243885">
        <ele>969.0</ele>
        <time>2021-07-27T17:29:09Z</time>
      </trkpt>
      <trkpt lat="39.99879" lon="-2.1243951">
        <ele>969.0</ele>
        <time>2021-07-27T17:29:10Z</time>
      </trkpt>
      <trkpt lat="39.998875" lon="-2.1244016">
        <ele>969.0</ele>
        <time>2021-07-27T17:29:11Z</time>
      </trkpt>
      <trkpt lat="39.998947" lon="-2.1244068">
        <ele>969.0</ele>
        <time>2021-07-27T17:29:12Z</time>
      </trkpt>
      <trkpt lat="39.999023" lon="-2.124413">
        <ele>968.0</ele>
        <time>2021-07-27T17:29:13Z</time>
      </trkpt>
      <trkpt lat="39.9991" lon="-2.1244202">
        <ele>968.0</ele>
        <time>2021-07-27T17:29:14Z</time>
      </trkpt>
      <trkpt lat="39.999176" lon="-2.1244285">
        <ele>968.0</ele>
        <time>2021-07-27T17:29:15Z</time>
      </trkpt>
      <trkpt lat="39.999256" lon="-2.1244385">
        <ele>968.0</ele>
        <time>2021-07-27T17:29:16Z</time>
      </trkpt>
      <trkpt lat="39.999336" lon="-2.1244519">
        <ele>968.0</ele>
        <time>2021-07-27T17:29:17Z</time>
      </trkpt>
      <trkpt lat="39.99942" lon="-2.1244686">
        <ele>967.0</ele>
        <time>2021-07-27T17:29:18Z</time>
      </trkpt>
      <trkpt lat="39.999493" lon="-2.124487">
        <ele>967.0</ele>
        <time>2021-07-27T17:29:19Z</time>
      </trkpt>
      <trkpt lat="39.99957" lon="-2.1245074">
        <ele>967.0</ele>
        <time>2021-07-27T17:29:20Z</time>
      </trkpt>
      <trkpt lat="39.999645" lon="-2.1245306">
        <ele>967.0</ele>
        <time>2021-07-27T17:29:21Z</time>
      </trkpt>
      <trkpt lat="39.99972" lon="-2.124555">
        <ele>967.0</ele>
        <time>2021-07-27T17:29:22Z</time>
      </trkpt>
      <trkpt lat="39.9998" lon="-2.1245828">
        <ele>966.0</ele>
        <time>2021-07-27T17:29:23Z</time>
      </trkpt>
      <trkpt lat="39.999878" lon="-2.1246095">
        <ele>966.0</ele>
        <time>2021-07-27T17:29:24Z</time>
      </trkpt>
      <trkpt lat="39.999954" lon="-2.1246374">
        <ele>966.0</ele>
        <time>2021-07-27T17:29:25Z</time>
      </trkpt>
      <trkpt lat="40.00003" lon="-2.1246657">
        <ele>966.0</ele>
        <time>2021-07-27T17:29:26Z</time>
      </trkpt>
      <trkpt lat="40.000114" lon="-2.1246965">
        <ele>966.0</ele>
        <time>2021-07-27T17:29:27Z</time>
      </trkpt>
      <trkpt lat="40.00019" lon="-2.1247258">
        <ele>965.0</ele>
        <time>2021-07-27T17:29:28Z</time>
      </trkpt>
      <trkpt lat="40.00027" lon="-2.1247547">
        <ele>965.0</ele>
        <time>2021-07-27T17:29:29Z</time>
      </trkpt>
      <trkpt lat="40.000343" lon="-2.1247814">
        <ele>965.0</ele>
        <time>2021-07-27T17:29:30Z</time>
      </trkpt>
      <trkpt lat="40.000492" lon="-2.1248367">
        <ele>965.0</ele>
        <time>2021-07-27T17:29:32Z</time>
      </trkpt>
      <trkpt lat="40.000565" lon="-2.1248627">
        <ele>965.0</ele>
        <time>2021-07-27T17:29:33Z</time>
      </trkpt>
      <trkpt lat="40.000637" lon="-2.12489">
        <ele>964.0</ele>
        <time>2021-07-27T17:29:34Z</time>
      </trkpt>
      <trkpt lat="40.00071" lon="-2.124917">
        <ele>964.0</ele>
        <time>2021-07-27T17:29:35Z</time>
      </trkpt>
      <trkpt lat="40.000782" lon="-2.1249442">
        <ele>964.0</ele>
        <time>2021-07-27T17:29:36Z</time>
      </trkpt>
      <trkpt lat="40.000854" lon="-2.1249707">
        <ele>964.0</ele>
        <time>2021-07-27T17:29:37Z</time>
      </trkpt>
      <trkpt lat="40.00093" lon="-2.1249998">
        <ele>964.0</ele>
        <time>2021-07-27T17:29:38Z</time>
      </trkpt>
      <trkpt lat="40.001007" lon="-2.1250274">
        <ele>963.0</ele>
        <time>2021-07-27T17:29:39Z</time>
      </trkpt>
      <trkpt lat="40.001076" lon="-2.1250522">
        <ele>963.0</ele>
        <time>2021-07-27T17:29:40Z</time>
      </trkpt>
      <trkpt lat="40.001144" lon="-2.1250756">
        <ele>963.0</ele>
        <time>2021-07-27T17:29:41Z</time>
      </trkpt>
      <trkpt lat="40.00121" lon="-2.125098">
        <ele>963.0</ele>
        <time>2021-07-27T17:29:42Z</time>
      </trkpt>
      <trkpt lat="40.001278" lon="-2.1251204">
        <ele>963.0</ele>
        <time>2021-07-27T17:29:43Z</time>
      </trkpt>
      <trkpt lat="40.00135" lon="-2.1251433">
        <ele>963.0</ele>
        <time>2021-07-27T17:29:44Z</time>
      </trkpt>
      <trkpt lat="40.001415" lon="-2.1251652">
        <ele>963.0</ele>
        <time>2021-07-27T17:29:45Z</time>
      </trkpt>
      <trkpt lat="40.001476" lon="-2.1251843">
        <ele>962.0</ele>
        <time>2021-07-27T17:29:46Z</time>
      </trkpt>
      <trkpt lat="40.00154" lon="-2.125204">
        <ele>962.0</ele>
        <time>2021-07-27T17:29:47Z</time>
      </trkpt>
      <trkpt lat="40.001602" lon="-2.1252244">
        <ele>962.0</ele>
        <time>2021-07-27T17:29:48Z</time>
      </trkpt>
      <trkpt lat="40.001663" lon="-2.1252458">
        <ele>962.0</ele>
        <time>2021-07-27T17:29:49Z</time>
      </trkpt>
      <trkpt lat="40.001724" lon="-2.125267">
        <ele>962.0</ele>
        <time>2021-07-27T17:29:50Z</time>
      </trkpt>
      <trkpt lat="40.001785" lon="-2.1252897">
        <ele>962.0</ele>
        <time>2021-07-27T17:29:51Z</time>
      </trkpt>
      <trkpt lat="40.001842" lon="-2.125313">
        <ele>962.0</ele>
        <time>2021-07-27T17:29:52Z</time>
      </trkpt>
      <trkpt lat="40.001907" lon="-2.1253366">
        <ele>962.0</ele>
        <time>2021-07-27T17:29:53Z</time>
      </trkpt>
      <trkpt lat="40.001965" lon="-2.125359">
        <ele>962.0</ele>
        <time>2021-07-27T17:29:54Z</time>
      </trkpt>
      <trkpt lat="40.002018" lon="-2.1253803">
        <ele>962.0</ele>
        <time>2021-07-27T17:29:55Z</time>
      </trkpt>
      <trkpt lat="40.002075" lon="-2.1254005">
        <ele>962.0</ele>
        <time>2021-07-27T17:29:56Z</time>
      </trkpt>
      <trkpt lat="40.00213" lon="-2.1254203">
        <ele>962.0</ele>
        <time>2021-07-27T17:29:57Z</time>
      </trkpt>
      <trkpt lat="40.002182" lon="-2.1254396">
        <ele>962.0</ele>
        <time>2021-07-27T17:29:58Z</time>
      </trkpt>
      <trkpt lat="40.002235" lon="-2.1254587">
        <ele>962.0</ele>
        <time>2021-07-27T17:29:59Z</time>
      </trkpt>
      <trkpt lat="40.002285" lon="-2.1254773">
        <ele>962.0</ele>
        <time>2021-07-27T17:30:00Z</time>
      </trkpt>
      <trkpt lat="40.00234" lon="-2.1254954">
        <ele>962.0</ele>
        <time>2021-07-27T17:30:01Z</time>
      </trkpt>
      <trkpt lat="40.002384" lon="-2.1255136">
        <ele>962.0</ele>
        <time>2021-07-27T17:30:02Z</time>
      </trkpt>
      <trkpt lat="40.002483" lon="-2.1255507">
        <ele>962.0</ele>
        <time>2021-07-27T17:30:04Z</time>
      </trkpt>
      <trkpt lat="40.002533" lon="-2.1255686">
        <ele>962.0</ele>
        <time>2021-07-27T17:30:05Z</time>
      </trkpt>
      <trkpt lat="40.00263" lon="-2.125604">
        <ele>962.0</ele>
        <time>2021-07-27T17:30:07Z</time>
      </trkpt>
      <trkpt lat="40.00272" lon="-2.1256385">
        <ele>962.0</ele>
        <time>2021-07-27T17:30:09Z</time>
      </trkpt>
      <trkpt lat="40.002815" lon="-2.1256735">
        <ele>963.0</ele>
        <time>2021-07-27T17:30:11Z</time>
      </trkpt>
      <trkpt lat="40.002907" lon="-2.1257076">
        <ele>963.0</ele>
        <time>2021-07-27T17:30:13Z</time>
      </trkpt>
      <trkpt lat="40.002956" lon="-2.1257246">
        <ele>963.0</ele>
        <time>2021-07-27T17:30:14Z</time>
      </trkpt>
      <trkpt lat="40.00305" lon="-2.1257567">
        <ele>963.0</ele>
        <time>2021-07-27T17:30:16Z</time>
      </trkpt>
      <trkpt lat="40.003147" lon="-2.1257896">
        <ele>963.0</ele>
        <time>2021-07-27T17:30:18Z</time>
      </trkpt>
      <trkpt lat="40.003242" lon="-2.1258252">
        <ele>963.0</ele>
        <time>2021-07-27T17:30:20Z</time>
      </trkpt>
      <trkpt lat="40.00335" lon="-2.1258643">
        <ele>963.0</ele>
        <time>2021-07-27T17:30:22Z</time>
      </trkpt>
      <trkpt lat="40.0034" lon="-2.125882">
        <ele>963.0</ele>
        <time>2021-07-27T17:30:23Z</time>
      </trkpt>
      <trkpt lat="40.003494" lon="-2.125917">
        <ele>963.0</ele>
        <time>2021-07-27T17:30:25Z</time>
      </trkpt>
      <trkpt lat="40.003593" lon="-2.1259518">
        <ele>963.0</ele>
        <time>2021-07-27T17:30:27Z</time>
      </trkpt>
      <trkpt lat="40.003647" lon="-2.1259692">
        <ele>963.0</ele>
        <time>2021-07-27T17:30:28Z</time>
      </trkpt>
      <trkpt lat="40.003693" lon="-2.1259866">
        <ele>963.0</ele>
        <time>2021-07-27T17:30:29Z</time>
      </trkpt>
      <trkpt lat="40.003796" lon="-2.1260178">
        <ele>963.0</ele>
        <time>2021-07-27T17:30:31Z</time>
      </trkpt>
      <trkpt lat="40.00384" lon="-2.1260326">
        <ele>963.0</ele>
        <time>2021-07-27T17:30:32Z</time>
      </trkpt>
      <trkpt lat="40.00394" lon="-2.126064">
        <ele>963.0</ele>
        <time>2021-07-27T17:30:34Z</time>
      </trkpt>
      <trkpt lat="40.00399" lon="-2.126081">
        <ele>964.0</ele>
        <time>2021-07-27T17:30:35Z</time>
      </trkpt>
      <trkpt lat="40.00409" lon="-2.1261182">
        <ele>964.0</ele>
        <time>2021-07-27T17:30:37Z</time>
      </trkpt>
      <trkpt lat="40.00414" lon="-2.126136">
        <ele>964.0</ele>
        <time>2021-07-27T17:30:38Z</time>
      </trkpt>
      <trkpt lat="40.00423" lon="-2.1261709">
        <ele>964.0</ele>
        <time>2021-07-27T17:30:40Z</time>
      </trkpt>
      <trkpt lat="40.00433" lon="-2.1262069">
        <ele>964.0</ele>
        <time>2021-07-27T17:30:42Z</time>
      </trkpt>
      <trkpt lat="40.004425" lon="-2.1262417">
        <ele>964.0</ele>
        <time>2021-07-27T17:30:44Z</time>
      </trkpt>
      <trkpt lat="40.00448" lon="-2.1262586">
        <ele>964.0</ele>
        <time>2021-07-27T17:30:45Z</time>
      </trkpt>
      <trkpt lat="40.004578" lon="-2.1262946">
        <ele>964.0</ele>
        <time>2021-07-27T17:30:47Z</time>
      </trkpt>
      <trkpt lat="40.004627" lon="-2.1263132">
        <ele>964.0</ele>
        <time>2021-07-27T17:30:48Z</time>
      </trkpt>
      <trkpt lat="40.00468" lon="-2.1263316">
        <ele>964.0</ele>
        <time>2021-07-27T17:30:49Z</time>
      </trkpt>
      <trkpt lat="40.00473" lon="-2.1263502">
        <ele>964.0</ele>
        <time>2021-07-27T17:30:50Z</time>
      </trkpt>
      <trkpt lat="40.004784" lon="-2.1263685">
        <ele>964.0</ele>
        <time>2021-07-27T17:30:51Z</time>
      </trkpt>
      <trkpt lat="40.004883" lon="-2.1264026">
        <ele>964.0</ele>
        <time>2021-07-27T17:30:53Z</time>
      </trkpt>
      <trkpt lat="40.004932" lon="-2.1264195">
        <ele>964.0</ele>
        <time>2021-07-27T17:30:54Z</time>
      </trkpt>
      <trkpt lat="40.004982" lon="-2.126437">
        <ele>964.0</ele>
        <time>2021-07-27T17:30:55Z</time>
      </trkpt>
      <trkpt lat="40.00503" lon="-2.1264546">
        <ele>964.0</ele>
        <time>2021-07-27T17:30:56Z</time>
      </trkpt>
      <trkpt lat="40.005085" lon="-2.126473">
        <ele>964.0</ele>
        <time>2021-07-27T17:30:57Z</time>
      </trkpt>
      <trkpt lat="40.005188" lon="-2.12651">
        <ele>964.0</ele>
        <time>2021-07-27T17:30:59Z</time>
      </trkpt>
      <trkpt lat="40.00524" lon="-2.1265283">
        <ele>964.0</ele>
        <time>2021-07-27T17:31:00Z</time>
      </trkpt>
      <trkpt lat="40.005337" lon="-2.126566">
        <ele>964.0</ele>
        <time>2021-07-27T17:31:02Z</time>
      </trkpt>
      <trkpt lat="40.005386" lon="-2.126585">
        <ele>964.0</ele>
        <time>2021-07-27T17:31:03Z</time>
      </trkpt>
      <trkpt lat="40.00548" lon="-2.126626">
        <ele>964.0</ele>
        <time>2021-07-27T17:31:05Z</time>
      </trkpt>
      <trkpt lat="40.00553" lon="-2.126649">
        <ele>964.0</ele>
        <time>2021-07-27T17:31:06Z</time>
      </trkpt>
      <trkpt lat="40.005623" lon="-2.1266992">
        <ele>964.0</ele>
        <time>2021-07-27T17:31:08Z</time>
      </trkpt>
      <trkpt lat="40.005714" lon="-2.1267555">
        <ele>964.0</ele>
        <time>2021-07-27T17:31:10Z</time>
      </trkpt>
      <trkpt lat="40.00576" lon="-2.126788">
        <ele>964.0</ele>
        <time>2021-07-27T17:31:11Z</time>
      </trkpt>
      <trkpt lat="40.00584" lon="-2.1268659">
        <ele>964.0</ele>
        <time>2021-07-27T17:31:13Z</time>
      </trkpt>
      <trkpt lat="40.00588" lon="-2.126912">
        <ele>964.0</ele>
        <time>2021-07-27T17:31:14Z</time>
      </trkpt>
      <trkpt lat="40.005943" lon="-2.1270216">
        <ele>964.0</ele>
        <time>2021-07-27T17:31:16Z</time>
      </trkpt>
      <trkpt lat="40.006" lon="-2.1271381">
        <ele>964.0</ele>
        <time>2021-07-27T17:31:18Z</time>
      </trkpt>
      <trkpt lat="40.006027" lon="-2.1271966">
        <ele>964.0</ele>
        <time>2021-07-27T17:31:19Z</time>
      </trkpt>
      <trkpt lat="40.006054" lon="-2.1272542">
        <ele>964.0</ele>
        <time>2021-07-27T17:31:20Z</time>
      </trkpt>
      <trkpt lat="40.006084" lon="-2.127309">
        <ele>964.0</ele>
        <time>2021-07-27T17:31:21Z</time>
      </trkpt>
      <trkpt lat="40.00614" lon="-2.1274097">
        <ele>964.0</ele>
        <time>2021-07-27T17:31:23Z</time>
      </trkpt>
      <trkpt lat="40.006207" lon="-2.127504">
        <ele>964.0</ele>
        <time>2021-07-27T17:31:25Z</time>
      </trkpt>
      <trkpt lat="40.00624" lon="-2.1275516">
        <ele>964.0</ele>
        <time>2021-07-27T17:31:26Z</time>
      </trkpt>
      <trkpt lat="40.00631" lon="-2.12765">
        <ele>964.0</ele>
        <time>2021-07-27T17:31:28Z</time>
      </trkpt>
      <trkpt lat="40.006348" lon="-2.1277">
        <ele>964.0</ele>
        <time>2021-07-27T17:31:29Z</time>
      </trkpt>
      <trkpt lat="40.006386" lon="-2.127751">
        <ele>964.0</ele>
        <time>2021-07-27T17:31:30Z</time>
      </trkpt>
      <trkpt lat="40.006424" lon="-2.1278052">
        <ele>964.0</ele>
        <time>2021-07-27T17:31:31Z</time>
      </trkpt>
      <trkpt lat="40.006462" lon="-2.1278555">
        <ele>964.0</ele>
        <time>2021-07-27T17:31:32Z</time>
      </trkpt>
      <trkpt lat="40.0065" lon="-2.1279066">
        <ele>964.0</ele>
        <time>2021-07-27T17:31:33Z</time>
      </trkpt>
      <trkpt lat="40.006535" lon="-2.1279573">
        <ele>964.0</ele>
        <time>2021-07-27T17:31:34Z</time>
      </trkpt>
      <trkpt lat="40.006573" lon="-2.1280088">
        <ele>964.0</ele>
        <time>2021-07-27T17:31:35Z</time>
      </trkpt>
      <trkpt lat="40.00661" lon="-2.12806">
        <ele>964.0</ele>
        <time>2021-07-27T17:31:36Z</time>
      </trkpt>
      <trkpt lat="40.00665" lon="-2.1281118">
        <ele>964.0</ele>
        <time>2021-07-27T17:31:37Z</time>
      </trkpt>
      <trkpt lat="40.006687" lon="-2.1281636">
        <ele>964.0</ele>
        <time>2021-07-27T17:31:38Z</time>
      </trkpt>
      <trkpt lat="40.006725" lon="-2.1282148">
        <ele>964.0</ele>
        <time>2021-07-27T17:31:39Z</time>
      </trkpt>
      <trkpt lat="40.006763" lon="-2.1282663">
        <ele>964.0</ele>
        <time>2021-07-27T17:31:40Z</time>
      </trkpt>
      <trkpt lat="40.0068" lon="-2.128317">
        <ele>964.0</ele>
        <time>2021-07-27T17:31:41Z</time>
      </trkpt>
      <trkpt lat="40.00684" lon="-2.1283667">
        <ele>964.0</ele>
        <time>2021-07-27T17:31:42Z</time>
      </trkpt>
      <trkpt lat="40.006878" lon="-2.128416">
        <ele>964.0</ele>
        <time>2021-07-27T17:31:43Z</time>
      </trkpt>
      <trkpt lat="40.00695" lon="-2.1285114">
        <ele>964.0</ele>
        <time>2021-07-27T17:31:45Z</time>
      </trkpt>
      <trkpt lat="40.007027" lon="-2.1286044">
        <ele>964.0</ele>
        <time>2021-07-27T17:31:47Z</time>
      </trkpt>
      <trkpt lat="40.00707" lon="-2.1286497">
        <ele>964.0</ele>
        <time>2021-07-27T17:31:48Z</time>
      </trkpt>
      <trkpt lat="40.007103" lon="-2.1286907">
        <ele>964.0</ele>
        <time>2021-07-27T17:31:49Z</time>
      </trkpt>
      <trkpt lat="40.007187" lon="-2.1287718">
        <ele>965.0</ele>
        <time>2021-07-27T17:31:51Z</time>
      </trkpt>
      <trkpt lat="40.00723" lon="-2.1288102">
        <ele>965.0</ele>
        <time>2021-07-27T17:31:52Z</time>
      </trkpt>
      <trkpt lat="40.00732" lon="-2.128884">
        <ele>965.0</ele>
        <time>2021-07-27T17:31:54Z</time>
      </trkpt>
      <trkpt lat="40.007366" lon="-2.12892">
        <ele>965.0</ele>
        <time>2021-07-27T17:31:55Z</time>
      </trkpt>
      <trkpt lat="40.007412" lon="-2.1289542">
        <ele>965.0</ele>
        <time>2021-07-27T17:31:56Z</time>
      </trkpt>
      <trkpt lat="40.00746" lon="-2.1289895">
        <ele>965.0</ele>
        <time>2021-07-27T17:31:57Z</time>
      </trkpt>
      <trkpt lat="40.00751" lon="-2.1290212">
        <ele>965.0</ele>
        <time>2021-07-27T17:31:58Z</time>
      </trkpt>
      <trkpt lat="40.007557" lon="-2.1290522">
        <ele>965.0</ele>
        <time>2021-07-27T17:31:59Z</time>
      </trkpt>
      <trkpt lat="40.007652" lon="-2.1291127">
        <ele>965.0</ele>
        <time>2021-07-27T17:32:01Z</time>
      </trkpt>
      <trkpt lat="40.0077" lon="-2.129145">
        <ele>965.0</ele>
        <time>2021-07-27T17:32:02Z</time>
      </trkpt>
      <trkpt lat="40.007748" lon="-2.1291745">
        <ele>966.0</ele>
        <time>2021-07-27T17:32:03Z</time>
      </trkpt>
      <trkpt lat="40.007843" lon="-2.129233">
        <ele>966.0</ele>
        <time>2021-07-27T17:32:05Z</time>
      </trkpt>
      <trkpt lat="40.007893" lon="-2.129262">
        <ele>966.0</ele>
        <time>2021-07-27T17:32:06Z</time>
      </trkpt>
      <trkpt lat="40.00794" lon="-2.129291">
        <ele>966.0</ele>
        <time>2021-07-27T17:32:07Z</time>
      </trkpt>
      <trkpt lat="40.00803" lon="-2.129347">
        <ele>966.0</ele>
        <time>2021-07-27T17:32:09Z</time>
      </trkpt>
      <trkpt lat="40.008114" lon="-2.1293998">
        <ele>966.0</ele>
        <time>2021-07-27T17:32:11Z</time>
      </trkpt>
      <trkpt lat="40.008198" lon="-2.12945">
        <ele>966.0</ele>
        <time>2021-07-27T17:32:13Z</time>
      </trkpt>
      <trkpt lat="40.00824" lon="-2.1294742">
        <ele>966.0</ele>
        <time>2021-07-27T17:32:14Z</time>
      </trkpt>
      <trkpt lat="40.008316" lon="-2.1295233">
        <ele>967.0</ele>
        <time>2021-07-27T17:32:16Z</time>
      </trkpt>
      <trkpt lat="40.008392" lon="-2.129575">
        <ele>967.0</ele>
        <time>2021-07-27T17:32:18Z</time>
      </trkpt>
      <trkpt lat="40.008472" lon="-2.1296268">
        <ele>967.0</ele>
        <time>2021-07-27T17:32:20Z</time>
      </trkpt>
      <trkpt lat="40.00855" lon="-2.1296775">
        <ele>967.0</ele>
        <time>2021-07-27T17:32:22Z</time>
      </trkpt>
      <trkpt lat="40.00863" lon="-2.1297283">
        <ele>967.0</ele>
        <time>2021-07-27T17:32:24Z</time>
      </trkpt>
      <trkpt lat="40.00871" lon="-2.129777">
        <ele>968.0</ele>
        <time>2021-07-27T17:32:26Z</time>
      </trkpt>
      <trkpt lat="40.00879" lon="-2.1298254">
        <ele>968.0</ele>
        <time>2021-07-27T17:32:28Z</time>
      </trkpt>
      <trkpt lat="40.00887" lon="-2.129876">
        <ele>968.0</ele>
        <time>2021-07-27T17:32:30Z</time>
      </trkpt>
      <trkpt lat="40.008945" lon="-2.1299264">
        <ele>968.0</ele>
        <time>2021-07-27T17:32:32Z</time>
      </trkpt>
      <trkpt lat="40.009026" lon="-2.1299767">
        <ele>968.0</ele>
        <time>2021-07-27T17:32:34Z</time>
      </trkpt>
      <trkpt lat="40.0091" lon="-2.1300232">
        <ele>969.0</ele>
        <time>2021-07-27T17:32:36Z</time>
      </trkpt>
      <trkpt lat="40.00918" lon="-2.1300704">
        <ele>969.0</ele>
        <time>2021-07-27T17:32:38Z</time>
      </trkpt>
      <trkpt lat="40.00925" lon="-2.1301181">
        <ele>969.0</ele>
        <time>2021-07-27T17:32:40Z</time>
      </trkpt>
      <trkpt lat="40.009327" lon="-2.1301663">
        <ele>969.0</ele>
        <time>2021-07-27T17:32:42Z</time>
      </trkpt>
      <trkpt lat="40.009403" lon="-2.1302135">
        <ele>970.0</ele>
        <time>2021-07-27T17:32:44Z</time>
      </trkpt>
      <trkpt lat="40.009483" lon="-2.1302624">
        <ele>970.0</ele>
        <time>2021-07-27T17:32:46Z</time>
      </trkpt>
      <trkpt lat="40.009556" lon="-2.1303098">
        <ele>970.0</ele>
        <time>2021-07-27T17:32:48Z</time>
      </trkpt>
      <trkpt lat="40.00967" lon="-2.1303828">
        <ele>970.0</ele>
        <time>2021-07-27T17:32:51Z</time>
      </trkpt>
      <trkpt lat="40.00975" lon="-2.1304336">
        <ele>970.0</ele>
        <time>2021-07-27T17:32:53Z</time>
      </trkpt>
      <trkpt lat="40.00983" lon="-2.1304834">
        <ele>971.0</ele>
        <time>2021-07-27T17:32:55Z</time>
      </trkpt>
      <trkpt lat="40.009907" lon="-2.130533">
        <ele>971.0</ele>
        <time>2021-07-27T17:32:57Z</time>
      </trkpt>
      <trkpt lat="40.009987" lon="-2.1305819">
        <ele>971.0</ele>
        <time>2021-07-27T17:32:59Z</time>
      </trkpt>
      <trkpt lat="40.010067" lon="-2.1306324">
        <ele>971.0</ele>
        <time>2021-07-27T17:33:01Z</time>
      </trkpt>
      <trkpt lat="40.010147" lon="-2.130684">
        <ele>971.0</ele>
        <time>2021-07-27T17:33:03Z</time>
      </trkpt>
      <trkpt lat="40.010223" lon="-2.130734">
        <ele>972.0</ele>
        <time>2021-07-27T17:33:05Z</time>
      </trkpt>
      <trkpt lat="40.0103" lon="-2.130782">
        <ele>972.0</ele>
        <time>2021-07-27T17:33:07Z</time>
      </trkpt>
      <trkpt lat="40.01038" lon="-2.1308293">
        <ele>972.0</ele>
        <time>2021-07-27T17:33:09Z</time>
      </trkpt>
      <trkpt lat="40.010456" lon="-2.1308796">
        <ele>972.0</ele>
        <time>2021-07-27T17:33:11Z</time>
      </trkpt>
      <trkpt lat="40.010532" lon="-2.1309292">
        <ele>973.0</ele>
        <time>2021-07-27T17:33:13Z</time>
      </trkpt>
      <trkpt lat="40.01061" lon="-2.130977">
        <ele>973.0</ele>
        <time>2021-07-27T17:33:15Z</time>
      </trkpt>
      <trkpt lat="40.01069" lon="-2.1310263">
        <ele>973.0</ele>
        <time>2021-07-27T17:33:17Z</time>
      </trkpt>
      <trkpt lat="40.01077" lon="-2.1310725">
        <ele>973.0</ele>
        <time>2021-07-27T17:33:19Z</time>
      </trkpt>
      <trkpt lat="40.010845" lon="-2.1311214">
        <ele>973.0</ele>
        <time>2021-07-27T17:33:21Z</time>
      </trkpt>
      <trkpt lat="40.010918" lon="-2.1311696">
        <ele>974.0</ele>
        <time>2021-07-27T17:33:23Z</time>
      </trkpt>
      <trkpt lat="40.01099" lon="-2.1312156">
        <ele>974.0</ele>
        <time>2021-07-27T17:33:25Z</time>
      </trkpt>
      <trkpt lat="40.011063" lon="-2.1312606">
        <ele>974.0</ele>
        <time>2021-07-27T17:33:27Z</time>
      </trkpt>
      <trkpt lat="40.01114" lon="-2.1313066">
        <ele>974.0</ele>
        <time>2021-07-27T17:33:29Z</time>
      </trkpt>
      <trkpt lat="40.01121" lon="-2.1313534">
        <ele>974.0</ele>
        <time>2021-07-27T17:33:31Z</time>
      </trkpt>
      <trkpt lat="40.011288" lon="-2.1314032">
        <ele>975.0</ele>
        <time>2021-07-27T17:33:33Z</time>
      </trkpt>
      <trkpt lat="40.01136" lon="-2.13145">
        <ele>975.0</ele>
        <time>2021-07-27T17:33:35Z</time>
      </trkpt>
      <trkpt lat="40.011433" lon="-2.1314974">
        <ele>975.0</ele>
        <time>2021-07-27T17:33:37Z</time>
      </trkpt>
      <trkpt lat="40.011505" lon="-2.1315439">
        <ele>975.0</ele>
        <time>2021-07-27T17:33:39Z</time>
      </trkpt>
      <trkpt lat="40.011578" lon="-2.131591">
        <ele>976.0</ele>
        <time>2021-07-27T17:33:41Z</time>
      </trkpt>
      <trkpt lat="40.01165" lon="-2.1316402">
        <ele>976.0</ele>
        <time>2021-07-27T17:33:43Z</time>
      </trkpt>
      <trkpt lat="40.011726" lon="-2.1316893">
        <ele>976.0</ele>
        <time>2021-07-27T17:33:45Z</time>
      </trkpt>
      <trkpt lat="40.0118" lon="-2.1317377">
        <ele>976.0</ele>
        <time>2021-07-27T17:33:47Z</time>
      </trkpt>
      <trkpt lat="40.01187" lon="-2.1317854">
        <ele>977.0</ele>
        <time>2021-07-27T17:33:49Z</time>
      </trkpt>
      <trkpt lat="40.011944" lon="-2.1318314">
        <ele>977.0</ele>
        <time>2021-07-27T17:33:51Z</time>
      </trkpt>
      <trkpt lat="40.01205" lon="-2.1318948">
        <ele>977.0</ele>
        <time>2021-07-27T17:33:54Z</time>
      </trkpt>
      <trkpt lat="40.01212" lon="-2.1319373">
        <ele>977.0</ele>
        <time>2021-07-27T17:33:56Z</time>
      </trkpt>
      <trkpt lat="40.012188" lon="-2.13198">
        <ele>978.0</ele>
        <time>2021-07-27T17:33:58Z</time>
      </trkpt>
      <trkpt lat="40.012257" lon="-2.1320236">
        <ele>978.0</ele>
        <time>2021-07-27T17:34:00Z</time>
      </trkpt>
      <trkpt lat="40.012325" lon="-2.132067">
        <ele>978.0</ele>
        <time>2021-07-27T17:34:02Z</time>
      </trkpt>
      <trkpt lat="40.012394" lon="-2.1321123">
        <ele>978.0</ele>
        <time>2021-07-27T17:34:04Z</time>
      </trkpt>
      <trkpt lat="40.012474" lon="-2.1321602">
        <ele>979.0</ele>
        <time>2021-07-27T17:34:06Z</time>
      </trkpt>
      <trkpt lat="40.012543" lon="-2.132204">
        <ele>979.0</ele>
        <time>2021-07-27T17:34:08Z</time>
      </trkpt>
      <trkpt lat="40.012615" lon="-2.1322496">
        <ele>979.0</ele>
        <time>2021-07-27T17:34:10Z</time>
      </trkpt>
      <trkpt lat="40.012688" lon="-2.1322951">
        <ele>979.0</ele>
        <time>2021-07-27T17:34:12Z</time>
      </trkpt>
      <trkpt lat="40.01276" lon="-2.132341">
        <ele>980.0</ele>
        <time>2021-07-27T17:34:14Z</time>
      </trkpt>
      <trkpt lat="40.012836" lon="-2.1323855">
        <ele>980.0</ele>
        <time>2021-07-27T17:34:16Z</time>
      </trkpt>
      <trkpt lat="40.01291" lon="-2.132427">
        <ele>980.0</ele>
        <time>2021-07-27T17:34:18Z</time>
      </trkpt>
      <trkpt lat="40.01298" lon="-2.1324668">
        <ele>980.0</ele>
        <time>2021-07-27T17:34:20Z</time>
      </trkpt>
      <trkpt lat="40.013058" lon="-2.1325028">
        <ele>981.0</ele>
        <time>2021-07-27T17:34:22Z</time>
      </trkpt>
      <trkpt lat="40.013126" lon="-2.1325285">
        <ele>981.0</ele>
        <time>2021-07-27T17:34:24Z</time>
      </trkpt>
      <trkpt lat="40.01316" lon="-2.1325436">
        <ele>981.0</ele>
        <time>2021-07-27T17:34:29Z</time>
      </trkpt>
      <trkpt lat="40.013268" lon="-2.1325734">
        <ele>981.0</ele>
        <time>2021-07-27T17:34:49Z</time>
      </trkpt>
      <trkpt lat="40.013344" lon="-2.1325858">
        <ele>981.0</ele>
        <time>2021-07-27T17:34:51Z</time>
      </trkpt>
      <trkpt lat="40.01344" lon="-2.1325998">
        <ele>981.0</ele>
        <time>2021-07-27T17:34:53Z</time>
      </trkpt>
      <trkpt lat="40.013493" lon="-2.1326075">
        <ele>981.0</ele>
        <time>2021-07-27T17:34:54Z</time>
      </trkpt>
      <trkpt lat="40.013546" lon="-2.1326134">
        <ele>981.0</ele>
        <time>2021-07-27T17:34:55Z</time>
      </trkpt>
      <trkpt lat="40.0136" lon="-2.1326172">
        <ele>981.0</ele>
        <time>2021-07-27T17:34:56Z</time>
      </trkpt>
      <trkpt lat="40.013718" lon="-2.1326244">
        <ele>981.0</ele>
        <time>2021-07-27T17:34:58Z</time>
      </trkpt>
      <trkpt lat="40.013775" lon="-2.1326275">
        <ele>981.0</ele>
        <time>2021-07-27T17:34:59Z</time>
      </trkpt>
      <trkpt lat="40.013836" lon="-2.13263">
        <ele>981.0</ele>
        <time>2021-07-27T17:35:00Z</time>
      </trkpt>
      <trkpt lat="40.01389" lon="-2.1326323">
        <ele>981.0</ele>
        <time>2021-07-27T17:35:01Z</time>
      </trkpt>
      <trkpt lat="40.013954" lon="-2.132636">
        <ele>981.0</ele>
        <time>2021-07-27T17:35:02Z</time>
      </trkpt>
      <trkpt lat="40.014015" lon="-2.1326408">
        <ele>980.0</ele>
        <time>2021-07-27T17:35:03Z</time>
      </trkpt>
      <trkpt lat="40.014076" lon="-2.132646">
        <ele>980.0</ele>
        <time>2021-07-27T17:35:04Z</time>
      </trkpt>
      <trkpt lat="40.01414" lon="-2.132651">
        <ele>980.0</ele>
        <time>2021-07-27T17:35:05Z</time>
      </trkpt>
      <trkpt lat="40.014202" lon="-2.1326559">
        <ele>980.0</ele>
        <time>2021-07-27T17:35:06Z</time>
      </trkpt>
      <trkpt lat="40.014263" lon="-2.1326604">
        <ele>980.0</ele>
        <time>2021-07-27T17:35:07Z</time>
      </trkpt>
      <trkpt lat="40.01433" lon="-2.1326659">
        <ele>980.0</ele>
        <time>2021-07-27T17:35:08Z</time>
      </trkpt>
      <trkpt lat="40.0144" lon="-2.1326718">
        <ele>980.0</ele>
        <time>2021-07-27T17:35:09Z</time>
      </trkpt>
      <trkpt lat="40.014465" lon="-2.132677">
        <ele>980.0</ele>
        <time>2021-07-27T17:35:10Z</time>
      </trkpt>
      <trkpt lat="40.014534" lon="-2.1326828">
        <ele>979.0</ele>
        <time>2021-07-27T17:35:11Z</time>
      </trkpt>
      <trkpt lat="40.014606" lon="-2.1326876">
        <ele>979.0</ele>
        <time>2021-07-27T17:35:12Z</time>
      </trkpt>
      <trkpt lat="40.014675" lon="-2.1326935">
        <ele>979.0</ele>
        <time>2021-07-27T17:35:13Z</time>
      </trkpt>
      <trkpt lat="40.014744" lon="-2.132699">
        <ele>979.0</ele>
        <time>2021-07-27T17:35:14Z</time>
      </trkpt>
      <trkpt lat="40.014816" lon="-2.1327047">
        <ele>979.0</ele>
        <time>2021-07-27T17:35:15Z</time>
      </trkpt>
      <trkpt lat="40.014885" lon="-2.1327105">
        <ele>979.0</ele>
        <time>2021-07-27T17:35:16Z</time>
      </trkpt>
      <trkpt lat="40.01496" lon="-2.1327155">
        <ele>979.0</ele>
        <time>2021-07-27T17:35:17Z</time>
      </trkpt>
      <trkpt lat="40.015034" lon="-2.1327207">
        <ele>979.0</ele>
        <time>2021-07-27T17:35:18Z</time>
      </trkpt>
      <trkpt lat="40.01511" lon="-2.1327267">
        <ele>979.0</ele>
        <time>2021-07-27T17:35:19Z</time>
      </trkpt>
      <trkpt lat="40.01519" lon="-2.132732">
        <ele>978.0</ele>
        <time>2021-07-27T17:35:20Z</time>
      </trkpt>
      <trkpt lat="40.015266" lon="-2.132738">
        <ele>978.0</ele>
        <time>2021-07-27T17:35:21Z</time>
      </trkpt>
      <trkpt lat="40.015343" lon="-2.1327455">
        <ele>978.0</ele>
        <time>2021-07-27T17:35:22Z</time>
      </trkpt>
      <trkpt lat="40.015423" lon="-2.1327534">
        <ele>978.0</ele>
        <time>2021-07-27T17:35:23Z</time>
      </trkpt>
      <trkpt lat="40.0155" lon="-2.1327627">
        <ele>978.0</ele>
        <time>2021-07-27T17:35:24Z</time>
      </trkpt>
      <trkpt lat="40.01557" lon="-2.1327717">
        <ele>978.0</ele>
        <time>2021-07-27T17:35:25Z</time>
      </trkpt>
      <trkpt lat="40.015648" lon="-2.132781">
        <ele>978.0</ele>
        <time>2021-07-27T17:35:26Z</time>
      </trkpt>
      <trkpt lat="40.015724" lon="-2.1327908">
        <ele>978.0</ele>
        <time>2021-07-27T17:35:27Z</time>
      </trkpt>
      <trkpt lat="40.01581" lon="-2.132801">
        <ele>978.0</ele>
        <time>2021-07-27T17:35:28Z</time>
      </trkpt>
      <trkpt lat="40.01589" lon="-2.132811">
        <ele>978.0</ele>
        <time>2021-07-27T17:35:29Z</time>
      </trkpt>
      <trkpt lat="40.01597" lon="-2.1328218">
        <ele>978.0</ele>
        <time>2021-07-27T17:35:30Z</time>
      </trkpt>
      <trkpt lat="40.016045" lon="-2.1328325">
        <ele>977.0</ele>
        <time>2021-07-27T17:35:31Z</time>
      </trkpt>
      <trkpt lat="40.01612" lon="-2.1328428">
        <ele>977.0</ele>
        <time>2021-07-27T17:35:32Z</time>
      </trkpt>
      <trkpt lat="40.01619" lon="-2.132853">
        <ele>977.0</ele>
        <time>2021-07-27T17:35:33Z</time>
      </trkpt>
      <trkpt lat="40.016262" lon="-2.1328633">
        <ele>977.0</ele>
        <time>2021-07-27T17:35:34Z</time>
      </trkpt>
      <trkpt lat="40.016335" lon="-2.1328733">
        <ele>977.0</ele>
        <time>2021-07-27T17:35:35Z</time>
      </trkpt>
      <trkpt lat="40.016407" lon="-2.1328862">
        <ele>977.0</ele>
        <time>2021-07-27T17:35:36Z</time>
      </trkpt>
      <trkpt lat="40.01648" lon="-2.1328993">
        <ele>977.0</ele>
        <time>2021-07-27T17:35:37Z</time>
      </trkpt>
      <trkpt lat="40.016552" lon="-2.1329136">
        <ele>977.0</ele>
        <time>2021-07-27T17:35:38Z</time>
      </trkpt>
      <trkpt lat="40.01662" lon="-2.132928">
        <ele>977.0</ele>
        <time>2021-07-27T17:35:39Z</time>
      </trkpt>
      <trkpt lat="40.01669" lon="-2.1329455">
        <ele>977.0</ele>
        <time>2021-07-27T17:35:40Z</time>
      </trkpt>
      <trkpt lat="40.016758" lon="-2.1329634">
        <ele>977.0</ele>
        <time>2021-07-27T17:35:41Z</time>
      </trkpt>
      <trkpt lat="40.01683" lon="-2.1329837">
        <ele>977.0</ele>
        <time>2021-07-27T17:35:42Z</time>
      </trkpt>
      <trkpt lat="40.0169" lon="-2.1330028">
        <ele>977.0</ele>
        <time>2021-07-27T17:35:43Z</time>
      </trkpt>
      <trkpt lat="40.016968" lon="-2.1330216">
        <ele>977.0</ele>
        <time>2021-07-27T17:35:44Z</time>
      </trkpt>
      <trkpt lat="40.017036" lon="-2.1330407">
        <ele>977.0</ele>
        <time>2021-07-27T17:35:45Z</time>
      </trkpt>
      <trkpt lat="40.017105" lon="-2.1330607">
        <ele>977.0</ele>
        <time>2021-07-27T17:35:46Z</time>
      </trkpt>
      <trkpt lat="40.01718" lon="-2.133082">
        <ele>977.0</ele>
        <time>2021-07-27T17:35:47Z</time>
      </trkpt>
      <trkpt lat="40.01725" lon="-2.1331017">
        <ele>977.0</ele>
        <time>2021-07-27T17:35:48Z</time>
      </trkpt>
      <trkpt lat="40.01732" lon="-2.1331205">
        <ele>977.0</ele>
        <time>2021-07-27T17:35:49Z</time>
      </trkpt>
      <trkpt lat="40.017387" lon="-2.1331403">
        <ele>977.0</ele>
        <time>2021-07-27T17:35:50Z</time>
      </trkpt>
      <trkpt lat="40.017452" lon="-2.1331594">
        <ele>977.0</ele>
        <time>2021-07-27T17:35:51Z</time>
      </trkpt>
      <trkpt lat="40.01752" lon="-2.133177">
        <ele>977.0</ele>
        <time>2021-07-27T17:35:52Z</time>
      </trkpt>
      <trkpt lat="40.017593" lon="-2.133196">
        <ele>977.0</ele>
        <time>2021-07-27T17:35:53Z</time>
      </trkpt>
      <trkpt lat="40.017662" lon="-2.1332157">
        <ele>977.0</ele>
        <time>2021-07-27T17:35:54Z</time>
      </trkpt>
      <trkpt lat="40.017727" lon="-2.1332357">
        <ele>977.0</ele>
        <time>2021-07-27T17:35:55Z</time>
      </trkpt>
      <trkpt lat="40.017796" lon="-2.1332557">
        <ele>977.0</ele>
        <time>2021-07-27T17:35:56Z</time>
      </trkpt>
      <trkpt lat="40.01786" lon="-2.1332757">
        <ele>977.0</ele>
        <time>2021-07-27T17:35:57Z</time>
      </trkpt>
      <trkpt lat="40.017925" lon="-2.1332953">
        <ele>977.0</ele>
        <time>2021-07-27T17:35:58Z</time>
      </trkpt>
      <trkpt lat="40.017986" lon="-2.1333127">
        <ele>977.0</ele>
        <time>2021-07-27T17:35:59Z</time>
      </trkpt>
      <trkpt lat="40.01805" lon="-2.1333318">
        <ele>977.0</ele>
        <time>2021-07-27T17:36:00Z</time>
      </trkpt>
      <trkpt lat="40.01817" lon="-2.1333663">
        <ele>977.0</ele>
        <time>2021-07-27T17:36:02Z</time>
      </trkpt>
      <trkpt lat="40.01823" lon="-2.1333833">
        <ele>977.0</ele>
        <time>2021-07-27T17:36:03Z</time>
      </trkpt>
      <trkpt lat="40.01829" lon="-2.133401">
        <ele>977.0</ele>
        <time>2021-07-27T17:36:04Z</time>
      </trkpt>
      <trkpt lat="40.01835" lon="-2.133417">
        <ele>977.0</ele>
        <time>2021-07-27T17:36:05Z</time>
      </trkpt>
      <trkpt lat="40.018406" lon="-2.1334345">
        <ele>977.0</ele>
        <time>2021-07-27T17:36:06Z</time>
      </trkpt>
      <trkpt lat="40.01846" lon="-2.1334538">
        <ele>977.0</ele>
        <time>2021-07-27T17:36:07Z</time>
      </trkpt>
      <trkpt lat="40.018513" lon="-2.1334767">
        <ele>977.0</ele>
        <time>2021-07-27T17:36:08Z</time>
      </trkpt>
      <trkpt lat="40.018566" lon="-2.1335034">
        <ele>977.0</ele>
        <time>2021-07-27T17:36:09Z</time>
      </trkpt>
      <trkpt lat="40.01862" lon="-2.1335347">
        <ele>977.0</ele>
        <time>2021-07-27T17:36:10Z</time>
      </trkpt>
      <trkpt lat="40.018677" lon="-2.1335685">
        <ele>977.0</ele>
        <time>2021-07-27T17:36:11Z</time>
      </trkpt>
      <trkpt lat="40.018726" lon="-2.1336062">
        <ele>977.0</ele>
        <time>2021-07-27T17:36:12Z</time>
      </trkpt>
      <trkpt lat="40.018784" lon="-2.133647">
        <ele>977.0</ele>
        <time>2021-07-27T17:36:13Z</time>
      </trkpt>
      <trkpt lat="40.018837" lon="-2.1336896">
        <ele>977.0</ele>
        <time>2021-07-27T17:36:14Z</time>
      </trkpt>
      <trkpt lat="40.018894" lon="-2.133734">
        <ele>977.0</ele>
        <time>2021-07-27T17:36:15Z</time>
      </trkpt>
      <trkpt lat="40.018944" lon="-2.1337762">
        <ele>977.0</ele>
        <time>2021-07-27T17:36:16Z</time>
      </trkpt>
      <trkpt lat="40.019" lon="-2.133823">
        <ele>977.0</ele>
        <time>2021-07-27T17:36:17Z</time>
      </trkpt>
      <trkpt lat="40.019066" lon="-2.1338685">
        <ele>977.0</ele>
        <time>2021-07-27T17:36:18Z</time>
      </trkpt>
      <trkpt lat="40.019127" lon="-2.1339116">
        <ele>977.0</ele>
        <time>2021-07-27T17:36:19Z</time>
      </trkpt>
      <trkpt lat="40.019188" lon="-2.1339521">
        <ele>977.0</ele>
        <time>2021-07-27T17:36:20Z</time>
      </trkpt>
      <trkpt lat="40.019245" lon="-2.133987">
        <ele>977.0</ele>
        <time>2021-07-27T17:36:21Z</time>
      </trkpt>
      <trkpt lat="40.019302" lon="-2.1340208">
        <ele>977.0</ele>
        <time>2021-07-27T17:36:22Z</time>
      </trkpt>
      <trkpt lat="40.01936" lon="-2.1340528">
        <ele>977.0</ele>
        <time>2021-07-27T17:36:23Z</time>
      </trkpt>
      <trkpt lat="40.01942" lon="-2.1340828">
        <ele>976.0</ele>
        <time>2021-07-27T17:36:24Z</time>
      </trkpt>
      <trkpt lat="40.019478" lon="-2.1341114">
        <ele>976.0</ele>
        <time>2021-07-27T17:36:25Z</time>
      </trkpt>
      <trkpt lat="40.01953" lon="-2.1341395">
        <ele>976.0</ele>
        <time>2021-07-27T17:36:26Z</time>
      </trkpt>
      <trkpt lat="40.019592" lon="-2.134167">
        <ele>976.0</ele>
        <time>2021-07-27T17:36:27Z</time>
      </trkpt>
      <trkpt lat="40.019646" lon="-2.1341932">
        <ele>976.0</ele>
        <time>2021-07-27T17:36:28Z</time>
      </trkpt>
      <trkpt lat="40.019703" lon="-2.134218">
        <ele>976.0</ele>
        <time>2021-07-27T17:36:29Z</time>
      </trkpt>
      <trkpt lat="40.019764" lon="-2.1342418">
        <ele>976.0</ele>
        <time>2021-07-27T17:36:30Z</time>
      </trkpt>
      <trkpt lat="40.019817" lon="-2.1342638">
        <ele>976.0</ele>
        <time>2021-07-27T17:36:31Z</time>
      </trkpt>
      <trkpt lat="40.019875" lon="-2.1342862">
        <ele>976.0</ele>
        <time>2021-07-27T17:36:32Z</time>
      </trkpt>
      <trkpt lat="40.019928" lon="-2.134309">
        <ele>976.0</ele>
        <time>2021-07-27T17:36:33Z</time>
      </trkpt>
      <trkpt lat="40.019985" lon="-2.134333">
        <ele>976.0</ele>
        <time>2021-07-27T17:36:34Z</time>
      </trkpt>
      <trkpt lat="40.020042" lon="-2.1343577">
        <ele>976.0</ele>
        <time>2021-07-27T17:36:35Z</time>
      </trkpt>
      <trkpt lat="40.0201" lon="-2.1343834">
        <ele>976.0</ele>
        <time>2021-07-27T17:36:36Z</time>
      </trkpt>
      <trkpt lat="40.020157" lon="-2.1344097">
        <ele>976.0</ele>
        <time>2021-07-27T17:36:37Z</time>
      </trkpt>
      <trkpt lat="40.020214" lon="-2.1344361">
        <ele>976.0</ele>
        <time>2021-07-27T17:36:38Z</time>
      </trkpt>
      <trkpt lat="40.02027" lon="-2.1344626">
        <ele>976.0</ele>
        <time>2021-07-27T17:36:39Z</time>
      </trkpt>
      <trkpt lat="40.02033" lon="-2.1344888">
        <ele>976.0</ele>
        <time>2021-07-27T17:36:40Z</time>
      </trkpt>
      <trkpt lat="40.020386" lon="-2.1345177">
        <ele>976.0</ele>
        <time>2021-07-27T17:36:41Z</time>
      </trkpt>
      <trkpt lat="40.02044" lon="-2.1345448">
        <ele>976.0</ele>
        <time>2021-07-27T17:36:42Z</time>
      </trkpt>
      <trkpt lat="40.020493" lon="-2.1345706">
        <ele>976.0</ele>
        <time>2021-07-27T17:36:43Z</time>
      </trkpt>
      <trkpt lat="40.020546" lon="-2.1345904">
        <ele>976.0</ele>
        <time>2021-07-27T17:36:44Z</time>
      </trkpt>
      <trkpt lat="40.0206" lon="-2.1346035">
        <ele>976.0</ele>
        <time>2021-07-27T17:36:45Z</time>
      </trkpt>
      <trkpt lat="40.020653" lon="-2.1346061">
        <ele>976.0</ele>
        <time>2021-07-27T17:36:46Z</time>
      </trkpt>
      <trkpt lat="40.02071" lon="-2.1346002">
        <ele>976.0</ele>
        <time>2021-07-27T17:36:47Z</time>
      </trkpt>
      <trkpt lat="40.020763" lon="-2.1345873">
        <ele>976.0</ele>
        <time>2021-07-27T17:36:48Z</time>
      </trkpt>
      <trkpt lat="40.020813" lon="-2.1345677">
        <ele>976.0</ele>
        <time>2021-07-27T17:36:49Z</time>
      </trkpt>
      <trkpt lat="40.020916" lon="-2.1345236">
        <ele>976.0</ele>
        <time>2021-07-27T17:36:51Z</time>
      </trkpt>
      <trkpt lat="40.020966" lon="-2.1345031">
        <ele>976.0</ele>
        <time>2021-07-27T17:36:52Z</time>
      </trkpt>
      <trkpt lat="40.02102" lon="-2.134489">
        <ele>976.0</ele>
        <time>2021-07-27T17:36:53Z</time>
      </trkpt>
      <trkpt lat="40.021072" lon="-2.1344817">
        <ele>976.0</ele>
        <time>2021-07-27T17:36:54Z</time>
      </trkpt>
      <trkpt lat="40.021126" lon="-2.1344829">
        <ele>976.0</ele>
        <time>2021-07-27T17:36:55Z</time>
      </trkpt>
      <trkpt lat="40.021175" lon="-2.1344922">
        <ele>976.0</ele>
        <time>2021-07-27T17:36:56Z</time>
      </trkpt>
      <trkpt lat="40.021225" lon="-2.1345093">
        <ele>976.0</ele>
        <time>2021-07-27T17:36:57Z</time>
      </trkpt>
      <trkpt lat="40.02131" lon="-2.1345606">
        <ele>976.0</ele>
        <time>2021-07-27T17:36:59Z</time>
      </trkpt>
      <trkpt lat="40.0214" lon="-2.1346204">
        <ele>976.0</ele>
        <time>2021-07-27T17:37:01Z</time>
      </trkpt>
      <trkpt lat="40.021496" lon="-2.1346679">
        <ele>977.0</ele>
        <time>2021-07-27T17:37:03Z</time>
      </trkpt>
      <trkpt lat="40.02154" lon="-2.1346848">
        <ele>977.0</ele>
        <time>2021-07-27T17:37:04Z</time>
      </trkpt>
      <trkpt lat="40.021633" lon="-2.1347094">
        <ele>977.0</ele>
        <time>2021-07-27T17:37:06Z</time>
      </trkpt>
      <trkpt lat="40.02177" lon="-2.1347272">
        <ele>977.0</ele>
        <time>2021-07-27T17:37:09Z</time>
      </trkpt>
      <trkpt lat="40.021812" lon="-2.1347263">
        <ele>977.0</ele>
        <time>2021-07-27T17:37:10Z</time>
      </trkpt>
      <trkpt lat="40.021904" lon="-2.1347141">
        <ele>978.0</ele>
        <time>2021-07-27T17:37:12Z</time>
      </trkpt>
      <trkpt lat="40.02199" lon="-2.1346889">
        <ele>978.0</ele>
        <time>2021-07-27T17:37:14Z</time>
      </trkpt>
      <trkpt lat="40.022083" lon="-2.1346586">
        <ele>978.0</ele>
        <time>2021-07-27T17:37:16Z</time>
      </trkpt>
      <trkpt lat="40.022175" lon="-2.1346269">
        <ele>978.0</ele>
        <time>2021-07-27T17:37:18Z</time>
      </trkpt>
      <trkpt lat="40.022224" lon="-2.1346126">
        <ele>978.0</ele>
        <time>2021-07-27T17:37:19Z</time>
      </trkpt>
      <trkpt lat="40.02232" lon="-2.1345859">
        <ele>978.0</ele>
        <time>2021-07-27T17:37:21Z</time>
      </trkpt>
      <trkpt lat="40.02242" lon="-2.134564">
        <ele>978.0</ele>
        <time>2021-07-27T17:37:23Z</time>
      </trkpt>
      <trkpt lat="40.02252" lon="-2.134547">
        <ele>978.0</ele>
        <time>2021-07-27T17:37:25Z</time>
      </trkpt>
      <trkpt lat="40.022617" lon="-2.1345334">
        <ele>978.0</ele>
        <time>2021-07-27T17:37:27Z</time>
      </trkpt>
      <trkpt lat="40.022667" lon="-2.134527">
        <ele>978.0</ele>
        <time>2021-07-27T17:37:28Z</time>
      </trkpt>
      <trkpt lat="40.022766" lon="-2.1345162">
        <ele>978.0</ele>
        <time>2021-07-27T17:37:30Z</time>
      </trkpt>
      <trkpt lat="40.02286" lon="-2.134505">
        <ele>978.0</ele>
        <time>2021-07-27T17:37:32Z</time>
      </trkpt>
      <trkpt lat="40.02291" lon="-2.1345003">
        <ele>978.0</ele>
        <time>2021-07-27T17:37:33Z</time>
      </trkpt>
      <trkpt lat="40.023003" lon="-2.1344848">
        <ele>978.0</ele>
        <time>2021-07-27T17:37:35Z</time>
      </trkpt>
      <trkpt lat="40.02305" lon="-2.1344728">
        <ele>978.0</ele>
        <time>2021-07-27T17:37:36Z</time>
      </trkpt>
      <trkpt lat="40.023144" lon="-2.1344438">
        <ele>978.0</ele>
        <time>2021-07-27T17:37:38Z</time>
      </trkpt>
      <trkpt lat="40.02323" lon="-2.134412">
        <ele>978.0</ele>
        <time>2021-07-27T17:37:40Z</time>
      </trkpt>
      <trkpt lat="40.023323" lon="-2.1343892">
        <ele>978.0</ele>
        <time>2021-07-27T17:37:42Z</time>
      </trkpt>
      <trkpt lat="40.023415" lon="-2.1343822">
        <ele>978.0</ele>
        <time>2021-07-27T17:37:44Z</time>
      </trkpt>
      <trkpt lat="40.023518" lon="-2.1343815">
        <ele>979.0</ele>
        <time>2021-07-27T17:37:46Z</time>
      </trkpt>
      <trkpt lat="40.023563" lon="-2.1343825">
        <ele>979.0</ele>
        <time>2021-07-27T17:37:47Z</time>
      </trkpt>
      <trkpt lat="40.023666" lon="-2.1343873">
        <ele>979.0</ele>
        <time>2021-07-27T17:37:49Z</time>
      </trkpt>
      <trkpt lat="40.023712" lon="-2.1343925">
        <ele>979.0</ele>
        <time>2021-07-27T17:37:50Z</time>
      </trkpt>
      <trkpt lat="40.0238" lon="-2.1344128">
        <ele>979.0</ele>
        <time>2021-07-27T17:37:52Z</time>
      </trkpt>
      <trkpt lat="40.023884" lon="-2.134456">
        <ele>979.0</ele>
        <time>2021-07-27T17:37:54Z</time>
      </trkpt>
      <trkpt lat="40.02396" lon="-2.1345181">
        <ele>979.0</ele>
        <time>2021-07-27T17:37:56Z</time>
      </trkpt>
      <trkpt lat="40.024033" lon="-2.1345842">
        <ele>980.0</ele>
        <time>2021-07-27T17:37:58Z</time>
      </trkpt>
      <trkpt lat="40.0241" lon="-2.1346471">
        <ele>980.0</ele>
        <time>2021-07-27T17:38:00Z</time>
      </trkpt>
      <trkpt lat="40.024174" lon="-2.1347032">
        <ele>980.0</ele>
        <time>2021-07-27T17:38:02Z</time>
      </trkpt>
      <trkpt lat="40.02425" lon="-2.134757">
        <ele>981.0</ele>
        <time>2021-07-27T17:38:04Z</time>
      </trkpt>
      <trkpt lat="40.024323" lon="-2.1348088">
        <ele>981.0</ele>
        <time>2021-07-27T17:38:06Z</time>
      </trkpt>
      <trkpt lat="40.0244" lon="-2.1348596">
        <ele>981.0</ele>
        <time>2021-07-27T17:38:08Z</time>
      </trkpt>
      <trkpt lat="40.024475" lon="-2.1349106">
        <ele>981.0</ele>
        <time>2021-07-27T17:38:10Z</time>
      </trkpt>
      <trkpt lat="40.02459" lon="-2.134989">
        <ele>982.0</ele>
        <time>2021-07-27T17:38:13Z</time>
      </trkpt>
      <trkpt lat="40.02467" lon="-2.1350362">
        <ele>982.0</ele>
        <time>2021-07-27T17:38:15Z</time>
      </trkpt>
      <trkpt lat="40.024754" lon="-2.135076">
        <ele>982.0</ele>
        <time>2021-07-27T17:38:17Z</time>
      </trkpt>
      <trkpt lat="40.02484" lon="-2.135105">
        <ele>982.0</ele>
        <time>2021-07-27T17:38:19Z</time>
      </trkpt>
      <trkpt lat="40.024925" lon="-2.1351292">
        <ele>983.0</ele>
        <time>2021-07-27T17:38:21Z</time>
      </trkpt>
      <trkpt lat="40.025013" lon="-2.1351626">
        <ele>983.0</ele>
        <time>2021-07-27T17:38:23Z</time>
      </trkpt>
      <trkpt lat="40.025085" lon="-2.135208">
        <ele>983.0</ele>
        <time>2021-07-27T17:38:25Z</time>
      </trkpt>
      <trkpt lat="40.02515" lon="-2.1352668">
        <ele>984.0</ele>
        <time>2021-07-27T17:38:27Z</time>
      </trkpt>
      <trkpt lat="40.025215" lon="-2.135338">
        <ele>984.0</ele>
        <time>2021-07-27T17:38:29Z</time>
      </trkpt>
      <trkpt lat="40.02527" lon="-2.1354165">
        <ele>984.0</ele>
        <time>2021-07-27T17:38:31Z</time>
      </trkpt>
      <trkpt lat="40.025314" lon="-2.1354978">
        <ele>985.0</ele>
        <time>2021-07-27T17:38:33Z</time>
      </trkpt>
      <trkpt lat="40.025356" lon="-2.13558">
        <ele>985.0</ele>
        <time>2021-07-27T17:38:35Z</time>
      </trkpt>
      <trkpt lat="40.025394" lon="-2.1356614">
        <ele>985.0</ele>
        <time>2021-07-27T17:38:37Z</time>
      </trkpt>
      <trkpt lat="40.02544" lon="-2.1357467">
        <ele>986.0</ele>
        <time>2021-07-27T17:38:39Z</time>
      </trkpt>
      <trkpt lat="40.025497" lon="-2.1358461">
        <ele>986.0</ele>
        <time>2021-07-27T17:38:41Z</time>
      </trkpt>
      <trkpt lat="40.02553" lon="-2.1359074">
        <ele>986.0</ele>
        <time>2021-07-27T17:38:42Z</time>
      </trkpt>
      <trkpt lat="40.02557" lon="-2.1359718">
        <ele>986.0</ele>
        <time>2021-07-27T17:38:43Z</time>
      </trkpt>
      <trkpt lat="40.025608" lon="-2.136037">
        <ele>986.0</ele>
        <time>2021-07-27T17:38:44Z</time>
      </trkpt>
      <trkpt lat="40.02565" lon="-2.1361039">
        <ele>985.0</ele>
        <time>2021-07-27T17:38:45Z</time>
      </trkpt>
      <trkpt lat="40.02569" lon="-2.1361692">
        <ele>985.0</ele>
        <time>2021-07-27T17:38:46Z</time>
      </trkpt>
      <trkpt lat="40.02573" lon="-2.136229">
        <ele>985.0</ele>
        <time>2021-07-27T17:38:47Z</time>
      </trkpt>
      <trkpt lat="40.02578" lon="-2.1362922">
        <ele>985.0</ele>
        <time>2021-07-27T17:38:48Z</time>
      </trkpt>
      <trkpt lat="40.02583" lon="-2.136351">
        <ele>984.0</ele>
        <time>2021-07-27T17:38:49Z</time>
      </trkpt>
      <trkpt lat="40.02588" lon="-2.136403">
        <ele>984.0</ele>
        <time>2021-07-27T17:38:50Z</time>
      </trkpt>
      <trkpt lat="40.02593" lon="-2.1364467">
        <ele>984.0</ele>
        <time>2021-07-27T17:38:51Z</time>
      </trkpt>
      <trkpt lat="40.02598" lon="-2.13648">
        <ele>984.0</ele>
        <time>2021-07-27T17:38:52Z</time>
      </trkpt>
      <trkpt lat="40.02603" lon="-2.1365035">
        <ele>984.0</ele>
        <time>2021-07-27T17:38:53Z</time>
      </trkpt>
      <trkpt lat="40.026085" lon="-2.1365178">
        <ele>984.0</ele>
        <time>2021-07-27T17:38:54Z</time>
      </trkpt>
      <trkpt lat="40.02614" lon="-2.1365252">
        <ele>984.0</ele>
        <time>2021-07-27T17:38:55Z</time>
      </trkpt>
      <trkpt lat="40.02619" lon="-2.1365278">
        <ele>984.0</ele>
        <time>2021-07-27T17:38:56Z</time>
      </trkpt>
      <trkpt lat="40.026295" lon="-2.1365335">
        <ele>983.0</ele>
        <time>2021-07-27T17:38:58Z</time>
      </trkpt>
      <trkpt lat="40.026352" lon="-2.136542">
        <ele>983.0</ele>
        <time>2021-07-27T17:38:59Z</time>
      </trkpt>
      <trkpt lat="40.026405" lon="-2.1365569">
        <ele>983.0</ele>
        <time>2021-07-27T17:39:00Z</time>
      </trkpt>
      <trkpt lat="40.026463" lon="-2.1365764">
        <ele>983.0</ele>
        <time>2021-07-27T17:39:01Z</time>
      </trkpt>
      <trkpt lat="40.02652" lon="-2.1366">
        <ele>983.0</ele>
        <time>2021-07-27T17:39:02Z</time>
      </trkpt>
      <trkpt lat="40.026585" lon="-2.1366267">
        <ele>982.0</ele>
        <time>2021-07-27T17:39:03Z</time>
      </trkpt>
      <trkpt lat="40.026646" lon="-2.136655">
        <ele>982.0</ele>
        <time>2021-07-27T17:39:04Z</time>
      </trkpt>
      <trkpt lat="40.026707" lon="-2.1366844">
        <ele>982.0</ele>
        <time>2021-07-27T17:39:05Z</time>
      </trkpt>
      <trkpt lat="40.026768" lon="-2.1367137">
        <ele>982.0</ele>
        <time>2021-07-27T17:39:06Z</time>
      </trkpt>
      <trkpt lat="40.02682" lon="-2.1367412">
        <ele>981.0</ele>
        <time>2021-07-27T17:39:07Z</time>
      </trkpt>
      <trkpt lat="40.026867" lon="-2.1367667">
        <ele>981.0</ele>
        <time>2021-07-27T17:39:08Z</time>
      </trkpt>
      <trkpt lat="40.02691" lon="-2.1367874">
        <ele>981.0</ele>
        <time>2021-07-27T17:39:09Z</time>
      </trkpt>
      <trkpt lat="40.02698" lon="-2.136817">
        <ele>980.0</ele>
        <time>2021-07-27T17:39:11Z</time>
      </trkpt>
      <trkpt lat="40.027058" lon="-2.136841">
        <ele>980.0</ele>
        <time>2021-07-27T17:39:13Z</time>
      </trkpt>
      <trkpt lat="40.027206" lon="-2.136879">
        <ele>979.0</ele>
        <time>2021-07-27T17:39:16Z</time>
      </trkpt>
      <trkpt lat="40.027267" lon="-2.1368923">
        <ele>978.0</ele>
        <time>2021-07-27T17:39:17Z</time>
      </trkpt>
      <trkpt lat="40.027332" lon="-2.1369064">
        <ele>978.0</ele>
        <time>2021-07-27T17:39:18Z</time>
      </trkpt>
      <trkpt lat="40.027393" lon="-2.1369216">
        <ele>978.0</ele>
        <time>2021-07-27T17:39:19Z</time>
      </trkpt>
      <trkpt lat="40.027462" lon="-2.136939">
        <ele>977.0</ele>
        <time>2021-07-27T17:39:20Z</time>
      </trkpt>
      <trkpt lat="40.027534" lon="-2.13696">
        <ele>977.0</ele>
        <time>2021-07-27T17:39:21Z</time>
      </trkpt>
      <trkpt lat="40.027603" lon="-2.136984">
        <ele>977.0</ele>
        <time>2021-07-27T17:39:22Z</time>
      </trkpt>
      <trkpt lat="40.02767" lon="-2.1370099">
        <ele>976.0</ele>
        <time>2021-07-27T17:39:23Z</time>
      </trkpt>
      <trkpt lat="40.027744" lon="-2.1370366">
        <ele>976.0</ele>
        <time>2021-07-27T17:39:24Z</time>
      </trkpt>
      <trkpt lat="40.027813" lon="-2.1370616">
        <ele>976.0</ele>
        <time>2021-07-27T17:39:25Z</time>
      </trkpt>
      <trkpt lat="40.02789" lon="-2.1370895">
        <ele>976.0</ele>
        <time>2021-07-27T17:39:26Z</time>
      </trkpt>
      <trkpt lat="40.02796" lon="-2.1371176">
        <ele>975.0</ele>
        <time>2021-07-27T17:39:27Z</time>
      </trkpt>
      <trkpt lat="40.028038" lon="-2.137146">
        <ele>975.0</ele>
        <time>2021-07-27T17:39:28Z</time>
      </trkpt>
      <trkpt lat="40.02811" lon="-2.1371746">
        <ele>975.0</ele>
        <time>2021-07-27T17:39:29Z</time>
      </trkpt>
      <trkpt lat="40.028187" lon="-2.1372025">
        <ele>975.0</ele>
        <time>2021-07-27T17:39:30Z</time>
      </trkpt>
      <trkpt lat="40.02826" lon="-2.137229">
        <ele>975.0</ele>
        <time>2021-07-27T17:39:31Z</time>
      </trkpt>
      <trkpt lat="40.028336" lon="-2.137255">
        <ele>974.0</ele>
        <time>2021-07-27T17:39:32Z</time>
      </trkpt>
      <trkpt lat="40.028404" lon="-2.1372797">
        <ele>974.0</ele>
        <time>2021-07-27T17:39:33Z</time>
      </trkpt>
      <trkpt lat="40.028473" lon="-2.1373003">
        <ele>974.0</ele>
        <time>2021-07-27T17:39:34Z</time>
      </trkpt>
      <trkpt lat="40.02854" lon="-2.1373177">
        <ele>973.0</ele>
        <time>2021-07-27T17:39:35Z</time>
      </trkpt>
      <trkpt lat="40.02861" lon="-2.1373286">
        <ele>973.0</ele>
        <time>2021-07-27T17:39:36Z</time>
      </trkpt>
      <trkpt lat="40.028687" lon="-2.1373305">
        <ele>972.0</ele>
        <time>2021-07-27T17:39:37Z</time>
      </trkpt>
      <trkpt lat="40.02876" lon="-2.1373217">
        <ele>972.0</ele>
        <time>2021-07-27T17:39:38Z</time>
      </trkpt>
      <trkpt lat="40.02883" lon="-2.1373012">
        <ele>972.0</ele>
        <time>2021-07-27T17:39:39Z</time>
      </trkpt>
      <trkpt lat="40.028904" lon="-2.1372695">
        <ele>971.0</ele>
        <time>2021-07-27T17:39:40Z</time>
      </trkpt>
      <trkpt lat="40.028973" lon="-2.1372287">
        <ele>971.0</ele>
        <time>2021-07-27T17:39:41Z</time>
      </trkpt>
      <trkpt lat="40.029034" lon="-2.13718">
        <ele>971.0</ele>
        <time>2021-07-27T17:39:42Z</time>
      </trkpt>
      <trkpt lat="40.0291" lon="-2.137127">
        <ele>971.0</ele>
        <time>2021-07-27T17:39:43Z</time>
      </trkpt>
      <trkpt lat="40.02916" lon="-2.137075">
        <ele>971.0</ele>
        <time>2021-07-27T17:39:44Z</time>
      </trkpt>
      <trkpt lat="40.029213" lon="-2.1370196">
        <ele>971.0</ele>
        <time>2021-07-27T17:39:45Z</time>
      </trkpt>
      <trkpt lat="40.029274" lon="-2.136964">
        <ele>970.0</ele>
        <time>2021-07-27T17:39:46Z</time>
      </trkpt>
      <trkpt lat="40.029335" lon="-2.1369073">
        <ele>970.0</ele>
        <time>2021-07-27T17:39:47Z</time>
      </trkpt>
      <trkpt lat="40.029392" lon="-2.1368678">
        <ele>970.0</ele>
        <time>2021-07-27T17:39:48Z</time>
      </trkpt>
      <trkpt lat="40.02945" lon="-2.136841">
        <ele>970.0</ele>
        <time>2021-07-27T17:39:49Z</time>
      </trkpt>
      <trkpt lat="40.029503" lon="-2.1368265">
        <ele>970.0</ele>
        <time>2021-07-27T17:39:50Z</time>
      </trkpt>
      <trkpt lat="40.029556" lon="-2.1368234">
        <ele>970.0</ele>
        <time>2021-07-27T17:39:51Z</time>
      </trkpt>
      <trkpt lat="40.02961" lon="-2.1368303">
        <ele>970.0</ele>
        <time>2021-07-27T17:39:52Z</time>
      </trkpt>
      <trkpt lat="40.02966" lon="-2.136846">
        <ele>970.0</ele>
        <time>2021-07-27T17:39:53Z</time>
      </trkpt>
      <trkpt lat="40.029705" lon="-2.1368673">
        <ele>970.0</ele>
        <time>2021-07-27T17:39:54Z</time>
      </trkpt>
      <trkpt lat="40.029804" lon="-2.1369274">
        <ele>970.0</ele>
        <time>2021-07-27T17:39:56Z</time>
      </trkpt>
      <trkpt lat="40.029854" lon="-2.1369603">
        <ele>970.0</ele>
        <time>2021-07-27T17:39:57Z</time>
      </trkpt>
      <trkpt lat="40.029907" lon="-2.136992">
        <ele>970.0</ele>
        <time>2021-07-27T17:39:58Z</time>
      </trkpt>
      <trkpt lat="40.029964" lon="-2.1370206">
        <ele>970.0</ele>
        <time>2021-07-27T17:39:59Z</time>
      </trkpt>
      <trkpt lat="40.03002" lon="-2.1370478">
        <ele>970.0</ele>
        <time>2021-07-27T17:40:00Z</time>
      </trkpt>
      <trkpt lat="40.03008" lon="-2.1370723">
        <ele>970.0</ele>
        <time>2021-07-27T17:40:01Z</time>
      </trkpt>
      <trkpt lat="40.03014" lon="-2.137095">
        <ele>970.0</ele>
        <time>2021-07-27T17:40:02Z</time>
      </trkpt>
      <trkpt lat="40.030197" lon="-2.1371157">
        <ele>970.0</ele>
        <time>2021-07-27T17:40:03Z</time>
      </trkpt>
      <trkpt lat="40.030262" lon="-2.1371372">
        <ele>970.0</ele>
        <time>2021-07-27T17:40:04Z</time>
      </trkpt>
      <trkpt lat="40.03032" lon="-2.1371567">
        <ele>970.0</ele>
        <time>2021-07-27T17:40:05Z</time>
      </trkpt>
      <trkpt lat="40.03038" lon="-2.1371753">
        <ele>970.0</ele>
        <time>2021-07-27T17:40:06Z</time>
      </trkpt>
      <trkpt lat="40.030437" lon="-2.137193">
        <ele>970.0</ele>
        <time>2021-07-27T17:40:07Z</time>
      </trkpt>
      <trkpt lat="40.0305" lon="-2.1372097">
        <ele>969.0</ele>
        <time>2021-07-27T17:40:08Z</time>
      </trkpt>
      <trkpt lat="40.030567" lon="-2.1372259">
        <ele>969.0</ele>
        <time>2021-07-27T17:40:09Z</time>
      </trkpt>
      <trkpt lat="40.03063" lon="-2.1372414">
        <ele>969.0</ele>
        <time>2021-07-27T17:40:10Z</time>
      </trkpt>
      <trkpt lat="40.03069" lon="-2.1372566">
        <ele>969.0</ele>
        <time>2021-07-27T17:40:11Z</time>
      </trkpt>
      <trkpt lat="40.030754" lon="-2.137272">
        <ele>969.0</ele>
        <time>2021-07-27T17:40:12Z</time>
      </trkpt>
      <trkpt lat="40.03082" lon="-2.1372867">
        <ele>969.0</ele>
        <time>2021-07-27T17:40:13Z</time>
      </trkpt>
      <trkpt lat="40.030888" lon="-2.137302">
        <ele>969.0</ele>
        <time>2021-07-27T17:40:14Z</time>
      </trkpt>
      <trkpt lat="40.030956" lon="-2.1373158">
        <ele>969.0</ele>
        <time>2021-07-27T17:40:15Z</time>
      </trkpt>
      <trkpt lat="40.03103" lon="-2.1373303">
        <ele>968.0</ele>
        <time>2021-07-27T17:40:16Z</time>
      </trkpt>
      <trkpt lat="40.03116" lon="-2.1373582">
        <ele>968.0</ele>
        <time>2021-07-27T17:40:18Z</time>
      </trkpt>
      <trkpt lat="40.031227" lon="-2.137373">
        <ele>968.0</ele>
        <time>2021-07-27T17:40:19Z</time>
      </trkpt>
      <trkpt lat="40.0313" lon="-2.137389">
        <ele>968.0</ele>
        <time>2021-07-27T17:40:20Z</time>
      </trkpt>
      <trkpt lat="40.031364" lon="-2.1374037">
        <ele>968.0</ele>
        <time>2021-07-27T17:40:21Z</time>
      </trkpt>
      <trkpt lat="40.03145" lon="-2.137425">
        <ele>967.0</ele>
        <time>2021-07-27T17:40:22Z</time>
      </trkpt>
      <trkpt lat="40.03158" lon="-2.1374636">
        <ele>967.0</ele>
        <time>2021-07-27T17:40:24Z</time>
      </trkpt>
      <trkpt lat="40.03165" lon="-2.1374846">
        <ele>967.0</ele>
        <time>2021-07-27T17:40:25Z</time>
      </trkpt>
      <trkpt lat="40.03171" lon="-2.137505">
        <ele>967.0</ele>
        <time>2021-07-27T17:40:26Z</time>
      </trkpt>
      <trkpt lat="40.031776" lon="-2.1375253">
        <ele>967.0</ele>
        <time>2021-07-27T17:40:27Z</time>
      </trkpt>
      <trkpt lat="40.031845" lon="-2.137543">
        <ele>967.0</ele>
        <time>2021-07-27T17:40:28Z</time>
      </trkpt>
      <trkpt lat="40.03191" lon="-2.1375594">
        <ele>966.0</ele>
        <time>2021-07-27T17:40:29Z</time>
      </trkpt>
      <trkpt lat="40.03198" lon="-2.137575">
        <ele>966.0</ele>
        <time>2021-07-27T17:40:30Z</time>
      </trkpt>
      <trkpt lat="40.032047" lon="-2.1375878">
        <ele>966.0</ele>
        <time>2021-07-27T17:40:31Z</time>
      </trkpt>
      <trkpt lat="40.032112" lon="-2.1375983">
        <ele>966.0</ele>
        <time>2021-07-27T17:40:32Z</time>
      </trkpt>
      <trkpt lat="40.03218" lon="-2.1376066">
        <ele>966.0</ele>
        <time>2021-07-27T17:40:33Z</time>
      </trkpt>
      <trkpt lat="40.03225" lon="-2.1376112">
        <ele>966.0</ele>
        <time>2021-07-27T17:40:34Z</time>
      </trkpt>
      <trkpt lat="40.03232" lon="-2.1376126">
        <ele>966.0</ele>
        <time>2021-07-27T17:40:35Z</time>
      </trkpt>
      <trkpt lat="40.032383" lon="-2.1376107">
        <ele>966.0</ele>
        <time>2021-07-27T17:40:36Z</time>
      </trkpt>
      <trkpt lat="40.032448" lon="-2.1376052">
        <ele>966.0</ele>
        <time>2021-07-27T17:40:37Z</time>
      </trkpt>
      <trkpt lat="40.032513" lon="-2.137598">
        <ele>966.0</ele>
        <time>2021-07-27T17:40:38Z</time>
      </trkpt>
      <trkpt lat="40.032578" lon="-2.1375902">
        <ele>966.0</ele>
        <time>2021-07-27T17:40:39Z</time>
      </trkpt>
      <trkpt lat="40.03264" lon="-2.1375828">
        <ele>966.0</ele>
        <time>2021-07-27T17:40:40Z</time>
      </trkpt>
      <trkpt lat="40.0327" lon="-2.1375768">
        <ele>965.0</ele>
        <time>2021-07-27T17:40:41Z</time>
      </trkpt>
      <trkpt lat="40.032757" lon="-2.1375718">
        <ele>965.0</ele>
        <time>2021-07-27T17:40:42Z</time>
      </trkpt>
      <trkpt lat="40.032818" lon="-2.1375673">
        <ele>965.0</ele>
        <time>2021-07-27T17:40:43Z</time>
      </trkpt>
      <trkpt lat="40.03288" lon="-2.1375625">
        <ele>965.0</ele>
        <time>2021-07-27T17:40:44Z</time>
      </trkpt>
      <trkpt lat="40.032944" lon="-2.137558">
        <ele>965.0</ele>
        <time>2021-07-27T17:40:45Z</time>
      </trkpt>
      <trkpt lat="40.033005" lon="-2.137553">
        <ele>965.0</ele>
        <time>2021-07-27T17:40:46Z</time>
      </trkpt>
      <trkpt lat="40.033066" lon="-2.1375484">
        <ele>965.0</ele>
        <time>2021-07-27T17:40:47Z</time>
      </trkpt>
      <trkpt lat="40.033127" lon="-2.1375453">
        <ele>965.0</ele>
        <time>2021-07-27T17:40:48Z</time>
      </trkpt>
      <trkpt lat="40.033188" lon="-2.1375434">
        <ele>965.0</ele>
        <time>2021-07-27T17:40:49Z</time>
      </trkpt>
      <trkpt lat="40.033253" lon="-2.1375432">
        <ele>965.0</ele>
        <time>2021-07-27T17:40:50Z</time>
      </trkpt>
      <trkpt lat="40.033318" lon="-2.1375432">
        <ele>964.0</ele>
        <time>2021-07-27T17:40:51Z</time>
      </trkpt>
      <trkpt lat="40.03339" lon="-2.1375422">
        <ele>964.0</ele>
        <time>2021-07-27T17:40:52Z</time>
      </trkpt>
      <trkpt lat="40.033455" lon="-2.137542">
        <ele>964.0</ele>
        <time>2021-07-27T17:40:53Z</time>
      </trkpt>
      <trkpt lat="40.033524" lon="-2.1375422">
        <ele>964.0</ele>
        <time>2021-07-27T17:40:54Z</time>
      </trkpt>
      <trkpt lat="40.033596" lon="-2.137541">
        <ele>964.0</ele>
        <time>2021-07-27T17:40:55Z</time>
      </trkpt>
      <trkpt lat="40.033665" lon="-2.1375382">
        <ele>964.0</ele>
        <time>2021-07-27T17:40:56Z</time>
      </trkpt>
      <trkpt lat="40.03374" lon="-2.137534">
        <ele>964.0</ele>
        <time>2021-07-27T17:40:57Z</time>
      </trkpt>
      <trkpt lat="40.033813" lon="-2.137527">
        <ele>964.0</ele>
        <time>2021-07-27T17:40:58Z</time>
      </trkpt>
      <trkpt lat="40.033886" lon="-2.1375177">
        <ele>964.0</ele>
        <time>2021-07-27T17:40:59Z</time>
      </trkpt>
      <trkpt lat="40.033962" lon="-2.1375053">
        <ele>964.0</ele>
        <time>2021-07-27T17:41:00Z</time>
      </trkpt>
      <trkpt lat="40.034035" lon="-2.1374896">
        <ele>963.0</ele>
        <time>2021-07-27T17:41:01Z</time>
      </trkpt>
      <trkpt lat="40.03411" lon="-2.1374724">
        <ele>963.0</ele>
        <time>2021-07-27T17:41:02Z</time>
      </trkpt>
      <trkpt lat="40.034187" lon="-2.137454">
        <ele>963.0</ele>
        <time>2021-07-27T17:41:03Z</time>
      </trkpt>
      <trkpt lat="40.034264" lon="-2.1374357">
        <ele>963.0</ele>
        <time>2021-07-27T17:41:04Z</time>
      </trkpt>
      <trkpt lat="40.03434" lon="-2.1374173">
        <ele>963.0</ele>
        <time>2021-07-27T17:41:05Z</time>
      </trkpt>
      <trkpt lat="40.03442" lon="-2.1373997">
        <ele>962.0</ele>
        <time>2021-07-27T17:41:06Z</time>
      </trkpt>
      <trkpt lat="40.034496" lon="-2.1373823">
        <ele>962.0</ele>
        <time>2021-07-27T17:41:07Z</time>
      </trkpt>
      <trkpt lat="40.03458" lon="-2.1373649">
        <ele>962.0</ele>
        <time>2021-07-27T17:41:08Z</time>
      </trkpt>
      <trkpt lat="40.034664" lon="-2.137349">
        <ele>962.0</ele>
        <time>2021-07-27T17:41:09Z</time>
      </trkpt>
      <trkpt lat="40.034744" lon="-2.137335">
        <ele>962.0</ele>
        <time>2021-07-27T17:41:10Z</time>
      </trkpt>
      <trkpt lat="40.034824" lon="-2.137323">
        <ele>962.0</ele>
        <time>2021-07-27T17:41:11Z</time>
      </trkpt>
      <trkpt lat="40.0349" lon="-2.1373103">
        <ele>962.0</ele>
        <time>2021-07-27T17:41:12Z</time>
      </trkpt>
      <trkpt lat="40.03498" lon="-2.1372967">
        <ele>961.0</ele>
        <time>2021-07-27T17:41:13Z</time>
      </trkpt>
      <trkpt lat="40.035057" lon="-2.1372833">
        <ele>961.0</ele>
        <time>2021-07-27T17:41:14Z</time>
      </trkpt>
      <trkpt lat="40.03513" lon="-2.137272">
        <ele>961.0</ele>
        <time>2021-07-27T17:41:15Z</time>
      </trkpt>
      <trkpt lat="40.035202" lon="-2.1372614">
        <ele>960.0</ele>
        <time>2021-07-27T17:41:16Z</time>
      </trkpt>
      <trkpt lat="40.03528" lon="-2.137252">
        <ele>960.0</ele>
        <time>2021-07-27T17:41:17Z</time>
      </trkpt>
      <trkpt lat="40.035355" lon="-2.1372433">
        <ele>960.0</ele>
        <time>2021-07-27T17:41:18Z</time>
      </trkpt>
      <trkpt lat="40.03543" lon="-2.1372356">
        <ele>960.0</ele>
        <time>2021-07-27T17:41:19Z</time>
      </trkpt>
      <trkpt lat="40.0355" lon="-2.1372304">
        <ele>960.0</ele>
        <time>2021-07-27T17:41:20Z</time>
      </trkpt>
      <trkpt lat="40.035572" lon="-2.1372263">
        <ele>959.0</ele>
        <time>2021-07-27T17:41:21Z</time>
      </trkpt>
      <trkpt lat="40.035645" lon="-2.1372237">
        <ele>959.0</ele>
        <time>2021-07-27T17:41:22Z</time>
      </trkpt>
      <trkpt lat="40.035786" lon="-2.1372247">
        <ele>959.0</ele>
        <time>2021-07-27T17:41:24Z</time>
      </trkpt>
      <trkpt lat="40.035854" lon="-2.1372273">
        <ele>960.0</ele>
        <time>2021-07-27T17:41:25Z</time>
      </trkpt>
      <trkpt lat="40.03592" lon="-2.1372316">
        <ele>960.0</ele>
        <time>2021-07-27T17:41:26Z</time>
      </trkpt>
      <trkpt lat="40.035984" lon="-2.137238">
        <ele>960.0</ele>
        <time>2021-07-27T17:41:27Z</time>
      </trkpt>
      <trkpt lat="40.036053" lon="-2.1372464">
        <ele>960.0</ele>
        <time>2021-07-27T17:41:28Z</time>
      </trkpt>
      <trkpt lat="40.036118" lon="-2.1372557">
        <ele>960.0</ele>
        <time>2021-07-27T17:41:29Z</time>
      </trkpt>
      <trkpt lat="40.036182" lon="-2.137267">
        <ele>960.0</ele>
        <time>2021-07-27T17:41:30Z</time>
      </trkpt>
      <trkpt lat="40.03625" lon="-2.1372788">
        <ele>960.0</ele>
        <time>2021-07-27T17:41:31Z</time>
      </trkpt>
      <trkpt lat="40.03632" lon="-2.1372907">
        <ele>960.0</ele>
        <time>2021-07-27T17:41:32Z</time>
      </trkpt>
      <trkpt lat="40.036385" lon="-2.137303">
        <ele>960.0</ele>
        <time>2021-07-27T17:41:33Z</time>
      </trkpt>
      <trkpt lat="40.036453" lon="-2.137315">
        <ele>960.0</ele>
        <time>2021-07-27T17:41:34Z</time>
      </trkpt>
      <trkpt lat="40.036522" lon="-2.137328">
        <ele>960.0</ele>
        <time>2021-07-27T17:41:35Z</time>
      </trkpt>
      <trkpt lat="40.036594" lon="-2.1373422">
        <ele>960.0</ele>
        <time>2021-07-27T17:41:36Z</time>
      </trkpt>
      <trkpt lat="40.036663" lon="-2.1373568">
        <ele>960.0</ele>
        <time>2021-07-27T17:41:37Z</time>
      </trkpt>
      <trkpt lat="40.03673" lon="-2.137372">
        <ele>960.0</ele>
        <time>2021-07-27T17:41:38Z</time>
      </trkpt>
      <trkpt lat="40.0368" lon="-2.1373878">
        <ele>960.0</ele>
        <time>2021-07-27T17:41:39Z</time>
      </trkpt>
      <trkpt lat="40.03687" lon="-2.1374028">
        <ele>960.0</ele>
        <time>2021-07-27T17:41:40Z</time>
      </trkpt>
      <trkpt lat="40.03694" lon="-2.137419">
        <ele>960.0</ele>
        <time>2021-07-27T17:41:41Z</time>
      </trkpt>
      <trkpt lat="40.03701" lon="-2.1374345">
        <ele>960.0</ele>
        <time>2021-07-27T17:41:42Z</time>
      </trkpt>
      <trkpt lat="40.03708" lon="-2.1374483">
        <ele>960.0</ele>
        <time>2021-07-27T17:41:43Z</time>
      </trkpt>
      <trkpt lat="40.037148" lon="-2.1374602">
        <ele>960.0</ele>
        <time>2021-07-27T17:41:44Z</time>
      </trkpt>
      <trkpt lat="40.037216" lon="-2.1374705">
        <ele>960.0</ele>
        <time>2021-07-27T17:41:45Z</time>
      </trkpt>
      <trkpt lat="40.03727" lon="-2.137483">
        <ele>960.0</ele>
        <time>2021-07-27T17:41:46Z</time>
      </trkpt>
      <trkpt lat="40.037323" lon="-2.1375">
        <ele>960.0</ele>
        <time>2021-07-27T17:41:47Z</time>
      </trkpt>
      <trkpt lat="40.037365" lon="-2.1375215">
        <ele>960.0</ele>
        <time>2021-07-27T17:41:48Z</time>
      </trkpt>
      <trkpt lat="40.037434" lon="-2.1375701">
        <ele>960.0</ele>
        <time>2021-07-27T17:41:50Z</time>
      </trkpt>
      <trkpt lat="40.037495" lon="-2.1376085">
        <ele>960.0</ele>
        <time>2021-07-27T17:41:52Z</time>
      </trkpt>
      <trkpt lat="40.03756" lon="-2.13764">
        <ele>960.0</ele>
        <time>2021-07-27T17:41:54Z</time>
      </trkpt>
      <trkpt lat="40.037636" lon="-2.1376724">
        <ele>960.0</ele>
        <time>2021-07-27T17:41:56Z</time>
      </trkpt>
      <trkpt lat="40.037724" lon="-2.1377108">
        <ele>960.0</ele>
        <time>2021-07-27T17:41:58Z</time>
      </trkpt>
      <trkpt lat="40.037823" lon="-2.1377497">
        <ele>959.0</ele>
        <time>2021-07-27T17:42:00Z</time>
      </trkpt>
      <trkpt lat="40.037926" lon="-2.137786">
        <ele>959.0</ele>
        <time>2021-07-27T17:42:02Z</time>
      </trkpt>
      <trkpt lat="40.03798" lon="-2.1378062">
        <ele>959.0</ele>
        <time>2021-07-27T17:42:03Z</time>
      </trkpt>
      <trkpt lat="40.038033" lon="-2.137828">
        <ele>959.0</ele>
        <time>2021-07-27T17:42:04Z</time>
      </trkpt>
      <trkpt lat="40.038086" lon="-2.1378515">
        <ele>959.0</ele>
        <time>2021-07-27T17:42:05Z</time>
      </trkpt>
      <trkpt lat="40.038143" lon="-2.1378763">
        <ele>959.0</ele>
        <time>2021-07-27T17:42:06Z</time>
      </trkpt>
      <trkpt lat="40.038193" lon="-2.137902">
        <ele>959.0</ele>
        <time>2021-07-27T17:42:07Z</time>
      </trkpt>
      <trkpt lat="40.038242" lon="-2.1379268">
        <ele>959.0</ele>
        <time>2021-07-27T17:42:08Z</time>
      </trkpt>
      <trkpt lat="40.03832" lon="-2.1379693">
        <ele>958.0</ele>
        <time>2021-07-27T17:42:10Z</time>
      </trkpt>
      <trkpt lat="40.038364" lon="-2.1379962">
        <ele>958.0</ele>
        <time>2021-07-27T17:42:12Z</time>
      </trkpt>
      <trkpt lat="40.0384" lon="-2.1380177">
        <ele>958.0</ele>
        <time>2021-07-27T17:42:15Z</time>
      </trkpt>
      <trkpt lat="40.03847" lon="-2.1380162">
        <ele>957.0</ele>
        <time>2021-07-27T17:42:19Z</time>
      </trkpt>
      <trkpt lat="40.038517" lon="-2.1379356">
        <ele>956.0</ele>
        <time>2021-07-27T17:42:22Z</time>
      </trkpt>
      <trkpt lat="40.038548" lon="-2.1378431">
        <ele>956.0</ele>
        <time>2021-07-27T17:42:24Z</time>
      </trkpt>
      <trkpt lat="40.038586" lon="-2.1377409">
        <ele>956.0</ele>
        <time>2021-07-27T17:42:26Z</time>
      </trkpt>
      <trkpt lat="40.03869" lon="-2.1375983">
        <ele>956.0</ele>
        <time>2021-07-27T17:42:29Z</time>
      </trkpt>
      <trkpt lat="40.038734" lon="-2.1375632">
        <ele>956.0</ele>
        <time>2021-07-27T17:42:30Z</time>
      </trkpt>
      <trkpt lat="40.038834" lon="-2.1375198">
        <ele>955.0</ele>
        <time>2021-07-27T17:42:32Z</time>
      </trkpt>
      <trkpt lat="40.03889" lon="-2.1375122">
        <ele>955.0</ele>
        <time>2021-07-27T17:42:33Z</time>
      </trkpt>
      <trkpt lat="40.038944" lon="-2.1375146">
        <ele>955.0</ele>
        <time>2021-07-27T17:42:34Z</time>
      </trkpt>
      <trkpt lat="40.038998" lon="-2.1375256">
        <ele>955.0</ele>
        <time>2021-07-27T17:42:35Z</time>
      </trkpt>
      <trkpt lat="40.03905" lon="-2.1375449">
        <ele>955.0</ele>
        <time>2021-07-27T17:42:36Z</time>
      </trkpt>
      <trkpt lat="40.039104" lon="-2.137574">
        <ele>955.0</ele>
        <time>2021-07-27T17:42:37Z</time>
      </trkpt>
      <trkpt lat="40.039154" lon="-2.1376119">
        <ele>955.0</ele>
        <time>2021-07-27T17:42:38Z</time>
      </trkpt>
      <trkpt lat="40.039196" lon="-2.1376584">
        <ele>955.0</ele>
        <time>2021-07-27T17:42:39Z</time>
      </trkpt>
      <trkpt lat="40.03923" lon="-2.137707">
        <ele>955.0</ele>
        <time>2021-07-27T17:42:40Z</time>
      </trkpt>
      <trkpt lat="40.03926" lon="-2.1377652">
        <ele>955.0</ele>
        <time>2021-07-27T17:42:41Z</time>
      </trkpt>
      <trkpt lat="40.039288" lon="-2.1378272">
        <ele>955.0</ele>
        <time>2021-07-27T17:42:42Z</time>
      </trkpt>
      <trkpt lat="40.039307" lon="-2.1378915">
        <ele>955.0</ele>
        <time>2021-07-27T17:42:43Z</time>
      </trkpt>
      <trkpt lat="40.039318" lon="-2.1379583">
        <ele>956.0</ele>
        <time>2021-07-27T17:42:44Z</time>
      </trkpt>
      <trkpt lat="40.039318" lon="-2.138024">
        <ele>956.0</ele>
        <time>2021-07-27T17:42:45Z</time>
      </trkpt>
      <trkpt lat="40.039314" lon="-2.1380906">
        <ele>956.0</ele>
        <time>2021-07-27T17:42:46Z</time>
      </trkpt>
      <trkpt lat="40.039295" lon="-2.1382177">
        <ele>956.0</ele>
        <time>2021-07-27T17:42:48Z</time>
      </trkpt>
      <trkpt lat="40.03929" lon="-2.1383328">
        <ele>957.0</ele>
        <time>2021-07-27T17:42:50Z</time>
      </trkpt>
      <trkpt lat="40.039318" lon="-2.1384196">
        <ele>957.0</ele>
        <time>2021-07-27T17:42:52Z</time>
      </trkpt>
      <trkpt lat="40.03937" lon="-2.1384823">
        <ele>957.0</ele>
        <time>2021-07-27T17:42:54Z</time>
      </trkpt>
      <trkpt lat="40.039436" lon="-2.138527">
        <ele>957.0</ele>
        <time>2021-07-27T17:42:56Z</time>
      </trkpt>
      <trkpt lat="40.039516" lon="-2.1385648">
        <ele>958.0</ele>
        <time>2021-07-27T17:42:58Z</time>
      </trkpt>
      <trkpt lat="40.039604" lon="-2.138604">
        <ele>958.0</ele>
        <time>2021-07-27T17:43:00Z</time>
      </trkpt>
      <trkpt lat="40.039707" lon="-2.1386476">
        <ele>958.0</ele>
        <time>2021-07-27T17:43:02Z</time>
      </trkpt>
      <trkpt lat="40.03976" lon="-2.1386719">
        <ele>958.0</ele>
        <time>2021-07-27T17:43:03Z</time>
      </trkpt>
      <trkpt lat="40.039814" lon="-2.1386971">
        <ele>958.0</ele>
        <time>2021-07-27T17:43:04Z</time>
      </trkpt>
      <trkpt lat="40.03987" lon="-2.138724">
        <ele>958.0</ele>
        <time>2021-07-27T17:43:05Z</time>
      </trkpt>
      <trkpt lat="40.03993" lon="-2.1387527">
        <ele>958.0</ele>
        <time>2021-07-27T17:43:06Z</time>
      </trkpt>
      <trkpt lat="40.03999" lon="-2.1387858">
        <ele>958.0</ele>
        <time>2021-07-27T17:43:07Z</time>
      </trkpt>
      <trkpt lat="40.04005" lon="-2.1388202">
        <ele>957.0</ele>
        <time>2021-07-27T17:43:08Z</time>
      </trkpt>
      <trkpt lat="40.040108" lon="-2.138857">
        <ele>957.0</ele>
        <time>2021-07-27T17:43:09Z</time>
      </trkpt>
      <trkpt lat="40.040165" lon="-2.1388948">
        <ele>957.0</ele>
        <time>2021-07-27T17:43:10Z</time>
      </trkpt>
      <trkpt lat="40.040222" lon="-2.1389334">
        <ele>957.0</ele>
        <time>2021-07-27T17:43:11Z</time>
      </trkpt>
      <trkpt lat="40.040276" lon="-2.1389728">
        <ele>957.0</ele>
        <time>2021-07-27T17:43:12Z</time>
      </trkpt>
      <trkpt lat="40.04033" lon="-2.139013">
        <ele>957.0</ele>
        <time>2021-07-27T17:43:13Z</time>
      </trkpt>
      <trkpt lat="40.040386" lon="-2.1390553">
        <ele>957.0</ele>
        <time>2021-07-27T17:43:14Z</time>
      </trkpt>
      <trkpt lat="40.04044" lon="-2.1390982">
        <ele>957.0</ele>
        <time>2021-07-27T17:43:15Z</time>
      </trkpt>
      <trkpt lat="40.040493" lon="-2.1391413">
        <ele>956.0</ele>
        <time>2021-07-27T17:43:16Z</time>
      </trkpt>
      <trkpt lat="40.040546" lon="-2.1391838">
        <ele>956.0</ele>
        <time>2021-07-27T17:43:17Z</time>
      </trkpt>
      <trkpt lat="40.040604" lon="-2.1392262">
        <ele>956.0</ele>
        <time>2021-07-27T17:43:18Z</time>
      </trkpt>
      <trkpt lat="40.040657" lon="-2.1392667">
        <ele>956.0</ele>
        <time>2021-07-27T17:43:19Z</time>
      </trkpt>
      <trkpt lat="40.04071" lon="-2.1393058">
        <ele>956.0</ele>
        <time>2021-07-27T17:43:20Z</time>
      </trkpt>
      <trkpt lat="40.040764" lon="-2.1393454">
        <ele>956.0</ele>
        <time>2021-07-27T17:43:21Z</time>
      </trkpt>
      <trkpt lat="40.04082" lon="-2.1393838">
        <ele>956.0</ele>
        <time>2021-07-27T17:43:22Z</time>
      </trkpt>
      <trkpt lat="40.040874" lon="-2.139424">
        <ele>955.0</ele>
        <time>2021-07-27T17:43:23Z</time>
      </trkpt>
      <trkpt lat="40.04092" lon="-2.139462">
        <ele>955.0</ele>
        <time>2021-07-27T17:43:24Z</time>
      </trkpt>
      <trkpt lat="40.040974" lon="-2.139501">
        <ele>955.0</ele>
        <time>2021-07-27T17:43:25Z</time>
      </trkpt>
      <trkpt lat="40.04103" lon="-2.139542">
        <ele>955.0</ele>
        <time>2021-07-27T17:43:26Z</time>
      </trkpt>
      <trkpt lat="40.04108" lon="-2.1395779">
        <ele>955.0</ele>
        <time>2021-07-27T17:43:27Z</time>
      </trkpt>
      <trkpt lat="40.04113" lon="-2.1396108">
        <ele>955.0</ele>
        <time>2021-07-27T17:43:28Z</time>
      </trkpt>
      <trkpt lat="40.041183" lon="-2.1396399">
        <ele>955.0</ele>
        <time>2021-07-27T17:43:29Z</time>
      </trkpt>
      <trkpt lat="40.04124" lon="-2.139665">
        <ele>955.0</ele>
        <time>2021-07-27T17:43:30Z</time>
      </trkpt>
      <trkpt lat="40.041348" lon="-2.139702">
        <ele>955.0</ele>
        <time>2021-07-27T17:43:32Z</time>
      </trkpt>
      <trkpt lat="40.04141" lon="-2.1397154">
        <ele>955.0</ele>
        <time>2021-07-27T17:43:33Z</time>
      </trkpt>
      <trkpt lat="40.041466" lon="-2.1397262">
        <ele>955.0</ele>
        <time>2021-07-27T17:43:34Z</time>
      </trkpt>
      <trkpt lat="40.041523" lon="-2.139733">
        <ele>955.0</ele>
        <time>2021-07-27T17:43:35Z</time>
      </trkpt>
      <trkpt lat="40.04158" lon="-2.1397374">
        <ele>955.0</ele>
        <time>2021-07-27T17:43:36Z</time>
      </trkpt>
      <trkpt lat="40.041637" lon="-2.1397398">
        <ele>955.0</ele>
        <time>2021-07-27T17:43:37Z</time>
      </trkpt>
      <trkpt lat="40.0417" lon="-2.1397405">
        <ele>955.0</ele>
        <time>2021-07-27T17:43:38Z</time>
      </trkpt>
      <trkpt lat="40.041756" lon="-2.1397378">
        <ele>955.0</ele>
        <time>2021-07-27T17:43:39Z</time>
      </trkpt>
      <trkpt lat="40.041817" lon="-2.139734">
        <ele>955.0</ele>
        <time>2021-07-27T17:43:40Z</time>
      </trkpt>
      <trkpt lat="40.041878" lon="-2.1397295">
        <ele>955.0</ele>
        <time>2021-07-27T17:43:41Z</time>
      </trkpt>
      <trkpt lat="40.041935" lon="-2.1397245">
        <ele>955.0</ele>
        <time>2021-07-27T17:43:42Z</time>
      </trkpt>
      <trkpt lat="40.041996" lon="-2.1397197">
        <ele>955.0</ele>
        <time>2021-07-27T17:43:43Z</time>
      </trkpt>
      <trkpt lat="40.042057" lon="-2.139715">
        <ele>955.0</ele>
        <time>2021-07-27T17:43:44Z</time>
      </trkpt>
      <trkpt lat="40.042114" lon="-2.1397111">
        <ele>955.0</ele>
        <time>2021-07-27T17:43:45Z</time>
      </trkpt>
      <trkpt lat="40.04217" lon="-2.1397076">
        <ele>955.0</ele>
        <time>2021-07-27T17:43:46Z</time>
      </trkpt>
      <trkpt lat="40.04223" lon="-2.1397038">
        <ele>954.0</ele>
        <time>2021-07-27T17:43:47Z</time>
      </trkpt>
      <trkpt lat="40.042282" lon="-2.139701">
        <ele>954.0</ele>
        <time>2021-07-27T17:43:48Z</time>
      </trkpt>
      <trkpt lat="40.04233" lon="-2.139698">
        <ele>954.0</ele>
        <time>2021-07-27T17:43:49Z</time>
      </trkpt>
      <trkpt lat="40.04238" lon="-2.1396954">
        <ele>954.0</ele>
        <time>2021-07-27T17:43:50Z</time>
      </trkpt>
      <trkpt lat="40.04243" lon="-2.1396935">
        <ele>954.0</ele>
        <time>2021-07-27T17:43:51Z</time>
      </trkpt>
      <trkpt lat="40.042534" lon="-2.1396878">
        <ele>954.0</ele>
        <time>2021-07-27T17:43:53Z</time>
      </trkpt>
      <trkpt lat="40.042587" lon="-2.1396842">
        <ele>954.0</ele>
        <time>2021-07-27T17:43:54Z</time>
      </trkpt>
      <trkpt lat="40.042645" lon="-2.139678">
        <ele>954.0</ele>
        <time>2021-07-27T17:43:55Z</time>
      </trkpt>
      <trkpt lat="40.0427" lon="-2.1396687">
        <ele>954.0</ele>
        <time>2021-07-27T17:43:56Z</time>
      </trkpt>
      <trkpt lat="40.04276" lon="-2.1396556">
        <ele>954.0</ele>
        <time>2021-07-27T17:43:57Z</time>
      </trkpt>
      <trkpt lat="40.04282" lon="-2.139639">
        <ele>953.0</ele>
        <time>2021-07-27T17:43:58Z</time>
      </trkpt>
      <trkpt lat="40.04288" lon="-2.1396198">
        <ele>953.0</ele>
        <time>2021-07-27T17:43:59Z</time>
      </trkpt>
      <trkpt lat="40.042942" lon="-2.139599">
        <ele>953.0</ele>
        <time>2021-07-27T17:44:00Z</time>
      </trkpt>
      <trkpt lat="40.043007" lon="-2.1395774">
        <ele>953.0</ele>
        <time>2021-07-27T17:44:01Z</time>
      </trkpt>
      <trkpt lat="40.043068" lon="-2.1395562">
        <ele>953.0</ele>
        <time>2021-07-27T17:44:02Z</time>
      </trkpt>
      <trkpt lat="40.043133" lon="-2.1395364">
        <ele>953.0</ele>
        <time>2021-07-27T17:44:03Z</time>
      </trkpt>
      <trkpt lat="40.043194" lon="-2.1395202">
        <ele>952.0</ele>
        <time>2021-07-27T17:44:04Z</time>
      </trkpt>
      <trkpt lat="40.043255" lon="-2.1395068">
        <ele>952.0</ele>
        <time>2021-07-27T17:44:05Z</time>
      </trkpt>
      <trkpt lat="40.043316" lon="-2.139496">
        <ele>952.0</ele>
        <time>2021-07-27T17:44:06Z</time>
      </trkpt>
      <trkpt lat="40.04338" lon="-2.1394885">
        <ele>952.0</ele>
        <time>2021-07-27T17:44:07Z</time>
      </trkpt>
      <trkpt lat="40.043446" lon="-2.1394835">
        <ele>952.0</ele>
        <time>2021-07-27T17:44:08Z</time>
      </trkpt>
      <trkpt lat="40.04351" lon="-2.1394813">
        <ele>952.0</ele>
        <time>2021-07-27T17:44:09Z</time>
      </trkpt>
      <trkpt lat="40.043575" lon="-2.139481">
        <ele>951.0</ele>
        <time>2021-07-27T17:44:10Z</time>
      </trkpt>
      <trkpt lat="40.043636" lon="-2.1394815">
        <ele>951.0</ele>
        <time>2021-07-27T17:44:11Z</time>
      </trkpt>
      <trkpt lat="40.0437" lon="-2.1394825">
        <ele>951.0</ele>
        <time>2021-07-27T17:44:12Z</time>
      </trkpt>
      <trkpt lat="40.043766" lon="-2.1394825">
        <ele>951.0</ele>
        <time>2021-07-27T17:44:13Z</time>
      </trkpt>
      <trkpt lat="40.043827" lon="-2.1394813">
        <ele>951.0</ele>
        <time>2021-07-27T17:44:14Z</time>
      </trkpt>
      <trkpt lat="40.043888" lon="-2.139478">
        <ele>951.0</ele>
        <time>2021-07-27T17:44:15Z</time>
      </trkpt>
      <trkpt lat="40.043953" lon="-2.1394725">
        <ele>951.0</ele>
        <time>2021-07-27T17:44:16Z</time>
      </trkpt>
      <trkpt lat="40.044014" lon="-2.1394656">
        <ele>951.0</ele>
        <time>2021-07-27T17:44:17Z</time>
      </trkpt>
      <trkpt lat="40.044075" lon="-2.1394565">
        <ele>951.0</ele>
        <time>2021-07-27T17:44:18Z</time>
      </trkpt>
      <trkpt lat="40.044136" lon="-2.1394455">
        <ele>950.0</ele>
        <time>2021-07-27T17:44:19Z</time>
      </trkpt>
      <trkpt lat="40.0442" lon="-2.1394334">
        <ele>950.0</ele>
        <time>2021-07-27T17:44:20Z</time>
      </trkpt>
      <trkpt lat="40.044266" lon="-2.1394203">
        <ele>950.0</ele>
        <time>2021-07-27T17:44:21Z</time>
      </trkpt>
      <trkpt lat="40.044327" lon="-2.1394086">
        <ele>950.0</ele>
        <time>2021-07-27T17:44:22Z</time>
      </trkpt>
      <trkpt lat="40.04439" lon="-2.1394002">
        <ele>950.0</ele>
        <time>2021-07-27T17:44:23Z</time>
      </trkpt>
      <trkpt lat="40.044453" lon="-2.1393952">
        <ele>950.0</ele>
        <time>2021-07-27T17:44:24Z</time>
      </trkpt>
      <trkpt lat="40.044518" lon="-2.1393933">
        <ele>950.0</ele>
        <time>2021-07-27T17:44:25Z</time>
      </trkpt>
      <trkpt lat="40.04458" lon="-2.1393938">
        <ele>950.0</ele>
        <time>2021-07-27T17:44:26Z</time>
      </trkpt>
      <trkpt lat="40.044643" lon="-2.139397">
        <ele>950.0</ele>
        <time>2021-07-27T17:44:27Z</time>
      </trkpt>
      <trkpt lat="40.044704" lon="-2.1394017">
        <ele>950.0</ele>
        <time>2021-07-27T17:44:28Z</time>
      </trkpt>
      <trkpt lat="40.044765" lon="-2.1394076">
        <ele>950.0</ele>
        <time>2021-07-27T17:44:29Z</time>
      </trkpt>
      <trkpt lat="40.044834" lon="-2.1394157">
        <ele>949.0</ele>
        <time>2021-07-27T17:44:30Z</time>
      </trkpt>
      <trkpt lat="40.0449" lon="-2.139424">
        <ele>949.0</ele>
        <time>2021-07-27T17:44:31Z</time>
      </trkpt>
      <trkpt lat="40.04496" lon="-2.1394334">
        <ele>949.0</ele>
        <time>2021-07-27T17:44:32Z</time>
      </trkpt>
      <trkpt lat="40.045025" lon="-2.139443">
        <ele>949.0</ele>
        <time>2021-07-27T17:44:33Z</time>
      </trkpt>
      <trkpt lat="40.045155" lon="-2.1394641">
        <ele>949.0</ele>
        <time>2021-07-27T17:44:35Z</time>
      </trkpt>
      <trkpt lat="40.045216" lon="-2.1394758">
        <ele>949.0</ele>
        <time>2021-07-27T17:44:36Z</time>
      </trkpt>
      <trkpt lat="40.045277" lon="-2.1394877">
        <ele>949.0</ele>
        <time>2021-07-27T17:44:37Z</time>
      </trkpt>
      <trkpt lat="40.04534" lon="-2.139501">
        <ele>949.0</ele>
        <time>2021-07-27T17:44:38Z</time>
      </trkpt>
      <trkpt lat="40.045403" lon="-2.139515">
        <ele>949.0</ele>
        <time>2021-07-27T17:44:39Z</time>
      </trkpt>
      <trkpt lat="40.045464" lon="-2.1395288">
        <ele>949.0</ele>
        <time>2021-07-27T17:44:40Z</time>
      </trkpt>
      <trkpt lat="40.04553" lon="-2.1395435">
        <ele>949.0</ele>
        <time>2021-07-27T17:44:41Z</time>
      </trkpt>
      <trkpt lat="40.04559" lon="-2.1395574">
        <ele>948.0</ele>
        <time>2021-07-27T17:44:42Z</time>
      </trkpt>
      <trkpt lat="40.045654" lon="-2.1395702">
        <ele>948.0</ele>
        <time>2021-07-27T17:44:43Z</time>
      </trkpt>
      <trkpt lat="40.045715" lon="-2.1395822">
        <ele>948.0</ele>
        <time>2021-07-27T17:44:44Z</time>
      </trkpt>
      <trkpt lat="40.045776" lon="-2.1395931">
        <ele>948.0</ele>
        <time>2021-07-27T17:44:45Z</time>
      </trkpt>
      <trkpt lat="40.04584" lon="-2.1396036">
        <ele>948.0</ele>
        <time>2021-07-27T17:44:46Z</time>
      </trkpt>
      <trkpt lat="40.045902" lon="-2.1396139">
        <ele>948.0</ele>
        <time>2021-07-27T17:44:47Z</time>
      </trkpt>
      <trkpt lat="40.045963" lon="-2.139621">
        <ele>948.0</ele>
        <time>2021-07-27T17:44:48Z</time>
      </trkpt>
      <trkpt lat="40.04603" lon="-2.139625">
        <ele>948.0</ele>
        <time>2021-07-27T17:44:49Z</time>
      </trkpt>
      <trkpt lat="40.04609" lon="-2.1396265">
        <ele>948.0</ele>
        <time>2021-07-27T17:44:50Z</time>
      </trkpt>
      <trkpt lat="40.04614" lon="-2.1396265">
        <ele>948.0</ele>
        <time>2021-07-27T17:44:51Z</time>
      </trkpt>
      <trkpt lat="40.04619" lon="-2.1396239">
        <ele>948.0</ele>
        <time>2021-07-27T17:44:52Z</time>
      </trkpt>
      <trkpt lat="40.046272" lon="-2.1396146">
        <ele>948.0</ele>
        <time>2021-07-27T17:44:54Z</time>
      </trkpt>
      <trkpt lat="40.046364" lon="-2.139609">
        <ele>948.0</ele>
        <time>2021-07-27T17:44:56Z</time>
      </trkpt>
      <trkpt lat="40.046463" lon="-2.1396124">
        <ele>948.0</ele>
        <time>2021-07-27T17:44:58Z</time>
      </trkpt>
      <trkpt lat="40.046516" lon="-2.1396189">
        <ele>948.0</ele>
        <time>2021-07-27T17:44:59Z</time>
      </trkpt>
      <trkpt lat="40.046566" lon="-2.139627">
        <ele>948.0</ele>
        <time>2021-07-27T17:45:00Z</time>
      </trkpt>
      <trkpt lat="40.046673" lon="-2.1396444">
        <ele>948.0</ele>
        <time>2021-07-27T17:45:02Z</time>
      </trkpt>
      <trkpt lat="40.046726" lon="-2.1396546">
        <ele>948.0</ele>
        <time>2021-07-27T17:45:03Z</time>
      </trkpt>
      <trkpt lat="40.04683" lon="-2.1396768">
        <ele>948.0</ele>
        <time>2021-07-27T17:45:05Z</time>
      </trkpt>
      <trkpt lat="40.04688" lon="-2.1396892">
        <ele>948.0</ele>
        <time>2021-07-27T17:45:06Z</time>
      </trkpt>
      <trkpt lat="40.04693" lon="-2.1397018">
        <ele>948.0</ele>
        <time>2021-07-27T17:45:07Z</time>
      </trkpt>
      <trkpt lat="40.047024" lon="-2.1397285">
        <ele>948.0</ele>
        <time>2021-07-27T17:45:09Z</time>
      </trkpt>
      <trkpt lat="40.047123" lon="-2.1397521">
        <ele>948.0</ele>
        <time>2021-07-27T17:45:11Z</time>
      </trkpt>
      <trkpt lat="40.04722" lon="-2.1397696">
        <ele>948.0</ele>
        <time>2021-07-27T17:45:13Z</time>
      </trkpt>
      <trkpt lat="40.047268" lon="-2.1397786">
        <ele>948.0</ele>
        <time>2021-07-27T17:45:14Z</time>
      </trkpt>
      <trkpt lat="40.047356" lon="-2.1397977">
        <ele>948.0</ele>
        <time>2021-07-27T17:45:16Z</time>
      </trkpt>
      <trkpt lat="40.047443" lon="-2.1398208">
        <ele>948.0</ele>
        <time>2021-07-27T17:45:18Z</time>
      </trkpt>
      <trkpt lat="40.04752" lon="-2.1398454">
        <ele>949.0</ele>
        <time>2021-07-27T17:45:20Z</time>
      </trkpt>
      <trkpt lat="40.0476" lon="-2.1398706">
        <ele>949.0</ele>
        <time>2021-07-27T17:45:22Z</time>
      </trkpt>
      <trkpt lat="40.047676" lon="-2.1398962">
        <ele>949.0</ele>
        <time>2021-07-27T17:45:24Z</time>
      </trkpt>
      <trkpt lat="40.047752" lon="-2.1399202">
        <ele>950.0</ele>
        <time>2021-07-27T17:45:26Z</time>
      </trkpt>
      <trkpt lat="40.047832" lon="-2.1399448">
        <ele>950.0</ele>
        <time>2021-07-27T17:45:28Z</time>
      </trkpt>
      <trkpt lat="40.04791" lon="-2.1399682">
        <ele>950.0</ele>
        <time>2021-07-27T17:45:30Z</time>
      </trkpt>
      <trkpt lat="40.04799" lon="-2.1399913">
        <ele>950.0</ele>
        <time>2021-07-27T17:45:32Z</time>
      </trkpt>
      <trkpt lat="40.048065" lon="-2.1400175">
        <ele>951.0</ele>
        <time>2021-07-27T17:45:34Z</time>
      </trkpt>
      <trkpt lat="40.048145" lon="-2.1400454">
        <ele>951.0</ele>
        <time>2021-07-27T17:45:36Z</time>
      </trkpt>
      <trkpt lat="40.04822" lon="-2.1400745">
        <ele>951.0</ele>
        <time>2021-07-27T17:45:38Z</time>
      </trkpt>
      <trkpt lat="40.048332" lon="-2.1401174">
        <ele>951.0</ele>
        <time>2021-07-27T17:45:41Z</time>
      </trkpt>
      <trkpt lat="40.048416" lon="-2.1401525">
        <ele>951.0</ele>
        <time>2021-07-27T17:45:43Z</time>
      </trkpt>
      <trkpt lat="40.04851" lon="-2.1401954">
        <ele>951.0</ele>
        <time>2021-07-27T17:45:45Z</time>
      </trkpt>
      <trkpt lat="40.048615" lon="-2.1402411">
        <ele>951.0</ele>
        <time>2021-07-27T17:45:47Z</time>
      </trkpt>
      <trkpt lat="40.04867" lon="-2.1402657">
        <ele>951.0</ele>
        <time>2021-07-27T17:45:48Z</time>
      </trkpt>
      <trkpt lat="40.048737" lon="-2.1402922">
        <ele>951.0</ele>
        <time>2021-07-27T17:45:49Z</time>
      </trkpt>
      <trkpt lat="40.0488" lon="-2.1403172">
        <ele>951.0</ele>
        <time>2021-07-27T17:45:50Z</time>
      </trkpt>
      <trkpt lat="40.048866" lon="-2.1403396">
        <ele>951.0</ele>
        <time>2021-07-27T17:45:51Z</time>
      </trkpt>
      <trkpt lat="40.048927" lon="-2.1403596">
        <ele>950.0</ele>
        <time>2021-07-27T17:45:52Z</time>
      </trkpt>
      <trkpt lat="40.04899" lon="-2.1403785">
        <ele>950.0</ele>
        <time>2021-07-27T17:45:53Z</time>
      </trkpt>
      <trkpt lat="40.04905" lon="-2.1403935">
        <ele>950.0</ele>
        <time>2021-07-27T17:45:54Z</time>
      </trkpt>
      <trkpt lat="40.04911" lon="-2.1404064">
        <ele>950.0</ele>
        <time>2021-07-27T17:45:55Z</time>
      </trkpt>
      <trkpt lat="40.049175" lon="-2.1404183">
        <ele>950.0</ele>
        <time>2021-07-27T17:45:56Z</time>
      </trkpt>
      <trkpt lat="40.049236" lon="-2.140429">
        <ele>950.0</ele>
        <time>2021-07-27T17:45:57Z</time>
      </trkpt>
      <trkpt lat="40.049294" lon="-2.140438">
        <ele>949.0</ele>
        <time>2021-07-27T17:45:58Z</time>
      </trkpt>
      <trkpt lat="40.04936" lon="-2.1404457">
        <ele>949.0</ele>
        <time>2021-07-27T17:45:59Z</time>
      </trkpt>
      <trkpt lat="40.04942" lon="-2.140453">
        <ele>949.0</ele>
        <time>2021-07-27T17:46:00Z</time>
      </trkpt>
      <trkpt lat="40.049484" lon="-2.14046">
        <ele>949.0</ele>
        <time>2021-07-27T17:46:01Z</time>
      </trkpt>
      <trkpt lat="40.04955" lon="-2.1404674">
        <ele>949.0</ele>
        <time>2021-07-27T17:46:02Z</time>
      </trkpt>
      <trkpt lat="40.049614" lon="-2.1404762">
        <ele>949.0</ele>
        <time>2021-07-27T17:46:03Z</time>
      </trkpt>
      <trkpt lat="40.04967" lon="-2.1404867">
        <ele>949.0</ele>
        <time>2021-07-27T17:46:04Z</time>
      </trkpt>
      <trkpt lat="40.049732" lon="-2.1404982">
        <ele>949.0</ele>
        <time>2021-07-27T17:46:05Z</time>
      </trkpt>
      <trkpt lat="40.049793" lon="-2.1405103">
        <ele>948.0</ele>
        <time>2021-07-27T17:46:06Z</time>
      </trkpt>
      <trkpt lat="40.049854" lon="-2.140524">
        <ele>948.0</ele>
        <time>2021-07-27T17:46:07Z</time>
      </trkpt>
      <trkpt lat="40.04991" lon="-2.1405373">
        <ele>948.0</ele>
        <time>2021-07-27T17:46:08Z</time>
      </trkpt>
      <trkpt lat="40.049973" lon="-2.1405506">
        <ele>948.0</ele>
        <time>2021-07-27T17:46:09Z</time>
      </trkpt>
      <trkpt lat="40.05003" lon="-2.1405642">
        <ele>948.0</ele>
        <time>2021-07-27T17:46:10Z</time>
      </trkpt>
      <trkpt lat="40.05009" lon="-2.1405787">
        <ele>948.0</ele>
        <time>2021-07-27T17:46:11Z</time>
      </trkpt>
      <trkpt lat="40.050144" lon="-2.1405926">
        <ele>948.0</ele>
        <time>2021-07-27T17:46:12Z</time>
      </trkpt>
      <trkpt lat="40.050205" lon="-2.1406064">
        <ele>948.0</ele>
        <time>2021-07-27T17:46:13Z</time>
      </trkpt>
      <trkpt lat="40.05026" lon="-2.140619">
        <ele>947.0</ele>
        <time>2021-07-27T17:46:14Z</time>
      </trkpt>
      <trkpt lat="40.05032" lon="-2.14063">
        <ele>947.0</ele>
        <time>2021-07-27T17:46:15Z</time>
      </trkpt>
      <trkpt lat="40.050377" lon="-2.1406403">
        <ele>947.0</ele>
        <time>2021-07-27T17:46:16Z</time>
      </trkpt>
      <trkpt lat="40.05043" lon="-2.1406484">
        <ele>947.0</ele>
        <time>2021-07-27T17:46:17Z</time>
      </trkpt>
      <trkpt lat="40.050488" lon="-2.1406553">
        <ele>947.0</ele>
        <time>2021-07-27T17:46:18Z</time>
      </trkpt>
      <trkpt lat="40.05054" lon="-2.14066">
        <ele>947.0</ele>
        <time>2021-07-27T17:46:19Z</time>
      </trkpt>
      <trkpt lat="40.050594" lon="-2.140662">
        <ele>947.0</ele>
        <time>2021-07-27T17:46:20Z</time>
      </trkpt>
      <trkpt lat="40.050648" lon="-2.14066">
        <ele>947.0</ele>
        <time>2021-07-27T17:46:21Z</time>
      </trkpt>
      <trkpt lat="40.0507" lon="-2.1406553">
        <ele>947.0</ele>
        <time>2021-07-27T17:46:22Z</time>
      </trkpt>
      <trkpt lat="40.050755" lon="-2.1406476">
        <ele>947.0</ele>
        <time>2021-07-27T17:46:23Z</time>
      </trkpt>
      <trkpt lat="40.050808" lon="-2.1406357">
        <ele>947.0</ele>
        <time>2021-07-27T17:46:24Z</time>
      </trkpt>
      <trkpt lat="40.05086" lon="-2.1406193">
        <ele>946.0</ele>
        <time>2021-07-27T17:46:25Z</time>
      </trkpt>
      <trkpt lat="40.050915" lon="-2.1405993">
        <ele>946.0</ele>
        <time>2021-07-27T17:46:26Z</time>
      </trkpt>
      <trkpt lat="40.050964" lon="-2.1405737">
        <ele>946.0</ele>
        <time>2021-07-27T17:46:27Z</time>
      </trkpt>
      <trkpt lat="40.051018" lon="-2.1405444">
        <ele>946.0</ele>
        <time>2021-07-27T17:46:28Z</time>
      </trkpt>
      <trkpt lat="40.05107" lon="-2.1405122">
        <ele>946.0</ele>
        <time>2021-07-27T17:46:29Z</time>
      </trkpt>
      <trkpt lat="40.051125" lon="-2.140479">
        <ele>945.0</ele>
        <time>2021-07-27T17:46:30Z</time>
      </trkpt>
      <trkpt lat="40.05118" lon="-2.140448">
        <ele>945.0</ele>
        <time>2021-07-27T17:46:31Z</time>
      </trkpt>
      <trkpt lat="40.05124" lon="-2.1404183">
        <ele>945.0</ele>
        <time>2021-07-27T17:46:32Z</time>
      </trkpt>
      <trkpt lat="40.0513" lon="-2.140391">
        <ele>945.0</ele>
        <time>2021-07-27T17:46:33Z</time>
      </trkpt>
      <trkpt lat="40.051357" lon="-2.140367">
        <ele>945.0</ele>
        <time>2021-07-27T17:46:34Z</time>
      </trkpt>
      <trkpt lat="40.05142" lon="-2.1403463">
        <ele>945.0</ele>
        <time>2021-07-27T17:46:35Z</time>
      </trkpt>
      <trkpt lat="40.05148" lon="-2.140329">
        <ele>945.0</ele>
        <time>2021-07-27T17:46:36Z</time>
      </trkpt>
      <trkpt lat="40.051537" lon="-2.1403153">
        <ele>945.0</ele>
        <time>2021-07-27T17:46:37Z</time>
      </trkpt>
      <trkpt lat="40.051598" lon="-2.1403036">
        <ele>945.0</ele>
        <time>2021-07-27T17:46:38Z</time>
      </trkpt>
      <trkpt lat="40.051655" lon="-2.1402948">
        <ele>945.0</ele>
        <time>2021-07-27T17:46:39Z</time>
      </trkpt>
      <trkpt lat="40.051712" lon="-2.140288">
        <ele>944.0</ele>
        <time>2021-07-27T17:46:40Z</time>
      </trkpt>
      <trkpt lat="40.05177" lon="-2.140283">
        <ele>944.0</ele>
        <time>2021-07-27T17:46:41Z</time>
      </trkpt>
      <trkpt lat="40.051826" lon="-2.1402802">
        <ele>944.0</ele>
        <time>2021-07-27T17:46:42Z</time>
      </trkpt>
      <trkpt lat="40.051933" lon="-2.1402743">
        <ele>944.0</ele>
        <time>2021-07-27T17:46:44Z</time>
      </trkpt>
      <trkpt lat="40.051987" lon="-2.1402717">
        <ele>944.0</ele>
        <time>2021-07-27T17:46:45Z</time>
      </trkpt>
      <trkpt lat="40.052036" lon="-2.1402705">
        <ele>944.0</ele>
        <time>2021-07-27T17:46:46Z</time>
      </trkpt>
      <trkpt lat="40.05209" lon="-2.1402707">
        <ele>944.0</ele>
        <time>2021-07-27T17:46:47Z</time>
      </trkpt>
      <trkpt lat="40.05219" lon="-2.1402748">
        <ele>944.0</ele>
        <time>2021-07-27T17:46:49Z</time>
      </trkpt>
      <trkpt lat="40.052242" lon="-2.140279">
        <ele>944.0</ele>
        <time>2021-07-27T17:46:50Z</time>
      </trkpt>
      <trkpt lat="40.05235" lon="-2.1402888">
        <ele>944.0</ele>
        <time>2021-07-27T17:46:52Z</time>
      </trkpt>
      <trkpt lat="40.052406" lon="-2.140291">
        <ele>943.0</ele>
        <time>2021-07-27T17:46:53Z</time>
      </trkpt>
      <trkpt lat="40.05246" lon="-2.1402907">
        <ele>943.0</ele>
        <time>2021-07-27T17:46:54Z</time>
      </trkpt>
      <trkpt lat="40.052517" lon="-2.1402855">
        <ele>943.0</ele>
        <time>2021-07-27T17:46:55Z</time>
      </trkpt>
      <trkpt lat="40.052578" lon="-2.1402755">
        <ele>943.0</ele>
        <time>2021-07-27T17:46:56Z</time>
      </trkpt>
      <trkpt lat="40.052635" lon="-2.1402597">
        <ele>943.0</ele>
        <time>2021-07-27T17:46:57Z</time>
      </trkpt>
      <trkpt lat="40.052696" lon="-2.1402395">
        <ele>943.0</ele>
        <time>2021-07-27T17:46:58Z</time>
      </trkpt>
      <trkpt lat="40.052757" lon="-2.1402154">
        <ele>942.0</ele>
        <time>2021-07-27T17:46:59Z</time>
      </trkpt>
      <trkpt lat="40.05282" lon="-2.140191">
        <ele>942.0</ele>
        <time>2021-07-27T17:47:00Z</time>
      </trkpt>
      <trkpt lat="40.052883" lon="-2.140168">
        <ele>942.0</ele>
        <time>2021-07-27T17:47:01Z</time>
      </trkpt>
      <trkpt lat="40.052948" lon="-2.1401477">
        <ele>942.0</ele>
        <time>2021-07-27T17:47:02Z</time>
      </trkpt>
      <trkpt lat="40.05301" lon="-2.1401315">
        <ele>941.0</ele>
        <time>2021-07-27T17:47:03Z</time>
      </trkpt>
      <trkpt lat="40.05308" lon="-2.1401184">
        <ele>941.0</ele>
        <time>2021-07-27T17:47:04Z</time>
      </trkpt>
      <trkpt lat="40.053146" lon="-2.14011">
        <ele>941.0</ele>
        <time>2021-07-27T17:47:05Z</time>
      </trkpt>
      <trkpt lat="40.05322" lon="-2.1401033">
        <ele>941.0</ele>
        <time>2021-07-27T17:47:06Z</time>
      </trkpt>
      <trkpt lat="40.05329" lon="-2.140097">
        <ele>940.0</ele>
        <time>2021-07-27T17:47:07Z</time>
      </trkpt>
      <trkpt lat="40.053364" lon="-2.1400888">
        <ele>940.0</ele>
        <time>2021-07-27T17:47:08Z</time>
      </trkpt>
      <trkpt lat="40.05344" lon="-2.140078">
        <ele>940.0</ele>
        <time>2021-07-27T17:47:09Z</time>
      </trkpt>
      <trkpt lat="40.053516" lon="-2.1400666">
        <ele>940.0</ele>
        <time>2021-07-27T17:47:10Z</time>
      </trkpt>
      <trkpt lat="40.053593" lon="-2.1400545">
        <ele>940.0</ele>
        <time>2021-07-27T17:47:11Z</time>
      </trkpt>
      <trkpt lat="40.05367" lon="-2.1400409">
        <ele>940.0</ele>
        <time>2021-07-27T17:47:12Z</time>
      </trkpt>
      <trkpt lat="40.05374" lon="-2.1400251">
        <ele>939.0</ele>
        <time>2021-07-27T17:47:13Z</time>
      </trkpt>
      <trkpt lat="40.053818" lon="-2.1400084">
        <ele>939.0</ele>
        <time>2021-07-27T17:47:14Z</time>
      </trkpt>
      <trkpt lat="40.053886" lon="-2.1399922">
        <ele>939.0</ele>
        <time>2021-07-27T17:47:15Z</time>
      </trkpt>
      <trkpt lat="40.05396" lon="-2.1399765">
        <ele>939.0</ele>
        <time>2021-07-27T17:47:16Z</time>
      </trkpt>
      <trkpt lat="40.05403" lon="-2.1399632">
        <ele>939.0</ele>
        <time>2021-07-27T17:47:17Z</time>
      </trkpt>
      <trkpt lat="40.054096" lon="-2.139952">
        <ele>939.0</ele>
        <time>2021-07-27T17:47:18Z</time>
      </trkpt>
      <trkpt lat="40.05417" lon="-2.1399422">
        <ele>939.0</ele>
        <time>2021-07-27T17:47:19Z</time>
      </trkpt>
      <trkpt lat="40.054234" lon="-2.1399345">
        <ele>939.0</ele>
        <time>2021-07-27T17:47:20Z</time>
      </trkpt>
      <trkpt lat="40.0543" lon="-2.1399288">
        <ele>939.0</ele>
        <time>2021-07-27T17:47:21Z</time>
      </trkpt>
      <trkpt lat="40.054363" lon="-2.1399248">
        <ele>939.0</ele>
        <time>2021-07-27T17:47:22Z</time>
      </trkpt>
      <trkpt lat="40.054424" lon="-2.139923">
        <ele>938.0</ele>
        <time>2021-07-27T17:47:23Z</time>
      </trkpt>
      <trkpt lat="40.05448" lon="-2.1399236">
        <ele>938.0</ele>
        <time>2021-07-27T17:47:24Z</time>
      </trkpt>
      <trkpt lat="40.05454" lon="-2.139927">
        <ele>938.0</ele>
        <time>2021-07-27T17:47:25Z</time>
      </trkpt>
      <trkpt lat="40.054596" lon="-2.139933">
        <ele>938.0</ele>
        <time>2021-07-27T17:47:26Z</time>
      </trkpt>
      <trkpt lat="40.05465" lon="-2.1399403">
        <ele>938.0</ele>
        <time>2021-07-27T17:47:27Z</time>
      </trkpt>
      <trkpt lat="40.054745" lon="-2.1399574">
        <ele>938.0</ele>
        <time>2021-07-27T17:47:29Z</time>
      </trkpt>
      <trkpt lat="40.0548" lon="-2.139969">
        <ele>938.0</ele>
        <time>2021-07-27T17:47:30Z</time>
      </trkpt>
      <trkpt lat="40.054893" lon="-2.1399999">
        <ele>938.0</ele>
        <time>2021-07-27T17:47:32Z</time>
      </trkpt>
      <trkpt lat="40.054993" lon="-2.1400366">
        <ele>938.0</ele>
        <time>2021-07-27T17:47:34Z</time>
      </trkpt>
      <trkpt lat="40.055046" lon="-2.1400554">
        <ele>938.0</ele>
        <time>2021-07-27T17:47:35Z</time>
      </trkpt>
      <trkpt lat="40.055103" lon="-2.1400754">
        <ele>938.0</ele>
        <time>2021-07-27T17:47:36Z</time>
      </trkpt>
      <trkpt lat="40.055157" lon="-2.1400974">
        <ele>938.0</ele>
        <time>2021-07-27T17:47:37Z</time>
      </trkpt>
      <trkpt lat="40.055218" lon="-2.1401217">
        <ele>937.0</ele>
        <time>2021-07-27T17:47:38Z</time>
      </trkpt>
      <trkpt lat="40.055275" lon="-2.140146">
        <ele>937.0</ele>
        <time>2021-07-27T17:47:39Z</time>
      </trkpt>
      <trkpt lat="40.055336" lon="-2.1401708">
        <ele>937.0</ele>
        <time>2021-07-27T17:47:40Z</time>
      </trkpt>
      <trkpt lat="40.055393" lon="-2.1401956">
        <ele>937.0</ele>
        <time>2021-07-27T17:47:41Z</time>
      </trkpt>
      <trkpt lat="40.05545" lon="-2.1402209">
        <ele>936.0</ele>
        <time>2021-07-27T17:47:42Z</time>
      </trkpt>
      <trkpt lat="40.055515" lon="-2.1402457">
        <ele>936.0</ele>
        <time>2021-07-27T17:47:43Z</time>
      </trkpt>
      <trkpt lat="40.055576" lon="-2.1402698">
        <ele>936.0</ele>
        <time>2021-07-27T17:47:44Z</time>
      </trkpt>
      <trkpt lat="40.055645" lon="-2.1402943">
        <ele>935.0</ele>
        <time>2021-07-27T17:47:45Z</time>
      </trkpt>
      <trkpt lat="40.055714" lon="-2.1403182">
        <ele>935.0</ele>
        <time>2021-07-27T17:47:46Z</time>
      </trkpt>
      <trkpt lat="40.05578" lon="-2.1403415">
        <ele>934.0</ele>
        <time>2021-07-27T17:47:47Z</time>
      </trkpt>
      <trkpt lat="40.055897" lon="-2.1403844">
        <ele>934.0</ele>
        <time>2021-07-27T17:47:49Z</time>
      </trkpt>
      <trkpt lat="40.055946" lon="-2.140403">
        <ele>934.0</ele>
        <time>2021-07-27T17:47:50Z</time>
      </trkpt>
      <trkpt lat="40.05599" lon="-2.140417">
        <ele>933.0</ele>
        <time>2021-07-27T17:47:51Z</time>
      </trkpt>
      <trkpt lat="40.056057" lon="-2.1404278">
        <ele>933.0</ele>
        <time>2021-07-27T17:47:53Z</time>
      </trkpt>
      <trkpt lat="40.056114" lon="-2.1404219">
        <ele>933.0</ele>
        <time>2021-07-27T17:47:55Z</time>
      </trkpt>
      <trkpt lat="40.05617" lon="-2.1403997">
        <ele>933.0</ele>
        <time>2021-07-27T17:47:57Z</time>
      </trkpt>
      <trkpt lat="40.056232" lon="-2.140361">
        <ele>933.0</ele>
        <time>2021-07-27T17:47:59Z</time>
      </trkpt>
      <trkpt lat="40.056297" lon="-2.1403098">
        <ele>933.0</ele>
        <time>2021-07-27T17:48:01Z</time>
      </trkpt>
      <trkpt lat="40.05637" lon="-2.1402497">
        <ele>933.0</ele>
        <time>2021-07-27T17:48:03Z</time>
      </trkpt>
      <trkpt lat="40.056442" lon="-2.140186">
        <ele>933.0</ele>
        <time>2021-07-27T17:48:05Z</time>
      </trkpt>
      <trkpt lat="40.056522" lon="-2.1401205">
        <ele>933.0</ele>
        <time>2021-07-27T17:48:07Z</time>
      </trkpt>
      <trkpt lat="40.05656" lon="-2.1400864">
        <ele>933.0</ele>
        <time>2021-07-27T17:48:08Z</time>
      </trkpt>
      <trkpt lat="40.056637" lon="-2.1400144">
        <ele>933.0</ele>
        <time>2021-07-27T17:48:10Z</time>
      </trkpt>
      <trkpt lat="40.056713" lon="-2.1399364">
        <ele>933.0</ele>
        <time>2021-07-27T17:48:12Z</time>
      </trkpt>
      <trkpt lat="40.05678" lon="-2.1398494">
        <ele>933.0</ele>
        <time>2021-07-27T17:48:14Z</time>
      </trkpt>
      <trkpt lat="40.056816" lon="-2.1398032">
        <ele>933.0</ele>
        <time>2021-07-27T17:48:15Z</time>
      </trkpt>
      <trkpt lat="40.056877" lon="-2.1397061">
        <ele>933.0</ele>
        <time>2021-07-27T17:48:17Z</time>
      </trkpt>
      <trkpt lat="40.056904" lon="-2.139655">
        <ele>933.0</ele>
        <time>2021-07-27T17:48:18Z</time>
      </trkpt>
      <trkpt lat="40.056953" lon="-2.1395485">
        <ele>933.0</ele>
        <time>2021-07-27T17:48:20Z</time>
      </trkpt>
      <trkpt lat="40.056976" lon="-2.1394942">
        <ele>933.0</ele>
        <time>2021-07-27T17:48:21Z</time>
      </trkpt>
      <trkpt lat="40.057034" lon="-2.139393">
        <ele>933.0</ele>
        <time>2021-07-27T17:48:23Z</time>
      </trkpt>
      <trkpt lat="40.057102" lon="-2.1393142">
        <ele>933.0</ele>
        <time>2021-07-27T17:48:25Z</time>
      </trkpt>
      <trkpt lat="40.057186" lon="-2.1392698">
        <ele>933.0</ele>
        <time>2021-07-27T17:48:27Z</time>
      </trkpt>
      <trkpt lat="40.057274" lon="-2.1392567">
        <ele>933.0</ele>
        <time>2021-07-27T17:48:29Z</time>
      </trkpt>
      <trkpt lat="40.057365" lon="-2.1392438">
        <ele>933.0</ele>
        <time>2021-07-27T17:48:31Z</time>
      </trkpt>
      <trkpt lat="40.057453" lon="-2.1392198">
        <ele>933.0</ele>
        <time>2021-07-27T17:48:33Z</time>
      </trkpt>
      <trkpt lat="40.057537" lon="-2.1391878">
        <ele>933.0</ele>
        <time>2021-07-27T17:48:35Z</time>
      </trkpt>
      <trkpt lat="40.057625" lon="-2.1391487">
        <ele>933.0</ele>
        <time>2021-07-27T17:48:37Z</time>
      </trkpt>
      <trkpt lat="40.057713" lon="-2.139105">
        <ele>933.0</ele>
        <time>2021-07-27T17:48:39Z</time>
      </trkpt>
      <trkpt lat="40.0578" lon="-2.1390586">
        <ele>933.0</ele>
        <time>2021-07-27T17:48:41Z</time>
      </trkpt>
      <trkpt lat="40.057884" lon="-2.1390088">
        <ele>934.0</ele>
        <time>2021-07-27T17:48:43Z</time>
      </trkpt>
      <trkpt lat="40.057972" lon="-2.1389558">
        <ele>934.0</ele>
        <time>2021-07-27T17:48:45Z</time>
      </trkpt>
      <trkpt lat="40.058014" lon="-2.1389291">
        <ele>934.0</ele>
        <time>2021-07-27T17:48:46Z</time>
      </trkpt>
      <trkpt lat="40.058098" lon="-2.1388803">
        <ele>934.0</ele>
        <time>2021-07-27T17:48:48Z</time>
      </trkpt>
      <trkpt lat="40.05818" lon="-2.1388361">
        <ele>934.0</ele>
        <time>2021-07-27T17:48:50Z</time>
      </trkpt>
      <trkpt lat="40.058228" lon="-2.138817">
        <ele>934.0</ele>
        <time>2021-07-27T17:48:51Z</time>
      </trkpt>
      <trkpt lat="40.05831" lon="-2.138782">
        <ele>934.0</ele>
        <time>2021-07-27T17:48:53Z</time>
      </trkpt>
      <trkpt lat="40.058403" lon="-2.1387458">
        <ele>935.0</ele>
        <time>2021-07-27T17:48:55Z</time>
      </trkpt>
      <trkpt lat="40.058495" lon="-2.1387095">
        <ele>935.0</ele>
        <time>2021-07-27T17:48:57Z</time>
      </trkpt>
      <trkpt lat="40.058594" lon="-2.1386793">
        <ele>935.0</ele>
        <time>2021-07-27T17:48:59Z</time>
      </trkpt>
      <trkpt lat="40.058704" lon="-2.1386502">
        <ele>935.0</ele>
        <time>2021-07-27T17:49:01Z</time>
      </trkpt>
      <trkpt lat="40.058765" lon="-2.1386368">
        <ele>935.0</ele>
        <time>2021-07-27T17:49:02Z</time>
      </trkpt>
      <trkpt lat="40.058826" lon="-2.138625">
        <ele>935.0</ele>
        <time>2021-07-27T17:49:03Z</time>
      </trkpt>
      <trkpt lat="40.05888" lon="-2.1386137">
        <ele>935.0</ele>
        <time>2021-07-27T17:49:04Z</time>
      </trkpt>
      <trkpt lat="40.05894" lon="-2.1385992">
        <ele>935.0</ele>
        <time>2021-07-27T17:49:05Z</time>
      </trkpt>
      <trkpt lat="40.059" lon="-2.1385849">
        <ele>935.0</ele>
        <time>2021-07-27T17:49:06Z</time>
      </trkpt>
      <trkpt lat="40.059063" lon="-2.1385682">
        <ele>935.0</ele>
        <time>2021-07-27T17:49:07Z</time>
      </trkpt>
      <trkpt lat="40.059124" lon="-2.1385553">
        <ele>935.0</ele>
        <time>2021-07-27T17:49:08Z</time>
      </trkpt>
      <trkpt lat="40.05919" lon="-2.1385376">
        <ele>935.0</ele>
        <time>2021-07-27T17:49:09Z</time>
      </trkpt>
      <trkpt lat="40.059258" lon="-2.1385143">
        <ele>935.0</ele>
        <time>2021-07-27T17:49:10Z</time>
      </trkpt>
      <trkpt lat="40.059322" lon="-2.1384892">
        <ele>934.0</ele>
        <time>2021-07-27T17:49:11Z</time>
      </trkpt>
      <trkpt lat="40.05939" lon="-2.1384652">
        <ele>934.0</ele>
        <time>2021-07-27T17:49:12Z</time>
      </trkpt>
      <trkpt lat="40.059452" lon="-2.138443">
        <ele>934.0</ele>
        <time>2021-07-27T17:49:13Z</time>
      </trkpt>
      <trkpt lat="40.059517" lon="-2.1384182">
        <ele>934.0</ele>
        <time>2021-07-27T17:49:14Z</time>
      </trkpt>
      <trkpt lat="40.059586" lon="-2.1383967">
        <ele>934.0</ele>
        <time>2021-07-27T17:49:15Z</time>
      </trkpt>
      <trkpt lat="40.05966" lon="-2.1383781">
        <ele>934.0</ele>
        <time>2021-07-27T17:49:16Z</time>
      </trkpt>
      <trkpt lat="40.059742" lon="-2.1383622">
        <ele>934.0</ele>
        <time>2021-07-27T17:49:17Z</time>
      </trkpt>
      <trkpt lat="40.05982" lon="-2.1383457">
        <ele>934.0</ele>
        <time>2021-07-27T17:49:18Z</time>
      </trkpt>
      <trkpt lat="40.059887" lon="-2.138335">
        <ele>934.0</ele>
        <time>2021-07-27T17:49:19Z</time>
      </trkpt>
      <trkpt lat="40.05996" lon="-2.138331">
        <ele>933.0</ele>
        <time>2021-07-27T17:49:20Z</time>
      </trkpt>
      <trkpt lat="40.060024" lon="-2.1383295">
        <ele>933.0</ele>
        <time>2021-07-27T17:49:21Z</time>
      </trkpt>
      <trkpt lat="40.06009" lon="-2.1383305">
        <ele>933.0</ele>
        <time>2021-07-27T17:49:22Z</time>
      </trkpt>
      <trkpt lat="40.060158" lon="-2.138331">
        <ele>933.0</ele>
        <time>2021-07-27T17:49:23Z</time>
      </trkpt>
      <trkpt lat="40.06022" lon="-2.1383295">
        <ele>933.0</ele>
        <time>2021-07-27T17:49:24Z</time>
      </trkpt>
      <trkpt lat="40.060272" lon="-2.1383286">
        <ele>933.0</ele>
        <time>2021-07-27T17:49:25Z</time>
      </trkpt>
      <trkpt lat="40.060333" lon="-2.1383386">
        <ele>933.0</ele>
        <time>2021-07-27T17:49:26Z</time>
      </trkpt>
      <trkpt lat="40.060394" lon="-2.1383548">
        <ele>933.0</ele>
        <time>2021-07-27T17:49:27Z</time>
      </trkpt>
      <trkpt lat="40.06046" lon="-2.1383767">
        <ele>933.0</ele>
        <time>2021-07-27T17:49:28Z</time>
      </trkpt>
      <trkpt lat="40.060528" lon="-2.138397">
        <ele>933.0</ele>
        <time>2021-07-27T17:49:29Z</time>
      </trkpt>
      <trkpt lat="40.060596" lon="-2.138416">
        <ele>933.0</ele>
        <time>2021-07-27T17:49:30Z</time>
      </trkpt>
      <trkpt lat="40.060658" lon="-2.1384356">
        <ele>933.0</ele>
        <time>2021-07-27T17:49:31Z</time>
      </trkpt>
      <trkpt lat="40.060722" lon="-2.138452">
        <ele>933.0</ele>
        <time>2021-07-27T17:49:32Z</time>
      </trkpt>
      <trkpt lat="40.06078" lon="-2.1384697">
        <ele>933.0</ele>
        <time>2021-07-27T17:49:33Z</time>
      </trkpt>
      <trkpt lat="40.060837" lon="-2.1384842">
        <ele>932.0</ele>
        <time>2021-07-27T17:49:34Z</time>
      </trkpt>
      <trkpt lat="40.060894" lon="-2.1384983">
        <ele>932.0</ele>
        <time>2021-07-27T17:49:35Z</time>
      </trkpt>
      <trkpt lat="40.060955" lon="-2.1385105">
        <ele>932.0</ele>
        <time>2021-07-27T17:49:36Z</time>
      </trkpt>
      <trkpt lat="40.06101" lon="-2.1385229">
        <ele>932.0</ele>
        <time>2021-07-27T17:49:37Z</time>
      </trkpt>
      <trkpt lat="40.06107" lon="-2.1385348">
        <ele>932.0</ele>
        <time>2021-07-27T17:49:38Z</time>
      </trkpt>
      <trkpt lat="40.061127" lon="-2.1385462">
        <ele>932.0</ele>
        <time>2021-07-27T17:49:39Z</time>
      </trkpt>
      <trkpt lat="40.061188" lon="-2.138558">
        <ele>932.0</ele>
        <time>2021-07-27T17:49:40Z</time>
      </trkpt>
      <trkpt lat="40.061245" lon="-2.138568">
        <ele>932.0</ele>
        <time>2021-07-27T17:49:41Z</time>
      </trkpt>
      <trkpt lat="40.061306" lon="-2.1385765">
        <ele>932.0</ele>
        <time>2021-07-27T17:49:42Z</time>
      </trkpt>
      <trkpt lat="40.061363" lon="-2.1385858">
        <ele>932.0</ele>
        <time>2021-07-27T17:49:43Z</time>
      </trkpt>
      <trkpt lat="40.06142" lon="-2.1385932">
        <ele>932.0</ele>
        <time>2021-07-27T17:49:44Z</time>
      </trkpt>
      <trkpt lat="40.061478" lon="-2.1385992">
        <ele>932.0</ele>
        <time>2021-07-27T17:49:45Z</time>
      </trkpt>
      <trkpt lat="40.06153" lon="-2.138605">
        <ele>932.0</ele>
        <time>2021-07-27T17:49:46Z</time>
      </trkpt>
      <trkpt lat="40.061584" lon="-2.1386096">
        <ele>932.0</ele>
        <time>2021-07-27T17:49:47Z</time>
      </trkpt>
      <trkpt lat="40.061638" lon="-2.1386158">
        <ele>932.0</ele>
        <time>2021-07-27T17:49:48Z</time>
      </trkpt>
      <trkpt lat="40.061695" lon="-2.138624">
        <ele>932.0</ele>
        <time>2021-07-27T17:49:49Z</time>
      </trkpt>
      <trkpt lat="40.061756" lon="-2.138631">
        <ele>932.0</ele>
        <time>2021-07-27T17:49:50Z</time>
      </trkpt>
      <trkpt lat="40.06181" lon="-2.1386395">
        <ele>932.0</ele>
        <time>2021-07-27T17:49:51Z</time>
      </trkpt>
      <trkpt lat="40.06187" lon="-2.1386487">
        <ele>932.0</ele>
        <time>2021-07-27T17:49:52Z</time>
      </trkpt>
      <trkpt lat="40.061928" lon="-2.1386554">
        <ele>931.0</ele>
        <time>2021-07-27T17:49:53Z</time>
      </trkpt>
      <trkpt lat="40.06199" lon="-2.1386635">
        <ele>931.0</ele>
        <time>2021-07-27T17:49:54Z</time>
      </trkpt>
      <trkpt lat="40.062046" lon="-2.138673">
        <ele>931.0</ele>
        <time>2021-07-27T17:49:55Z</time>
      </trkpt>
      <trkpt lat="40.0621" lon="-2.1386836">
        <ele>931.0</ele>
        <time>2021-07-27T17:49:56Z</time>
      </trkpt>
      <trkpt lat="40.062157" lon="-2.1386948">
        <ele>931.0</ele>
        <time>2021-07-27T17:49:57Z</time>
      </trkpt>
      <trkpt lat="40.06227" lon="-2.1387167">
        <ele>931.0</ele>
        <time>2021-07-27T17:49:59Z</time>
      </trkpt>
      <trkpt lat="40.06233" lon="-2.138729">
        <ele>931.0</ele>
        <time>2021-07-27T17:50:00Z</time>
      </trkpt>
      <trkpt lat="40.062386" lon="-2.1387415">
        <ele>931.0</ele>
        <time>2021-07-27T17:50:01Z</time>
      </trkpt>
      <trkpt lat="40.062443" lon="-2.1387537">
        <ele>931.0</ele>
        <time>2021-07-27T17:50:02Z</time>
      </trkpt>
      <trkpt lat="40.0625" lon="-2.1387668">
        <ele>931.0</ele>
        <time>2021-07-27T17:50:03Z</time>
      </trkpt>
      <trkpt lat="40.06255" lon="-2.1387784">
        <ele>931.0</ele>
        <time>2021-07-27T17:50:04Z</time>
      </trkpt>
      <trkpt lat="40.062664" lon="-2.1388042">
        <ele>931.0</ele>
        <time>2021-07-27T17:50:06Z</time>
      </trkpt>
      <trkpt lat="40.06272" lon="-2.138815">
        <ele>931.0</ele>
        <time>2021-07-27T17:50:07Z</time>
      </trkpt>
      <trkpt lat="40.062775" lon="-2.1388257">
        <ele>931.0</ele>
        <time>2021-07-27T17:50:08Z</time>
      </trkpt>
      <trkpt lat="40.06283" lon="-2.1388364">
        <ele>931.0</ele>
        <time>2021-07-27T17:50:09Z</time>
      </trkpt>
      <trkpt lat="40.06288" lon="-2.1388466">
        <ele>931.0</ele>
        <time>2021-07-27T17:50:10Z</time>
      </trkpt>
      <trkpt lat="40.06293" lon="-2.1388571">
        <ele>931.0</ele>
        <time>2021-07-27T17:50:11Z</time>
      </trkpt>
      <trkpt lat="40.06302" lon="-2.1388748">
        <ele>930.0</ele>
        <time>2021-07-27T17:50:13Z</time>
      </trkpt>
      <trkpt lat="40.063103" lon="-2.138894">
        <ele>930.0</ele>
        <time>2021-07-27T17:50:15Z</time>
      </trkpt>
      <trkpt lat="40.063194" lon="-2.1389172">
        <ele>930.0</ele>
        <time>2021-07-27T17:50:17Z</time>
      </trkpt>
      <trkpt lat="40.063297" lon="-2.1389415">
        <ele>930.0</ele>
        <time>2021-07-27T17:50:19Z</time>
      </trkpt>
      <trkpt lat="40.063354" lon="-2.1389468">
        <ele>930.0</ele>
        <time>2021-07-27T17:50:20Z</time>
      </trkpt>
      <trkpt lat="40.06341" lon="-2.1389503">
        <ele>930.0</ele>
        <time>2021-07-27T17:50:21Z</time>
      </trkpt>
      <trkpt lat="40.06347" lon="-2.1389542">
        <ele>930.0</ele>
        <time>2021-07-27T17:50:22Z</time>
      </trkpt>
      <trkpt lat="40.063526" lon="-2.138959">
        <ele>930.0</ele>
        <time>2021-07-27T17:50:23Z</time>
      </trkpt>
      <trkpt lat="40.063583" lon="-2.1389663">
        <ele>930.0</ele>
        <time>2021-07-27T17:50:24Z</time>
      </trkpt>
      <trkpt lat="40.06365" lon="-2.1389766">
        <ele>930.0</ele>
        <time>2021-07-27T17:50:25Z</time>
      </trkpt>
      <trkpt lat="40.063705" lon="-2.138988">
        <ele>930.0</ele>
        <time>2021-07-27T17:50:26Z</time>
      </trkpt>
      <trkpt lat="40.063763" lon="-2.1390011">
        <ele>930.0</ele>
        <time>2021-07-27T17:50:27Z</time>
      </trkpt>
      <trkpt lat="40.06382" lon="-2.139012">
        <ele>930.0</ele>
        <time>2021-07-27T17:50:28Z</time>
      </trkpt>
      <trkpt lat="40.063873" lon="-2.1390228">
        <ele>930.0</ele>
        <time>2021-07-27T17:50:29Z</time>
      </trkpt>
      <trkpt lat="40.063927" lon="-2.1390326">
        <ele>930.0</ele>
        <time>2021-07-27T17:50:30Z</time>
      </trkpt>
      <trkpt lat="40.063984" lon="-2.1390424">
        <ele>930.0</ele>
        <time>2021-07-27T17:50:31Z</time>
      </trkpt>
      <trkpt lat="40.064037" lon="-2.139052">
        <ele>930.0</ele>
        <time>2021-07-27T17:50:32Z</time>
      </trkpt>
      <trkpt lat="40.064087" lon="-2.1390603">
        <ele>930.0</ele>
        <time>2021-07-27T17:50:33Z</time>
      </trkpt>
      <trkpt lat="40.064133" lon="-2.1390667">
        <ele>930.0</ele>
        <time>2021-07-27T17:50:34Z</time>
      </trkpt>
      <trkpt lat="40.064213" lon="-2.1390803">
        <ele>930.0</ele>
        <time>2021-07-27T17:50:36Z</time>
      </trkpt>
      <trkpt lat="40.064274" lon="-2.1390917">
        <ele>930.0</ele>
        <time>2021-07-27T17:50:38Z</time>
      </trkpt>
      <trkpt lat="40.064323" lon="-2.1390982">
        <ele>929.0</ele>
        <time>2021-07-27T17:50:40Z</time>
      </trkpt>
      <trkpt lat="40.06439" lon="-2.139108">
        <ele>929.0</ele>
        <time>2021-07-27T17:50:43Z</time>
      </trkpt>
      <trkpt lat="40.064423" lon="-2.1391141">
        <ele>929.0</ele>
        <time>2021-07-27T17:50:50Z</time>
      </trkpt>
      <trkpt lat="40.064518" lon="-2.1391246">
        <ele>929.0</ele>
        <time>2021-07-27T17:51:25Z</time>
      </trkpt>
      <trkpt lat="40.064594" lon="-2.1391454">
        <ele>929.0</ele>
        <time>2021-07-27T17:51:27Z</time>
      </trkpt>
      <trkpt lat="40.064686" lon="-2.1391678">
        <ele>929.0</ele>
        <time>2021-07-27T17:51:29Z</time>
      </trkpt>
      <trkpt lat="40.064735" lon="-2.139179">
        <ele>928.0</ele>
        <time>2021-07-27T17:51:30Z</time>
      </trkpt>
      <trkpt lat="40.064842" lon="-2.1392024">
        <ele>928.0</ele>
        <time>2021-07-27T17:51:32Z</time>
      </trkpt>
      <trkpt lat="40.064896" lon="-2.1392133">
        <ele>928.0</ele>
        <time>2021-07-27T17:51:33Z</time>
      </trkpt>
      <trkpt lat="40.06495" lon="-2.1392236">
        <ele>928.0</ele>
        <time>2021-07-27T17:51:34Z</time>
      </trkpt>
      <trkpt lat="40.065006" lon="-2.1392334">
        <ele>928.0</ele>
        <time>2021-07-27T17:51:35Z</time>
      </trkpt>
      <trkpt lat="40.065063" lon="-2.1392422">
        <ele>928.0</ele>
        <time>2021-07-27T17:51:36Z</time>
      </trkpt>
      <trkpt lat="40.065117" lon="-2.1392517">
        <ele>928.0</ele>
        <time>2021-07-27T17:51:37Z</time>
      </trkpt>
      <trkpt lat="40.065174" lon="-2.139261">
        <ele>928.0</ele>
        <time>2021-07-27T17:51:38Z</time>
      </trkpt>
      <trkpt lat="40.065228" lon="-2.1392713">
        <ele>928.0</ele>
        <time>2021-07-27T17:51:39Z</time>
      </trkpt>
      <trkpt lat="40.065285" lon="-2.1392815">
        <ele>928.0</ele>
        <time>2021-07-27T17:51:40Z</time>
      </trkpt>
      <trkpt lat="40.065342" lon="-2.1392913">
        <ele>928.0</ele>
        <time>2021-07-27T17:51:41Z</time>
      </trkpt>
      <trkpt lat="40.0654" lon="-2.1393023">
        <ele>928.0</ele>
        <time>2021-07-27T17:51:42Z</time>
      </trkpt>
      <trkpt lat="40.065453" lon="-2.1393123">
        <ele>928.0</ele>
        <time>2021-07-27T17:51:43Z</time>
      </trkpt>
      <trkpt lat="40.065506" lon="-2.1393213">
        <ele>928.0</ele>
        <time>2021-07-27T17:51:44Z</time>
      </trkpt>
      <trkpt lat="40.06557" lon="-2.1393316">
        <ele>928.0</ele>
        <time>2021-07-27T17:51:45Z</time>
      </trkpt>
      <trkpt lat="40.065628" lon="-2.1393414">
        <ele>928.0</ele>
        <time>2021-07-27T17:51:46Z</time>
      </trkpt>
      <trkpt lat="40.065685" lon="-2.1393507">
        <ele>928.0</ele>
        <time>2021-07-27T17:51:47Z</time>
      </trkpt>
      <trkpt lat="40.065742" lon="-2.13936">
        <ele>928.0</ele>
        <time>2021-07-27T17:51:48Z</time>
      </trkpt>
      <trkpt lat="40.065796" lon="-2.1393702">
        <ele>928.0</ele>
        <time>2021-07-27T17:51:49Z</time>
      </trkpt>
      <trkpt lat="40.06585" lon="-2.1393793">
        <ele>928.0</ele>
        <time>2021-07-27T17:51:50Z</time>
      </trkpt>
      <trkpt lat="40.065903" lon="-2.1393862">
        <ele>927.0</ele>
        <time>2021-07-27T17:51:51Z</time>
      </trkpt>
      <trkpt lat="40.06595" lon="-2.1393871">
        <ele>927.0</ele>
        <time>2021-07-27T17:51:52Z</time>
      </trkpt>
      <trkpt lat="40.06603" lon="-2.1393604">
        <ele>927.0</ele>
        <time>2021-07-27T17:51:54Z</time>
      </trkpt>
      <trkpt lat="40.066082" lon="-2.1393">
        <ele>927.0</ele>
        <time>2021-07-27T17:51:56Z</time>
      </trkpt>
      <trkpt lat="40.06611" lon="-2.1392255">
        <ele>927.0</ele>
        <time>2021-07-27T17:51:58Z</time>
      </trkpt>
      <trkpt lat="40.06612" lon="-2.1391397">
        <ele>927.0</ele>
        <time>2021-07-27T17:52:00Z</time>
      </trkpt>
      <trkpt lat="40.066128" lon="-2.1390398">
        <ele>927.0</ele>
        <time>2021-07-27T17:52:02Z</time>
      </trkpt>
      <trkpt lat="40.06614" lon="-2.1389458">
        <ele>927.0</ele>
        <time>2021-07-27T17:52:04Z</time>
      </trkpt>
      <trkpt lat="40.066154" lon="-2.1388807">
        <ele>927.0</ele>
        <time>2021-07-27T17:52:06Z</time>
      </trkpt>
      <trkpt lat="40.066177" lon="-2.1388252">
        <ele>927.0</ele>
        <time>2021-07-27T17:52:09Z</time>
      </trkpt>
      <trkpt lat="40.066086" lon="-2.1392283">
        <ele>-20000.0</ele>
        <time>2021-07-27T18:36:46Z</time>
      </trkpt>
      <trkpt lat="40.066086" lon="-2.1392283">
        <ele>-20000.0</ele>
        <time>2021-07-27T18:36:46Z</time>
      </trkpt>
      <trkpt lat="40.06609" lon="-2.1392784">
        <ele>-20000.0</ele>
        <time>2021-07-27T18:36:47Z</time>
      </trkpt>
      <trkpt lat="40.066086" lon="-2.1392899">
        <ele>-20000.0</ele>
        <time>2021-07-27T18:36:48Z</time>
      </trkpt>
      <trkpt lat="40.06609" lon="-2.1393082">
        <ele>-20000.0</ele>
        <time>2021-07-27T18:36:49Z</time>
      </trkpt>
      <trkpt lat="40.066086" lon="-2.1393282">
        <ele>-20000.0</ele>
        <time>2021-07-27T18:36:50Z</time>
      </trkpt>
      <trkpt lat="40.066086" lon="-2.1393461">
        <ele>-20000.0</ele>
        <time>2021-07-27T18:36:51Z</time>
      </trkpt>
      <trkpt lat="40.06603" lon="-2.1394694">
        <ele>911.0</ele>
        <time>2021-07-27T18:37:02Z</time>
      </trkpt>
      <trkpt lat="40.06595" lon="-2.139464">
        <ele>911.0</ele>
        <time>2021-07-27T18:37:05Z</time>
      </trkpt>
      <trkpt lat="40.06588" lon="-2.1394467">
        <ele>911.0</ele>
        <time>2021-07-27T18:37:07Z</time>
      </trkpt>
      <trkpt lat="40.065807" lon="-2.1394293">
        <ele>911.0</ele>
        <time>2021-07-27T18:37:09Z</time>
      </trkpt>
      <trkpt lat="40.065735" lon="-2.1394143">
        <ele>911.0</ele>
        <time>2021-07-27T18:37:11Z</time>
      </trkpt>
      <trkpt lat="40.06566" lon="-2.1394002">
        <ele>911.0</ele>
        <time>2021-07-27T18:37:13Z</time>
      </trkpt>
      <trkpt lat="40.065586" lon="-2.1393843">
        <ele>911.0</ele>
        <time>2021-07-27T18:37:15Z</time>
      </trkpt>
      <trkpt lat="40.065517" lon="-2.1393707">
        <ele>911.0</ele>
        <time>2021-07-27T18:37:17Z</time>
      </trkpt>
      <trkpt lat="40.065453" lon="-2.13936">
        <ele>911.0</ele>
        <time>2021-07-27T18:37:19Z</time>
      </trkpt>
      <trkpt lat="40.0654" lon="-2.1393507">
        <ele>911.0</ele>
        <time>2021-07-27T18:37:21Z</time>
      </trkpt>
      <trkpt lat="40.065346" lon="-2.139337">
        <ele>912.0</ele>
        <time>2021-07-27T18:37:24Z</time>
      </trkpt>
      <trkpt lat="40.065296" lon="-2.1393237">
        <ele>912.0</ele>
        <time>2021-07-27T18:37:28Z</time>
      </trkpt>
      <trkpt lat="40.065243" lon="-2.1393194">
        <ele>912.0</ele>
        <time>2021-07-27T18:37:35Z</time>
      </trkpt>
      <trkpt lat="40.06514" lon="-2.1393044">
        <ele>912.0</ele>
        <time>2021-07-27T18:37:59Z</time>
      </trkpt>
      <trkpt lat="40.065063" lon="-2.1393058">
        <ele>912.0</ele>
        <time>2021-07-27T18:38:01Z</time>
      </trkpt>
      <trkpt lat="40.064964" lon="-2.1393044">
        <ele>912.0</ele>
        <time>2021-07-27T18:38:03Z</time>
      </trkpt>
      <trkpt lat="40.064907" lon="-2.1393">
        <ele>912.0</ele>
        <time>2021-07-27T18:38:04Z</time>
      </trkpt>
      <trkpt lat="40.064854" lon="-2.1392941">
        <ele>912.0</ele>
        <time>2021-07-27T18:38:05Z</time>
      </trkpt>
      <trkpt lat="40.0648" lon="-2.1392858">
        <ele>912.0</ele>
        <time>2021-07-27T18:38:06Z</time>
      </trkpt>
      <trkpt lat="40.064747" lon="-2.139275">
        <ele>912.0</ele>
        <time>2021-07-27T18:38:07Z</time>
      </trkpt>
      <trkpt lat="40.064693" lon="-2.1392646">
        <ele>912.0</ele>
        <time>2021-07-27T18:38:08Z</time>
      </trkpt>
      <trkpt lat="40.064644" lon="-2.1392543">
        <ele>912.0</ele>
        <time>2021-07-27T18:38:09Z</time>
      </trkpt>
      <trkpt lat="40.06454" lon="-2.1392362">
        <ele>912.0</ele>
        <time>2021-07-27T18:38:11Z</time>
      </trkpt>
      <trkpt lat="40.06449" lon="-2.1392295">
        <ele>912.0</ele>
        <time>2021-07-27T18:38:12Z</time>
      </trkpt>
      <trkpt lat="40.064392" lon="-2.139213">
        <ele>912.0</ele>
        <time>2021-07-27T18:38:14Z</time>
      </trkpt>
      <trkpt lat="40.064346" lon="-2.1392052">
        <ele>913.0</ele>
        <time>2021-07-27T18:38:15Z</time>
      </trkpt>
      <trkpt lat="40.06425" lon="-2.1391838">
        <ele>913.0</ele>
        <time>2021-07-27T18:38:17Z</time>
      </trkpt>
      <trkpt lat="40.064156" lon="-2.1391613">
        <ele>913.0</ele>
        <time>2021-07-27T18:38:19Z</time>
      </trkpt>
      <trkpt lat="40.064064" lon="-2.1391385">
        <ele>913.0</ele>
        <time>2021-07-27T18:38:21Z</time>
      </trkpt>
      <trkpt lat="40.06402" lon="-2.1391263">
        <ele>913.0</ele>
        <time>2021-07-27T18:38:22Z</time>
      </trkpt>
      <trkpt lat="40.06392" lon="-2.1391015">
        <ele>913.0</ele>
        <time>2021-07-27T18:38:24Z</time>
      </trkpt>
      <trkpt lat="40.063873" lon="-2.1390893">
        <ele>913.0</ele>
        <time>2021-07-27T18:38:25Z</time>
      </trkpt>
      <trkpt lat="40.06378" lon="-2.1390674">
        <ele>913.0</ele>
        <time>2021-07-27T18:38:27Z</time>
      </trkpt>
      <trkpt lat="40.063686" lon="-2.139054">
        <ele>913.0</ele>
        <time>2021-07-27T18:38:29Z</time>
      </trkpt>
      <trkpt lat="40.063595" lon="-2.1390407">
        <ele>913.0</ele>
        <time>2021-07-27T18:38:31Z</time>
      </trkpt>
      <trkpt lat="40.063454" lon="-2.1390188">
        <ele>914.0</ele>
        <time>2021-07-27T18:38:34Z</time>
      </trkpt>
      <trkpt lat="40.063354" lon="-2.1389995">
        <ele>914.0</ele>
        <time>2021-07-27T18:38:36Z</time>
      </trkpt>
      <trkpt lat="40.063305" lon="-2.138988">
        <ele>914.0</ele>
        <time>2021-07-27T18:38:37Z</time>
      </trkpt>
      <trkpt lat="40.063213" lon="-2.1389658">
        <ele>914.0</ele>
        <time>2021-07-27T18:38:39Z</time>
      </trkpt>
      <trkpt lat="40.06312" lon="-2.138946">
        <ele>914.0</ele>
        <time>2021-07-27T18:38:41Z</time>
      </trkpt>
      <trkpt lat="40.06303" lon="-2.1389236">
        <ele>914.0</ele>
        <time>2021-07-27T18:38:43Z</time>
      </trkpt>
      <trkpt lat="40.062984" lon="-2.138911">
        <ele>914.0</ele>
        <time>2021-07-27T18:38:44Z</time>
      </trkpt>
      <trkpt lat="40.062893" lon="-2.1388865">
        <ele>914.0</ele>
        <time>2021-07-27T18:38:46Z</time>
      </trkpt>
      <trkpt lat="40.062798" lon="-2.1388645">
        <ele>914.0</ele>
        <time>2021-07-27T18:38:48Z</time>
      </trkpt>
      <trkpt lat="40.062714" lon="-2.1388397">
        <ele>914.0</ele>
        <time>2021-07-27T18:38:50Z</time>
      </trkpt>
      <trkpt lat="40.062634" lon="-2.1388202">
        <ele>915.0</ele>
        <time>2021-07-27T18:38:52Z</time>
      </trkpt>
      <trkpt lat="40.062557" lon="-2.1388052">
        <ele>915.0</ele>
        <time>2021-07-27T18:38:54Z</time>
      </trkpt>
      <trkpt lat="40.0625" lon="-2.1388">
        <ele>915.0</ele>
        <time>2021-07-27T18:38:56Z</time>
      </trkpt>
      <trkpt lat="40.062454" lon="-2.1387951">
        <ele>915.0</ele>
        <time>2021-07-27T18:38:58Z</time>
      </trkpt>
      <trkpt lat="40.0624" lon="-2.1387906">
        <ele>915.0</ele>
        <time>2021-07-27T18:39:01Z</time>
      </trkpt>
      <trkpt lat="40.062336" lon="-2.1387894">
        <ele>915.0</ele>
        <time>2021-07-27T18:39:05Z</time>
      </trkpt>
      <trkpt lat="40.062252" lon="-2.138785">
        <ele>915.0</ele>
        <time>2021-07-27T18:39:08Z</time>
      </trkpt>
      <trkpt lat="40.062176" lon="-2.1387768">
        <ele>915.0</ele>
        <time>2021-07-27T18:39:10Z</time>
      </trkpt>
      <trkpt lat="40.06209" lon="-2.1387653">
        <ele>915.0</ele>
        <time>2021-07-27T18:39:12Z</time>
      </trkpt>
      <trkpt lat="40.062008" lon="-2.1387525">
        <ele>915.0</ele>
        <time>2021-07-27T18:39:14Z</time>
      </trkpt>
      <trkpt lat="40.06192" lon="-2.1387382">
        <ele>915.0</ele>
        <time>2021-07-27T18:39:16Z</time>
      </trkpt>
      <trkpt lat="40.061832" lon="-2.1387184">
        <ele>915.0</ele>
        <time>2021-07-27T18:39:18Z</time>
      </trkpt>
      <trkpt lat="40.06175" lon="-2.138703">
        <ele>916.0</ele>
        <time>2021-07-27T18:39:20Z</time>
      </trkpt>
      <trkpt lat="40.061665" lon="-2.1386857">
        <ele>916.0</ele>
        <time>2021-07-27T18:39:22Z</time>
      </trkpt>
      <trkpt lat="40.061573" lon="-2.1386676">
        <ele>916.0</ele>
        <time>2021-07-27T18:39:24Z</time>
      </trkpt>
      <trkpt lat="40.061485" lon="-2.1386483">
        <ele>916.0</ele>
        <time>2021-07-27T18:39:26Z</time>
      </trkpt>
      <trkpt lat="40.061398" lon="-2.1386309">
        <ele>916.0</ele>
        <time>2021-07-27T18:39:28Z</time>
      </trkpt>
      <trkpt lat="40.061317" lon="-2.1386158">
        <ele>916.0</ele>
        <time>2021-07-27T18:39:30Z</time>
      </trkpt>
      <trkpt lat="40.061237" lon="-2.1385999">
        <ele>916.0</ele>
        <time>2021-07-27T18:39:32Z</time>
      </trkpt>
      <trkpt lat="40.061157" lon="-2.13858">
        <ele>916.0</ele>
        <time>2021-07-27T18:39:34Z</time>
      </trkpt>
      <trkpt lat="40.06108" lon="-2.1385572">
        <ele>916.0</ele>
        <time>2021-07-27T18:39:36Z</time>
      </trkpt>
      <trkpt lat="40.06101" lon="-2.1385205">
        <ele>916.0</ele>
        <time>2021-07-27T18:39:38Z</time>
      </trkpt>
      <trkpt lat="40.06094" lon="-2.138476">
        <ele>916.0</ele>
        <time>2021-07-27T18:39:40Z</time>
      </trkpt>
      <trkpt lat="40.060863" lon="-2.138445">
        <ele>917.0</ele>
        <time>2021-07-27T18:39:42Z</time>
      </trkpt>
      <trkpt lat="40.060783" lon="-2.1384432">
        <ele>917.0</ele>
        <time>2021-07-27T18:39:44Z</time>
      </trkpt>
      <trkpt lat="40.0607" lon="-2.1384444">
        <ele>917.0</ele>
        <time>2021-07-27T18:39:46Z</time>
      </trkpt>
      <trkpt lat="40.06064" lon="-2.1384256">
        <ele>917.0</ele>
        <time>2021-07-27T18:39:48Z</time>
      </trkpt>
      <trkpt lat="40.060585" lon="-2.1384044">
        <ele>917.0</ele>
        <time>2021-07-27T18:39:50Z</time>
      </trkpt>
      <trkpt lat="40.060535" lon="-2.138389">
        <ele>917.0</ele>
        <time>2021-07-27T18:39:52Z</time>
      </trkpt>
      <trkpt lat="40.060463" lon="-2.1383767">
        <ele>917.0</ele>
        <time>2021-07-27T18:39:55Z</time>
      </trkpt>
      <trkpt lat="40.060417" lon="-2.1383383">
        <ele>917.0</ele>
        <time>2021-07-27T18:39:58Z</time>
      </trkpt>
      <trkpt lat="40.060314" lon="-2.1383586">
        <ele>917.0</ele>
        <time>2021-07-27T18:41:34Z</time>
      </trkpt>
      <trkpt lat="40.060253" lon="-2.1383832">
        <ele>917.0</ele>
        <time>2021-07-27T18:41:36Z</time>
      </trkpt>
      <trkpt lat="40.060184" lon="-2.1383986">
        <ele>917.0</ele>
        <time>2021-07-27T18:41:38Z</time>
      </trkpt>
      <trkpt lat="40.060116" lon="-2.1384091">
        <ele>917.0</ele>
        <time>2021-07-27T18:41:40Z</time>
      </trkpt>
      <trkpt lat="40.06005" lon="-2.1384156">
        <ele>917.0</ele>
        <time>2021-07-27T18:41:42Z</time>
      </trkpt>
      <trkpt lat="40.05999" lon="-2.1384182">
        <ele>917.0</ele>
        <time>2021-07-27T18:41:44Z</time>
      </trkpt>
      <trkpt lat="40.05992" lon="-2.138421">
        <ele>917.0</ele>
        <time>2021-07-27T18:41:46Z</time>
      </trkpt>
      <trkpt lat="40.059853" lon="-2.1384284">
        <ele>917.0</ele>
        <time>2021-07-27T18:41:48Z</time>
      </trkpt>
      <trkpt lat="40.05978" lon="-2.1384408">
        <ele>917.0</ele>
        <time>2021-07-27T18:41:50Z</time>
      </trkpt>
      <trkpt lat="40.059708" lon="-2.1384537">
        <ele>917.0</ele>
        <time>2021-07-27T18:41:52Z</time>
      </trkpt>
      <trkpt lat="40.059635" lon="-2.1384697">
        <ele>917.0</ele>
        <time>2021-07-27T18:41:54Z</time>
      </trkpt>
      <trkpt lat="40.05957" lon="-2.1384857">
        <ele>917.0</ele>
        <time>2021-07-27T18:41:56Z</time>
      </trkpt>
      <trkpt lat="40.059494" lon="-2.1385088">
        <ele>918.0</ele>
        <time>2021-07-27T18:41:58Z</time>
      </trkpt>
      <trkpt lat="40.05942" lon="-2.1385386">
        <ele>918.0</ele>
        <time>2021-07-27T18:42:00Z</time>
      </trkpt>
      <trkpt lat="40.059345" lon="-2.138564">
        <ele>918.0</ele>
        <time>2021-07-27T18:42:02Z</time>
      </trkpt>
      <trkpt lat="40.05927" lon="-2.1385849">
        <ele>918.0</ele>
        <time>2021-07-27T18:42:04Z</time>
      </trkpt>
      <trkpt lat="40.059196" lon="-2.1386044">
        <ele>918.0</ele>
        <time>2021-07-27T18:42:06Z</time>
      </trkpt>
      <trkpt lat="40.059116" lon="-2.1386263">
        <ele>918.0</ele>
        <time>2021-07-27T18:42:08Z</time>
      </trkpt>
      <trkpt lat="40.05904" lon="-2.1386516">
        <ele>919.0</ele>
        <time>2021-07-27T18:42:10Z</time>
      </trkpt>
      <trkpt lat="40.058964" lon="-2.1386778">
        <ele>919.0</ele>
        <time>2021-07-27T18:42:12Z</time>
      </trkpt>
      <trkpt lat="40.058884" lon="-2.1387026">
        <ele>919.0</ele>
        <time>2021-07-27T18:42:14Z</time>
      </trkpt>
      <trkpt lat="40.058804" lon="-2.138726">
        <ele>919.0</ele>
        <time>2021-07-27T18:42:16Z</time>
      </trkpt>
      <trkpt lat="40.05872" lon="-2.138748">
        <ele>920.0</ele>
        <time>2021-07-27T18:42:18Z</time>
      </trkpt>
      <trkpt lat="40.05864" lon="-2.1387699">
        <ele>920.0</ele>
        <time>2021-07-27T18:42:20Z</time>
      </trkpt>
      <trkpt lat="40.058556" lon="-2.1387923">
        <ele>920.0</ele>
        <time>2021-07-27T18:42:22Z</time>
      </trkpt>
      <trkpt lat="40.058434" lon="-2.1388328">
        <ele>920.0</ele>
        <time>2021-07-27T18:42:25Z</time>
      </trkpt>
      <trkpt lat="40.058346" lon="-2.1388633">
        <ele>920.0</ele>
        <time>2021-07-27T18:42:27Z</time>
      </trkpt>
      <trkpt lat="40.05826" lon="-2.1388981">
        <ele>920.0</ele>
        <time>2021-07-27T18:42:29Z</time>
      </trkpt>
      <trkpt lat="40.05817" lon="-2.138936">
        <ele>920.0</ele>
        <time>2021-07-27T18:42:31Z</time>
      </trkpt>
      <trkpt lat="40.05813" lon="-2.1389544">
        <ele>920.0</ele>
        <time>2021-07-27T18:42:32Z</time>
      </trkpt>
      <trkpt lat="40.058037" lon="-2.1389978">
        <ele>920.0</ele>
        <time>2021-07-27T18:42:34Z</time>
      </trkpt>
      <trkpt lat="40.057945" lon="-2.1390462">
        <ele>920.0</ele>
        <time>2021-07-27T18:42:36Z</time>
      </trkpt>
      <trkpt lat="40.057896" lon="-2.1390715">
        <ele>920.0</ele>
        <time>2021-07-27T18:42:37Z</time>
      </trkpt>
      <trkpt lat="40.057804" lon="-2.1391184">
        <ele>920.0</ele>
        <time>2021-07-27T18:42:39Z</time>
      </trkpt>
      <trkpt lat="40.057713" lon="-2.1391711">
        <ele>920.0</ele>
        <time>2021-07-27T18:42:41Z</time>
      </trkpt>
      <trkpt lat="40.057663" lon="-2.1392007">
        <ele>920.0</ele>
        <time>2021-07-27T18:42:42Z</time>
      </trkpt>
      <trkpt lat="40.057575" lon="-2.1392667">
        <ele>920.0</ele>
        <time>2021-07-27T18:42:44Z</time>
      </trkpt>
      <trkpt lat="40.05751" lon="-2.139357">
        <ele>920.0</ele>
        <time>2021-07-27T18:42:46Z</time>
      </trkpt>
      <trkpt lat="40.057457" lon="-2.1394684">
        <ele>920.0</ele>
        <time>2021-07-27T18:42:48Z</time>
      </trkpt>
      <trkpt lat="40.057415" lon="-2.139579">
        <ele>920.0</ele>
        <time>2021-07-27T18:42:50Z</time>
      </trkpt>
      <trkpt lat="40.05736" lon="-2.1396868">
        <ele>919.0</ele>
        <time>2021-07-27T18:42:52Z</time>
      </trkpt>
      <trkpt lat="40.05733" lon="-2.139731">
        <ele>919.0</ele>
        <time>2021-07-27T18:42:53Z</time>
      </trkpt>
      <trkpt lat="40.05725" lon="-2.1397898">
        <ele>919.0</ele>
        <time>2021-07-27T18:42:55Z</time>
      </trkpt>
      <trkpt lat="40.057163" lon="-2.1397943">
        <ele>919.0</ele>
        <time>2021-07-27T18:42:57Z</time>
      </trkpt>
      <trkpt lat="40.057083" lon="-2.1397471">
        <ele>919.0</ele>
        <time>2021-07-27T18:42:59Z</time>
      </trkpt>
      <trkpt lat="40.057022" lon="-2.139659">
        <ele>919.0</ele>
        <time>2021-07-27T18:43:01Z</time>
      </trkpt>
      <trkpt lat="40.05699" lon="-2.1395447">
        <ele>919.0</ele>
        <time>2021-07-27T18:43:03Z</time>
      </trkpt>
      <trkpt lat="40.056995" lon="-2.1394193">
        <ele>919.0</ele>
        <time>2021-07-27T18:43:05Z</time>
      </trkpt>
      <trkpt lat="40.057" lon="-2.13936">
        <ele>919.0</ele>
        <time>2021-07-27T18:43:06Z</time>
      </trkpt>
      <trkpt lat="40.057026" lon="-2.139231">
        <ele>919.0</ele>
        <time>2021-07-27T18:43:08Z</time>
      </trkpt>
      <trkpt lat="40.05705" lon="-2.1391146">
        <ele>919.0</ele>
        <time>2021-07-27T18:43:10Z</time>
      </trkpt>
      <trkpt lat="40.05705" lon="-2.1390064">
        <ele>919.0</ele>
        <time>2021-07-27T18:43:12Z</time>
      </trkpt>
      <trkpt lat="40.057014" lon="-2.138919">
        <ele>919.0</ele>
        <time>2021-07-27T18:43:14Z</time>
      </trkpt>
      <trkpt lat="40.056946" lon="-2.1388447">
        <ele>919.0</ele>
        <time>2021-07-27T18:43:16Z</time>
      </trkpt>
      <trkpt lat="40.056873" lon="-2.1387672">
        <ele>919.0</ele>
        <time>2021-07-27T18:43:18Z</time>
      </trkpt>
      <trkpt lat="40.056835" lon="-2.1387274">
        <ele>919.0</ele>
        <time>2021-07-27T18:43:19Z</time>
      </trkpt>
      <trkpt lat="40.056763" lon="-2.1386418">
        <ele>919.0</ele>
        <time>2021-07-27T18:43:21Z</time>
      </trkpt>
      <trkpt lat="40.056698" lon="-2.1385436">
        <ele>919.0</ele>
        <time>2021-07-27T18:43:23Z</time>
      </trkpt>
      <trkpt lat="40.056667" lon="-2.1384895">
        <ele>919.0</ele>
        <time>2021-07-27T18:43:24Z</time>
      </trkpt>
      <trkpt lat="40.05664" lon="-2.1384327">
        <ele>919.0</ele>
        <time>2021-07-27T18:43:25Z</time>
      </trkpt>
      <trkpt lat="40.056595" lon="-2.138323">
        <ele>919.0</ele>
        <time>2021-07-27T18:43:27Z</time>
      </trkpt>
      <trkpt lat="40.056545" lon="-2.1382058">
        <ele>919.0</ele>
        <time>2021-07-27T18:43:29Z</time>
      </trkpt>
      <trkpt lat="40.0565" lon="-2.1380904">
        <ele>919.0</ele>
        <time>2021-07-27T18:43:31Z</time>
      </trkpt>
      <trkpt lat="40.05645" lon="-2.137979">
        <ele>919.0</ele>
        <time>2021-07-27T18:43:33Z</time>
      </trkpt>
      <trkpt lat="40.056408" lon="-2.1378782">
        <ele>919.0</ele>
        <time>2021-07-27T18:43:35Z</time>
      </trkpt>
      <trkpt lat="40.056362" lon="-2.1377668">
        <ele>919.0</ele>
        <time>2021-07-27T18:43:37Z</time>
      </trkpt>
      <trkpt lat="40.056293" lon="-2.1375954">
        <ele>919.0</ele>
        <time>2021-07-27T18:43:40Z</time>
      </trkpt>
      <trkpt lat="40.05627" lon="-2.137543">
        <ele>919.0</ele>
        <time>2021-07-27T18:43:41Z</time>
      </trkpt>
      <trkpt lat="40.05622" lon="-2.1374407">
        <ele>919.0</ele>
        <time>2021-07-27T18:43:43Z</time>
      </trkpt>
      <trkpt lat="40.056175" lon="-2.1373448">
        <ele>919.0</ele>
        <time>2021-07-27T18:43:45Z</time>
      </trkpt>
      <trkpt lat="40.056137" lon="-2.1372492">
        <ele>919.0</ele>
        <time>2021-07-27T18:43:47Z</time>
      </trkpt>
      <trkpt lat="40.05611" lon="-2.137145">
        <ele>919.0</ele>
        <time>2021-07-27T18:43:49Z</time>
      </trkpt>
      <trkpt lat="40.056095" lon="-2.1370368">
        <ele>919.0</ele>
        <time>2021-07-27T18:43:51Z</time>
      </trkpt>
      <trkpt lat="40.056084" lon="-2.1369247">
        <ele>919.0</ele>
        <time>2021-07-27T18:43:53Z</time>
      </trkpt>
      <trkpt lat="40.056076" lon="-2.1368108">
        <ele>919.0</ele>
        <time>2021-07-27T18:43:55Z</time>
      </trkpt>
      <trkpt lat="40.056076" lon="-2.1366918">
        <ele>919.0</ele>
        <time>2021-07-27T18:43:57Z</time>
      </trkpt>
      <trkpt lat="40.056072" lon="-2.1365774">
        <ele>919.0</ele>
        <time>2021-07-27T18:43:59Z</time>
      </trkpt>
      <trkpt lat="40.056065" lon="-2.1364675">
        <ele>919.0</ele>
        <time>2021-07-27T18:44:01Z</time>
      </trkpt>
      <trkpt lat="40.056057" lon="-2.13638">
        <ele>919.0</ele>
        <time>2021-07-27T18:44:03Z</time>
      </trkpt>
      <trkpt lat="40.05606" lon="-2.1363027">
        <ele>919.0</ele>
        <time>2021-07-27T18:44:05Z</time>
      </trkpt>
      <trkpt lat="40.056084" lon="-2.1362414">
        <ele>919.0</ele>
        <time>2021-07-27T18:44:07Z</time>
      </trkpt>
      <trkpt lat="40.056118" lon="-2.1361651">
        <ele>919.0</ele>
        <time>2021-07-27T18:44:10Z</time>
      </trkpt>
      <trkpt lat="40.056156" lon="-2.1361094">
        <ele>919.0</ele>
        <time>2021-07-27T18:44:12Z</time>
      </trkpt>
      <trkpt lat="40.05619" lon="-2.136048">
        <ele>920.0</ele>
        <time>2021-07-27T18:44:14Z</time>
      </trkpt>
      <trkpt lat="40.05622" lon="-2.13598">
        <ele>920.0</ele>
        <time>2021-07-27T18:44:16Z</time>
      </trkpt>
      <trkpt lat="40.05624" lon="-2.1359046">
        <ele>920.0</ele>
        <time>2021-07-27T18:44:18Z</time>
      </trkpt>
      <trkpt lat="40.056255" lon="-2.1358209">
        <ele>921.0</ele>
        <time>2021-07-27T18:44:20Z</time>
      </trkpt>
      <trkpt lat="40.056267" lon="-2.1357322">
        <ele>921.0</ele>
        <time>2021-07-27T18:44:22Z</time>
      </trkpt>
      <trkpt lat="40.05628" lon="-2.1356366">
        <ele>921.0</ele>
        <time>2021-07-27T18:44:24Z</time>
      </trkpt>
      <trkpt lat="40.05629" lon="-2.1355479">
        <ele>921.0</ele>
        <time>2021-07-27T18:44:26Z</time>
      </trkpt>
      <trkpt lat="40.056297" lon="-2.1354635">
        <ele>922.0</ele>
        <time>2021-07-27T18:44:28Z</time>
      </trkpt>
      <trkpt lat="40.0563" lon="-2.135383">
        <ele>922.0</ele>
        <time>2021-07-27T18:44:30Z</time>
      </trkpt>
      <trkpt lat="40.0563" lon="-2.135301">
        <ele>922.0</ele>
        <time>2021-07-27T18:44:32Z</time>
      </trkpt>
      <trkpt lat="40.056293" lon="-2.1352165">
        <ele>923.0</ele>
        <time>2021-07-27T18:44:34Z</time>
      </trkpt>
      <trkpt lat="40.056293" lon="-2.1351247">
        <ele>923.0</ele>
        <time>2021-07-27T18:44:36Z</time>
      </trkpt>
      <trkpt lat="40.05629" lon="-2.135022">
        <ele>923.0</ele>
        <time>2021-07-27T18:44:38Z</time>
      </trkpt>
      <trkpt lat="40.05629" lon="-2.134915">
        <ele>923.0</ele>
        <time>2021-07-27T18:44:40Z</time>
      </trkpt>
      <trkpt lat="40.056286" lon="-2.1348143">
        <ele>923.0</ele>
        <time>2021-07-27T18:44:42Z</time>
      </trkpt>
      <trkpt lat="40.05627" lon="-2.1347275">
        <ele>923.0</ele>
        <time>2021-07-27T18:44:44Z</time>
      </trkpt>
      <trkpt lat="40.056232" lon="-2.1346579">
        <ele>922.0</ele>
        <time>2021-07-27T18:44:46Z</time>
      </trkpt>
      <trkpt lat="40.056175" lon="-2.1346014">
        <ele>922.0</ele>
        <time>2021-07-27T18:44:48Z</time>
      </trkpt>
      <trkpt lat="40.056107" lon="-2.1345475">
        <ele>922.0</ele>
        <time>2021-07-27T18:44:50Z</time>
      </trkpt>
      <trkpt lat="40.056034" lon="-2.1344945">
        <ele>922.0</ele>
        <time>2021-07-27T18:44:52Z</time>
      </trkpt>
      <trkpt lat="40.055965" lon="-2.134445">
        <ele>922.0</ele>
        <time>2021-07-27T18:44:54Z</time>
      </trkpt>
      <trkpt lat="40.055862" lon="-2.134389">
        <ele>921.0</ele>
        <time>2021-07-27T18:44:57Z</time>
      </trkpt>
      <trkpt lat="40.055798" lon="-2.1343875">
        <ele>921.0</ele>
        <time>2021-07-27T18:44:59Z</time>
      </trkpt>
      <trkpt lat="40.055737" lon="-2.1344259">
        <ele>921.0</ele>
        <time>2021-07-27T18:45:01Z</time>
      </trkpt>
      <trkpt lat="40.05568" lon="-2.134491">
        <ele>921.0</ele>
        <time>2021-07-27T18:45:03Z</time>
      </trkpt>
      <trkpt lat="40.055622" lon="-2.1345696">
        <ele>921.0</ele>
        <time>2021-07-27T18:45:05Z</time>
      </trkpt>
      <trkpt lat="40.05557" lon="-2.134657">
        <ele>921.0</ele>
        <time>2021-07-27T18:45:07Z</time>
      </trkpt>
      <trkpt lat="40.055508" lon="-2.1347501">
        <ele>921.0</ele>
        <time>2021-07-27T18:45:09Z</time>
      </trkpt>
      <trkpt lat="40.055447" lon="-2.1348455">
        <ele>921.0</ele>
        <time>2021-07-27T18:45:11Z</time>
      </trkpt>
      <trkpt lat="40.05542" lon="-2.1348937">
        <ele>921.0</ele>
        <time>2021-07-27T18:45:12Z</time>
      </trkpt>
      <trkpt lat="40.055363" lon="-2.1349862">
        <ele>921.0</ele>
        <time>2021-07-27T18:45:14Z</time>
      </trkpt>
      <trkpt lat="40.055305" lon="-2.1350765">
        <ele>921.0</ele>
        <time>2021-07-27T18:45:16Z</time>
      </trkpt>
      <trkpt lat="40.055252" lon="-2.135155">
        <ele>921.0</ele>
        <time>2021-07-27T18:45:18Z</time>
      </trkpt>
      <trkpt lat="40.055206" lon="-2.135212">
        <ele>921.0</ele>
        <time>2021-07-27T18:45:20Z</time>
      </trkpt>
      <trkpt lat="40.055157" lon="-2.1352525">
        <ele>921.0</ele>
        <time>2021-07-27T18:45:22Z</time>
      </trkpt>
      <trkpt lat="40.055096" lon="-2.1352782">
        <ele>920.0</ele>
        <time>2021-07-27T18:45:24Z</time>
      </trkpt>
      <trkpt lat="40.05503" lon="-2.1352992">
        <ele>920.0</ele>
        <time>2021-07-27T18:45:26Z</time>
      </trkpt>
      <trkpt lat="40.05497" lon="-2.1353326">
        <ele>920.0</ele>
        <time>2021-07-27T18:45:28Z</time>
      </trkpt>
      <trkpt lat="40.054928" lon="-2.1353939">
        <ele>919.0</ele>
        <time>2021-07-27T18:45:30Z</time>
      </trkpt>
      <trkpt lat="40.05489" lon="-2.1354744">
        <ele>919.0</ele>
        <time>2021-07-27T18:45:32Z</time>
      </trkpt>
      <trkpt lat="40.05486" lon="-2.135566">
        <ele>919.0</ele>
        <time>2021-07-27T18:45:34Z</time>
      </trkpt>
      <trkpt lat="40.054825" lon="-2.1356611">
        <ele>919.0</ele>
        <time>2021-07-27T18:45:36Z</time>
      </trkpt>
      <trkpt lat="40.0548" lon="-2.13576">
        <ele>919.0</ele>
        <time>2021-07-27T18:45:38Z</time>
      </trkpt>
      <trkpt lat="40.05477" lon="-2.1358602">
        <ele>919.0</ele>
        <time>2021-07-27T18:45:40Z</time>
      </trkpt>
      <trkpt lat="40.05475" lon="-2.1359606">
        <ele>919.0</ele>
        <time>2021-07-27T18:45:42Z</time>
      </trkpt>
      <trkpt lat="40.05473" lon="-2.1360543">
        <ele>919.0</ele>
        <time>2021-07-27T18:45:44Z</time>
      </trkpt>
      <trkpt lat="40.054707" lon="-2.1361248">
        <ele>919.0</ele>
        <time>2021-07-27T18:45:46Z</time>
      </trkpt>
      <trkpt lat="40.054688" lon="-2.1361845">
        <ele>919.0</ele>
        <time>2021-07-27T18:45:49Z</time>
      </trkpt>
      <trkpt lat="40.054695" lon="-2.1362054">
        <ele>919.0</ele>
        <time>2021-07-27T18:45:57Z</time>
      </trkpt>
      <trkpt lat="40.05474" lon="-2.1362574">
        <ele>918.0</ele>
        <time>2021-07-27T18:46:02Z</time>
      </trkpt>
      <trkpt lat="40.054775" lon="-2.1363332">
        <ele>918.0</ele>
        <time>2021-07-27T18:46:05Z</time>
      </trkpt>
      <trkpt lat="40.054813" lon="-2.1363876">
        <ele>918.0</ele>
        <time>2021-07-27T18:46:07Z</time>
      </trkpt>
      <trkpt lat="40.05486" lon="-2.1364572">
        <ele>918.0</ele>
        <time>2021-07-27T18:46:10Z</time>
      </trkpt>
      <trkpt lat="40.054886" lon="-2.1364949">
        <ele>918.0</ele>
        <time>2021-07-27T18:46:15Z</time>
      </trkpt>
      <trkpt lat="40.054874" lon="-2.136479">
        <ele>918.0</ele>
        <time>2021-07-27T18:46:45Z</time>
      </trkpt>
      <trkpt lat="40.05482" lon="-2.1363995">
        <ele>918.0</ele>
        <time>2021-07-27T18:46:48Z</time>
      </trkpt>
      <trkpt lat="40.054783" lon="-2.1363297">
        <ele>918.0</ele>
        <time>2021-07-27T18:46:50Z</time>
      </trkpt>
      <trkpt lat="40.054752" lon="-2.1362534">
        <ele>918.0</ele>
        <time>2021-07-27T18:46:52Z</time>
      </trkpt>
      <trkpt lat="40.054733" lon="-2.1361809">
        <ele>918.0</ele>
        <time>2021-07-27T18:46:54Z</time>
      </trkpt>
      <trkpt lat="40.05472" lon="-2.1361089">
        <ele>918.0</ele>
        <time>2021-07-27T18:46:56Z</time>
      </trkpt>
      <trkpt lat="40.05473" lon="-2.1360278">
        <ele>918.0</ele>
        <time>2021-07-27T18:46:58Z</time>
      </trkpt>
      <trkpt lat="40.054745" lon="-2.1359372">
        <ele>918.0</ele>
        <time>2021-07-27T18:47:00Z</time>
      </trkpt>
      <trkpt lat="40.054768" lon="-2.1358385">
        <ele>918.0</ele>
        <time>2021-07-27T18:47:02Z</time>
      </trkpt>
      <trkpt lat="40.05479" lon="-2.1357415">
        <ele>918.0</ele>
        <time>2021-07-27T18:47:04Z</time>
      </trkpt>
      <trkpt lat="40.05482" lon="-2.1356468">
        <ele>918.0</ele>
        <time>2021-07-27T18:47:06Z</time>
      </trkpt>
      <trkpt lat="40.05485" lon="-2.1355505">
        <ele>918.0</ele>
        <time>2021-07-27T18:47:08Z</time>
      </trkpt>
      <trkpt lat="40.054882" lon="-2.1354566">
        <ele>918.0</ele>
        <time>2021-07-27T18:47:10Z</time>
      </trkpt>
      <trkpt lat="40.054924" lon="-2.1353805">
        <ele>918.0</ele>
        <time>2021-07-27T18:47:12Z</time>
      </trkpt>
      <trkpt lat="40.054974" lon="-2.135331">
        <ele>918.0</ele>
        <time>2021-07-27T18:47:14Z</time>
      </trkpt>
      <trkpt lat="40.05503" lon="-2.1353023">
        <ele>918.0</ele>
        <time>2021-07-27T18:47:16Z</time>
      </trkpt>
      <trkpt lat="40.055084" lon="-2.135284">
        <ele>919.0</ele>
        <time>2021-07-27T18:47:18Z</time>
      </trkpt>
      <trkpt lat="40.055138" lon="-2.1352656">
        <ele>919.0</ele>
        <time>2021-07-27T18:47:20Z</time>
      </trkpt>
      <trkpt lat="40.055202" lon="-2.1352189">
        <ele>919.0</ele>
        <time>2021-07-27T18:47:23Z</time>
      </trkpt>
      <trkpt lat="40.05524" lon="-2.1351678">
        <ele>919.0</ele>
        <time>2021-07-27T18:47:25Z</time>
      </trkpt>
      <trkpt lat="40.055286" lon="-2.135104">
        <ele>919.0</ele>
        <time>2021-07-27T18:47:27Z</time>
      </trkpt>
      <trkpt lat="40.05536" lon="-2.1349976">
        <ele>919.0</ele>
        <time>2021-07-27T18:47:30Z</time>
      </trkpt>
      <trkpt lat="40.055412" lon="-2.13492">
        <ele>919.0</ele>
        <time>2021-07-27T18:47:32Z</time>
      </trkpt>
      <trkpt lat="40.05546" lon="-2.1348412">
        <ele>919.0</ele>
        <time>2021-07-27T18:47:34Z</time>
      </trkpt>
      <trkpt lat="40.05551" lon="-2.1347601">
        <ele>919.0</ele>
        <time>2021-07-27T18:47:36Z</time>
      </trkpt>
      <trkpt lat="40.05556" lon="-2.1346793">
        <ele>919.0</ele>
        <time>2021-07-27T18:47:38Z</time>
      </trkpt>
      <trkpt lat="40.05561" lon="-2.1346028">
        <ele>919.0</ele>
        <time>2021-07-27T18:47:40Z</time>
      </trkpt>
      <trkpt lat="40.05566" lon="-2.1345265">
        <ele>919.0</ele>
        <time>2021-07-27T18:47:42Z</time>
      </trkpt>
      <trkpt lat="40.05571" lon="-2.1344576">
        <ele>920.0</ele>
        <time>2021-07-27T18:47:44Z</time>
      </trkpt>
      <trkpt lat="40.055763" lon="-2.1344092">
        <ele>920.0</ele>
        <time>2021-07-27T18:47:46Z</time>
      </trkpt>
      <trkpt lat="40.055824" lon="-2.134396">
        <ele>920.0</ele>
        <time>2021-07-27T18:47:48Z</time>
      </trkpt>
      <trkpt lat="40.05589" lon="-2.1344142">
        <ele>920.0</ele>
        <time>2021-07-27T18:47:50Z</time>
      </trkpt>
      <trkpt lat="40.055954" lon="-2.1344478">
        <ele>920.0</ele>
        <time>2021-07-27T18:47:52Z</time>
      </trkpt>
      <trkpt lat="40.05602" lon="-2.1344893">
        <ele>920.0</ele>
        <time>2021-07-27T18:47:54Z</time>
      </trkpt>
      <trkpt lat="40.05609" lon="-2.1345317">
        <ele>921.0</ele>
        <time>2021-07-27T18:47:56Z</time>
      </trkpt>
      <trkpt lat="40.05616" lon="-2.1345785">
        <ele>921.0</ele>
        <time>2021-07-27T18:47:58Z</time>
      </trkpt>
      <trkpt lat="40.05622" lon="-2.134635">
        <ele>921.0</ele>
        <time>2021-07-27T18:48:00Z</time>
      </trkpt>
      <trkpt lat="40.056263" lon="-2.1347008">
        <ele>921.0</ele>
        <time>2021-07-27T18:48:02Z</time>
      </trkpt>
      <trkpt lat="40.056282" lon="-2.1347775">
        <ele>921.0</ele>
        <time>2021-07-27T18:48:04Z</time>
      </trkpt>
      <trkpt lat="40.056293" lon="-2.134862">
        <ele>922.0</ele>
        <time>2021-07-27T18:48:06Z</time>
      </trkpt>
      <trkpt lat="40.056297" lon="-2.134952">
        <ele>922.0</ele>
        <time>2021-07-27T18:48:08Z</time>
      </trkpt>
      <trkpt lat="40.0563" lon="-2.135046">
        <ele>922.0</ele>
        <time>2021-07-27T18:48:10Z</time>
      </trkpt>
      <trkpt lat="40.0563" lon="-2.135139">
        <ele>923.0</ele>
        <time>2021-07-27T18:48:12Z</time>
      </trkpt>
      <trkpt lat="40.056305" lon="-2.1352274">
        <ele>923.0</ele>
        <time>2021-07-27T18:48:14Z</time>
      </trkpt>
      <trkpt lat="40.05631" lon="-2.1353145">
        <ele>923.0</ele>
        <time>2021-07-27T18:48:16Z</time>
      </trkpt>
      <trkpt lat="40.056313" lon="-2.1354096">
        <ele>923.0</ele>
        <time>2021-07-27T18:48:18Z</time>
      </trkpt>
      <trkpt lat="40.056305" lon="-2.1355178">
        <ele>923.0</ele>
        <time>2021-07-27T18:48:20Z</time>
      </trkpt>
      <trkpt lat="40.056293" lon="-2.1356318">
        <ele>923.0</ele>
        <time>2021-07-27T18:48:22Z</time>
      </trkpt>
      <trkpt lat="40.05628" lon="-2.135744">
        <ele>923.0</ele>
        <time>2021-07-27T18:48:24Z</time>
      </trkpt>
      <trkpt lat="40.056267" lon="-2.1358545">
        <ele>923.0</ele>
        <time>2021-07-27T18:48:26Z</time>
      </trkpt>
      <trkpt lat="40.056236" lon="-2.1359653">
        <ele>922.0</ele>
        <time>2021-07-27T18:48:28Z</time>
      </trkpt>
      <trkpt lat="40.05619" lon="-2.1360724">
        <ele>922.0</ele>
        <time>2021-07-27T18:48:30Z</time>
      </trkpt>
      <trkpt lat="40.05614" lon="-2.1361814">
        <ele>921.0</ele>
        <time>2021-07-27T18:48:32Z</time>
      </trkpt>
      <trkpt lat="40.056118" lon="-2.1362395">
        <ele>921.0</ele>
        <time>2021-07-27T18:48:33Z</time>
      </trkpt>
      <trkpt lat="40.0561" lon="-2.1362998">
        <ele>921.0</ele>
        <time>2021-07-27T18:48:34Z</time>
      </trkpt>
      <trkpt lat="40.056084" lon="-2.1364272">
        <ele>921.0</ele>
        <time>2021-07-27T18:48:36Z</time>
      </trkpt>
      <trkpt lat="40.056076" lon="-2.1365545">
        <ele>921.0</ele>
        <time>2021-07-27T18:48:38Z</time>
      </trkpt>
      <trkpt lat="40.056076" lon="-2.1366792">
        <ele>921.0</ele>
        <time>2021-07-27T18:48:40Z</time>
      </trkpt>
      <trkpt lat="40.056076" lon="-2.1367412">
        <ele>920.0</ele>
        <time>2021-07-27T18:48:41Z</time>
      </trkpt>
      <trkpt lat="40.056076" lon="-2.1368592">
        <ele>920.0</ele>
        <time>2021-07-27T18:48:43Z</time>
      </trkpt>
      <trkpt lat="40.056095" lon="-2.1370127">
        <ele>920.0</ele>
        <time>2021-07-27T18:48:46Z</time>
      </trkpt>
      <trkpt lat="40.056118" lon="-2.1371098">
        <ele>920.0</ele>
        <time>2021-07-27T18:48:48Z</time>
      </trkpt>
      <trkpt lat="40.056145" lon="-2.1372054">
        <ele>920.0</ele>
        <time>2021-07-27T18:48:50Z</time>
      </trkpt>
      <trkpt lat="40.05618" lon="-2.137311">
        <ele>920.0</ele>
        <time>2021-07-27T18:48:52Z</time>
      </trkpt>
      <trkpt lat="40.056217" lon="-2.137418">
        <ele>920.0</ele>
        <time>2021-07-27T18:48:54Z</time>
      </trkpt>
      <trkpt lat="40.05626" lon="-2.1375275">
        <ele>920.0</ele>
        <time>2021-07-27T18:48:56Z</time>
      </trkpt>
      <trkpt lat="40.0563" lon="-2.137637">
        <ele>920.0</ele>
        <time>2021-07-27T18:48:58Z</time>
      </trkpt>
      <trkpt lat="40.056324" lon="-2.1376922">
        <ele>920.0</ele>
        <time>2021-07-27T18:48:59Z</time>
      </trkpt>
      <trkpt lat="40.056366" lon="-2.1378021">
        <ele>920.0</ele>
        <time>2021-07-27T18:49:01Z</time>
      </trkpt>
      <trkpt lat="40.05641" lon="-2.1379137">
        <ele>920.0</ele>
        <time>2021-07-27T18:49:03Z</time>
      </trkpt>
      <trkpt lat="40.056465" lon="-2.1380255">
        <ele>920.0</ele>
        <time>2021-07-27T18:49:05Z</time>
      </trkpt>
      <trkpt lat="40.05651" lon="-2.138138">
        <ele>920.0</ele>
        <time>2021-07-27T18:49:07Z</time>
      </trkpt>
      <trkpt lat="40.05656" lon="-2.1382577">
        <ele>920.0</ele>
        <time>2021-07-27T18:49:09Z</time>
      </trkpt>
      <trkpt lat="40.056583" lon="-2.1383173">
        <ele>920.0</ele>
        <time>2021-07-27T18:49:10Z</time>
      </trkpt>
      <trkpt lat="40.05661" lon="-2.1383758">
        <ele>920.0</ele>
        <time>2021-07-27T18:49:11Z</time>
      </trkpt>
      <trkpt lat="40.05666" lon="-2.1384866">
        <ele>920.0</ele>
        <time>2021-07-27T18:49:13Z</time>
      </trkpt>
      <trkpt lat="40.05669" lon="-2.1385374">
        <ele>920.0</ele>
        <time>2021-07-27T18:49:14Z</time>
      </trkpt>
      <trkpt lat="40.056755" lon="-2.138634">
        <ele>920.0</ele>
        <time>2021-07-27T18:49:16Z</time>
      </trkpt>
      <trkpt lat="40.05679" lon="-2.1386797">
        <ele>920.0</ele>
        <time>2021-07-27T18:49:17Z</time>
      </trkpt>
      <trkpt lat="40.05686" lon="-2.138761">
        <ele>920.0</ele>
        <time>2021-07-27T18:49:19Z</time>
      </trkpt>
      <trkpt lat="40.05694" lon="-2.1388276">
        <ele>920.0</ele>
        <time>2021-07-27T18:49:21Z</time>
      </trkpt>
      <trkpt lat="40.057" lon="-2.1388752">
        <ele>920.0</ele>
        <time>2021-07-27T18:49:23Z</time>
      </trkpt>
      <trkpt lat="40.05704" lon="-2.1389112">
        <ele>920.0</ele>
        <time>2021-07-27T18:49:25Z</time>
      </trkpt>
      <trkpt lat="40.057064" lon="-2.13896">
        <ele>920.0</ele>
        <time>2021-07-27T18:49:28Z</time>
      </trkpt>
      <trkpt lat="40.057064" lon="-2.1390517">
        <ele>920.0</ele>
        <time>2021-07-27T18:49:32Z</time>
      </trkpt>
      <trkpt lat="40.057045" lon="-2.1391506">
        <ele>920.0</ele>
        <time>2021-07-27T18:49:35Z</time>
      </trkpt>
      <trkpt lat="40.057022" lon="-2.1392295">
        <ele>920.0</ele>
        <time>2021-07-27T18:49:37Z</time>
      </trkpt>
      <trkpt lat="40.057" lon="-2.1393118">
        <ele>920.0</ele>
        <time>2021-07-27T18:49:39Z</time>
      </trkpt>
      <trkpt lat="40.05697" lon="-2.139398">
        <ele>920.0</ele>
        <time>2021-07-27T18:49:41Z</time>
      </trkpt>
      <trkpt lat="40.05693" lon="-2.1394892">
        <ele>920.0</ele>
        <time>2021-07-27T18:49:43Z</time>
      </trkpt>
      <trkpt lat="40.056896" lon="-2.139585">
        <ele>920.0</ele>
        <time>2021-07-27T18:49:45Z</time>
      </trkpt>
      <trkpt lat="40.056854" lon="-2.1396806">
        <ele>920.0</ele>
        <time>2021-07-27T18:49:47Z</time>
      </trkpt>
      <trkpt lat="40.05681" lon="-2.139766">
        <ele>920.0</ele>
        <time>2021-07-27T18:49:49Z</time>
      </trkpt>
      <trkpt lat="40.056763" lon="-2.1398356">
        <ele>920.0</ele>
        <time>2021-07-27T18:49:51Z</time>
      </trkpt>
      <trkpt lat="40.056717" lon="-2.1398907">
        <ele>920.0</ele>
        <time>2021-07-27T18:49:53Z</time>
      </trkpt>
      <trkpt lat="40.056675" lon="-2.1399379">
        <ele>920.0</ele>
        <time>2021-07-27T18:49:55Z</time>
      </trkpt>
      <trkpt lat="40.056633" lon="-2.1399791">
        <ele>920.0</ele>
        <time>2021-07-27T18:49:57Z</time>
      </trkpt>
      <trkpt lat="40.056595" lon="-2.1400208">
        <ele>920.0</ele>
        <time>2021-07-27T18:49:59Z</time>
      </trkpt>
      <trkpt lat="40.05654" lon="-2.1400707">
        <ele>920.0</ele>
        <time>2021-07-27T18:50:01Z</time>
      </trkpt>
      <trkpt lat="40.05647" lon="-2.1401339">
        <ele>920.0</ele>
        <time>2021-07-27T18:50:03Z</time>
      </trkpt>
      <trkpt lat="40.056377" lon="-2.1402073">
        <ele>920.0</ele>
        <time>2021-07-27T18:50:05Z</time>
      </trkpt>
      <trkpt lat="40.05633" lon="-2.140243">
        <ele>920.0</ele>
        <time>2021-07-27T18:50:06Z</time>
      </trkpt>
      <trkpt lat="40.056286" lon="-2.1402788">
        <ele>920.0</ele>
        <time>2021-07-27T18:50:07Z</time>
      </trkpt>
      <trkpt lat="40.05624" lon="-2.1403134">
        <ele>920.0</ele>
        <time>2021-07-27T18:50:08Z</time>
      </trkpt>
      <trkpt lat="40.0562" lon="-2.1403456">
        <ele>920.0</ele>
        <time>2021-07-27T18:50:09Z</time>
      </trkpt>
      <trkpt lat="40.05616" lon="-2.140372">
        <ele>920.0</ele>
        <time>2021-07-27T18:50:10Z</time>
      </trkpt>
      <trkpt lat="40.056087" lon="-2.140411">
        <ele>920.0</ele>
        <time>2021-07-27T18:50:12Z</time>
      </trkpt>
      <trkpt lat="40.05602" lon="-2.140421">
        <ele>920.0</ele>
        <time>2021-07-27T18:50:14Z</time>
      </trkpt>
      <trkpt lat="40.055958" lon="-2.1404076">
        <ele>920.0</ele>
        <time>2021-07-27T18:50:16Z</time>
      </trkpt>
      <trkpt lat="40.055893" lon="-2.1403823">
        <ele>920.0</ele>
        <time>2021-07-27T18:50:18Z</time>
      </trkpt>
      <trkpt lat="40.055817" lon="-2.1403546">
        <ele>920.0</ele>
        <time>2021-07-27T18:50:20Z</time>
      </trkpt>
      <trkpt lat="40.05574" lon="-2.1403296">
        <ele>920.0</ele>
        <time>2021-07-27T18:50:22Z</time>
      </trkpt>
      <trkpt lat="40.05567" lon="-2.1403086">
        <ele>920.0</ele>
        <time>2021-07-27T18:50:24Z</time>
      </trkpt>
      <trkpt lat="40.05561" lon="-2.1402917">
        <ele>920.0</ele>
        <time>2021-07-27T18:50:26Z</time>
      </trkpt>
      <trkpt lat="40.055553" lon="-2.1402729">
        <ele>920.0</ele>
        <time>2021-07-27T18:50:28Z</time>
      </trkpt>
      <trkpt lat="40.055504" lon="-2.140254">
        <ele>920.0</ele>
        <time>2021-07-27T18:50:30Z</time>
      </trkpt>
      <trkpt lat="40.05545" lon="-2.14023">
        <ele>921.0</ele>
        <time>2021-07-27T18:50:33Z</time>
      </trkpt>
      <trkpt lat="40.05538" lon="-2.140205">
        <ele>922.0</ele>
        <time>2021-07-27T18:50:37Z</time>
      </trkpt>
      <trkpt lat="40.05532" lon="-2.1401815">
        <ele>922.0</ele>
        <time>2021-07-27T18:50:40Z</time>
      </trkpt>
      <trkpt lat="40.05527" lon="-2.1401603">
        <ele>922.0</ele>
        <time>2021-07-27T18:50:42Z</time>
      </trkpt>
      <trkpt lat="40.05522" lon="-2.1401367">
        <ele>923.0</ele>
        <time>2021-07-27T18:50:44Z</time>
      </trkpt>
      <trkpt lat="40.05517" lon="-2.1401117">
        <ele>923.0</ele>
        <time>2021-07-27T18:50:46Z</time>
      </trkpt>
      <trkpt lat="40.055115" lon="-2.1400871">
        <ele>923.0</ele>
        <time>2021-07-27T18:50:49Z</time>
      </trkpt>
      <trkpt lat="40.055046" lon="-2.14005">
        <ele>923.0</ele>
        <time>2021-07-27T18:51:53Z</time>
      </trkpt>
      <trkpt lat="40.054985" lon="-2.1400237">
        <ele>923.0</ele>
        <time>2021-07-27T18:51:56Z</time>
      </trkpt>
      <trkpt lat="40.05493" lon="-2.140002">
        <ele>923.0</ele>
        <time>2021-07-27T18:51:58Z</time>
      </trkpt>
      <trkpt lat="40.05487" lon="-2.1399825">
        <ele>923.0</ele>
        <time>2021-07-27T18:52:00Z</time>
      </trkpt>
      <trkpt lat="40.054806" lon="-2.139968">
        <ele>923.0</ele>
        <time>2021-07-27T18:52:02Z</time>
      </trkpt>
      <trkpt lat="40.054745" lon="-2.1399527">
        <ele>923.0</ele>
        <time>2021-07-27T18:52:04Z</time>
      </trkpt>
      <trkpt lat="40.054676" lon="-2.1399357">
        <ele>924.0</ele>
        <time>2021-07-27T18:52:06Z</time>
      </trkpt>
      <trkpt lat="40.054615" lon="-2.1399212">
        <ele>924.0</ele>
        <time>2021-07-27T18:52:08Z</time>
      </trkpt>
      <trkpt lat="40.054558" lon="-2.1399138">
        <ele>924.0</ele>
        <time>2021-07-27T18:52:10Z</time>
      </trkpt>
      <trkpt lat="40.0545" lon="-2.1399117">
        <ele>924.0</ele>
        <time>2021-07-27T18:52:12Z</time>
      </trkpt>
      <trkpt lat="40.054443" lon="-2.1399074">
        <ele>924.0</ele>
        <time>2021-07-27T18:52:14Z</time>
      </trkpt>
      <trkpt lat="40.05438" lon="-2.139905">
        <ele>924.0</ele>
        <time>2021-07-27T18:52:16Z</time>
      </trkpt>
      <trkpt lat="40.054306" lon="-2.139905">
        <ele>924.0</ele>
        <time>2021-07-27T18:52:18Z</time>
      </trkpt>
      <trkpt lat="40.05423" lon="-2.1399086">
        <ele>924.0</ele>
        <time>2021-07-27T18:52:20Z</time>
      </trkpt>
      <trkpt lat="40.054157" lon="-2.1399157">
        <ele>924.0</ele>
        <time>2021-07-27T18:52:22Z</time>
      </trkpt>
      <trkpt lat="40.05408" lon="-2.139924">
        <ele>924.0</ele>
        <time>2021-07-27T18:52:24Z</time>
      </trkpt>
      <trkpt lat="40.05401" lon="-2.1399353">
        <ele>924.0</ele>
        <time>2021-07-27T18:52:26Z</time>
      </trkpt>
      <trkpt lat="40.05394" lon="-2.1399524">
        <ele>924.0</ele>
        <time>2021-07-27T18:52:28Z</time>
      </trkpt>
      <trkpt lat="40.05387" lon="-2.139974">
        <ele>924.0</ele>
        <time>2021-07-27T18:52:30Z</time>
      </trkpt>
      <trkpt lat="40.053802" lon="-2.1399927">
        <ele>924.0</ele>
        <time>2021-07-27T18:52:32Z</time>
      </trkpt>
      <trkpt lat="40.053734" lon="-2.140003">
        <ele>924.0</ele>
        <time>2021-07-27T18:52:34Z</time>
      </trkpt>
      <trkpt lat="40.053658" lon="-2.1400123">
        <ele>924.0</ele>
        <time>2021-07-27T18:52:36Z</time>
      </trkpt>
      <trkpt lat="40.053585" lon="-2.1400194">
        <ele>925.0</ele>
        <time>2021-07-27T18:52:38Z</time>
      </trkpt>
      <trkpt lat="40.05351" lon="-2.1400244">
        <ele>925.0</ele>
        <time>2021-07-27T18:52:40Z</time>
      </trkpt>
      <trkpt lat="40.053436" lon="-2.1400316">
        <ele>925.0</ele>
        <time>2021-07-27T18:52:42Z</time>
      </trkpt>
      <trkpt lat="40.053364" lon="-2.1400433">
        <ele>925.0</ele>
        <time>2021-07-27T18:52:44Z</time>
      </trkpt>
      <trkpt lat="40.053295" lon="-2.140055">
        <ele>925.0</ele>
        <time>2021-07-27T18:52:46Z</time>
      </trkpt>
      <trkpt lat="40.053226" lon="-2.1400628">
        <ele>926.0</ele>
        <time>2021-07-27T18:52:48Z</time>
      </trkpt>
      <trkpt lat="40.053158" lon="-2.1400666">
        <ele>926.0</ele>
        <time>2021-07-27T18:52:50Z</time>
      </trkpt>
      <trkpt lat="40.05309" lon="-2.1400692">
        <ele>926.0</ele>
        <time>2021-07-27T18:52:52Z</time>
      </trkpt>
      <trkpt lat="40.05302" lon="-2.1400783">
        <ele>926.0</ele>
        <time>2021-07-27T18:52:54Z</time>
      </trkpt>
      <trkpt lat="40.05295" lon="-2.140092">
        <ele>927.0</ele>
        <time>2021-07-27T18:52:56Z</time>
      </trkpt>
      <trkpt lat="40.052887" lon="-2.1401145">
        <ele>927.0</ele>
        <time>2021-07-27T18:52:58Z</time>
      </trkpt>
      <trkpt lat="40.05282" lon="-2.1401405">
        <ele>927.0</ele>
        <time>2021-07-27T18:53:00Z</time>
      </trkpt>
      <trkpt lat="40.05275" lon="-2.140172">
        <ele>928.0</ele>
        <time>2021-07-27T18:53:02Z</time>
      </trkpt>
      <trkpt lat="40.05269" lon="-2.1402092">
        <ele>928.0</ele>
        <time>2021-07-27T18:53:04Z</time>
      </trkpt>
      <trkpt lat="40.052624" lon="-2.1402423">
        <ele>928.0</ele>
        <time>2021-07-27T18:53:06Z</time>
      </trkpt>
      <trkpt lat="40.052555" lon="-2.1402695">
        <ele>928.0</ele>
        <time>2021-07-27T18:53:08Z</time>
      </trkpt>
      <trkpt lat="40.05249" lon="-2.1402822">
        <ele>929.0</ele>
        <time>2021-07-27T18:53:10Z</time>
      </trkpt>
      <trkpt lat="40.052425" lon="-2.1402853">
        <ele>929.0</ele>
        <time>2021-07-27T18:53:12Z</time>
      </trkpt>
      <trkpt lat="40.05236" lon="-2.140283">
        <ele>929.0</ele>
        <time>2021-07-27T18:53:14Z</time>
      </trkpt>
      <trkpt lat="40.052296" lon="-2.1402788">
        <ele>930.0</ele>
        <time>2021-07-27T18:53:16Z</time>
      </trkpt>
      <trkpt lat="40.052227" lon="-2.140272">
        <ele>930.0</ele>
        <time>2021-07-27T18:53:18Z</time>
      </trkpt>
      <trkpt lat="40.05216" lon="-2.140264">
        <ele>930.0</ele>
        <time>2021-07-27T18:53:20Z</time>
      </trkpt>
      <trkpt lat="40.05209" lon="-2.1402526">
        <ele>930.0</ele>
        <time>2021-07-27T18:53:22Z</time>
      </trkpt>
      <trkpt lat="40.052017" lon="-2.1402466">
        <ele>930.0</ele>
        <time>2021-07-27T18:53:24Z</time>
      </trkpt>
      <trkpt lat="40.051945" lon="-2.1402485">
        <ele>930.0</ele>
        <time>2021-07-27T18:53:26Z</time>
      </trkpt>
      <trkpt lat="40.051872" lon="-2.1402524">
        <ele>931.0</ele>
        <time>2021-07-27T18:53:28Z</time>
      </trkpt>
      <trkpt lat="40.051804" lon="-2.1402593">
        <ele>931.0</ele>
        <time>2021-07-27T18:53:30Z</time>
      </trkpt>
      <trkpt lat="40.05173" lon="-2.14027">
        <ele>931.0</ele>
        <time>2021-07-27T18:53:32Z</time>
      </trkpt>
      <trkpt lat="40.05166" lon="-2.1402783">
        <ele>931.0</ele>
        <time>2021-07-27T18:53:34Z</time>
      </trkpt>
      <trkpt lat="40.051586" lon="-2.1402864">
        <ele>931.0</ele>
        <time>2021-07-27T18:53:36Z</time>
      </trkpt>
      <trkpt lat="40.051517" lon="-2.1402924">
        <ele>931.0</ele>
        <time>2021-07-27T18:53:38Z</time>
      </trkpt>
      <trkpt lat="40.051445" lon="-2.140302">
        <ele>931.0</ele>
        <time>2021-07-27T18:53:40Z</time>
      </trkpt>
      <trkpt lat="40.051376" lon="-2.140313">
        <ele>931.0</ele>
        <time>2021-07-27T18:53:42Z</time>
      </trkpt>
      <trkpt lat="40.051308" lon="-2.1403303">
        <ele>931.0</ele>
        <time>2021-07-27T18:53:44Z</time>
      </trkpt>
      <trkpt lat="40.051243" lon="-2.1403532">
        <ele>931.0</ele>
        <time>2021-07-27T18:53:46Z</time>
      </trkpt>
      <trkpt lat="40.051174" lon="-2.1403873">
        <ele>931.0</ele>
        <time>2021-07-27T18:53:48Z</time>
      </trkpt>
      <trkpt lat="40.051113" lon="-2.1404312">
        <ele>932.0</ele>
        <time>2021-07-27T18:53:50Z</time>
      </trkpt>
      <trkpt lat="40.05105" lon="-2.1404796">
        <ele>932.0</ele>
        <time>2021-07-27T18:53:52Z</time>
      </trkpt>
      <trkpt lat="40.050983" lon="-2.1405246">
        <ele>932.0</ele>
        <time>2021-07-27T18:53:54Z</time>
      </trkpt>
      <trkpt lat="40.050915" lon="-2.1405647">
        <ele>932.0</ele>
        <time>2021-07-27T18:53:56Z</time>
      </trkpt>
      <trkpt lat="40.050846" lon="-2.1405978">
        <ele>932.0</ele>
        <time>2021-07-27T18:53:58Z</time>
      </trkpt>
      <trkpt lat="40.05077" lon="-2.1406262">
        <ele>933.0</ele>
        <time>2021-07-27T18:54:00Z</time>
      </trkpt>
      <trkpt lat="40.050697" lon="-2.140646">
        <ele>933.0</ele>
        <time>2021-07-27T18:54:02Z</time>
      </trkpt>
      <trkpt lat="40.05062" lon="-2.1406555">
        <ele>933.0</ele>
        <time>2021-07-27T18:54:04Z</time>
      </trkpt>
      <trkpt lat="40.050545" lon="-2.1406586">
        <ele>933.0</ele>
        <time>2021-07-27T18:54:06Z</time>
      </trkpt>
      <trkpt lat="40.05047" lon="-2.1406562">
        <ele>933.0</ele>
        <time>2021-07-27T18:54:08Z</time>
      </trkpt>
      <trkpt lat="40.050392" lon="-2.140651">
        <ele>933.0</ele>
        <time>2021-07-27T18:54:10Z</time>
      </trkpt>
      <trkpt lat="40.050316" lon="-2.1406412">
        <ele>933.0</ele>
        <time>2021-07-27T18:54:12Z</time>
      </trkpt>
      <trkpt lat="40.050243" lon="-2.140627">
        <ele>934.0</ele>
        <time>2021-07-27T18:54:14Z</time>
      </trkpt>
      <trkpt lat="40.05017" lon="-2.1406102">
        <ele>934.0</ele>
        <time>2021-07-27T18:54:16Z</time>
      </trkpt>
      <trkpt lat="40.0501" lon="-2.1405926">
        <ele>934.0</ele>
        <time>2021-07-27T18:54:18Z</time>
      </trkpt>
      <trkpt lat="40.05002" lon="-2.140576">
        <ele>934.0</ele>
        <time>2021-07-27T18:54:20Z</time>
      </trkpt>
      <trkpt lat="40.049946" lon="-2.140557">
        <ele>934.0</ele>
        <time>2021-07-27T18:54:22Z</time>
      </trkpt>
      <trkpt lat="40.049862" lon="-2.140537">
        <ele>934.0</ele>
        <time>2021-07-27T18:54:24Z</time>
      </trkpt>
      <trkpt lat="40.049786" lon="-2.1405206">
        <ele>934.0</ele>
        <time>2021-07-27T18:54:26Z</time>
      </trkpt>
      <trkpt lat="40.0497" lon="-2.1405032">
        <ele>934.0</ele>
        <time>2021-07-27T18:54:28Z</time>
      </trkpt>
      <trkpt lat="40.04962" lon="-2.140487">
        <ele>935.0</ele>
        <time>2021-07-27T18:54:30Z</time>
      </trkpt>
      <trkpt lat="40.049538" lon="-2.1404734">
        <ele>935.0</ele>
        <time>2021-07-27T18:54:32Z</time>
      </trkpt>
      <trkpt lat="40.049458" lon="-2.1404612">
        <ele>935.0</ele>
        <time>2021-07-27T18:54:34Z</time>
      </trkpt>
      <trkpt lat="40.04938" lon="-2.14045">
        <ele>935.0</ele>
        <time>2021-07-27T18:54:36Z</time>
      </trkpt>
      <trkpt lat="40.0493" lon="-2.1404407">
        <ele>935.0</ele>
        <time>2021-07-27T18:54:38Z</time>
      </trkpt>
      <trkpt lat="40.049225" lon="-2.140429">
        <ele>936.0</ele>
        <time>2021-07-27T18:54:40Z</time>
      </trkpt>
      <trkpt lat="40.04915" lon="-2.1404133">
        <ele>936.0</ele>
        <time>2021-07-27T18:54:42Z</time>
      </trkpt>
      <trkpt lat="40.049065" lon="-2.1403942">
        <ele>936.0</ele>
        <time>2021-07-27T18:54:44Z</time>
      </trkpt>
      <trkpt lat="40.048985" lon="-2.1403754">
        <ele>936.0</ele>
        <time>2021-07-27T18:54:46Z</time>
      </trkpt>
      <trkpt lat="40.048904" lon="-2.1403542">
        <ele>937.0</ele>
        <time>2021-07-27T18:54:48Z</time>
      </trkpt>
      <trkpt lat="40.04883" lon="-2.140332">
        <ele>937.0</ele>
        <time>2021-07-27T18:54:50Z</time>
      </trkpt>
      <trkpt lat="40.04875" lon="-2.1403055">
        <ele>937.0</ele>
        <time>2021-07-27T18:54:52Z</time>
      </trkpt>
      <trkpt lat="40.04867" lon="-2.1402755">
        <ele>938.0</ele>
        <time>2021-07-27T18:54:54Z</time>
      </trkpt>
      <trkpt lat="40.048595" lon="-2.1402438">
        <ele>938.0</ele>
        <time>2021-07-27T18:54:56Z</time>
      </trkpt>
      <trkpt lat="40.048523" lon="-2.1402097">
        <ele>938.0</ele>
        <time>2021-07-27T18:54:58Z</time>
      </trkpt>
      <trkpt lat="40.048454" lon="-2.140176">
        <ele>939.0</ele>
        <time>2021-07-27T18:55:00Z</time>
      </trkpt>
      <trkpt lat="40.048386" lon="-2.1401415">
        <ele>939.0</ele>
        <time>2021-07-27T18:55:02Z</time>
      </trkpt>
      <trkpt lat="40.04832" lon="-2.14011">
        <ele>939.0</ele>
        <time>2021-07-27T18:55:04Z</time>
      </trkpt>
      <trkpt lat="40.048252" lon="-2.140081">
        <ele>939.0</ele>
        <time>2021-07-27T18:55:06Z</time>
      </trkpt>
      <trkpt lat="40.048176" lon="-2.1400526">
        <ele>939.0</ele>
        <time>2021-07-27T18:55:08Z</time>
      </trkpt>
      <trkpt lat="40.048096" lon="-2.140023">
        <ele>939.0</ele>
        <time>2021-07-27T18:55:10Z</time>
      </trkpt>
      <trkpt lat="40.048004" lon="-2.139992">
        <ele>939.0</ele>
        <time>2021-07-27T18:55:12Z</time>
      </trkpt>
      <trkpt lat="40.047913" lon="-2.1399615">
        <ele>939.0</ele>
        <time>2021-07-27T18:55:14Z</time>
      </trkpt>
      <trkpt lat="40.04787" lon="-2.1399467">
        <ele>939.0</ele>
        <time>2021-07-27T18:55:15Z</time>
      </trkpt>
      <trkpt lat="40.047775" lon="-2.1399124">
        <ele>939.0</ele>
        <time>2021-07-27T18:55:17Z</time>
      </trkpt>
      <trkpt lat="40.04773" lon="-2.139894">
        <ele>939.0</ele>
        <time>2021-07-27T18:55:18Z</time>
      </trkpt>
      <trkpt lat="40.04763" lon="-2.139856">
        <ele>939.0</ele>
        <time>2021-07-27T18:55:20Z</time>
      </trkpt>
      <trkpt lat="40.047523" lon="-2.1398165">
        <ele>939.0</ele>
        <time>2021-07-27T18:55:22Z</time>
      </trkpt>
      <trkpt lat="40.047466" lon="-2.1397977">
        <ele>938.0</ele>
        <time>2021-07-27T18:55:23Z</time>
      </trkpt>
      <trkpt lat="40.04741" lon="-2.1397803">
        <ele>938.0</ele>
        <time>2021-07-27T18:55:24Z</time>
      </trkpt>
      <trkpt lat="40.047348" lon="-2.139766">
        <ele>938.0</ele>
        <time>2021-07-27T18:55:25Z</time>
      </trkpt>
      <trkpt lat="40.047283" lon="-2.1397538">
        <ele>938.0</ele>
        <time>2021-07-27T18:55:26Z</time>
      </trkpt>
      <trkpt lat="40.04722" lon="-2.139743">
        <ele>938.0</ele>
        <time>2021-07-27T18:55:27Z</time>
      </trkpt>
      <trkpt lat="40.047153" lon="-2.139732">
        <ele>937.0</ele>
        <time>2021-07-27T18:55:28Z</time>
      </trkpt>
      <trkpt lat="40.047085" lon="-2.1397192">
        <ele>937.0</ele>
        <time>2021-07-27T18:55:29Z</time>
      </trkpt>
      <trkpt lat="40.047016" lon="-2.1397042">
        <ele>937.0</ele>
        <time>2021-07-27T18:55:30Z</time>
      </trkpt>
      <trkpt lat="40.046947" lon="-2.1396892">
        <ele>937.0</ele>
        <time>2021-07-27T18:55:31Z</time>
      </trkpt>
      <trkpt lat="40.046883" lon="-2.1396737">
        <ele>937.0</ele>
        <time>2021-07-27T18:55:32Z</time>
      </trkpt>
      <trkpt lat="40.04682" lon="-2.1396594">
        <ele>937.0</ele>
        <time>2021-07-27T18:55:33Z</time>
      </trkpt>
      <trkpt lat="40.046757" lon="-2.1396458">
        <ele>936.0</ele>
        <time>2021-07-27T18:55:34Z</time>
      </trkpt>
      <trkpt lat="40.04669" lon="-2.1396317">
        <ele>936.0</ele>
        <time>2021-07-27T18:55:35Z</time>
      </trkpt>
      <trkpt lat="40.04663" lon="-2.1396208">
        <ele>936.0</ele>
        <time>2021-07-27T18:55:36Z</time>
      </trkpt>
      <trkpt lat="40.046566" lon="-2.1396108">
        <ele>936.0</ele>
        <time>2021-07-27T18:55:37Z</time>
      </trkpt>
      <trkpt lat="40.046505" lon="-2.1396022">
        <ele>936.0</ele>
        <time>2021-07-27T18:55:38Z</time>
      </trkpt>
      <trkpt lat="40.046448" lon="-2.139596">
        <ele>936.0</ele>
        <time>2021-07-27T18:55:39Z</time>
      </trkpt>
      <trkpt lat="40.046387" lon="-2.1395915">
        <ele>936.0</ele>
        <time>2021-07-27T18:55:40Z</time>
      </trkpt>
      <trkpt lat="40.046333" lon="-2.1395905">
        <ele>936.0</ele>
        <time>2021-07-27T18:55:41Z</time>
      </trkpt>
      <trkpt lat="40.04628" lon="-2.1395924">
        <ele>936.0</ele>
        <time>2021-07-27T18:55:42Z</time>
      </trkpt>
      <trkpt lat="40.04623" lon="-2.139596">
        <ele>936.0</ele>
        <time>2021-07-27T18:55:43Z</time>
      </trkpt>
      <trkpt lat="40.04618" lon="-2.1396">
        <ele>936.0</ele>
        <time>2021-07-27T18:55:44Z</time>
      </trkpt>
      <trkpt lat="40.046085" lon="-2.1396074">
        <ele>936.0</ele>
        <time>2021-07-27T18:55:46Z</time>
      </trkpt>
      <trkpt lat="40.04604" lon="-2.139608">
        <ele>936.0</ele>
        <time>2021-07-27T18:55:47Z</time>
      </trkpt>
      <trkpt lat="40.045948" lon="-2.139605">
        <ele>936.0</ele>
        <time>2021-07-27T18:55:49Z</time>
      </trkpt>
      <trkpt lat="40.045856" lon="-2.1395965">
        <ele>936.0</ele>
        <time>2021-07-27T18:55:51Z</time>
      </trkpt>
      <trkpt lat="40.04577" lon="-2.1395843">
        <ele>936.0</ele>
        <time>2021-07-27T18:55:53Z</time>
      </trkpt>
      <trkpt lat="40.045677" lon="-2.139572">
        <ele>936.0</ele>
        <time>2021-07-27T18:55:55Z</time>
      </trkpt>
      <trkpt lat="40.045597" lon="-2.1395605">
        <ele>936.0</ele>
        <time>2021-07-27T18:55:57Z</time>
      </trkpt>
      <trkpt lat="40.045513" lon="-2.1395445">
        <ele>936.0</ele>
        <time>2021-07-27T18:55:59Z</time>
      </trkpt>
      <trkpt lat="40.04543" lon="-2.1395252">
        <ele>936.0</ele>
        <time>2021-07-27T18:56:01Z</time>
      </trkpt>
      <trkpt lat="40.04535" lon="-2.139506">
        <ele>936.0</ele>
        <time>2021-07-27T18:56:03Z</time>
      </trkpt>
      <trkpt lat="40.04527" lon="-2.139487">
        <ele>936.0</ele>
        <time>2021-07-27T18:56:05Z</time>
      </trkpt>
      <trkpt lat="40.04519" lon="-2.1394691">
        <ele>936.0</ele>
        <time>2021-07-27T18:56:07Z</time>
      </trkpt>
      <trkpt lat="40.04511" lon="-2.1394503">
        <ele>936.0</ele>
        <time>2021-07-27T18:56:09Z</time>
      </trkpt>
      <trkpt lat="40.04502" lon="-2.139434">
        <ele>936.0</ele>
        <time>2021-07-27T18:56:11Z</time>
      </trkpt>
      <trkpt lat="40.044937" lon="-2.139419">
        <ele>936.0</ele>
        <time>2021-07-27T18:56:13Z</time>
      </trkpt>
      <trkpt lat="40.04485" lon="-2.1394072">
        <ele>936.0</ele>
        <time>2021-07-27T18:56:15Z</time>
      </trkpt>
      <trkpt lat="40.044765" lon="-2.1393988">
        <ele>936.0</ele>
        <time>2021-07-27T18:56:17Z</time>
      </trkpt>
      <trkpt lat="40.044678" lon="-2.1393895">
        <ele>936.0</ele>
        <time>2021-07-27T18:56:19Z</time>
      </trkpt>
      <trkpt lat="40.04459" lon="-2.1393805">
        <ele>936.0</ele>
        <time>2021-07-27T18:56:21Z</time>
      </trkpt>
      <trkpt lat="40.0445" lon="-2.139378">
        <ele>936.0</ele>
        <time>2021-07-27T18:56:23Z</time>
      </trkpt>
      <trkpt lat="40.044407" lon="-2.1393821">
        <ele>936.0</ele>
        <time>2021-07-27T18:56:25Z</time>
      </trkpt>
      <trkpt lat="40.044323" lon="-2.1393917">
        <ele>937.0</ele>
        <time>2021-07-27T18:56:27Z</time>
      </trkpt>
      <trkpt lat="40.044235" lon="-2.1394067">
        <ele>937.0</ele>
        <time>2021-07-27T18:56:29Z</time>
      </trkpt>
      <trkpt lat="40.04415" lon="-2.139426">
        <ele>937.0</ele>
        <time>2021-07-27T18:56:31Z</time>
      </trkpt>
      <trkpt lat="40.04407" lon="-2.139449">
        <ele>937.0</ele>
        <time>2021-07-27T18:56:33Z</time>
      </trkpt>
      <trkpt lat="40.043995" lon="-2.139464">
        <ele>937.0</ele>
        <time>2021-07-27T18:56:35Z</time>
      </trkpt>
      <trkpt lat="40.043915" lon="-2.1394703">
        <ele>937.0</ele>
        <time>2021-07-27T18:56:37Z</time>
      </trkpt>
      <trkpt lat="40.04384" lon="-2.139475">
        <ele>938.0</ele>
        <time>2021-07-27T18:56:39Z</time>
      </trkpt>
      <trkpt lat="40.043755" lon="-2.139481">
        <ele>938.0</ele>
        <time>2021-07-27T18:56:41Z</time>
      </trkpt>
      <trkpt lat="40.043667" lon="-2.1394835">
        <ele>938.0</ele>
        <time>2021-07-27T18:56:43Z</time>
      </trkpt>
      <trkpt lat="40.043583" lon="-2.139482">
        <ele>938.0</ele>
        <time>2021-07-27T18:56:45Z</time>
      </trkpt>
      <trkpt lat="40.043495" lon="-2.1394796">
        <ele>938.0</ele>
        <time>2021-07-27T18:56:47Z</time>
      </trkpt>
      <trkpt lat="40.043415" lon="-2.1394787">
        <ele>939.0</ele>
        <time>2021-07-27T18:56:49Z</time>
      </trkpt>
      <trkpt lat="40.043335" lon="-2.139481">
        <ele>939.0</ele>
        <time>2021-07-27T18:56:51Z</time>
      </trkpt>
      <trkpt lat="40.043255" lon="-2.1394887">
        <ele>939.0</ele>
        <time>2021-07-27T18:56:53Z</time>
      </trkpt>
      <trkpt lat="40.043163" lon="-2.139505">
        <ele>939.0</ele>
        <time>2021-07-27T18:56:55Z</time>
      </trkpt>
      <trkpt lat="40.04308" lon="-2.1395261">
        <ele>939.0</ele>
        <time>2021-07-27T18:56:57Z</time>
      </trkpt>
      <trkpt lat="40.042995" lon="-2.1395504">
        <ele>939.0</ele>
        <time>2021-07-27T18:56:59Z</time>
      </trkpt>
      <trkpt lat="40.04291" lon="-2.1395772">
        <ele>939.0</ele>
        <time>2021-07-27T18:57:01Z</time>
      </trkpt>
      <trkpt lat="40.04283" lon="-2.1396074">
        <ele>940.0</ele>
        <time>2021-07-27T18:57:03Z</time>
      </trkpt>
      <trkpt lat="40.042755" lon="-2.1396382">
        <ele>940.0</ele>
        <time>2021-07-27T18:57:05Z</time>
      </trkpt>
      <trkpt lat="40.04268" lon="-2.13966">
        <ele>940.0</ele>
        <time>2021-07-27T18:57:07Z</time>
      </trkpt>
      <trkpt lat="40.04261" lon="-2.1396737">
        <ele>941.0</ele>
        <time>2021-07-27T18:57:09Z</time>
      </trkpt>
      <trkpt lat="40.042534" lon="-2.1396818">
        <ele>941.0</ele>
        <time>2021-07-27T18:57:11Z</time>
      </trkpt>
      <trkpt lat="40.04246" lon="-2.1396854">
        <ele>941.0</ele>
        <time>2021-07-27T18:57:13Z</time>
      </trkpt>
      <trkpt lat="40.042393" lon="-2.139687">
        <ele>941.0</ele>
        <time>2021-07-27T18:57:15Z</time>
      </trkpt>
      <trkpt lat="40.04232" lon="-2.139689">
        <ele>942.0</ele>
        <time>2021-07-27T18:57:17Z</time>
      </trkpt>
      <trkpt lat="40.042248" lon="-2.1396916">
        <ele>942.0</ele>
        <time>2021-07-27T18:57:19Z</time>
      </trkpt>
      <trkpt lat="40.04217" lon="-2.1396933">
        <ele>942.0</ele>
        <time>2021-07-27T18:57:21Z</time>
      </trkpt>
      <trkpt lat="40.042095" lon="-2.1396947">
        <ele>942.0</ele>
        <time>2021-07-27T18:57:23Z</time>
      </trkpt>
      <trkpt lat="40.042015" lon="-2.139698">
        <ele>942.0</ele>
        <time>2021-07-27T18:57:25Z</time>
      </trkpt>
      <trkpt lat="40.04193" lon="-2.139703">
        <ele>942.0</ele>
        <time>2021-07-27T18:57:27Z</time>
      </trkpt>
      <trkpt lat="40.041847" lon="-2.1397073">
        <ele>942.0</ele>
        <time>2021-07-27T18:57:29Z</time>
      </trkpt>
      <trkpt lat="40.041767" lon="-2.1397107">
        <ele>942.0</ele>
        <time>2021-07-27T18:57:31Z</time>
      </trkpt>
      <trkpt lat="40.041683" lon="-2.1397142">
        <ele>942.0</ele>
        <time>2021-07-27T18:57:33Z</time>
      </trkpt>
      <trkpt lat="40.0416" lon="-2.1397176">
        <ele>942.0</ele>
        <time>2021-07-27T18:57:35Z</time>
      </trkpt>
      <trkpt lat="40.04151" lon="-2.1397157">
        <ele>942.0</ele>
        <time>2021-07-27T18:57:37Z</time>
      </trkpt>
      <trkpt lat="40.04143" lon="-2.13971">
        <ele>942.0</ele>
        <time>2021-07-27T18:57:39Z</time>
      </trkpt>
      <trkpt lat="40.041348" lon="-2.1397004">
        <ele>942.0</ele>
        <time>2021-07-27T18:57:41Z</time>
      </trkpt>
      <trkpt lat="40.041267" lon="-2.1396823">
        <ele>942.0</ele>
        <time>2021-07-27T18:57:43Z</time>
      </trkpt>
      <trkpt lat="40.041183" lon="-2.1396546">
        <ele>942.0</ele>
        <time>2021-07-27T18:57:45Z</time>
      </trkpt>
      <trkpt lat="40.0411" lon="-2.1396153">
        <ele>942.0</ele>
        <time>2021-07-27T18:57:47Z</time>
      </trkpt>
      <trkpt lat="40.04102" lon="-2.1395648">
        <ele>942.0</ele>
        <time>2021-07-27T18:57:49Z</time>
      </trkpt>
      <trkpt lat="40.040943" lon="-2.139507">
        <ele>942.0</ele>
        <time>2021-07-27T18:57:51Z</time>
      </trkpt>
      <trkpt lat="40.040867" lon="-2.13945">
        <ele>942.0</ele>
        <time>2021-07-27T18:57:53Z</time>
      </trkpt>
      <trkpt lat="40.04079" lon="-2.1393914">
        <ele>942.0</ele>
        <time>2021-07-27T18:57:55Z</time>
      </trkpt>
      <trkpt lat="40.040714" lon="-2.139333">
        <ele>942.0</ele>
        <time>2021-07-27T18:57:57Z</time>
      </trkpt>
      <trkpt lat="40.040638" lon="-2.1392744">
        <ele>942.0</ele>
        <time>2021-07-27T18:57:59Z</time>
      </trkpt>
      <trkpt lat="40.04056" lon="-2.1392164">
        <ele>942.0</ele>
        <time>2021-07-27T18:58:01Z</time>
      </trkpt>
      <trkpt lat="40.04049" lon="-2.1391594">
        <ele>943.0</ele>
        <time>2021-07-27T18:58:03Z</time>
      </trkpt>
      <trkpt lat="40.040413" lon="-2.139101">
        <ele>943.0</ele>
        <time>2021-07-27T18:58:05Z</time>
      </trkpt>
      <trkpt lat="40.040344" lon="-2.1390462">
        <ele>943.0</ele>
        <time>2021-07-27T18:58:07Z</time>
      </trkpt>
      <trkpt lat="40.040276" lon="-2.1389878">
        <ele>943.0</ele>
        <time>2021-07-27T18:58:09Z</time>
      </trkpt>
      <trkpt lat="40.040203" lon="-2.1389363">
        <ele>943.0</ele>
        <time>2021-07-27T18:58:11Z</time>
      </trkpt>
      <trkpt lat="40.04013" lon="-2.138887">
        <ele>944.0</ele>
        <time>2021-07-27T18:58:13Z</time>
      </trkpt>
      <trkpt lat="40.04006" lon="-2.138838">
        <ele>944.0</ele>
        <time>2021-07-27T18:58:15Z</time>
      </trkpt>
      <trkpt lat="40.039978" lon="-2.1387928">
        <ele>944.0</ele>
        <time>2021-07-27T18:58:17Z</time>
      </trkpt>
      <trkpt lat="40.0399" lon="-2.1387508">
        <ele>944.0</ele>
        <time>2021-07-27T18:58:19Z</time>
      </trkpt>
      <trkpt lat="40.03983" lon="-2.138708">
        <ele>944.0</ele>
        <time>2021-07-27T18:58:21Z</time>
      </trkpt>
      <trkpt lat="40.039757" lon="-2.1386704">
        <ele>945.0</ele>
        <time>2021-07-27T18:58:23Z</time>
      </trkpt>
      <trkpt lat="40.03968" lon="-2.1386354">
        <ele>945.0</ele>
        <time>2021-07-27T18:58:25Z</time>
      </trkpt>
      <trkpt lat="40.0396" lon="-2.138603">
        <ele>945.0</ele>
        <time>2021-07-27T18:58:27Z</time>
      </trkpt>
      <trkpt lat="40.039528" lon="-2.138575">
        <ele>946.0</ele>
        <time>2021-07-27T18:58:29Z</time>
      </trkpt>
      <trkpt lat="40.039455" lon="-2.1385489">
        <ele>946.0</ele>
        <time>2021-07-27T18:58:31Z</time>
      </trkpt>
      <trkpt lat="40.039394" lon="-2.1385224">
        <ele>946.0</ele>
        <time>2021-07-27T18:58:33Z</time>
      </trkpt>
      <trkpt lat="40.039326" lon="-2.1384957">
        <ele>946.0</ele>
        <time>2021-07-27T18:58:35Z</time>
      </trkpt>
      <trkpt lat="40.039246" lon="-2.1384857">
        <ele>946.0</ele>
        <time>2021-07-27T18:58:37Z</time>
      </trkpt>
      <trkpt lat="40.039165" lon="-2.1385005">
        <ele>946.0</ele>
        <time>2021-07-27T18:58:39Z</time>
      </trkpt>
      <trkpt lat="40.039078" lon="-2.138528">
        <ele>946.0</ele>
        <time>2021-07-27T18:58:41Z</time>
      </trkpt>
      <trkpt lat="40.03899" lon="-2.1385515">
        <ele>946.0</ele>
        <time>2021-07-27T18:58:43Z</time>
      </trkpt>
      <trkpt lat="40.038902" lon="-2.138564">
        <ele>946.0</ele>
        <time>2021-07-27T18:58:45Z</time>
      </trkpt>
      <trkpt lat="40.038815" lon="-2.1385581">
        <ele>946.0</ele>
        <time>2021-07-27T18:58:47Z</time>
      </trkpt>
      <trkpt lat="40.038734" lon="-2.1385283">
        <ele>946.0</ele>
        <time>2021-07-27T18:58:49Z</time>
      </trkpt>
      <trkpt lat="40.03866" lon="-2.13848">
        <ele>946.0</ele>
        <time>2021-07-27T18:58:51Z</time>
      </trkpt>
      <trkpt lat="40.038593" lon="-2.1384125">
        <ele>946.0</ele>
        <time>2021-07-27T18:58:53Z</time>
      </trkpt>
      <trkpt lat="40.038532" lon="-2.1383207">
        <ele>946.0</ele>
        <time>2021-07-27T18:58:55Z</time>
      </trkpt>
      <trkpt lat="40.038486" lon="-2.1382196">
        <ele>946.0</ele>
        <time>2021-07-27T18:58:57Z</time>
      </trkpt>
      <trkpt lat="40.038456" lon="-2.1381314">
        <ele>946.0</ele>
        <time>2021-07-27T18:58:59Z</time>
      </trkpt>
      <trkpt lat="40.038437" lon="-2.138043">
        <ele>946.0</ele>
        <time>2021-07-27T18:59:01Z</time>
      </trkpt>
      <trkpt lat="40.03843" lon="-2.1379442">
        <ele>945.0</ele>
        <time>2021-07-27T18:59:03Z</time>
      </trkpt>
      <trkpt lat="40.038406" lon="-2.1378405">
        <ele>945.0</ele>
        <time>2021-07-27T18:59:05Z</time>
      </trkpt>
      <trkpt lat="40.03836" lon="-2.137745">
        <ele>945.0</ele>
        <time>2021-07-27T18:59:07Z</time>
      </trkpt>
      <trkpt lat="40.0383" lon="-2.1376631">
        <ele>945.0</ele>
        <time>2021-07-27T18:59:09Z</time>
      </trkpt>
      <trkpt lat="40.038235" lon="-2.1376023">
        <ele>945.0</ele>
        <time>2021-07-27T18:59:11Z</time>
      </trkpt>
      <trkpt lat="40.038166" lon="-2.137559">
        <ele>945.0</ele>
        <time>2021-07-27T18:59:13Z</time>
      </trkpt>
      <trkpt lat="40.038086" lon="-2.137528">
        <ele>945.0</ele>
        <time>2021-07-27T18:59:15Z</time>
      </trkpt>
      <trkpt lat="40.038002" lon="-2.1375072">
        <ele>945.0</ele>
        <time>2021-07-27T18:59:17Z</time>
      </trkpt>
      <trkpt lat="40.037918" lon="-2.1374953">
        <ele>945.0</ele>
        <time>2021-07-27T18:59:19Z</time>
      </trkpt>
      <trkpt lat="40.037834" lon="-2.1374915">
        <ele>945.0</ele>
        <time>2021-07-27T18:59:21Z</time>
      </trkpt>
      <trkpt lat="40.03775" lon="-2.1374943">
        <ele>945.0</ele>
        <time>2021-07-27T18:59:23Z</time>
      </trkpt>
      <trkpt lat="40.03766" lon="-2.1374981">
        <ele>945.0</ele>
        <time>2021-07-27T18:59:25Z</time>
      </trkpt>
      <trkpt lat="40.037575" lon="-2.137501">
        <ele>946.0</ele>
        <time>2021-07-27T18:59:27Z</time>
      </trkpt>
      <trkpt lat="40.037487" lon="-2.137505">
        <ele>946.0</ele>
        <time>2021-07-27T18:59:29Z</time>
      </trkpt>
      <trkpt lat="40.037407" lon="-2.1375127">
        <ele>946.0</ele>
        <time>2021-07-27T18:59:31Z</time>
      </trkpt>
      <trkpt lat="40.037327" lon="-2.1375198">
        <ele>946.0</ele>
        <time>2021-07-27T18:59:33Z</time>
      </trkpt>
      <trkpt lat="40.037247" lon="-2.1375206">
        <ele>947.0</ele>
        <time>2021-07-27T18:59:35Z</time>
      </trkpt>
      <trkpt lat="40.037163" lon="-2.1375165">
        <ele>947.0</ele>
        <time>2021-07-27T18:59:37Z</time>
      </trkpt>
      <trkpt lat="40.037083" lon="-2.1375058">
        <ele>947.0</ele>
        <time>2021-07-27T18:59:39Z</time>
      </trkpt>
      <trkpt lat="40.037" lon="-2.1374915">
        <ele>947.0</ele>
        <time>2021-07-27T18:59:41Z</time>
      </trkpt>
      <trkpt lat="40.03692" lon="-2.137473">
        <ele>947.0</ele>
        <time>2021-07-27T18:59:43Z</time>
      </trkpt>
      <trkpt lat="40.036835" lon="-2.1374528">
        <ele>947.0</ele>
        <time>2021-07-27T18:59:45Z</time>
      </trkpt>
      <trkpt lat="40.036755" lon="-2.137433">
        <ele>947.0</ele>
        <time>2021-07-27T18:59:47Z</time>
      </trkpt>
      <trkpt lat="40.036674" lon="-2.1374154">
        <ele>947.0</ele>
        <time>2021-07-27T18:59:49Z</time>
      </trkpt>
      <trkpt lat="40.03659" lon="-2.137397">
        <ele>948.0</ele>
        <time>2021-07-27T18:59:51Z</time>
      </trkpt>
      <trkpt lat="40.036507" lon="-2.137379">
        <ele>948.0</ele>
        <time>2021-07-27T18:59:53Z</time>
      </trkpt>
      <trkpt lat="40.036423" lon="-2.1373618">
        <ele>948.0</ele>
        <time>2021-07-27T18:59:55Z</time>
      </trkpt>
      <trkpt lat="40.036343" lon="-2.1373465">
        <ele>948.0</ele>
        <time>2021-07-27T18:59:57Z</time>
      </trkpt>
      <trkpt lat="40.03626" lon="-2.137327">
        <ele>948.0</ele>
        <time>2021-07-27T18:59:59Z</time>
      </trkpt>
      <trkpt lat="40.036163" lon="-2.1373062">
        <ele>948.0</ele>
        <time>2021-07-27T19:00:01Z</time>
      </trkpt>
      <trkpt lat="40.036118" lon="-2.1372974">
        <ele>948.0</ele>
        <time>2021-07-27T19:00:02Z</time>
      </trkpt>
      <trkpt lat="40.036026" lon="-2.1372845">
        <ele>948.0</ele>
        <time>2021-07-27T19:00:04Z</time>
      </trkpt>
      <trkpt lat="40.03593" lon="-2.137274">
        <ele>948.0</ele>
        <time>2021-07-27T19:00:06Z</time>
      </trkpt>
      <trkpt lat="40.03588" lon="-2.1372688">
        <ele>948.0</ele>
        <time>2021-07-27T19:00:07Z</time>
      </trkpt>
      <trkpt lat="40.03583" lon="-2.1372643">
        <ele>948.0</ele>
        <time>2021-07-27T19:00:08Z</time>
      </trkpt>
      <trkpt lat="40.035736" lon="-2.1372583">
        <ele>948.0</ele>
        <time>2021-07-27T19:00:10Z</time>
      </trkpt>
      <trkpt lat="40.035686" lon="-2.137257">
        <ele>948.0</ele>
        <time>2021-07-27T19:00:11Z</time>
      </trkpt>
      <trkpt lat="40.035538" lon="-2.1372633">
        <ele>948.0</ele>
        <time>2021-07-27T19:00:14Z</time>
      </trkpt>
      <trkpt lat="40.03544" lon="-2.137273">
        <ele>948.0</ele>
        <time>2021-07-27T19:00:16Z</time>
      </trkpt>
      <trkpt lat="40.035385" lon="-2.1372793">
        <ele>948.0</ele>
        <time>2021-07-27T19:00:17Z</time>
      </trkpt>
      <trkpt lat="40.035286" lon="-2.137292">
        <ele>948.0</ele>
        <time>2021-07-27T19:00:19Z</time>
      </trkpt>
      <trkpt lat="40.03519" lon="-2.137304">
        <ele>948.0</ele>
        <time>2021-07-27T19:00:21Z</time>
      </trkpt>
      <trkpt lat="40.03509" lon="-2.1373162">
        <ele>948.0</ele>
        <time>2021-07-27T19:00:23Z</time>
      </trkpt>
      <trkpt lat="40.035046" lon="-2.137322">
        <ele>948.0</ele>
        <time>2021-07-27T19:00:24Z</time>
      </trkpt>
      <trkpt lat="40.034943" lon="-2.1373334">
        <ele>948.0</ele>
        <time>2021-07-27T19:00:26Z</time>
      </trkpt>
      <trkpt lat="40.03489" lon="-2.1373405">
        <ele>948.0</ele>
        <time>2021-07-27T19:00:27Z</time>
      </trkpt>
      <trkpt lat="40.034832" lon="-2.1373465">
        <ele>948.0</ele>
        <time>2021-07-27T19:00:28Z</time>
      </trkpt>
      <trkpt lat="40.03477" lon="-2.1373518">
        <ele>948.0</ele>
        <time>2021-07-27T19:00:29Z</time>
      </trkpt>
      <trkpt lat="40.034718" lon="-2.137356">
        <ele>948.0</ele>
        <time>2021-07-27T19:00:30Z</time>
      </trkpt>
      <trkpt lat="40.034664" lon="-2.1373625">
        <ele>948.0</ele>
        <time>2021-07-27T19:00:31Z</time>
      </trkpt>
      <trkpt lat="40.03461" lon="-2.1373706">
        <ele>949.0</ele>
        <time>2021-07-27T19:00:32Z</time>
      </trkpt>
      <trkpt lat="40.034554" lon="-2.1373804">
        <ele>949.0</ele>
        <time>2021-07-27T19:00:33Z</time>
      </trkpt>
      <trkpt lat="40.0345" lon="-2.1373918">
        <ele>949.0</ele>
        <time>2021-07-27T19:00:34Z</time>
      </trkpt>
      <trkpt lat="40.034447" lon="-2.1374032">
        <ele>949.0</ele>
        <time>2021-07-27T19:00:35Z</time>
      </trkpt>
      <trkpt lat="40.034393" lon="-2.1374154">
        <ele>949.0</ele>
        <time>2021-07-27T19:00:36Z</time>
      </trkpt>
      <trkpt lat="40.034344" lon="-2.1374278">
        <ele>949.0</ele>
        <time>2021-07-27T19:00:37Z</time>
      </trkpt>
      <trkpt lat="40.034294" lon="-2.1374404">
        <ele>949.0</ele>
        <time>2021-07-27T19:00:38Z</time>
      </trkpt>
      <trkpt lat="40.03424" lon="-2.1374528">
        <ele>949.0</ele>
        <time>2021-07-27T19:00:39Z</time>
      </trkpt>
      <trkpt lat="40.034145" lon="-2.1374772">
        <ele>949.0</ele>
        <time>2021-07-27T19:00:41Z</time>
      </trkpt>
      <trkpt lat="40.03405" lon="-2.1375048">
        <ele>949.0</ele>
        <time>2021-07-27T19:00:43Z</time>
      </trkpt>
      <trkpt lat="40.03396" lon="-2.1375291">
        <ele>950.0</ele>
        <time>2021-07-27T19:00:45Z</time>
      </trkpt>
      <trkpt lat="40.03387" lon="-2.1375473">
        <ele>950.0</ele>
        <time>2021-07-27T19:00:47Z</time>
      </trkpt>
      <trkpt lat="40.033783" lon="-2.1375608">
        <ele>950.0</ele>
        <time>2021-07-27T19:00:49Z</time>
      </trkpt>
      <trkpt lat="40.03369" lon="-2.1375718">
        <ele>950.0</ele>
        <time>2021-07-27T19:00:51Z</time>
      </trkpt>
      <trkpt lat="40.033596" lon="-2.1375768">
        <ele>951.0</ele>
        <time>2021-07-27T19:00:53Z</time>
      </trkpt>
      <trkpt lat="40.033554" lon="-2.137577">
        <ele>951.0</ele>
        <time>2021-07-27T19:00:54Z</time>
      </trkpt>
      <trkpt lat="40.03346" lon="-2.1375787">
        <ele>951.0</ele>
        <time>2021-07-27T19:00:56Z</time>
      </trkpt>
      <trkpt lat="40.033363" lon="-2.13758">
        <ele>951.0</ele>
        <time>2021-07-27T19:00:58Z</time>
      </trkpt>
      <trkpt lat="40.033276" lon="-2.137579">
        <ele>951.0</ele>
        <time>2021-07-27T19:01:00Z</time>
      </trkpt>
      <trkpt lat="40.033226" lon="-2.1375794">
        <ele>951.0</ele>
        <time>2021-07-27T19:01:01Z</time>
      </trkpt>
      <trkpt lat="40.033134" lon="-2.1375852">
        <ele>951.0</ele>
        <time>2021-07-27T19:01:03Z</time>
      </trkpt>
      <trkpt lat="40.03304" lon="-2.137598">
        <ele>951.0</ele>
        <time>2021-07-27T19:01:05Z</time>
      </trkpt>
      <trkpt lat="40.032993" lon="-2.137609">
        <ele>951.0</ele>
        <time>2021-07-27T19:01:06Z</time>
      </trkpt>
      <trkpt lat="40.032898" lon="-2.1376426">
        <ele>952.0</ele>
        <time>2021-07-27T19:01:08Z</time>
      </trkpt>
      <trkpt lat="40.032856" lon="-2.1376626">
        <ele>952.0</ele>
        <time>2021-07-27T19:01:09Z</time>
      </trkpt>
      <trkpt lat="40.032776" lon="-2.1377103">
        <ele>952.0</ele>
        <time>2021-07-27T19:01:11Z</time>
      </trkpt>
      <trkpt lat="40.0327" lon="-2.1377652">
        <ele>952.0</ele>
        <time>2021-07-27T19:01:13Z</time>
      </trkpt>
      <trkpt lat="40.03263" lon="-2.1378274">
        <ele>953.0</ele>
        <time>2021-07-27T19:01:15Z</time>
      </trkpt>
      <trkpt lat="40.032562" lon="-2.1378984">
        <ele>953.0</ele>
        <time>2021-07-27T19:01:17Z</time>
      </trkpt>
      <trkpt lat="40.032505" lon="-2.137973">
        <ele>953.0</ele>
        <time>2021-07-27T19:01:19Z</time>
      </trkpt>
      <trkpt lat="40.032448" lon="-2.1380525">
        <ele>953.0</ele>
        <time>2021-07-27T19:01:21Z</time>
      </trkpt>
      <trkpt lat="40.0324" lon="-2.1381307">
        <ele>954.0</ele>
        <time>2021-07-27T19:01:23Z</time>
      </trkpt>
      <trkpt lat="40.03235" lon="-2.1382098">
        <ele>954.0</ele>
        <time>2021-07-27T19:01:25Z</time>
      </trkpt>
      <trkpt lat="40.032295" lon="-2.1382964">
        <ele>954.0</ele>
        <time>2021-07-27T19:01:27Z</time>
      </trkpt>
      <trkpt lat="40.03224" lon="-2.1383808">
        <ele>954.0</ele>
        <time>2021-07-27T19:01:29Z</time>
      </trkpt>
      <trkpt lat="40.032192" lon="-2.1384604">
        <ele>954.0</ele>
        <time>2021-07-27T19:01:31Z</time>
      </trkpt>
      <trkpt lat="40.032135" lon="-2.138534">
        <ele>955.0</ele>
        <time>2021-07-27T19:01:33Z</time>
      </trkpt>
      <trkpt lat="40.032078" lon="-2.138604">
        <ele>955.0</ele>
        <time>2021-07-27T19:01:35Z</time>
      </trkpt>
      <trkpt lat="40.032024" lon="-2.1386726">
        <ele>955.0</ele>
        <time>2021-07-27T19:01:37Z</time>
      </trkpt>
      <trkpt lat="40.031963" lon="-2.1387382">
        <ele>955.0</ele>
        <time>2021-07-27T19:01:39Z</time>
      </trkpt>
      <trkpt lat="40.0319" lon="-2.138796">
        <ele>956.0</ele>
        <time>2021-07-27T19:01:41Z</time>
      </trkpt>
      <trkpt lat="40.03183" lon="-2.138848">
        <ele>956.0</ele>
        <time>2021-07-27T19:01:43Z</time>
      </trkpt>
      <trkpt lat="40.031754" lon="-2.1388953">
        <ele>956.0</ele>
        <time>2021-07-27T19:01:45Z</time>
      </trkpt>
      <trkpt lat="40.031673" lon="-2.1389387">
        <ele>956.0</ele>
        <time>2021-07-27T19:01:47Z</time>
      </trkpt>
      <trkpt lat="40.031597" lon="-2.138987">
        <ele>956.0</ele>
        <time>2021-07-27T19:01:49Z</time>
      </trkpt>
      <trkpt lat="40.031525" lon="-2.1390421">
        <ele>956.0</ele>
        <time>2021-07-27T19:01:51Z</time>
      </trkpt>
      <trkpt lat="40.031456" lon="-2.1391034">
        <ele>956.0</ele>
        <time>2021-07-27T19:01:53Z</time>
      </trkpt>
      <trkpt lat="40.031384" lon="-2.139169">
        <ele>956.0</ele>
        <time>2021-07-27T19:01:55Z</time>
      </trkpt>
      <trkpt lat="40.031315" lon="-2.13924">
        <ele>956.0</ele>
        <time>2021-07-27T19:01:57Z</time>
      </trkpt>
      <trkpt lat="40.031254" lon="-2.1393132">
        <ele>956.0</ele>
        <time>2021-07-27T19:01:59Z</time>
      </trkpt>
      <trkpt lat="40.0312" lon="-2.1393757">
        <ele>956.0</ele>
        <time>2021-07-27T19:02:01Z</time>
      </trkpt>
      <trkpt lat="40.03114" lon="-2.1394377">
        <ele>956.0</ele>
        <time>2021-07-27T19:02:03Z</time>
      </trkpt>
      <trkpt lat="40.030994" lon="-2.1396034">
        <ele>956.0</ele>
        <time>2021-07-27T19:02:10Z</time>
      </trkpt>
      <trkpt lat="40.030983" lon="-2.1396139">
        <ele>956.0</ele>
        <time>2021-07-27T19:02:11Z</time>
      </trkpt>
      <trkpt lat="40.03132" lon="-2.1392267">
        <ele>956.0</ele>
        <time>2021-07-27T19:02:25Z</time>
      </trkpt>
      <trkpt lat="40.031322" lon="-2.139224">
        <ele>956.0</ele>
        <time>2021-07-27T19:02:26Z</time>
      </trkpt>
      <trkpt lat="40.031387" lon="-2.1392636">
        <ele>956.0</ele>
        <time>2021-07-27T19:02:31Z</time>
      </trkpt>
      <trkpt lat="40.031433" lon="-2.1393163">
        <ele>956.0</ele>
        <time>2021-07-27T19:02:33Z</time>
      </trkpt>
      <trkpt lat="40.03148" lon="-2.13938">
        <ele>956.0</ele>
        <time>2021-07-27T19:02:35Z</time>
      </trkpt>
      <trkpt lat="40.031532" lon="-2.139446">
        <ele>956.0</ele>
        <time>2021-07-27T19:02:37Z</time>
      </trkpt>
      <trkpt lat="40.03159" lon="-2.1395156">
        <ele>957.0</ele>
        <time>2021-07-27T19:02:39Z</time>
      </trkpt>
      <trkpt lat="40.031643" lon="-2.139583">
        <ele>957.0</ele>
        <time>2021-07-27T19:02:41Z</time>
      </trkpt>
      <trkpt lat="40.0317" lon="-2.1396382">
        <ele>957.0</ele>
        <time>2021-07-27T19:02:43Z</time>
      </trkpt>
      <trkpt lat="40.031765" lon="-2.1396785">
        <ele>958.0</ele>
        <time>2021-07-27T19:02:45Z</time>
      </trkpt>
      <trkpt lat="40.031837" lon="-2.1397088">
        <ele>958.0</ele>
        <time>2021-07-27T19:02:47Z</time>
      </trkpt>
      <trkpt lat="40.031914" lon="-2.1397367">
        <ele>958.0</ele>
        <time>2021-07-27T19:02:49Z</time>
      </trkpt>
      <trkpt lat="40.031994" lon="-2.1397693">
        <ele>958.0</ele>
        <time>2021-07-27T19:02:51Z</time>
      </trkpt>
      <trkpt lat="40.03207" lon="-2.1398087">
        <ele>958.0</ele>
        <time>2021-07-27T19:02:53Z</time>
      </trkpt>
      <trkpt lat="40.032135" lon="-2.139853">
        <ele>958.0</ele>
        <time>2021-07-27T19:02:55Z</time>
      </trkpt>
      <trkpt lat="40.032196" lon="-2.1399071">
        <ele>958.0</ele>
        <time>2021-07-27T19:02:57Z</time>
      </trkpt>
      <trkpt lat="40.032234" lon="-2.1399553">
        <ele>958.0</ele>
        <time>2021-07-27T19:02:59Z</time>
      </trkpt>
      <trkpt lat="40.032265" lon="-2.139988">
        <ele>958.0</ele>
        <time>2021-07-27T19:03:02Z</time>
      </trkpt>
      <trkpt lat="40.03222" lon="-2.1399243">
        <ele>958.0</ele>
        <time>2021-07-27T19:03:09Z</time>
      </trkpt>
      <trkpt lat="40.032158" lon="-2.1398566">
        <ele>958.0</ele>
        <time>2021-07-27T19:03:12Z</time>
      </trkpt>
      <trkpt lat="40.032093" lon="-2.139812">
        <ele>958.0</ele>
        <time>2021-07-27T19:03:14Z</time>
      </trkpt>
      <trkpt lat="40.03202" lon="-2.1397717">
        <ele>958.0</ele>
        <time>2021-07-27T19:03:16Z</time>
      </trkpt>
      <trkpt lat="40.03194" lon="-2.1397383">
        <ele>958.0</ele>
        <time>2021-07-27T19:03:18Z</time>
      </trkpt>
      <trkpt lat="40.031857" lon="-2.1397088">
        <ele>958.0</ele>
        <time>2021-07-27T19:03:20Z</time>
      </trkpt>
      <trkpt lat="40.031776" lon="-2.1396773">
        <ele>958.0</ele>
        <time>2021-07-27T19:03:22Z</time>
      </trkpt>
      <trkpt lat="40.0317" lon="-2.139631">
        <ele>958.0</ele>
        <time>2021-07-27T19:03:24Z</time>
      </trkpt>
      <trkpt lat="40.031624" lon="-2.1395626">
        <ele>958.0</ele>
        <time>2021-07-27T19:03:26Z</time>
      </trkpt>
      <trkpt lat="40.031548" lon="-2.1394727">
        <ele>958.0</ele>
        <time>2021-07-27T19:03:28Z</time>
      </trkpt>
      <trkpt lat="40.031506" lon="-2.1394224">
        <ele>958.0</ele>
        <time>2021-07-27T19:03:29Z</time>
      </trkpt>
      <trkpt lat="40.031464" lon="-2.1393714">
        <ele>958.0</ele>
        <time>2021-07-27T19:03:30Z</time>
      </trkpt>
      <trkpt lat="40.031425" lon="-2.1393209">
        <ele>957.0</ele>
        <time>2021-07-27T19:03:31Z</time>
      </trkpt>
      <trkpt lat="40.031387" lon="-2.139272">
        <ele>957.0</ele>
        <time>2021-07-27T19:03:32Z</time>
      </trkpt>
      <trkpt lat="40.031353" lon="-2.1392233">
        <ele>957.0</ele>
        <time>2021-07-27T19:03:33Z</time>
      </trkpt>
      <trkpt lat="40.031284" lon="-2.139128">
        <ele>957.0</ele>
        <time>2021-07-27T19:03:35Z</time>
      </trkpt>
      <trkpt lat="40.03122" lon="-2.1390367">
        <ele>957.0</ele>
        <time>2021-07-27T19:03:37Z</time>
      </trkpt>
      <trkpt lat="40.031155" lon="-2.138947">
        <ele>957.0</ele>
        <time>2021-07-27T19:03:39Z</time>
      </trkpt>
      <trkpt lat="40.031094" lon="-2.1388566">
        <ele>957.0</ele>
        <time>2021-07-27T19:03:41Z</time>
      </trkpt>
      <trkpt lat="40.031063" lon="-2.1388073">
        <ele>957.0</ele>
        <time>2021-07-27T19:03:42Z</time>
      </trkpt>
      <trkpt lat="40.031" lon="-2.1387105">
        <ele>957.0</ele>
        <time>2021-07-27T19:03:44Z</time>
      </trkpt>
      <trkpt lat="40.030933" lon="-2.1386137">
        <ele>957.0</ele>
        <time>2021-07-27T19:03:46Z</time>
      </trkpt>
      <trkpt lat="40.030865" lon="-2.1385167">
        <ele>957.0</ele>
        <time>2021-07-27T19:03:48Z</time>
      </trkpt>
      <trkpt lat="40.030792" lon="-2.1384194">
        <ele>957.0</ele>
        <time>2021-07-27T19:03:50Z</time>
      </trkpt>
      <trkpt lat="40.030754" lon="-2.1383727">
        <ele>956.0</ele>
        <time>2021-07-27T19:03:51Z</time>
      </trkpt>
      <trkpt lat="40.030685" lon="-2.1382828">
        <ele>956.0</ele>
        <time>2021-07-27T19:03:53Z</time>
      </trkpt>
      <trkpt lat="40.030617" lon="-2.1381953">
        <ele>956.0</ele>
        <time>2021-07-27T19:03:55Z</time>
      </trkpt>
      <trkpt lat="40.030552" lon="-2.1381114">
        <ele>956.0</ele>
        <time>2021-07-27T19:03:57Z</time>
      </trkpt>
      <trkpt lat="40.030487" lon="-2.1380327">
        <ele>957.0</ele>
        <time>2021-07-27T19:03:59Z</time>
      </trkpt>
      <trkpt lat="40.030426" lon="-2.1379573">
        <ele>957.0</ele>
        <time>2021-07-27T19:04:01Z</time>
      </trkpt>
      <trkpt lat="40.030373" lon="-2.1378827">
        <ele>958.0</ele>
        <time>2021-07-27T19:04:03Z</time>
      </trkpt>
      <trkpt lat="40.03032" lon="-2.137812">
        <ele>958.0</ele>
        <time>2021-07-27T19:04:05Z</time>
      </trkpt>
      <trkpt lat="40.030266" lon="-2.1377409">
        <ele>958.0</ele>
        <time>2021-07-27T19:04:07Z</time>
      </trkpt>
      <trkpt lat="40.030212" lon="-2.1376605">
        <ele>958.0</ele>
        <time>2021-07-27T19:04:09Z</time>
      </trkpt>
      <trkpt lat="40.030148" lon="-2.1375692">
        <ele>958.0</ele>
        <time>2021-07-27T19:04:11Z</time>
      </trkpt>
      <trkpt lat="40.03011" lon="-2.1375191">
        <ele>958.0</ele>
        <time>2021-07-27T19:04:12Z</time>
      </trkpt>
      <trkpt lat="40.030075" lon="-2.1374667">
        <ele>958.0</ele>
        <time>2021-07-27T19:04:13Z</time>
      </trkpt>
      <trkpt lat="40.030033" lon="-2.1374145">
        <ele>958.0</ele>
        <time>2021-07-27T19:04:14Z</time>
      </trkpt>
      <trkpt lat="40.02999" lon="-2.137362">
        <ele>958.0</ele>
        <time>2021-07-27T19:04:15Z</time>
      </trkpt>
      <trkpt lat="40.029953" lon="-2.137311">
        <ele>958.0</ele>
        <time>2021-07-27T19:04:16Z</time>
      </trkpt>
      <trkpt lat="40.029915" lon="-2.1372604">
        <ele>958.0</ele>
        <time>2021-07-27T19:04:17Z</time>
      </trkpt>
      <trkpt lat="40.029873" lon="-2.1372101">
        <ele>958.0</ele>
        <time>2021-07-27T19:04:18Z</time>
      </trkpt>
      <trkpt lat="40.02983" lon="-2.13716">
        <ele>958.0</ele>
        <time>2021-07-27T19:04:19Z</time>
      </trkpt>
      <trkpt lat="40.02979" lon="-2.137111">
        <ele>958.0</ele>
        <time>2021-07-27T19:04:20Z</time>
      </trkpt>
      <trkpt lat="40.02975" lon="-2.137062">
        <ele>958.0</ele>
        <time>2021-07-27T19:04:21Z</time>
      </trkpt>
      <trkpt lat="40.029716" lon="-2.1370137">
        <ele>958.0</ele>
        <time>2021-07-27T19:04:22Z</time>
      </trkpt>
      <trkpt lat="40.029682" lon="-2.1369665">
        <ele>958.0</ele>
        <time>2021-07-27T19:04:23Z</time>
      </trkpt>
      <trkpt lat="40.02965" lon="-2.1369212">
        <ele>958.0</ele>
        <time>2021-07-27T19:04:24Z</time>
      </trkpt>
      <trkpt lat="40.029587" lon="-2.1368408">
        <ele>958.0</ele>
        <time>2021-07-27T19:04:26Z</time>
      </trkpt>
      <trkpt lat="40.02952" lon="-2.1367874">
        <ele>957.0</ele>
        <time>2021-07-27T19:04:28Z</time>
      </trkpt>
      <trkpt lat="40.02944" lon="-2.136769">
        <ele>957.0</ele>
        <time>2021-07-27T19:04:30Z</time>
      </trkpt>
      <trkpt lat="40.029366" lon="-2.1367817">
        <ele>957.0</ele>
        <time>2021-07-27T19:04:32Z</time>
      </trkpt>
      <trkpt lat="40.029312" lon="-2.1367958">
        <ele>957.0</ele>
        <time>2021-07-27T19:04:34Z</time>
      </trkpt>
      <trkpt lat="40.029057" lon="-2.13718">
        <ele>957.0</ele>
        <time>2021-07-27T19:04:40Z</time>
      </trkpt>
      <trkpt lat="40.029053" lon="-2.1371775">
        <ele>957.0</ele>
        <time>2021-07-27T19:04:41Z</time>
      </trkpt>
      <trkpt lat="40.028965" lon="-2.1372325">
        <ele>957.0</ele>
        <time>2021-07-27T19:04:45Z</time>
      </trkpt>
      <trkpt lat="40.028908" lon="-2.1372697">
        <ele>957.0</ele>
        <time>2021-07-27T19:04:47Z</time>
      </trkpt>
      <trkpt lat="40.02884" lon="-2.1372983">
        <ele>957.0</ele>
        <time>2021-07-27T19:04:49Z</time>
      </trkpt>
      <trkpt lat="40.02877" lon="-2.1373227">
        <ele>957.0</ele>
        <time>2021-07-27T19:04:51Z</time>
      </trkpt>
      <trkpt lat="40.0287" lon="-2.1373348">
        <ele>957.0</ele>
        <time>2021-07-27T19:04:53Z</time>
      </trkpt>
      <trkpt lat="40.028637" lon="-2.1373343">
        <ele>958.0</ele>
        <time>2021-07-27T19:04:55Z</time>
      </trkpt>
      <trkpt lat="40.02857" lon="-2.1373222">
        <ele>958.0</ele>
        <time>2021-07-27T19:04:57Z</time>
      </trkpt>
      <trkpt lat="40.028503" lon="-2.1373038">
        <ele>958.0</ele>
        <time>2021-07-27T19:04:59Z</time>
      </trkpt>
      <trkpt lat="40.02844" lon="-2.1372821">
        <ele>959.0</ele>
        <time>2021-07-27T19:05:01Z</time>
      </trkpt>
      <trkpt lat="40.028374" lon="-2.1372583">
        <ele>959.0</ele>
        <time>2021-07-27T19:05:03Z</time>
      </trkpt>
      <trkpt lat="40.02831" lon="-2.1372316">
        <ele>959.0</ele>
        <time>2021-07-27T19:05:05Z</time>
      </trkpt>
      <trkpt lat="40.028244" lon="-2.1372054">
        <ele>960.0</ele>
        <time>2021-07-27T19:05:07Z</time>
      </trkpt>
      <trkpt lat="40.028187" lon="-2.1371825">
        <ele>960.0</ele>
        <time>2021-07-27T19:05:09Z</time>
      </trkpt>
      <trkpt lat="40.02814" lon="-2.137164">
        <ele>960.0</ele>
        <time>2021-07-27T19:05:11Z</time>
      </trkpt>
      <trkpt lat="40.028076" lon="-2.1371355">
        <ele>961.0</ele>
        <time>2021-07-27T19:05:14Z</time>
      </trkpt>
      <trkpt lat="40.028023" lon="-2.137118">
        <ele>961.0</ele>
        <time>2021-07-27T19:05:16Z</time>
      </trkpt>
      <trkpt lat="40.02797" lon="-2.1371026">
        <ele>961.0</ele>
        <time>2021-07-27T19:05:18Z</time>
      </trkpt>
      <trkpt lat="40.027912" lon="-2.1370862">
        <ele>961.0</ele>
        <time>2021-07-27T19:05:20Z</time>
      </trkpt>
      <trkpt lat="40.02785" lon="-2.1370661">
        <ele>961.0</ele>
        <time>2021-07-27T19:05:22Z</time>
      </trkpt>
      <trkpt lat="40.02779" lon="-2.137046">
        <ele>961.0</ele>
        <time>2021-07-27T19:05:24Z</time>
      </trkpt>
      <trkpt lat="40.02773" lon="-2.1370242">
        <ele>962.0</ele>
        <time>2021-07-27T19:05:26Z</time>
      </trkpt>
      <trkpt lat="40.02767" lon="-2.1370041">
        <ele>962.0</ele>
        <time>2021-07-27T19:05:28Z</time>
      </trkpt>
      <trkpt lat="40.02761" lon="-2.1369824">
        <ele>962.0</ele>
        <time>2021-07-27T19:05:30Z</time>
      </trkpt>
      <trkpt lat="40.027554" lon="-2.1369617">
        <ele>962.0</ele>
        <time>2021-07-27T19:05:32Z</time>
      </trkpt>
      <trkpt lat="40.027493" lon="-2.136943">
        <ele>962.0</ele>
        <time>2021-07-27T19:05:34Z</time>
      </trkpt>
      <trkpt lat="40.02744" lon="-2.136927">
        <ele>963.0</ele>
        <time>2021-07-27T19:05:36Z</time>
      </trkpt>
      <trkpt lat="40.027378" lon="-2.136912">
        <ele>963.0</ele>
        <time>2021-07-27T19:05:38Z</time>
      </trkpt>
      <trkpt lat="40.027325" lon="-2.1368937">
        <ele>963.0</ele>
        <time>2021-07-27T19:05:40Z</time>
      </trkpt>
      <trkpt lat="40.02726" lon="-2.136876">
        <ele>964.0</ele>
        <time>2021-07-27T19:05:42Z</time>
      </trkpt>
      <trkpt lat="40.027203" lon="-2.1368601">
        <ele>964.0</ele>
        <time>2021-07-27T19:05:44Z</time>
      </trkpt>
      <trkpt lat="40.027145" lon="-2.1368434">
        <ele>964.0</ele>
        <time>2021-07-27T19:05:46Z</time>
      </trkpt>
      <trkpt lat="40.02709" lon="-2.1368299">
        <ele>965.0</ele>
        <time>2021-07-27T19:05:48Z</time>
      </trkpt>
      <trkpt lat="40.02703" lon="-2.1368146">
        <ele>965.0</ele>
        <time>2021-07-27T19:05:50Z</time>
      </trkpt>
      <trkpt lat="40.02698" lon="-2.1367924">
        <ele>966.0</ele>
        <time>2021-07-27T19:05:52Z</time>
      </trkpt>
      <trkpt lat="40.026928" lon="-2.1367676">
        <ele>966.0</ele>
        <time>2021-07-27T19:05:54Z</time>
      </trkpt>
      <trkpt lat="40.02688" lon="-2.1367443">
        <ele>966.0</ele>
        <time>2021-07-27T19:05:56Z</time>
      </trkpt>
      <trkpt lat="40.026825" lon="-2.1367235">
        <ele>967.0</ele>
        <time>2021-07-27T19:05:58Z</time>
      </trkpt>
      <trkpt lat="40.02677" lon="-2.1367013">
        <ele>967.0</ele>
        <time>2021-07-27T19:06:00Z</time>
      </trkpt>
      <trkpt lat="40.02672" lon="-2.1366756">
        <ele>967.0</ele>
        <time>2021-07-27T19:06:02Z</time>
      </trkpt>
      <trkpt lat="40.026665" lon="-2.1366498">
        <ele>967.0</ele>
        <time>2021-07-27T19:06:04Z</time>
      </trkpt>
      <trkpt lat="40.026608" lon="-2.1366239">
        <ele>968.0</ele>
        <time>2021-07-27T19:06:06Z</time>
      </trkpt>
      <trkpt lat="40.026554" lon="-2.1365974">
        <ele>968.0</ele>
        <time>2021-07-27T19:06:08Z</time>
      </trkpt>
      <trkpt lat="40.026505" lon="-2.136575">
        <ele>968.0</ele>
        <time>2021-07-27T19:06:10Z</time>
      </trkpt>
      <trkpt lat="40.02645" lon="-2.1365535">
        <ele>969.0</ele>
        <time>2021-07-27T19:06:12Z</time>
      </trkpt>
      <trkpt lat="40.02639" lon="-2.1365333">
        <ele>969.0</ele>
        <time>2021-07-27T19:06:14Z</time>
      </trkpt>
      <trkpt lat="40.026325" lon="-2.1365175">
        <ele>969.0</ele>
        <time>2021-07-27T19:06:16Z</time>
      </trkpt>
      <trkpt lat="40.026268" lon="-2.1365106">
        <ele>969.0</ele>
        <time>2021-07-27T19:06:18Z</time>
      </trkpt>
      <trkpt lat="40.026207" lon="-2.136514">
        <ele>969.0</ele>
        <time>2021-07-27T19:06:20Z</time>
      </trkpt>
      <trkpt lat="40.026146" lon="-2.1365192">
        <ele>970.0</ele>
        <time>2021-07-27T19:06:22Z</time>
      </trkpt>
      <trkpt lat="40.026085" lon="-2.1365204">
        <ele>970.0</ele>
        <time>2021-07-27T19:06:24Z</time>
      </trkpt>
      <trkpt lat="40.026028" lon="-2.136511">
        <ele>970.0</ele>
        <time>2021-07-27T19:06:26Z</time>
      </trkpt>
      <trkpt lat="40.02597" lon="-2.1364887">
        <ele>970.0</ele>
        <time>2021-07-27T19:06:28Z</time>
      </trkpt>
      <trkpt lat="40.02591" lon="-2.1364503">
        <ele>970.0</ele>
        <time>2021-07-27T19:06:30Z</time>
      </trkpt>
      <trkpt lat="40.02585" lon="-2.1363983">
        <ele>970.0</ele>
        <time>2021-07-27T19:06:32Z</time>
      </trkpt>
      <trkpt lat="40.02579" lon="-2.1363366">
        <ele>970.0</ele>
        <time>2021-07-27T19:06:34Z</time>
      </trkpt>
      <trkpt lat="40.025738" lon="-2.1362712">
        <ele>970.0</ele>
        <time>2021-07-27T19:06:36Z</time>
      </trkpt>
      <trkpt lat="40.025684" lon="-2.1362023">
        <ele>970.0</ele>
        <time>2021-07-27T19:06:38Z</time>
      </trkpt>
      <trkpt lat="40.02564" lon="-2.1361313">
        <ele>971.0</ele>
        <time>2021-07-27T19:06:40Z</time>
      </trkpt>
      <trkpt lat="40.025593" lon="-2.13606">
        <ele>971.0</ele>
        <time>2021-07-27T19:06:42Z</time>
      </trkpt>
      <trkpt lat="40.025547" lon="-2.1359882">
        <ele>971.0</ele>
        <time>2021-07-27T19:06:44Z</time>
      </trkpt>
      <trkpt lat="40.0255" lon="-2.1359136">
        <ele>971.0</ele>
        <time>2021-07-27T19:06:46Z</time>
      </trkpt>
      <trkpt lat="40.02546" lon="-2.1358376">
        <ele>972.0</ele>
        <time>2021-07-27T19:06:48Z</time>
      </trkpt>
      <trkpt lat="40.025417" lon="-2.1357622">
        <ele>972.0</ele>
        <time>2021-07-27T19:06:50Z</time>
      </trkpt>
      <trkpt lat="40.02538" lon="-2.1356912">
        <ele>973.0</ele>
        <time>2021-07-27T19:06:52Z</time>
      </trkpt>
      <trkpt lat="40.02534" lon="-2.135618">
        <ele>973.0</ele>
        <time>2021-07-27T19:06:54Z</time>
      </trkpt>
      <trkpt lat="40.0253" lon="-2.1355364">
        <ele>973.0</ele>
        <time>2021-07-27T19:06:56Z</time>
      </trkpt>
      <trkpt lat="40.025253" lon="-2.135448">
        <ele>973.0</ele>
        <time>2021-07-27T19:06:58Z</time>
      </trkpt>
      <trkpt lat="40.0252" lon="-2.135359">
        <ele>973.0</ele>
        <time>2021-07-27T19:07:00Z</time>
      </trkpt>
      <trkpt lat="40.025127" lon="-2.1352692">
        <ele>973.0</ele>
        <time>2021-07-27T19:07:02Z</time>
      </trkpt>
      <trkpt lat="40.02504" lon="-2.1351962">
        <ele>973.0</ele>
        <time>2021-07-27T19:07:04Z</time>
      </trkpt>
      <trkpt lat="40.02499" lon="-2.1351676">
        <ele>972.0</ele>
        <time>2021-07-27T19:07:05Z</time>
      </trkpt>
      <trkpt lat="40.024937" lon="-2.1351433">
        <ele>972.0</ele>
        <time>2021-07-27T19:07:06Z</time>
      </trkpt>
      <trkpt lat="40.024887" lon="-2.135123">
        <ele>972.0</ele>
        <time>2021-07-27T19:07:07Z</time>
      </trkpt>
      <trkpt lat="40.02483" lon="-2.1351025">
        <ele>972.0</ele>
        <time>2021-07-27T19:07:08Z</time>
      </trkpt>
      <trkpt lat="40.02477" lon="-2.135081">
        <ele>972.0</ele>
        <time>2021-07-27T19:07:09Z</time>
      </trkpt>
      <trkpt lat="40.024715" lon="-2.1350577">
        <ele>972.0</ele>
        <time>2021-07-27T19:07:10Z</time>
      </trkpt>
      <trkpt lat="40.02466" lon="-2.135033">
        <ele>971.0</ele>
        <time>2021-07-27T19:07:11Z</time>
      </trkpt>
      <trkpt lat="40.0246" lon="-2.1350057">
        <ele>971.0</ele>
        <time>2021-07-27T19:07:12Z</time>
      </trkpt>
      <trkpt lat="40.02455" lon="-2.1349788">
        <ele>971.0</ele>
        <time>2021-07-27T19:07:13Z</time>
      </trkpt>
      <trkpt lat="40.024498" lon="-2.1349478">
        <ele>971.0</ele>
        <time>2021-07-27T19:07:14Z</time>
      </trkpt>
      <trkpt lat="40.02444" lon="-2.134916">
        <ele>971.0</ele>
        <time>2021-07-27T19:07:15Z</time>
      </trkpt>
      <trkpt lat="40.024387" lon="-2.134884">
        <ele>971.0</ele>
        <time>2021-07-27T19:07:16Z</time>
      </trkpt>
      <trkpt lat="40.024334" lon="-2.134854">
        <ele>971.0</ele>
        <time>2021-07-27T19:07:17Z</time>
      </trkpt>
      <trkpt lat="40.024284" lon="-2.134823">
        <ele>971.0</ele>
        <time>2021-07-27T19:07:18Z</time>
      </trkpt>
      <trkpt lat="40.024227" lon="-2.1347892">
        <ele>970.0</ele>
        <time>2021-07-27T19:07:19Z</time>
      </trkpt>
      <trkpt lat="40.024174" lon="-2.1347542">
        <ele>970.0</ele>
        <time>2021-07-27T19:07:20Z</time>
      </trkpt>
      <trkpt lat="40.02412" lon="-2.1347146">
        <ele>970.0</ele>
        <time>2021-07-27T19:07:21Z</time>
      </trkpt>
      <trkpt lat="40.024063" lon="-2.1346705">
        <ele>970.0</ele>
        <time>2021-07-27T19:07:22Z</time>
      </trkpt>
      <trkpt lat="40.02401" lon="-2.134623">
        <ele>969.0</ele>
        <time>2021-07-27T19:07:23Z</time>
      </trkpt>
      <trkpt lat="40.023956" lon="-2.1345744">
        <ele>969.0</ele>
        <time>2021-07-27T19:07:24Z</time>
      </trkpt>
      <trkpt lat="40.023903" lon="-2.1345284">
        <ele>969.0</ele>
        <time>2021-07-27T19:07:25Z</time>
      </trkpt>
      <trkpt lat="40.023846" lon="-2.134488">
        <ele>969.0</ele>
        <time>2021-07-27T19:07:26Z</time>
      </trkpt>
      <trkpt lat="40.023785" lon="-2.1344557">
        <ele>969.0</ele>
        <time>2021-07-27T19:07:27Z</time>
      </trkpt>
      <trkpt lat="40.023727" lon="-2.1344311">
        <ele>968.0</ele>
        <time>2021-07-27T19:07:28Z</time>
      </trkpt>
      <trkpt lat="40.023666" lon="-2.1344135">
        <ele>968.0</ele>
        <time>2021-07-27T19:07:29Z</time>
      </trkpt>
      <trkpt lat="40.02361" lon="-2.1344008">
        <ele>968.0</ele>
        <time>2021-07-27T19:07:30Z</time>
      </trkpt>
      <trkpt lat="40.02355" lon="-2.1343923">
        <ele>968.0</ele>
        <time>2021-07-27T19:07:31Z</time>
      </trkpt>
      <trkpt lat="40.02349" lon="-2.1343863">
        <ele>968.0</ele>
        <time>2021-07-27T19:07:32Z</time>
      </trkpt>
      <trkpt lat="40.02343" lon="-2.1343827">
        <ele>968.0</ele>
        <time>2021-07-27T19:07:33Z</time>
      </trkpt>
      <trkpt lat="40.023376" lon="-2.1343815">
        <ele>968.0</ele>
        <time>2021-07-27T19:07:34Z</time>
      </trkpt>
      <trkpt lat="40.02332" lon="-2.134384">
        <ele>968.0</ele>
        <time>2021-07-27T19:07:35Z</time>
      </trkpt>
      <trkpt lat="40.023262" lon="-2.134391">
        <ele>968.0</ele>
        <time>2021-07-27T19:07:36Z</time>
      </trkpt>
      <trkpt lat="40.02321" lon="-2.134401">
        <ele>968.0</ele>
        <time>2021-07-27T19:07:37Z</time>
      </trkpt>
      <trkpt lat="40.023155" lon="-2.1344135">
        <ele>968.0</ele>
        <time>2021-07-27T19:07:38Z</time>
      </trkpt>
      <trkpt lat="40.023106" lon="-2.1344254">
        <ele>968.0</ele>
        <time>2021-07-27T19:07:39Z</time>
      </trkpt>
      <trkpt lat="40.023003" lon="-2.1344457">
        <ele>967.0</ele>
        <time>2021-07-27T19:07:41Z</time>
      </trkpt>
      <trkpt lat="40.022903" lon="-2.1344593">
        <ele>967.0</ele>
        <time>2021-07-27T19:07:43Z</time>
      </trkpt>
      <trkpt lat="40.022854" lon="-2.1344652">
        <ele>967.0</ele>
        <time>2021-07-27T19:07:44Z</time>
      </trkpt>
      <trkpt lat="40.02275" lon="-2.1344755">
        <ele>967.0</ele>
        <time>2021-07-27T19:07:46Z</time>
      </trkpt>
      <trkpt lat="40.022655" lon="-2.1344845">
        <ele>967.0</ele>
        <time>2021-07-27T19:07:48Z</time>
      </trkpt>
      <trkpt lat="40.02256" lon="-2.134493">
        <ele>967.0</ele>
        <time>2021-07-27T19:07:50Z</time>
      </trkpt>
      <trkpt lat="40.02251" lon="-2.1344988">
        <ele>967.0</ele>
        <time>2021-07-27T19:07:51Z</time>
      </trkpt>
      <trkpt lat="40.02242" lon="-2.1345127">
        <ele>967.0</ele>
        <time>2021-07-27T19:07:53Z</time>
      </trkpt>
      <trkpt lat="40.022327" lon="-2.1345317">
        <ele>967.0</ele>
        <time>2021-07-27T19:07:55Z</time>
      </trkpt>
      <trkpt lat="40.022236" lon="-2.134555">
        <ele>967.0</ele>
        <time>2021-07-27T19:07:57Z</time>
      </trkpt>
      <trkpt lat="40.022144" lon="-2.134583">
        <ele>967.0</ele>
        <time>2021-07-27T19:07:59Z</time>
      </trkpt>
      <trkpt lat="40.022053" lon="-2.1346154">
        <ele>967.0</ele>
        <time>2021-07-27T19:08:01Z</time>
      </trkpt>
      <trkpt lat="40.021965" lon="-2.134648">
        <ele>967.0</ele>
        <time>2021-07-27T19:08:03Z</time>
      </trkpt>
      <trkpt lat="40.021873" lon="-2.1346714">
        <ele>966.0</ele>
        <time>2021-07-27T19:08:05Z</time>
      </trkpt>
      <trkpt lat="40.02178" lon="-2.1346822">
        <ele>966.0</ele>
        <time>2021-07-27T19:08:07Z</time>
      </trkpt>
      <trkpt lat="40.02168" lon="-2.13468">
        <ele>966.0</ele>
        <time>2021-07-27T19:08:09Z</time>
      </trkpt>
      <trkpt lat="40.021633" lon="-2.1346753">
        <ele>966.0</ele>
        <time>2021-07-27T19:08:10Z</time>
      </trkpt>
      <trkpt lat="40.021526" lon="-2.1346533">
        <ele>966.0</ele>
        <time>2021-07-27T19:08:12Z</time>
      </trkpt>
      <trkpt lat="40.02147" lon="-2.1346354">
        <ele>966.0</ele>
        <time>2021-07-27T19:08:13Z</time>
      </trkpt>
      <trkpt lat="40.02142" lon="-2.1346123">
        <ele>965.0</ele>
        <time>2021-07-27T19:08:14Z</time>
      </trkpt>
      <trkpt lat="40.02137" lon="-2.1345837">
        <ele>965.0</ele>
        <time>2021-07-27T19:08:15Z</time>
      </trkpt>
      <trkpt lat="40.02132" lon="-2.134551">
        <ele>965.0</ele>
        <time>2021-07-27T19:08:16Z</time>
      </trkpt>
      <trkpt lat="40.021275" lon="-2.1345181">
        <ele>965.0</ele>
        <time>2021-07-27T19:08:17Z</time>
      </trkpt>
      <trkpt lat="40.021225" lon="-2.134488">
        <ele>965.0</ele>
        <time>2021-07-27T19:08:18Z</time>
      </trkpt>
      <trkpt lat="40.021175" lon="-2.134463">
        <ele>965.0</ele>
        <time>2021-07-27T19:08:19Z</time>
      </trkpt>
      <trkpt lat="40.02108" lon="-2.1344345">
        <ele>965.0</ele>
        <time>2021-07-27T19:08:21Z</time>
      </trkpt>
      <trkpt lat="40.02099" lon="-2.1344354">
        <ele>965.0</ele>
        <time>2021-07-27T19:08:23Z</time>
      </trkpt>
      <trkpt lat="40.020893" lon="-2.13446">
        <ele>965.0</ele>
        <time>2021-07-27T19:08:25Z</time>
      </trkpt>
      <trkpt lat="40.020805" lon="-2.134497">
        <ele>965.0</ele>
        <time>2021-07-27T19:08:27Z</time>
      </trkpt>
      <trkpt lat="40.02076" lon="-2.1345167">
        <ele>965.0</ele>
        <time>2021-07-27T19:08:28Z</time>
      </trkpt>
      <trkpt lat="40.02067" lon="-2.1345508">
        <ele>965.0</ele>
        <time>2021-07-27T19:08:30Z</time>
      </trkpt>
      <trkpt lat="40.020584" lon="-2.1345634">
        <ele>964.0</ele>
        <time>2021-07-27T19:08:32Z</time>
      </trkpt>
      <trkpt lat="40.020496" lon="-2.134555">
        <ele>964.0</ele>
        <time>2021-07-27T19:08:34Z</time>
      </trkpt>
      <trkpt lat="40.020412" lon="-2.1345317">
        <ele>964.0</ele>
        <time>2021-07-27T19:08:36Z</time>
      </trkpt>
      <trkpt lat="40.020325" lon="-2.134496">
        <ele>964.0</ele>
        <time>2021-07-27T19:08:38Z</time>
      </trkpt>
      <trkpt lat="40.020233" lon="-2.1344514">
        <ele>964.0</ele>
        <time>2021-07-27T19:08:40Z</time>
      </trkpt>
      <trkpt lat="40.020187" lon="-2.1344287">
        <ele>964.0</ele>
        <time>2021-07-27T19:08:41Z</time>
      </trkpt>
      <trkpt lat="40.020145" lon="-2.1344082">
        <ele>964.0</ele>
        <time>2021-07-27T19:08:42Z</time>
      </trkpt>
      <trkpt lat="40.020054" lon="-2.1343615">
        <ele>964.0</ele>
        <time>2021-07-27T19:08:44Z</time>
      </trkpt>
      <trkpt lat="40.019966" lon="-2.1343188">
        <ele>964.0</ele>
        <time>2021-07-27T19:08:46Z</time>
      </trkpt>
      <trkpt lat="40.019917" lon="-2.1342967">
        <ele>964.0</ele>
        <time>2021-07-27T19:08:47Z</time>
      </trkpt>
      <trkpt lat="40.019875" lon="-2.134276">
        <ele>964.0</ele>
        <time>2021-07-27T19:08:48Z</time>
      </trkpt>
      <trkpt lat="40.019783" lon="-2.1342347">
        <ele>964.0</ele>
        <time>2021-07-27T19:08:50Z</time>
      </trkpt>
      <trkpt lat="40.019733" lon="-2.1342154">
        <ele>963.0</ele>
        <time>2021-07-27T19:08:51Z</time>
      </trkpt>
      <trkpt lat="40.019638" lon="-2.134176">
        <ele>963.0</ele>
        <time>2021-07-27T19:08:53Z</time>
      </trkpt>
      <trkpt lat="40.01954" lon="-2.1341338">
        <ele>963.0</ele>
        <time>2021-07-27T19:08:55Z</time>
      </trkpt>
      <trkpt lat="40.019493" lon="-2.134111">
        <ele>963.0</ele>
        <time>2021-07-27T19:08:56Z</time>
      </trkpt>
      <trkpt lat="40.019447" lon="-2.1340902">
        <ele>963.0</ele>
        <time>2021-07-27T19:08:57Z</time>
      </trkpt>
      <trkpt lat="40.019352" lon="-2.1340451">
        <ele>963.0</ele>
        <time>2021-07-27T19:08:59Z</time>
      </trkpt>
      <trkpt lat="40.019306" lon="-2.1340206">
        <ele>963.0</ele>
        <time>2021-07-27T19:09:00Z</time>
      </trkpt>
      <trkpt lat="40.01921" lon="-2.1339664">
        <ele>963.0</ele>
        <time>2021-07-27T19:09:02Z</time>
      </trkpt>
      <trkpt lat="40.01916" lon="-2.1339374">
        <ele>963.0</ele>
        <time>2021-07-27T19:09:03Z</time>
      </trkpt>
      <trkpt lat="40.019115" lon="-2.1339073">
        <ele>963.0</ele>
        <time>2021-07-27T19:09:04Z</time>
      </trkpt>
      <trkpt lat="40.01907" lon="-2.1338754">
        <ele>963.0</ele>
        <time>2021-07-27T19:09:05Z</time>
      </trkpt>
      <trkpt lat="40.019024" lon="-2.1338427">
        <ele>963.0</ele>
        <time>2021-07-27T19:09:06Z</time>
      </trkpt>
      <trkpt lat="40.018932" lon="-2.1337729">
        <ele>963.0</ele>
        <time>2021-07-27T19:09:08Z</time>
      </trkpt>
      <trkpt lat="40.018887" lon="-2.133738">
        <ele>963.0</ele>
        <time>2021-07-27T19:09:09Z</time>
      </trkpt>
      <trkpt lat="40.01884" lon="-2.1337044">
        <ele>963.0</ele>
        <time>2021-07-27T19:09:10Z</time>
      </trkpt>
      <trkpt lat="40.018795" lon="-2.13367">
        <ele>963.0</ele>
        <time>2021-07-27T19:09:11Z</time>
      </trkpt>
      <trkpt lat="40.018707" lon="-2.133604">
        <ele>963.0</ele>
        <time>2021-07-27T19:09:13Z</time>
      </trkpt>
      <trkpt lat="40.018665" lon="-2.1335719">
        <ele>963.0</ele>
        <time>2021-07-27T19:09:14Z</time>
      </trkpt>
      <trkpt lat="40.018578" lon="-2.1335135">
        <ele>964.0</ele>
        <time>2021-07-27T19:09:16Z</time>
      </trkpt>
      <trkpt lat="40.01849" lon="-2.133465">
        <ele>964.0</ele>
        <time>2021-07-27T19:09:18Z</time>
      </trkpt>
      <trkpt lat="40.01845" lon="-2.1334445">
        <ele>964.0</ele>
        <time>2021-07-27T19:09:19Z</time>
      </trkpt>
      <trkpt lat="40.018356" lon="-2.1334043">
        <ele>964.0</ele>
        <time>2021-07-27T19:09:21Z</time>
      </trkpt>
      <trkpt lat="40.018257" lon="-2.133365">
        <ele>964.0</ele>
        <time>2021-07-27T19:09:23Z</time>
      </trkpt>
      <trkpt lat="40.018204" lon="-2.1333458">
        <ele>964.0</ele>
        <time>2021-07-27T19:09:24Z</time>
      </trkpt>
      <trkpt lat="40.018154" lon="-2.133329">
        <ele>964.0</ele>
        <time>2021-07-27T19:09:25Z</time>
      </trkpt>
      <trkpt lat="40.018097" lon="-2.1333113">
        <ele>964.0</ele>
        <time>2021-07-27T19:09:26Z</time>
      </trkpt>
      <trkpt lat="40.018047" lon="-2.1332953">
        <ele>964.0</ele>
        <time>2021-07-27T19:09:27Z</time>
      </trkpt>
      <trkpt lat="40.01799" lon="-2.1332788">
        <ele>964.0</ele>
        <time>2021-07-27T19:09:28Z</time>
      </trkpt>
      <trkpt lat="40.017937" lon="-2.1332636">
        <ele>964.0</ele>
        <time>2021-07-27T19:09:29Z</time>
      </trkpt>
      <trkpt lat="40.01788" lon="-2.133248">
        <ele>964.0</ele>
        <time>2021-07-27T19:09:30Z</time>
      </trkpt>
      <trkpt lat="40.01782" lon="-2.1332314">
        <ele>964.0</ele>
        <time>2021-07-27T19:09:31Z</time>
      </trkpt>
      <trkpt lat="40.01776" lon="-2.1332152">
        <ele>964.0</ele>
        <time>2021-07-27T19:09:32Z</time>
      </trkpt>
      <trkpt lat="40.017704" lon="-2.133199">
        <ele>964.0</ele>
        <time>2021-07-27T19:09:33Z</time>
      </trkpt>
      <trkpt lat="40.017647" lon="-2.1331828">
        <ele>964.0</ele>
        <time>2021-07-27T19:09:34Z</time>
      </trkpt>
      <trkpt lat="40.01759" lon="-2.1331677">
        <ele>964.0</ele>
        <time>2021-07-27T19:09:35Z</time>
      </trkpt>
      <trkpt lat="40.017532" lon="-2.1331537">
        <ele>963.0</ele>
        <time>2021-07-27T19:09:36Z</time>
      </trkpt>
      <trkpt lat="40.01747" lon="-2.1331396">
        <ele>963.0</ele>
        <time>2021-07-27T19:09:37Z</time>
      </trkpt>
      <trkpt lat="40.01741" lon="-2.133125">
        <ele>963.0</ele>
        <time>2021-07-27T19:09:38Z</time>
      </trkpt>
      <trkpt lat="40.017353" lon="-2.1331108">
        <ele>963.0</ele>
        <time>2021-07-27T19:09:39Z</time>
      </trkpt>
      <trkpt lat="40.017292" lon="-2.1330974">
        <ele>963.0</ele>
        <time>2021-07-27T19:09:40Z</time>
      </trkpt>
      <trkpt lat="40.017235" lon="-2.133084">
        <ele>963.0</ele>
        <time>2021-07-27T19:09:41Z</time>
      </trkpt>
      <trkpt lat="40.01718" lon="-2.1330721">
        <ele>963.0</ele>
        <time>2021-07-27T19:09:42Z</time>
      </trkpt>
      <trkpt lat="40.017128" lon="-2.1330585">
        <ele>963.0</ele>
        <time>2021-07-27T19:09:43Z</time>
      </trkpt>
      <trkpt lat="40.01707" lon="-2.1330433">
        <ele>963.0</ele>
        <time>2021-07-27T19:09:44Z</time>
      </trkpt>
      <trkpt lat="40.01702" lon="-2.13303">
        <ele>963.0</ele>
        <time>2021-07-27T19:09:45Z</time>
      </trkpt>
      <trkpt lat="40.016968" lon="-2.1330159">
        <ele>963.0</ele>
        <time>2021-07-27T19:09:46Z</time>
      </trkpt>
      <trkpt lat="40.016853" lon="-2.1329842">
        <ele>963.0</ele>
        <time>2021-07-27T19:09:48Z</time>
      </trkpt>
      <trkpt lat="40.01675" lon="-2.1329527">
        <ele>963.0</ele>
        <time>2021-07-27T19:09:50Z</time>
      </trkpt>
      <trkpt lat="40.0167" lon="-2.1329367">
        <ele>963.0</ele>
        <time>2021-07-27T19:09:51Z</time>
      </trkpt>
      <trkpt lat="40.016647" lon="-2.1329212">
        <ele>963.0</ele>
        <time>2021-07-27T19:09:52Z</time>
      </trkpt>
      <trkpt lat="40.016598" lon="-2.1329067">
        <ele>963.0</ele>
        <time>2021-07-27T19:09:53Z</time>
      </trkpt>
      <trkpt lat="40.01649" lon="-2.1328828">
        <ele>963.0</ele>
        <time>2021-07-27T19:09:55Z</time>
      </trkpt>
      <trkpt lat="40.016438" lon="-2.1328726">
        <ele>963.0</ele>
        <time>2021-07-27T19:09:56Z</time>
      </trkpt>
      <trkpt lat="40.016384" lon="-2.1328638">
        <ele>963.0</ele>
        <time>2021-07-27T19:09:57Z</time>
      </trkpt>
      <trkpt lat="40.01633" lon="-2.1328554">
        <ele>963.0</ele>
        <time>2021-07-27T19:09:58Z</time>
      </trkpt>
      <trkpt lat="40.016277" lon="-2.1328483">
        <ele>963.0</ele>
        <time>2021-07-27T19:09:59Z</time>
      </trkpt>
      <trkpt lat="40.016224" lon="-2.1328418">
        <ele>963.0</ele>
        <time>2021-07-27T19:10:00Z</time>
      </trkpt>
      <trkpt lat="40.01617" lon="-2.1328359">
        <ele>963.0</ele>
        <time>2021-07-27T19:10:01Z</time>
      </trkpt>
      <trkpt lat="40.016117" lon="-2.1328292">
        <ele>963.0</ele>
        <time>2021-07-27T19:10:02Z</time>
      </trkpt>
      <trkpt lat="40.016064" lon="-2.132823">
        <ele>963.0</ele>
        <time>2021-07-27T19:10:03Z</time>
      </trkpt>
      <trkpt lat="40.016014" lon="-2.1328163">
        <ele>963.0</ele>
        <time>2021-07-27T19:10:04Z</time>
      </trkpt>
      <trkpt lat="40.01596" lon="-2.1328092">
        <ele>964.0</ele>
        <time>2021-07-27T19:10:05Z</time>
      </trkpt>
      <trkpt lat="40.015858" lon="-2.132795">
        <ele>964.0</ele>
        <time>2021-07-27T19:10:07Z</time>
      </trkpt>
      <trkpt lat="40.01581" lon="-2.1327875">
        <ele>964.0</ele>
        <time>2021-07-27T19:10:08Z</time>
      </trkpt>
      <trkpt lat="40.01571" lon="-2.1327739">
        <ele>964.0</ele>
        <time>2021-07-27T19:10:10Z</time>
      </trkpt>
      <trkpt lat="40.015656" lon="-2.132768">
        <ele>964.0</ele>
        <time>2021-07-27T19:10:11Z</time>
      </trkpt>
      <trkpt lat="40.01555" lon="-2.1327553">
        <ele>964.0</ele>
        <time>2021-07-27T19:10:13Z</time>
      </trkpt>
      <trkpt lat="40.015495" lon="-2.1327493">
        <ele>964.0</ele>
        <time>2021-07-27T19:10:14Z</time>
      </trkpt>
      <trkpt lat="40.015446" lon="-2.1327443">
        <ele>964.0</ele>
        <time>2021-07-27T19:10:15Z</time>
      </trkpt>
      <trkpt lat="40.015396" lon="-2.1327386">
        <ele>964.0</ele>
        <time>2021-07-27T19:10:16Z</time>
      </trkpt>
      <trkpt lat="40.015293" lon="-2.1327267">
        <ele>965.0</ele>
        <time>2021-07-27T19:10:18Z</time>
      </trkpt>
      <trkpt lat="40.015247" lon="-2.1327217">
        <ele>965.0</ele>
        <time>2021-07-27T19:10:19Z</time>
      </trkpt>
      <trkpt lat="40.015156" lon="-2.132712">
        <ele>965.0</ele>
        <time>2021-07-27T19:10:21Z</time>
      </trkpt>
      <trkpt lat="40.015057" lon="-2.132703">
        <ele>965.0</ele>
        <time>2021-07-27T19:10:23Z</time>
      </trkpt>
      <trkpt lat="40.014965" lon="-2.132695">
        <ele>965.0</ele>
        <time>2021-07-27T19:10:25Z</time>
      </trkpt>
      <trkpt lat="40.01487" lon="-2.1326885">
        <ele>965.0</ele>
        <time>2021-07-27T19:10:27Z</time>
      </trkpt>
      <trkpt lat="40.014782" lon="-2.1326826">
        <ele>965.0</ele>
        <time>2021-07-27T19:10:29Z</time>
      </trkpt>
      <trkpt lat="40.014683" lon="-2.132676">
        <ele>966.0</ele>
        <time>2021-07-27T19:10:31Z</time>
      </trkpt>
      <trkpt lat="40.014637" lon="-2.1326735">
        <ele>966.0</ele>
        <time>2021-07-27T19:10:32Z</time>
      </trkpt>
      <trkpt lat="40.014538" lon="-2.1326673">
        <ele>966.0</ele>
        <time>2021-07-27T19:10:34Z</time>
      </trkpt>
      <trkpt lat="40.014492" lon="-2.1326637">
        <ele>966.0</ele>
        <time>2021-07-27T19:10:35Z</time>
      </trkpt>
      <trkpt lat="40.014397" lon="-2.1326556">
        <ele>966.0</ele>
        <time>2021-07-27T19:10:37Z</time>
      </trkpt>
      <trkpt lat="40.01431" lon="-2.1326456">
        <ele>966.0</ele>
        <time>2021-07-27T19:10:39Z</time>
      </trkpt>
      <trkpt lat="40.01421" lon="-2.1326354">
        <ele>967.0</ele>
        <time>2021-07-27T19:10:41Z</time>
      </trkpt>
      <trkpt lat="40.014156" lon="-2.132631">
        <ele>967.0</ele>
        <time>2021-07-27T19:10:42Z</time>
      </trkpt>
      <trkpt lat="40.01406" lon="-2.132624">
        <ele>967.0</ele>
        <time>2021-07-27T19:10:44Z</time>
      </trkpt>
      <trkpt lat="40.013966" lon="-2.132617">
        <ele>967.0</ele>
        <time>2021-07-27T19:10:46Z</time>
      </trkpt>
      <trkpt lat="40.013874" lon="-2.132613">
        <ele>967.0</ele>
        <time>2021-07-27T19:10:48Z</time>
      </trkpt>
      <trkpt lat="40.01374" lon="-2.132605">
        <ele>968.0</ele>
        <time>2021-07-27T19:10:51Z</time>
      </trkpt>
      <trkpt lat="40.01365" lon="-2.1325986">
        <ele>968.0</ele>
        <time>2021-07-27T19:10:53Z</time>
      </trkpt>
      <trkpt lat="40.013557" lon="-2.132593">
        <ele>968.0</ele>
        <time>2021-07-27T19:10:55Z</time>
      </trkpt>
      <trkpt lat="40.013515" lon="-2.1325908">
        <ele>968.0</ele>
        <time>2021-07-27T19:10:56Z</time>
      </trkpt>
      <trkpt lat="40.013424" lon="-2.1325834">
        <ele>968.0</ele>
        <time>2021-07-27T19:10:58Z</time>
      </trkpt>
      <trkpt lat="40.013332" lon="-2.1325748">
        <ele>969.0</ele>
        <time>2021-07-27T19:11:00Z</time>
      </trkpt>
      <trkpt lat="40.013245" lon="-2.1325612">
        <ele>969.0</ele>
        <time>2021-07-27T19:11:02Z</time>
      </trkpt>
      <trkpt lat="40.013157" lon="-2.1325412">
        <ele>969.0</ele>
        <time>2021-07-27T19:11:04Z</time>
      </trkpt>
      <trkpt lat="40.013073" lon="-2.1325126">
        <ele>969.0</ele>
        <time>2021-07-27T19:11:06Z</time>
      </trkpt>
      <trkpt lat="40.012985" lon="-2.1324747">
        <ele>969.0</ele>
        <time>2021-07-27T19:11:08Z</time>
      </trkpt>
      <trkpt lat="40.01289" lon="-2.1324284">
        <ele>969.0</ele>
        <time>2021-07-27T19:11:10Z</time>
      </trkpt>
      <trkpt lat="40.01284" lon="-2.1324024">
        <ele>969.0</ele>
        <time>2021-07-27T19:11:11Z</time>
      </trkpt>
      <trkpt lat="40.012745" lon="-2.1323447">
        <ele>969.0</ele>
        <time>2021-07-27T19:11:13Z</time>
      </trkpt>
      <trkpt lat="40.0127" lon="-2.1323135">
        <ele>969.0</ele>
        <time>2021-07-27T19:11:14Z</time>
      </trkpt>
      <trkpt lat="40.012646" lon="-2.1322806">
        <ele>969.0</ele>
        <time>2021-07-27T19:11:15Z</time>
      </trkpt>
      <trkpt lat="40.012592" lon="-2.1322467">
        <ele>969.0</ele>
        <time>2021-07-27T19:11:16Z</time>
      </trkpt>
      <trkpt lat="40.012535" lon="-2.1322124">
        <ele>969.0</ele>
        <time>2021-07-27T19:11:17Z</time>
      </trkpt>
      <trkpt lat="40.01248" lon="-2.132178">
        <ele>969.0</ele>
        <time>2021-07-27T19:11:18Z</time>
      </trkpt>
      <trkpt lat="40.012424" lon="-2.1321428">
        <ele>969.0</ele>
        <time>2021-07-27T19:11:19Z</time>
      </trkpt>
      <trkpt lat="40.01237" lon="-2.1321063">
        <ele>968.0</ele>
        <time>2021-07-27T19:11:20Z</time>
      </trkpt>
      <trkpt lat="40.012318" lon="-2.13207">
        <ele>968.0</ele>
        <time>2021-07-27T19:11:21Z</time>
      </trkpt>
      <trkpt lat="40.01226" lon="-2.1320338">
        <ele>968.0</ele>
        <time>2021-07-27T19:11:22Z</time>
      </trkpt>
      <trkpt lat="40.012203" lon="-2.1319969">
        <ele>968.0</ele>
        <time>2021-07-27T19:11:23Z</time>
      </trkpt>
      <trkpt lat="40.012146" lon="-2.1319597">
        <ele>968.0</ele>
        <time>2021-07-27T19:11:24Z</time>
      </trkpt>
      <trkpt lat="40.01209" lon="-2.1319227">
        <ele>968.0</ele>
        <time>2021-07-27T19:11:25Z</time>
      </trkpt>
      <trkpt lat="40.012028" lon="-2.131886">
        <ele>967.0</ele>
        <time>2021-07-27T19:11:26Z</time>
      </trkpt>
      <trkpt lat="40.011974" lon="-2.1318505">
        <ele>967.0</ele>
        <time>2021-07-27T19:11:27Z</time>
      </trkpt>
      <trkpt lat="40.011913" lon="-2.1318145">
        <ele>967.0</ele>
        <time>2021-07-27T19:11:28Z</time>
      </trkpt>
      <trkpt lat="40.011856" lon="-2.1317778">
        <ele>967.0</ele>
        <time>2021-07-27T19:11:29Z</time>
      </trkpt>
      <trkpt lat="40.0118" lon="-2.1317415">
        <ele>967.0</ele>
        <time>2021-07-27T19:11:30Z</time>
      </trkpt>
      <trkpt lat="40.01174" lon="-2.1317046">
        <ele>967.0</ele>
        <time>2021-07-27T19:11:31Z</time>
      </trkpt>
      <trkpt lat="40.011684" lon="-2.1316671">
        <ele>966.0</ele>
        <time>2021-07-27T19:11:32Z</time>
      </trkpt>
      <trkpt lat="40.011623" lon="-2.1316302">
        <ele>966.0</ele>
        <time>2021-07-27T19:11:33Z</time>
      </trkpt>
      <trkpt lat="40.01157" lon="-2.1315937">
        <ele>966.0</ele>
        <time>2021-07-27T19:11:34Z</time>
      </trkpt>
      <trkpt lat="40.011513" lon="-2.1315565">
        <ele>966.0</ele>
        <time>2021-07-27T19:11:35Z</time>
      </trkpt>
      <trkpt lat="40.011456" lon="-2.131519">
        <ele>966.0</ele>
        <time>2021-07-27T19:11:36Z</time>
      </trkpt>
      <trkpt lat="40.0114" lon="-2.1314814">
        <ele>965.0</ele>
        <time>2021-07-27T19:11:37Z</time>
      </trkpt>
      <trkpt lat="40.01134" lon="-2.1314435">
        <ele>965.0</ele>
        <time>2021-07-27T19:11:38Z</time>
      </trkpt>
      <trkpt lat="40.01128" lon="-2.1314058">
        <ele>965.0</ele>
        <time>2021-07-27T19:11:39Z</time>
      </trkpt>
      <trkpt lat="40.01122" lon="-2.1313682">
        <ele>965.0</ele>
        <time>2021-07-27T19:11:40Z</time>
      </trkpt>
      <trkpt lat="40.01116" lon="-2.13133">
        <ele>965.0</ele>
        <time>2021-07-27T19:11:41Z</time>
      </trkpt>
      <trkpt lat="40.0111" lon="-2.131292">
        <ele>965.0</ele>
        <time>2021-07-27T19:11:42Z</time>
      </trkpt>
      <trkpt lat="40.01104" lon="-2.1312537">
        <ele>964.0</ele>
        <time>2021-07-27T19:11:43Z</time>
      </trkpt>
      <trkpt lat="40.01098" lon="-2.1312158">
        <ele>964.0</ele>
        <time>2021-07-27T19:11:44Z</time>
      </trkpt>
      <trkpt lat="40.010925" lon="-2.1311774">
        <ele>964.0</ele>
        <time>2021-07-27T19:11:45Z</time>
      </trkpt>
      <trkpt lat="40.010864" lon="-2.1311383">
        <ele>964.0</ele>
        <time>2021-07-27T19:11:46Z</time>
      </trkpt>
      <trkpt lat="40.010807" lon="-2.1311004">
        <ele>963.0</ele>
        <time>2021-07-27T19:11:47Z</time>
      </trkpt>
      <trkpt lat="40.010746" lon="-2.131062">
        <ele>963.0</ele>
        <time>2021-07-27T19:11:48Z</time>
      </trkpt>
      <trkpt lat="40.01069" lon="-2.1310246">
        <ele>963.0</ele>
        <time>2021-07-27T19:11:49Z</time>
      </trkpt>
      <trkpt lat="40.01063" lon="-2.130986">
        <ele>963.0</ele>
        <time>2021-07-27T19:11:50Z</time>
      </trkpt>
      <trkpt lat="40.010574" lon="-2.130948">
        <ele>963.0</ele>
        <time>2021-07-27T19:11:51Z</time>
      </trkpt>
      <trkpt lat="40.010456" lon="-2.1308737">
        <ele>963.0</ele>
        <time>2021-07-27T19:11:53Z</time>
      </trkpt>
      <trkpt lat="40.010403" lon="-2.1308367">
        <ele>963.0</ele>
        <time>2021-07-27T19:11:54Z</time>
      </trkpt>
      <trkpt lat="40.01034" lon="-2.130798">
        <ele>962.0</ele>
        <time>2021-07-27T19:11:55Z</time>
      </trkpt>
      <trkpt lat="40.010284" lon="-2.1307602">
        <ele>962.0</ele>
        <time>2021-07-27T19:11:56Z</time>
      </trkpt>
      <trkpt lat="40.010227" lon="-2.130722">
        <ele>962.0</ele>
        <time>2021-07-27T19:11:57Z</time>
      </trkpt>
      <trkpt lat="40.01017" lon="-2.1306844">
        <ele>962.0</ele>
        <time>2021-07-27T19:11:58Z</time>
      </trkpt>
      <trkpt lat="40.010105" lon="-2.1306465">
        <ele>962.0</ele>
        <time>2021-07-27T19:11:59Z</time>
      </trkpt>
      <trkpt lat="40.010048" lon="-2.130609">
        <ele>962.0</ele>
        <time>2021-07-27T19:12:00Z</time>
      </trkpt>
      <trkpt lat="40.00999" lon="-2.1305716">
        <ele>961.0</ele>
        <time>2021-07-27T19:12:01Z</time>
      </trkpt>
      <trkpt lat="40.009926" lon="-2.1305335">
        <ele>961.0</ele>
        <time>2021-07-27T19:12:02Z</time>
      </trkpt>
      <trkpt lat="40.009865" lon="-2.1304948">
        <ele>961.0</ele>
        <time>2021-07-27T19:12:03Z</time>
      </trkpt>
      <trkpt lat="40.009804" lon="-2.1304545">
        <ele>961.0</ele>
        <time>2021-07-27T19:12:04Z</time>
      </trkpt>
      <trkpt lat="40.009743" lon="-2.1304135">
        <ele>961.0</ele>
        <time>2021-07-27T19:12:05Z</time>
      </trkpt>
      <trkpt lat="40.009678" lon="-2.130372">
        <ele>961.0</ele>
        <time>2021-07-27T19:12:06Z</time>
      </trkpt>
      <trkpt lat="40.009617" lon="-2.1303318">
        <ele>960.0</ele>
        <time>2021-07-27T19:12:07Z</time>
      </trkpt>
      <trkpt lat="40.009552" lon="-2.1302915">
        <ele>960.0</ele>
        <time>2021-07-27T19:12:08Z</time>
      </trkpt>
      <trkpt lat="40.009487" lon="-2.1302512">
        <ele>960.0</ele>
        <time>2021-07-27T19:12:09Z</time>
      </trkpt>
      <trkpt lat="40.009422" lon="-2.130211">
        <ele>960.0</ele>
        <time>2021-07-27T19:12:10Z</time>
      </trkpt>
      <trkpt lat="40.00936" lon="-2.1301713">
        <ele>960.0</ele>
        <time>2021-07-27T19:12:11Z</time>
      </trkpt>
      <trkpt lat="40.009296" lon="-2.1301296">
        <ele>960.0</ele>
        <time>2021-07-27T19:12:12Z</time>
      </trkpt>
      <trkpt lat="40.009228" lon="-2.1300871">
        <ele>960.0</ele>
        <time>2021-07-27T19:12:13Z</time>
      </trkpt>
      <trkpt lat="40.009163" lon="-2.1300442">
        <ele>959.0</ele>
        <time>2021-07-27T19:12:14Z</time>
      </trkpt>
      <trkpt lat="40.009094" lon="-2.1300008">
        <ele>959.0</ele>
        <time>2021-07-27T19:12:15Z</time>
      </trkpt>
      <trkpt lat="40.009026" lon="-2.1299572">
        <ele>959.0</ele>
        <time>2021-07-27T19:12:16Z</time>
      </trkpt>
      <trkpt lat="40.008957" lon="-2.1299129">
        <ele>959.0</ele>
        <time>2021-07-27T19:12:17Z</time>
      </trkpt>
      <trkpt lat="40.00889" lon="-2.1298685">
        <ele>959.0</ele>
        <time>2021-07-27T19:12:18Z</time>
      </trkpt>
      <trkpt lat="40.00882" lon="-2.1298244">
        <ele>959.0</ele>
        <time>2021-07-27T19:12:19Z</time>
      </trkpt>
      <trkpt lat="40.00875" lon="-2.1297815">
        <ele>958.0</ele>
        <time>2021-07-27T19:12:20Z</time>
      </trkpt>
      <trkpt lat="40.00868" lon="-2.1297393">
        <ele>958.0</ele>
        <time>2021-07-27T19:12:21Z</time>
      </trkpt>
      <trkpt lat="40.008614" lon="-2.1296966">
        <ele>958.0</ele>
        <time>2021-07-27T19:12:22Z</time>
      </trkpt>
      <trkpt lat="40.00854" lon="-2.1296532">
        <ele>958.0</ele>
        <time>2021-07-27T19:12:23Z</time>
      </trkpt>
      <trkpt lat="40.008472" lon="-2.1296096">
        <ele>958.0</ele>
        <time>2021-07-27T19:12:24Z</time>
      </trkpt>
      <trkpt lat="40.008408" lon="-2.1295662">
        <ele>958.0</ele>
        <time>2021-07-27T19:12:25Z</time>
      </trkpt>
      <trkpt lat="40.00834" lon="-2.1295238">
        <ele>958.0</ele>
        <time>2021-07-27T19:12:26Z</time>
      </trkpt>
      <trkpt lat="40.008274" lon="-2.129483">
        <ele>957.0</ele>
        <time>2021-07-27T19:12:27Z</time>
      </trkpt>
      <trkpt lat="40.00821" lon="-2.129442">
        <ele>957.0</ele>
        <time>2021-07-27T19:12:28Z</time>
      </trkpt>
      <trkpt lat="40.008137" lon="-2.1293998">
        <ele>957.0</ele>
        <time>2021-07-27T19:12:29Z</time>
      </trkpt>
      <trkpt lat="40.00807" lon="-2.1293583">
        <ele>957.0</ele>
        <time>2021-07-27T19:12:30Z</time>
      </trkpt>
      <trkpt lat="40.008003" lon="-2.1293163">
        <ele>957.0</ele>
        <time>2021-07-27T19:12:31Z</time>
      </trkpt>
      <trkpt lat="40.007935" lon="-2.129275">
        <ele>957.0</ele>
        <time>2021-07-27T19:12:32Z</time>
      </trkpt>
      <trkpt lat="40.00787" lon="-2.1292334">
        <ele>956.0</ele>
        <time>2021-07-27T19:12:33Z</time>
      </trkpt>
      <trkpt lat="40.0078" lon="-2.1291902">
        <ele>956.0</ele>
        <time>2021-07-27T19:12:34Z</time>
      </trkpt>
      <trkpt lat="40.007732" lon="-2.1291463">
        <ele>956.0</ele>
        <time>2021-07-27T19:12:35Z</time>
      </trkpt>
      <trkpt lat="40.007668" lon="-2.129103">
        <ele>956.0</ele>
        <time>2021-07-27T19:12:36Z</time>
      </trkpt>
      <trkpt lat="40.0076" lon="-2.1290603">
        <ele>956.0</ele>
        <time>2021-07-27T19:12:37Z</time>
      </trkpt>
      <trkpt lat="40.007534" lon="-2.1290166">
        <ele>956.0</ele>
        <time>2021-07-27T19:12:38Z</time>
      </trkpt>
      <trkpt lat="40.00747" lon="-2.1289732">
        <ele>955.0</ele>
        <time>2021-07-27T19:12:39Z</time>
      </trkpt>
      <trkpt lat="40.007404" lon="-2.1289296">
        <ele>955.0</ele>
        <time>2021-07-27T19:12:40Z</time>
      </trkpt>
      <trkpt lat="40.00734" lon="-2.128886">
        <ele>955.0</ele>
        <time>2021-07-27T19:12:41Z</time>
      </trkpt>
      <trkpt lat="40.007275" lon="-2.128841">
        <ele>955.0</ele>
        <time>2021-07-27T19:12:42Z</time>
      </trkpt>
      <trkpt lat="40.007214" lon="-2.1287932">
        <ele>955.0</ele>
        <time>2021-07-27T19:12:43Z</time>
      </trkpt>
      <trkpt lat="40.007156" lon="-2.1287434">
        <ele>955.0</ele>
        <time>2021-07-27T19:12:44Z</time>
      </trkpt>
      <trkpt lat="40.0071" lon="-2.12869">
        <ele>955.0</ele>
        <time>2021-07-27T19:12:45Z</time>
      </trkpt>
      <trkpt lat="40.00705" lon="-2.128638">
        <ele>955.0</ele>
        <time>2021-07-27T19:12:46Z</time>
      </trkpt>
      <trkpt lat="40.006996" lon="-2.128582">
        <ele>955.0</ele>
        <time>2021-07-27T19:12:47Z</time>
      </trkpt>
      <trkpt lat="40.006947" lon="-2.1285243">
        <ele>954.0</ele>
        <time>2021-07-27T19:12:48Z</time>
      </trkpt>
      <trkpt lat="40.006897" lon="-2.1284647">
        <ele>954.0</ele>
        <time>2021-07-27T19:12:49Z</time>
      </trkpt>
      <trkpt lat="40.006844" lon="-2.1284">
        <ele>954.0</ele>
        <time>2021-07-27T19:12:50Z</time>
      </trkpt>
      <trkpt lat="40.006794" lon="-2.1283357">
        <ele>954.0</ele>
        <time>2021-07-27T19:12:51Z</time>
      </trkpt>
      <trkpt lat="40.006744" lon="-2.128272">
        <ele>954.0</ele>
        <time>2021-07-27T19:12:52Z</time>
      </trkpt>
      <trkpt lat="40.0067" lon="-2.1282086">
        <ele>954.0</ele>
        <time>2021-07-27T19:12:53Z</time>
      </trkpt>
      <trkpt lat="40.006603" lon="-2.128082">
        <ele>954.0</ele>
        <time>2021-07-27T19:12:55Z</time>
      </trkpt>
      <trkpt lat="40.006557" lon="-2.1280193">
        <ele>954.0</ele>
        <time>2021-07-27T19:12:56Z</time>
      </trkpt>
      <trkpt lat="40.00651" lon="-2.127958">
        <ele>954.0</ele>
        <time>2021-07-27T19:12:57Z</time>
      </trkpt>
      <trkpt lat="40.00647" lon="-2.1278965">
        <ele>954.0</ele>
        <time>2021-07-27T19:12:58Z</time>
      </trkpt>
      <trkpt lat="40.006424" lon="-2.1278358">
        <ele>954.0</ele>
        <time>2021-07-27T19:12:59Z</time>
      </trkpt>
      <trkpt lat="40.00638" lon="-2.1277757">
        <ele>954.0</ele>
        <time>2021-07-27T19:13:00Z</time>
      </trkpt>
      <trkpt lat="40.006336" lon="-2.1277156">
        <ele>954.0</ele>
        <time>2021-07-27T19:13:01Z</time>
      </trkpt>
      <trkpt lat="40.006294" lon="-2.1276572">
        <ele>954.0</ele>
        <time>2021-07-27T19:13:02Z</time>
      </trkpt>
      <trkpt lat="40.006245" lon="-2.1275957">
        <ele>954.0</ele>
        <time>2021-07-27T19:13:03Z</time>
      </trkpt>
      <trkpt lat="40.006207" lon="-2.1275394">
        <ele>954.0</ele>
        <time>2021-07-27T19:13:04Z</time>
      </trkpt>
      <trkpt lat="40.00617" lon="-2.1274822">
        <ele>954.0</ele>
        <time>2021-07-27T19:13:05Z</time>
      </trkpt>
      <trkpt lat="40.00613" lon="-2.1274228">
        <ele>953.0</ele>
        <time>2021-07-27T19:13:06Z</time>
      </trkpt>
      <trkpt lat="40.006092" lon="-2.1273615">
        <ele>953.0</ele>
        <time>2021-07-27T19:13:07Z</time>
      </trkpt>
      <trkpt lat="40.006058" lon="-2.1272984">
        <ele>953.0</ele>
        <time>2021-07-27T19:13:08Z</time>
      </trkpt>
      <trkpt lat="40.006027" lon="-2.1272385">
        <ele>953.0</ele>
        <time>2021-07-27T19:13:09Z</time>
      </trkpt>
      <trkpt lat="40.005997" lon="-2.127177">
        <ele>953.0</ele>
        <time>2021-07-27T19:13:10Z</time>
      </trkpt>
      <trkpt lat="40.005966" lon="-2.1271148">
        <ele>953.0</ele>
        <time>2021-07-27T19:13:11Z</time>
      </trkpt>
      <trkpt lat="40.005936" lon="-2.127053">
        <ele>953.0</ele>
        <time>2021-07-27T19:13:12Z</time>
      </trkpt>
      <trkpt lat="40.0059" lon="-2.1269917">
        <ele>953.0</ele>
        <time>2021-07-27T19:13:13Z</time>
      </trkpt>
      <trkpt lat="40.005863" lon="-2.1269329">
        <ele>953.0</ele>
        <time>2021-07-27T19:13:14Z</time>
      </trkpt>
      <trkpt lat="40.005825" lon="-2.1268787">
        <ele>953.0</ele>
        <time>2021-07-27T19:13:15Z</time>
      </trkpt>
      <trkpt lat="40.00578" lon="-2.1268263">
        <ele>953.0</ele>
        <time>2021-07-27T19:13:16Z</time>
      </trkpt>
      <trkpt lat="40.00573" lon="-2.1267798">
        <ele>953.0</ele>
        <time>2021-07-27T19:13:17Z</time>
      </trkpt>
      <trkpt lat="40.005676" lon="-2.1267374">
        <ele>953.0</ele>
        <time>2021-07-27T19:13:18Z</time>
      </trkpt>
      <trkpt lat="40.005627" lon="-2.1266987">
        <ele>953.0</ele>
        <time>2021-07-27T19:13:19Z</time>
      </trkpt>
      <trkpt lat="40.005577" lon="-2.1266627">
        <ele>953.0</ele>
        <time>2021-07-27T19:13:20Z</time>
      </trkpt>
      <trkpt lat="40.005524" lon="-2.12663">
        <ele>953.0</ele>
        <time>2021-07-27T19:13:21Z</time>
      </trkpt>
      <trkpt lat="40.005466" lon="-2.126599">
        <ele>953.0</ele>
        <time>2021-07-27T19:13:22Z</time>
      </trkpt>
      <trkpt lat="40.005417" lon="-2.1265724">
        <ele>953.0</ele>
        <time>2021-07-27T19:13:23Z</time>
      </trkpt>
      <trkpt lat="40.005363" lon="-2.1265466">
        <ele>953.0</ele>
        <time>2021-07-27T19:13:24Z</time>
      </trkpt>
      <trkpt lat="40.00531" lon="-2.1265223">
        <ele>953.0</ele>
        <time>2021-07-27T19:13:25Z</time>
      </trkpt>
      <trkpt lat="40.005253" lon="-2.126499">
        <ele>953.0</ele>
        <time>2021-07-27T19:13:26Z</time>
      </trkpt>
      <trkpt lat="40.0052" lon="-2.126476">
        <ele>953.0</ele>
        <time>2021-07-27T19:13:27Z</time>
      </trkpt>
      <trkpt lat="40.005142" lon="-2.1264532">
        <ele>953.0</ele>
        <time>2021-07-27T19:13:28Z</time>
      </trkpt>
      <trkpt lat="40.005085" lon="-2.12643">
        <ele>953.0</ele>
        <time>2021-07-27T19:13:29Z</time>
      </trkpt>
      <trkpt lat="40.005028" lon="-2.1264079">
        <ele>953.0</ele>
        <time>2021-07-27T19:13:30Z</time>
      </trkpt>
      <trkpt lat="40.00497" lon="-2.126388">
        <ele>953.0</ele>
        <time>2021-07-27T19:13:31Z</time>
      </trkpt>
      <trkpt lat="40.004913" lon="-2.1263688">
        <ele>953.0</ele>
        <time>2021-07-27T19:13:32Z</time>
      </trkpt>
      <trkpt lat="40.004856" lon="-2.1263494">
        <ele>953.0</ele>
        <time>2021-07-27T19:13:33Z</time>
      </trkpt>
      <trkpt lat="40.00479" lon="-2.1263285">
        <ele>953.0</ele>
        <time>2021-07-27T19:13:34Z</time>
      </trkpt>
      <trkpt lat="40.004738" lon="-2.1263099">
        <ele>953.0</ele>
        <time>2021-07-27T19:13:35Z</time>
      </trkpt>
      <trkpt lat="40.00468" lon="-2.1262915">
        <ele>953.0</ele>
        <time>2021-07-27T19:13:36Z</time>
      </trkpt>
      <trkpt lat="40.004623" lon="-2.1262732">
        <ele>953.0</ele>
        <time>2021-07-27T19:13:37Z</time>
      </trkpt>
      <trkpt lat="40.004566" lon="-2.1262555">
        <ele>953.0</ele>
        <time>2021-07-27T19:13:38Z</time>
      </trkpt>
      <trkpt lat="40.00451" lon="-2.1262379">
        <ele>953.0</ele>
        <time>2021-07-27T19:13:39Z</time>
      </trkpt>
      <trkpt lat="40.004456" lon="-2.1262207">
        <ele>953.0</ele>
        <time>2021-07-27T19:13:40Z</time>
      </trkpt>
      <trkpt lat="40.004402" lon="-2.1262045">
        <ele>953.0</ele>
        <time>2021-07-27T19:13:41Z</time>
      </trkpt>
      <trkpt lat="40.00435" lon="-2.1261883">
        <ele>953.0</ele>
        <time>2021-07-27T19:13:42Z</time>
      </trkpt>
      <trkpt lat="40.004295" lon="-2.1261716">
        <ele>953.0</ele>
        <time>2021-07-27T19:13:43Z</time>
      </trkpt>
      <trkpt lat="40.004242" lon="-2.126155">
        <ele>953.0</ele>
        <time>2021-07-27T19:13:44Z</time>
      </trkpt>
      <trkpt lat="40.004185" lon="-2.126136">
        <ele>953.0</ele>
        <time>2021-07-27T19:13:45Z</time>
      </trkpt>
      <trkpt lat="40.004128" lon="-2.1261187">
        <ele>953.0</ele>
        <time>2021-07-27T19:13:46Z</time>
      </trkpt>
      <trkpt lat="40.004078" lon="-2.1261015">
        <ele>953.0</ele>
        <time>2021-07-27T19:13:47Z</time>
      </trkpt>
      <trkpt lat="40.004025" lon="-2.1260839">
        <ele>953.0</ele>
        <time>2021-07-27T19:13:48Z</time>
      </trkpt>
      <trkpt lat="40.00397" lon="-2.1260638">
        <ele>953.0</ele>
        <time>2021-07-27T19:13:49Z</time>
      </trkpt>
      <trkpt lat="40.003914" lon="-2.1260426">
        <ele>953.0</ele>
        <time>2021-07-27T19:13:50Z</time>
      </trkpt>
      <trkpt lat="40.003857" lon="-2.1260226">
        <ele>953.0</ele>
        <time>2021-07-27T19:13:51Z</time>
      </trkpt>
      <trkpt lat="40.003803" lon="-2.1260023">
        <ele>953.0</ele>
        <time>2021-07-27T19:13:52Z</time>
      </trkpt>
      <trkpt lat="40.003746" lon="-2.1259828">
        <ele>953.0</ele>
        <time>2021-07-27T19:13:53Z</time>
      </trkpt>
      <trkpt lat="40.00369" lon="-2.1259632">
        <ele>953.0</ele>
        <time>2021-07-27T19:13:54Z</time>
      </trkpt>
      <trkpt lat="40.00363" lon="-2.1259449">
        <ele>953.0</ele>
        <time>2021-07-27T19:13:55Z</time>
      </trkpt>
      <trkpt lat="40.00358" lon="-2.1259263">
        <ele>953.0</ele>
        <time>2021-07-27T19:13:56Z</time>
      </trkpt>
      <trkpt lat="40.00352" lon="-2.1259065">
        <ele>952.0</ele>
        <time>2021-07-27T19:13:57Z</time>
      </trkpt>
      <trkpt lat="40.003468" lon="-2.1258872">
        <ele>952.0</ele>
        <time>2021-07-27T19:13:58Z</time>
      </trkpt>
      <trkpt lat="40.003414" lon="-2.125868">
        <ele>952.0</ele>
        <time>2021-07-27T19:13:59Z</time>
      </trkpt>
      <trkpt lat="40.003304" lon="-2.1258297">
        <ele>952.0</ele>
        <time>2021-07-27T19:14:01Z</time>
      </trkpt>
      <trkpt lat="40.00325" lon="-2.125811">
        <ele>952.0</ele>
        <time>2021-07-27T19:14:02Z</time>
      </trkpt>
      <trkpt lat="40.003197" lon="-2.1257932">
        <ele>952.0</ele>
        <time>2021-07-27T19:14:03Z</time>
      </trkpt>
      <trkpt lat="40.003147" lon="-2.1257749">
        <ele>952.0</ele>
        <time>2021-07-27T19:14:04Z</time>
      </trkpt>
      <trkpt lat="40.003094" lon="-2.1257563">
        <ele>952.0</ele>
        <time>2021-07-27T19:14:05Z</time>
      </trkpt>
      <trkpt lat="40.00304" lon="-2.125739">
        <ele>952.0</ele>
        <time>2021-07-27T19:14:06Z</time>
      </trkpt>
      <trkpt lat="40.00299" lon="-2.1257207">
        <ele>952.0</ele>
        <time>2021-07-27T19:14:07Z</time>
      </trkpt>
      <trkpt lat="40.002937" lon="-2.1257029">
        <ele>952.0</ele>
        <time>2021-07-27T19:14:08Z</time>
      </trkpt>
      <trkpt lat="40.002888" lon="-2.125685">
        <ele>952.0</ele>
        <time>2021-07-27T19:14:09Z</time>
      </trkpt>
      <trkpt lat="40.002834" lon="-2.1256666">
        <ele>952.0</ele>
        <time>2021-07-27T19:14:10Z</time>
      </trkpt>
      <trkpt lat="40.002777" lon="-2.1256464">
        <ele>952.0</ele>
        <time>2021-07-27T19:14:11Z</time>
      </trkpt>
      <trkpt lat="40.00272" lon="-2.1256254">
        <ele>952.0</ele>
        <time>2021-07-27T19:14:12Z</time>
      </trkpt>
      <trkpt lat="40.002666" lon="-2.125604">
        <ele>952.0</ele>
        <time>2021-07-27T19:14:13Z</time>
      </trkpt>
      <trkpt lat="40.002605" lon="-2.1255825">
        <ele>952.0</ele>
        <time>2021-07-27T19:14:14Z</time>
      </trkpt>
      <trkpt lat="40.00255" lon="-2.125562">
        <ele>952.0</ele>
        <time>2021-07-27T19:14:15Z</time>
      </trkpt>
      <trkpt lat="40.002495" lon="-2.125541">
        <ele>952.0</ele>
        <time>2021-07-27T19:14:16Z</time>
      </trkpt>
      <trkpt lat="40.002438" lon="-2.1255193">
        <ele>952.0</ele>
        <time>2021-07-27T19:14:17Z</time>
      </trkpt>
      <trkpt lat="40.00238" lon="-2.1254969">
        <ele>952.0</ele>
        <time>2021-07-27T19:14:18Z</time>
      </trkpt>
      <trkpt lat="40.002323" lon="-2.1254742">
        <ele>952.0</ele>
        <time>2021-07-27T19:14:19Z</time>
      </trkpt>
      <trkpt lat="40.002266" lon="-2.1254506">
        <ele>951.0</ele>
        <time>2021-07-27T19:14:20Z</time>
      </trkpt>
      <trkpt lat="40.00221" lon="-2.125428">
        <ele>951.0</ele>
        <time>2021-07-27T19:14:21Z</time>
      </trkpt>
      <trkpt lat="40.00215" lon="-2.1254067">
        <ele>951.0</ele>
        <time>2021-07-27T19:14:22Z</time>
      </trkpt>
      <trkpt lat="40.00209" lon="-2.1253855">
        <ele>951.0</ele>
        <time>2021-07-27T19:14:23Z</time>
      </trkpt>
      <trkpt lat="40.002033" lon="-2.125364">
        <ele>951.0</ele>
        <time>2021-07-27T19:14:24Z</time>
      </trkpt>
      <trkpt lat="40.001972" lon="-2.1253433">
        <ele>951.0</ele>
        <time>2021-07-27T19:14:25Z</time>
      </trkpt>
      <trkpt lat="40.001915" lon="-2.1253219">
        <ele>951.0</ele>
        <time>2021-07-27T19:14:26Z</time>
      </trkpt>
      <trkpt lat="40.001854" lon="-2.1253004">
        <ele>950.0</ele>
        <time>2021-07-27T19:14:27Z</time>
      </trkpt>
      <trkpt lat="40.001797" lon="-2.1252787">
        <ele>950.0</ele>
        <time>2021-07-27T19:14:28Z</time>
      </trkpt>
      <trkpt lat="40.00174" lon="-2.125257">
        <ele>950.0</ele>
        <time>2021-07-27T19:14:29Z</time>
      </trkpt>
      <trkpt lat="40.001682" lon="-2.125236">
        <ele>950.0</ele>
        <time>2021-07-27T19:14:30Z</time>
      </trkpt>
      <trkpt lat="40.00162" lon="-2.1252162">
        <ele>950.0</ele>
        <time>2021-07-27T19:14:31Z</time>
      </trkpt>
      <trkpt lat="40.001568" lon="-2.1251984">
        <ele>950.0</ele>
        <time>2021-07-27T19:14:32Z</time>
      </trkpt>
      <trkpt lat="40.00151" lon="-2.12518">
        <ele>950.0</ele>
        <time>2021-07-27T19:14:33Z</time>
      </trkpt>
      <trkpt lat="40.001457" lon="-2.1251638">
        <ele>950.0</ele>
        <time>2021-07-27T19:14:34Z</time>
      </trkpt>
      <trkpt lat="40.001404" lon="-2.1251473">
        <ele>950.0</ele>
        <time>2021-07-27T19:14:35Z</time>
      </trkpt>
      <trkpt lat="40.00135" lon="-2.1251307">
        <ele>950.0</ele>
        <time>2021-07-27T19:14:36Z</time>
      </trkpt>
      <trkpt lat="40.001297" lon="-2.125114">
        <ele>950.0</ele>
        <time>2021-07-27T19:14:37Z</time>
      </trkpt>
      <trkpt lat="40.001244" lon="-2.1250966">
        <ele>950.0</ele>
        <time>2021-07-27T19:14:38Z</time>
      </trkpt>
      <trkpt lat="40.00119" lon="-2.125078">
        <ele>950.0</ele>
        <time>2021-07-27T19:14:39Z</time>
      </trkpt>
      <trkpt lat="40.00114" lon="-2.1250603">
        <ele>950.0</ele>
        <time>2021-07-27T19:14:40Z</time>
      </trkpt>
      <trkpt lat="40.001045" lon="-2.125028">
        <ele>950.0</ele>
        <time>2021-07-27T19:14:42Z</time>
      </trkpt>
      <trkpt lat="40.000954" lon="-2.1249971">
        <ele>950.0</ele>
        <time>2021-07-27T19:14:44Z</time>
      </trkpt>
      <trkpt lat="40.000862" lon="-2.1249654">
        <ele>950.0</ele>
        <time>2021-07-27T19:14:46Z</time>
      </trkpt>
      <trkpt lat="40.000774" lon="-2.1249347">
        <ele>950.0</ele>
        <time>2021-07-27T19:14:48Z</time>
      </trkpt>
      <trkpt lat="40.00073" lon="-2.1249185">
        <ele>950.0</ele>
        <time>2021-07-27T19:14:49Z</time>
      </trkpt>
      <trkpt lat="40.000637" lon="-2.1248858">
        <ele>950.0</ele>
        <time>2021-07-27T19:14:51Z</time>
      </trkpt>
      <trkpt lat="40.000553" lon="-2.1248543">
        <ele>950.0</ele>
        <time>2021-07-27T19:14:53Z</time>
      </trkpt>
      <trkpt lat="40.00047" lon="-2.1248207">
        <ele>950.0</ele>
        <time>2021-07-27T19:14:55Z</time>
      </trkpt>
      <trkpt lat="40.000385" lon="-2.124787">
        <ele>950.0</ele>
        <time>2021-07-27T19:14:57Z</time>
      </trkpt>
      <trkpt lat="40.0003" lon="-2.1247525">
        <ele>951.0</ele>
        <time>2021-07-27T19:14:59Z</time>
      </trkpt>
      <trkpt lat="40.000214" lon="-2.1247206">
        <ele>951.0</ele>
        <time>2021-07-27T19:15:01Z</time>
      </trkpt>
      <trkpt lat="40.00013" lon="-2.1246889">
        <ele>951.0</ele>
        <time>2021-07-27T19:15:03Z</time>
      </trkpt>
      <trkpt lat="40.000004" lon="-2.1246424">
        <ele>951.0</ele>
        <time>2021-07-27T19:15:06Z</time>
      </trkpt>
      <trkpt lat="39.99992" lon="-2.124613">
        <ele>951.0</ele>
        <time>2021-07-27T19:15:08Z</time>
      </trkpt>
      <trkpt lat="39.99984" lon="-2.1245844">
        <ele>952.0</ele>
        <time>2021-07-27T19:15:10Z</time>
      </trkpt>
      <trkpt lat="39.999756" lon="-2.1245592">
        <ele>952.0</ele>
        <time>2021-07-27T19:15:12Z</time>
      </trkpt>
      <trkpt lat="39.999634" lon="-2.1245165">
        <ele>952.0</ele>
        <time>2021-07-27T19:15:15Z</time>
      </trkpt>
      <trkpt lat="39.999554" lon="-2.1244898">
        <ele>953.0</ele>
        <time>2021-07-27T19:15:17Z</time>
      </trkpt>
      <trkpt lat="39.999466" lon="-2.1244655">
        <ele>953.0</ele>
        <time>2021-07-27T19:15:19Z</time>
      </trkpt>
      <trkpt lat="39.99939" lon="-2.1244478">
        <ele>953.0</ele>
        <time>2021-07-27T19:15:21Z</time>
      </trkpt>
      <trkpt lat="39.999306" lon="-2.1244311">
        <ele>953.0</ele>
        <time>2021-07-27T19:15:23Z</time>
      </trkpt>
      <trkpt lat="39.99922" lon="-2.1244128">
        <ele>954.0</ele>
        <time>2021-07-27T19:15:25Z</time>
      </trkpt>
      <trkpt lat="39.999138" lon="-2.1243992">
        <ele>954.0</ele>
        <time>2021-07-27T19:15:27Z</time>
      </trkpt>
      <trkpt lat="39.999054" lon="-2.1243901">
        <ele>954.0</ele>
        <time>2021-07-27T19:15:29Z</time>
      </trkpt>
      <trkpt lat="39.99897" lon="-2.124383">
        <ele>954.0</ele>
        <time>2021-07-27T19:15:31Z</time>
      </trkpt>
      <trkpt lat="39.99889" lon="-2.1243799">
        <ele>955.0</ele>
        <time>2021-07-27T19:15:33Z</time>
      </trkpt>
      <trkpt lat="39.998814" lon="-2.1243758">
        <ele>955.0</ele>
        <time>2021-07-27T19:15:35Z</time>
      </trkpt>
      <trkpt lat="39.998734" lon="-2.1243699">
        <ele>955.0</ele>
        <time>2021-07-27T19:15:37Z</time>
      </trkpt>
      <trkpt lat="39.998653" lon="-2.124362">
        <ele>956.0</ele>
        <time>2021-07-27T19:15:39Z</time>
      </trkpt>
      <trkpt lat="39.998573" lon="-2.1243563">
        <ele>956.0</ele>
        <time>2021-07-27T19:15:41Z</time>
      </trkpt>
      <trkpt lat="39.998486" lon="-2.1243525">
        <ele>956.0</ele>
        <time>2021-07-27T19:15:43Z</time>
      </trkpt>
      <trkpt lat="39.9984" lon="-2.1243484">
        <ele>956.0</ele>
        <time>2021-07-27T19:15:45Z</time>
      </trkpt>
      <trkpt lat="39.998318" lon="-2.1243455">
        <ele>957.0</ele>
        <time>2021-07-27T19:15:47Z</time>
      </trkpt>
      <trkpt lat="39.998234" lon="-2.1243398">
        <ele>957.0</ele>
        <time>2021-07-27T19:15:49Z</time>
      </trkpt>
      <trkpt lat="39.99815" lon="-2.1243315">
        <ele>957.0</ele>
        <time>2021-07-27T19:15:51Z</time>
      </trkpt>
      <trkpt lat="39.998062" lon="-2.1243238">
        <ele>957.0</ele>
        <time>2021-07-27T19:15:53Z</time>
      </trkpt>
      <trkpt lat="39.99798" lon="-2.1243105">
        <ele>958.0</ele>
        <time>2021-07-27T19:15:55Z</time>
      </trkpt>
      <trkpt lat="39.997894" lon="-2.1242974">
        <ele>958.0</ele>
        <time>2021-07-27T19:15:57Z</time>
      </trkpt>
      <trkpt lat="39.997814" lon="-2.1242862">
        <ele>958.0</ele>
        <time>2021-07-27T19:15:59Z</time>
      </trkpt>
      <trkpt lat="39.99773" lon="-2.1242726">
        <ele>958.0</ele>
        <time>2021-07-27T19:16:01Z</time>
      </trkpt>
      <trkpt lat="39.997643" lon="-2.1242561">
        <ele>959.0</ele>
        <time>2021-07-27T19:16:03Z</time>
      </trkpt>
      <trkpt lat="39.99756" lon="-2.1242375">
        <ele>959.0</ele>
        <time>2021-07-27T19:16:05Z</time>
      </trkpt>
      <trkpt lat="39.997475" lon="-2.1242173">
        <ele>959.0</ele>
        <time>2021-07-27T19:16:07Z</time>
      </trkpt>
      <trkpt lat="39.9974" lon="-2.1241956">
        <ele>959.0</ele>
        <time>2021-07-27T19:16:09Z</time>
      </trkpt>
      <trkpt lat="39.997314" lon="-2.1241727">
        <ele>960.0</ele>
        <time>2021-07-27T19:16:11Z</time>
      </trkpt>
      <trkpt lat="39.997234" lon="-2.1241446">
        <ele>960.0</ele>
        <time>2021-07-27T19:16:13Z</time>
      </trkpt>
      <trkpt lat="39.997154" lon="-2.124117">
        <ele>960.0</ele>
        <time>2021-07-27T19:16:15Z</time>
      </trkpt>
      <trkpt lat="39.99707" lon="-2.124096">
        <ele>960.0</ele>
        <time>2021-07-27T19:16:17Z</time>
      </trkpt>
      <trkpt lat="39.99699" lon="-2.1240766">
        <ele>960.0</ele>
        <time>2021-07-27T19:16:19Z</time>
      </trkpt>
      <trkpt lat="39.996906" lon="-2.1240551">
        <ele>960.0</ele>
        <time>2021-07-27T19:16:21Z</time>
      </trkpt>
      <trkpt lat="39.996826" lon="-2.124034">
        <ele>961.0</ele>
        <time>2021-07-27T19:16:23Z</time>
      </trkpt>
      <trkpt lat="39.996742" lon="-2.1240122">
        <ele>961.0</ele>
        <time>2021-07-27T19:16:25Z</time>
      </trkpt>
      <trkpt lat="39.99666" lon="-2.1239936">
        <ele>961.0</ele>
        <time>2021-07-27T19:16:27Z</time>
      </trkpt>
      <trkpt lat="39.996574" lon="-2.1239777">
        <ele>962.0</ele>
        <time>2021-07-27T19:16:29Z</time>
      </trkpt>
      <trkpt lat="39.996494" lon="-2.1239693">
        <ele>962.0</ele>
        <time>2021-07-27T19:16:31Z</time>
      </trkpt>
      <trkpt lat="39.996407" lon="-2.1239693">
        <ele>962.0</ele>
        <time>2021-07-27T19:16:33Z</time>
      </trkpt>
      <trkpt lat="39.996326" lon="-2.1239738">
        <ele>962.0</ele>
        <time>2021-07-27T19:16:35Z</time>
      </trkpt>
      <trkpt lat="39.996246" lon="-2.1239805">
        <ele>962.0</ele>
        <time>2021-07-27T19:16:37Z</time>
      </trkpt>
      <trkpt lat="39.996162" lon="-2.1239915">
        <ele>962.0</ele>
        <time>2021-07-27T19:16:39Z</time>
      </trkpt>
      <trkpt lat="39.996082" lon="-2.124004">
        <ele>962.0</ele>
        <time>2021-07-27T19:16:41Z</time>
      </trkpt>
      <trkpt lat="39.996002" lon="-2.1240141">
        <ele>962.0</ele>
        <time>2021-07-27T19:16:43Z</time>
      </trkpt>
      <trkpt lat="39.99592" lon="-2.1240265">
        <ele>962.0</ele>
        <time>2021-07-27T19:16:45Z</time>
      </trkpt>
      <trkpt lat="39.995823" lon="-2.1240435">
        <ele>962.0</ele>
        <time>2021-07-27T19:16:47Z</time>
      </trkpt>
      <trkpt lat="39.995777" lon="-2.1240532">
        <ele>962.0</ele>
        <time>2021-07-27T19:16:48Z</time>
      </trkpt>
      <trkpt lat="39.995674" lon="-2.124073">
        <ele>962.0</ele>
        <time>2021-07-27T19:16:50Z</time>
      </trkpt>
      <trkpt lat="39.99562" lon="-2.1240833">
        <ele>962.0</ele>
        <time>2021-07-27T19:16:51Z</time>
      </trkpt>
      <trkpt lat="39.995564" lon="-2.1240942">
        <ele>962.0</ele>
        <time>2021-07-27T19:16:52Z</time>
      </trkpt>
      <trkpt lat="39.995506" lon="-2.1241052">
        <ele>962.0</ele>
        <time>2021-07-27T19:16:53Z</time>
      </trkpt>
      <trkpt lat="39.99545" lon="-2.1241174">
        <ele>962.0</ele>
        <time>2021-07-27T19:16:54Z</time>
      </trkpt>
      <trkpt lat="39.995388" lon="-2.124128">
        <ele>962.0</ele>
        <time>2021-07-27T19:16:55Z</time>
      </trkpt>
      <trkpt lat="39.995327" lon="-2.1241393">
        <ele>961.0</ele>
        <time>2021-07-27T19:16:56Z</time>
      </trkpt>
      <trkpt lat="39.995266" lon="-2.124151">
        <ele>961.0</ele>
        <time>2021-07-27T19:16:57Z</time>
      </trkpt>
      <trkpt lat="39.99521" lon="-2.124162">
        <ele>961.0</ele>
        <time>2021-07-27T19:16:58Z</time>
      </trkpt>
      <trkpt lat="39.995148" lon="-2.1241724">
        <ele>961.0</ele>
        <time>2021-07-27T19:16:59Z</time>
      </trkpt>
      <trkpt lat="39.99509" lon="-2.1241815">
        <ele>960.0</ele>
        <time>2021-07-27T19:17:00Z</time>
      </trkpt>
      <trkpt lat="39.995037" lon="-2.1241884">
        <ele>960.0</ele>
        <time>2021-07-27T19:17:01Z</time>
      </trkpt>
      <trkpt lat="39.994987" lon="-2.1241932">
        <ele>960.0</ele>
        <time>2021-07-27T19:17:02Z</time>
      </trkpt>
      <trkpt lat="39.994907" lon="-2.1241925">
        <ele>960.0</ele>
        <time>2021-07-27T19:17:04Z</time>
      </trkpt>
      <trkpt lat="39.994835" lon="-2.1241746">
        <ele>960.0</ele>
        <time>2021-07-27T19:17:06Z</time>
      </trkpt>
      <trkpt lat="39.994774" lon="-2.1241276">
        <ele>960.0</ele>
        <time>2021-07-27T19:17:08Z</time>
      </trkpt>
      <trkpt lat="39.994713" lon="-2.1240585">
        <ele>959.0</ele>
        <time>2021-07-27T19:17:10Z</time>
      </trkpt>
      <trkpt lat="39.994656" lon="-2.1239753">
        <ele>959.0</ele>
        <time>2021-07-27T19:17:12Z</time>
      </trkpt>
      <trkpt lat="39.99458" lon="-2.12384">
        <ele>959.0</ele>
        <time>2021-07-27T19:17:15Z</time>
      </trkpt>
      <trkpt lat="39.994526" lon="-2.1237438">
        <ele>959.0</ele>
        <time>2021-07-27T19:17:17Z</time>
      </trkpt>
      <trkpt lat="39.994446" lon="-2.123597">
        <ele>959.0</ele>
        <time>2021-07-27T19:17:20Z</time>
      </trkpt>
      <trkpt lat="39.994392" lon="-2.1234987">
        <ele>959.0</ele>
        <time>2021-07-27T19:17:22Z</time>
      </trkpt>
      <trkpt lat="39.994347" lon="-2.1233985">
        <ele>959.0</ele>
        <time>2021-07-27T19:17:24Z</time>
      </trkpt>
      <trkpt lat="39.994293" lon="-2.1232967">
        <ele>959.0</ele>
        <time>2021-07-27T19:17:26Z</time>
      </trkpt>
      <trkpt lat="39.994267" lon="-2.123244">
        <ele>959.0</ele>
        <time>2021-07-27T19:17:27Z</time>
      </trkpt>
      <trkpt lat="39.99421" lon="-2.123133">
        <ele>959.0</ele>
        <time>2021-07-27T19:17:29Z</time>
      </trkpt>
      <trkpt lat="39.994152" lon="-2.123017">
        <ele>959.0</ele>
        <time>2021-07-27T19:17:31Z</time>
      </trkpt>
      <trkpt lat="39.99412" lon="-2.1229572">
        <ele>959.0</ele>
        <time>2021-07-27T19:17:32Z</time>
      </trkpt>
      <trkpt lat="39.994095" lon="-2.1228974">
        <ele>959.0</ele>
        <time>2021-07-27T19:17:33Z</time>
      </trkpt>
      <trkpt lat="39.994064" lon="-2.1228375">
        <ele>959.0</ele>
        <time>2021-07-27T19:17:34Z</time>
      </trkpt>
      <trkpt lat="39.994034" lon="-2.1227777">
        <ele>959.0</ele>
        <time>2021-07-27T19:17:35Z</time>
      </trkpt>
      <trkpt lat="39.994007" lon="-2.122717">
        <ele>959.0</ele>
        <time>2021-07-27T19:17:36Z</time>
      </trkpt>
      <trkpt lat="39.99398" lon="-2.1226556">
        <ele>959.0</ele>
        <time>2021-07-27T19:17:37Z</time>
      </trkpt>
      <trkpt lat="39.99395" lon="-2.1225944">
        <ele>959.0</ele>
        <time>2021-07-27T19:17:38Z</time>
      </trkpt>
      <trkpt lat="39.993923" lon="-2.1225326">
        <ele>959.0</ele>
        <time>2021-07-27T19:17:39Z</time>
      </trkpt>
      <trkpt lat="39.993893" lon="-2.1224709">
        <ele>959.0</ele>
        <time>2021-07-27T19:17:40Z</time>
      </trkpt>
      <trkpt lat="39.99387" lon="-2.1224077">
        <ele>959.0</ele>
        <time>2021-07-27T19:17:41Z</time>
      </trkpt>
      <trkpt lat="39.993847" lon="-2.1223447">
        <ele>959.0</ele>
        <time>2021-07-27T19:17:42Z</time>
      </trkpt>
      <trkpt lat="39.993824" lon="-2.12228">
        <ele>959.0</ele>
        <time>2021-07-27T19:17:43Z</time>
      </trkpt>
      <trkpt lat="39.9938" lon="-2.1222148">
        <ele>959.0</ele>
        <time>2021-07-27T19:17:44Z</time>
      </trkpt>
      <trkpt lat="39.993782" lon="-2.12215">
        <ele>959.0</ele>
        <time>2021-07-27T19:17:45Z</time>
      </trkpt>
      <trkpt lat="39.993763" lon="-2.1220853">
        <ele>959.0</ele>
        <time>2021-07-27T19:17:46Z</time>
      </trkpt>
      <trkpt lat="39.99374" lon="-2.1220222">
        <ele>959.0</ele>
        <time>2021-07-27T19:17:47Z</time>
      </trkpt>
      <trkpt lat="39.993717" lon="-2.1219609">
        <ele>959.0</ele>
        <time>2021-07-27T19:17:48Z</time>
      </trkpt>
      <trkpt lat="39.993675" lon="-2.121842">
        <ele>959.0</ele>
        <time>2021-07-27T19:17:50Z</time>
      </trkpt>
      <trkpt lat="39.993637" lon="-2.1217248">
        <ele>959.0</ele>
        <time>2021-07-27T19:17:52Z</time>
      </trkpt>
      <trkpt lat="39.9936" lon="-2.1216073">
        <ele>959.0</ele>
        <time>2021-07-27T19:17:54Z</time>
      </trkpt>
      <trkpt lat="39.99357" lon="-2.121491">
        <ele>959.0</ele>
        <time>2021-07-27T19:17:56Z</time>
      </trkpt>
      <trkpt lat="39.993526" lon="-2.1213772">
        <ele>959.0</ele>
        <time>2021-07-27T19:17:58Z</time>
      </trkpt>
      <trkpt lat="39.993492" lon="-2.1212647">
        <ele>959.0</ele>
        <time>2021-07-27T19:18:00Z</time>
      </trkpt>
      <trkpt lat="39.993454" lon="-2.1211538">
        <ele>959.0</ele>
        <time>2021-07-27T19:18:02Z</time>
      </trkpt>
      <trkpt lat="39.99342" lon="-2.1210413">
        <ele>959.0</ele>
        <time>2021-07-27T19:18:04Z</time>
      </trkpt>
      <trkpt lat="39.9934" lon="-2.1209846">
        <ele>959.0</ele>
        <time>2021-07-27T19:18:05Z</time>
      </trkpt>
      <trkpt lat="39.993366" lon="-2.1208718">
        <ele>959.0</ele>
        <time>2021-07-27T19:18:07Z</time>
      </trkpt>
      <trkpt lat="39.993332" lon="-2.120758">
        <ele>959.0</ele>
        <time>2021-07-27T19:18:09Z</time>
      </trkpt>
      <trkpt lat="39.993317" lon="-2.120699">
        <ele>959.0</ele>
        <time>2021-07-27T19:18:10Z</time>
      </trkpt>
      <trkpt lat="39.99328" lon="-2.1205819">
        <ele>959.0</ele>
        <time>2021-07-27T19:18:12Z</time>
      </trkpt>
      <trkpt lat="39.993263" lon="-2.120523">
        <ele>959.0</ele>
        <time>2021-07-27T19:18:13Z</time>
      </trkpt>
      <trkpt lat="39.993225" lon="-2.1204057">
        <ele>959.0</ele>
        <time>2021-07-27T19:18:15Z</time>
      </trkpt>
      <trkpt lat="39.993187" lon="-2.1202893">
        <ele>959.0</ele>
        <time>2021-07-27T19:18:17Z</time>
      </trkpt>
      <trkpt lat="39.99317" lon="-2.1202314">
        <ele>959.0</ele>
        <time>2021-07-27T19:18:18Z</time>
      </trkpt>
      <trkpt lat="39.993114" lon="-2.1200602">
        <ele>959.0</ele>
        <time>2021-07-27T19:18:21Z</time>
      </trkpt>
      <trkpt lat="39.993084" lon="-2.1199446">
        <ele>960.0</ele>
        <time>2021-07-27T19:18:23Z</time>
      </trkpt>
      <trkpt lat="39.99305" lon="-2.1198258">
        <ele>960.0</ele>
        <time>2021-07-27T19:18:25Z</time>
      </trkpt>
      <trkpt lat="39.99302" lon="-2.1197064">
        <ele>960.0</ele>
        <time>2021-07-27T19:18:27Z</time>
      </trkpt>
      <trkpt lat="39.99299" lon="-2.1195884">
        <ele>960.0</ele>
        <time>2021-07-27T19:18:29Z</time>
      </trkpt>
      <trkpt lat="39.992977" lon="-2.1195276">
        <ele>960.0</ele>
        <time>2021-07-27T19:18:30Z</time>
      </trkpt>
      <trkpt lat="39.992943" lon="-2.119404">
        <ele>960.0</ele>
        <time>2021-07-27T19:18:32Z</time>
      </trkpt>
      <trkpt lat="39.992916" lon="-2.1192796">
        <ele>960.0</ele>
        <time>2021-07-27T19:18:34Z</time>
      </trkpt>
      <trkpt lat="39.99289" lon="-2.1191564">
        <ele>961.0</ele>
        <time>2021-07-27T19:18:36Z</time>
      </trkpt>
      <trkpt lat="39.992863" lon="-2.119035">
        <ele>961.0</ele>
        <time>2021-07-27T19:18:38Z</time>
      </trkpt>
      <trkpt lat="39.992836" lon="-2.118912">
        <ele>961.0</ele>
        <time>2021-07-27T19:18:40Z</time>
      </trkpt>
      <trkpt lat="39.99282" lon="-2.1188474">
        <ele>961.0</ele>
        <time>2021-07-27T19:18:41Z</time>
      </trkpt>
      <trkpt lat="39.992805" lon="-2.118781">
        <ele>961.0</ele>
        <time>2021-07-27T19:18:42Z</time>
      </trkpt>
      <trkpt lat="39.992775" lon="-2.1186428">
        <ele>961.0</ele>
        <time>2021-07-27T19:18:44Z</time>
      </trkpt>
      <trkpt lat="39.992756" lon="-2.1185708">
        <ele>961.0</ele>
        <time>2021-07-27T19:18:45Z</time>
      </trkpt>
      <trkpt lat="39.99274" lon="-2.1184971">
        <ele>961.0</ele>
        <time>2021-07-27T19:18:46Z</time>
      </trkpt>
      <trkpt lat="39.992725" lon="-2.118422">
        <ele>961.0</ele>
        <time>2021-07-27T19:18:47Z</time>
      </trkpt>
      <trkpt lat="39.992702" lon="-2.1183436">
        <ele>961.0</ele>
        <time>2021-07-27T19:18:48Z</time>
      </trkpt>
      <trkpt lat="39.992687" lon="-2.1182632">
        <ele>961.0</ele>
        <time>2021-07-27T19:18:49Z</time>
      </trkpt>
      <trkpt lat="39.992664" lon="-2.1181817">
        <ele>961.0</ele>
        <time>2021-07-27T19:18:50Z</time>
      </trkpt>
      <trkpt lat="39.99264" lon="-2.1181004">
        <ele>961.0</ele>
        <time>2021-07-27T19:18:51Z</time>
      </trkpt>
      <trkpt lat="39.99262" lon="-2.1180193">
        <ele>961.0</ele>
        <time>2021-07-27T19:18:52Z</time>
      </trkpt>
      <trkpt lat="39.992596" lon="-2.117939">
        <ele>961.0</ele>
        <time>2021-07-27T19:18:53Z</time>
      </trkpt>
      <trkpt lat="39.992565" lon="-2.1178598">
        <ele>961.0</ele>
        <time>2021-07-27T19:18:54Z</time>
      </trkpt>
      <trkpt lat="39.99254" lon="-2.1177828">
        <ele>961.0</ele>
        <time>2021-07-27T19:18:55Z</time>
      </trkpt>
      <trkpt lat="39.99251" lon="-2.1177075">
        <ele>961.0</ele>
        <time>2021-07-27T19:18:56Z</time>
      </trkpt>
      <trkpt lat="39.99248" lon="-2.1176338">
        <ele>961.0</ele>
        <time>2021-07-27T19:18:57Z</time>
      </trkpt>
      <trkpt lat="39.992455" lon="-2.1175604">
        <ele>961.0</ele>
        <time>2021-07-27T19:18:58Z</time>
      </trkpt>
      <trkpt lat="39.992424" lon="-2.117487">
        <ele>961.0</ele>
        <time>2021-07-27T19:18:59Z</time>
      </trkpt>
      <trkpt lat="39.992393" lon="-2.117414">
        <ele>961.0</ele>
        <time>2021-07-27T19:19:00Z</time>
      </trkpt>
      <trkpt lat="39.992367" lon="-2.117341">
        <ele>961.0</ele>
        <time>2021-07-27T19:19:01Z</time>
      </trkpt>
      <trkpt lat="39.992336" lon="-2.117269">
        <ele>961.0</ele>
        <time>2021-07-27T19:19:02Z</time>
      </trkpt>
      <trkpt lat="39.992306" lon="-2.1171985">
        <ele>961.0</ele>
        <time>2021-07-27T19:19:03Z</time>
      </trkpt>
      <trkpt lat="39.992275" lon="-2.1171284">
        <ele>961.0</ele>
        <time>2021-07-27T19:19:04Z</time>
      </trkpt>
      <trkpt lat="39.992245" lon="-2.1170592">
        <ele>961.0</ele>
        <time>2021-07-27T19:19:05Z</time>
      </trkpt>
      <trkpt lat="39.992214" lon="-2.1169899">
        <ele>961.0</ele>
        <time>2021-07-27T19:19:06Z</time>
      </trkpt>
      <trkpt lat="39.99218" lon="-2.1169214">
        <ele>961.0</ele>
        <time>2021-07-27T19:19:07Z</time>
      </trkpt>
      <trkpt lat="39.992146" lon="-2.1168537">
        <ele>961.0</ele>
        <time>2021-07-27T19:19:08Z</time>
      </trkpt>
      <trkpt lat="39.99211" lon="-2.1167858">
        <ele>960.0</ele>
        <time>2021-07-27T19:19:09Z</time>
      </trkpt>
      <trkpt lat="39.99208" lon="-2.116717">
        <ele>960.0</ele>
        <time>2021-07-27T19:19:10Z</time>
      </trkpt>
      <trkpt lat="39.992046" lon="-2.116649">
        <ele>960.0</ele>
        <time>2021-07-27T19:19:11Z</time>
      </trkpt>
      <trkpt lat="39.992012" lon="-2.1165807">
        <ele>960.0</ele>
        <time>2021-07-27T19:19:12Z</time>
      </trkpt>
      <trkpt lat="39.991974" lon="-2.1165128">
        <ele>960.0</ele>
        <time>2021-07-27T19:19:13Z</time>
      </trkpt>
      <trkpt lat="39.991936" lon="-2.116445">
        <ele>960.0</ele>
        <time>2021-07-27T19:19:14Z</time>
      </trkpt>
      <trkpt lat="39.9919" lon="-2.1163778">
        <ele>960.0</ele>
        <time>2021-07-27T19:19:15Z</time>
      </trkpt>
      <trkpt lat="39.991863" lon="-2.1163104">
        <ele>960.0</ele>
        <time>2021-07-27T19:19:16Z</time>
      </trkpt>
      <trkpt lat="39.99183" lon="-2.1162426">
        <ele>960.0</ele>
        <time>2021-07-27T19:19:17Z</time>
      </trkpt>
      <trkpt lat="39.99179" lon="-2.116173">
        <ele>960.0</ele>
        <time>2021-07-27T19:19:18Z</time>
      </trkpt>
      <trkpt lat="39.991756" lon="-2.1161034">
        <ele>960.0</ele>
        <time>2021-07-27T19:19:19Z</time>
      </trkpt>
      <trkpt lat="39.991722" lon="-2.1160321">
        <ele>959.0</ele>
        <time>2021-07-27T19:19:20Z</time>
      </trkpt>
      <trkpt lat="39.99169" lon="-2.1159606">
        <ele>959.0</ele>
        <time>2021-07-27T19:19:21Z</time>
      </trkpt>
      <trkpt lat="39.99166" lon="-2.115888">
        <ele>959.0</ele>
        <time>2021-07-27T19:19:22Z</time>
      </trkpt>
      <trkpt lat="39.99163" lon="-2.1158173">
        <ele>959.0</ele>
        <time>2021-07-27T19:19:23Z</time>
      </trkpt>
      <trkpt lat="39.991596" lon="-2.1157472">
        <ele>959.0</ele>
        <time>2021-07-27T19:19:24Z</time>
      </trkpt>
      <trkpt lat="39.991566" lon="-2.1156769">
        <ele>959.0</ele>
        <time>2021-07-27T19:19:25Z</time>
      </trkpt>
      <trkpt lat="39.99154" lon="-2.1156065">
        <ele>959.0</ele>
        <time>2021-07-27T19:19:26Z</time>
      </trkpt>
      <trkpt lat="39.99148" lon="-2.1154675">
        <ele>959.0</ele>
        <time>2021-07-27T19:19:28Z</time>
      </trkpt>
      <trkpt lat="39.99145" lon="-2.1153944">
        <ele>959.0</ele>
        <time>2021-07-27T19:19:29Z</time>
      </trkpt>
      <trkpt lat="39.99142" lon="-2.1153195">
        <ele>958.0</ele>
        <time>2021-07-27T19:19:30Z</time>
      </trkpt>
      <trkpt lat="39.991386" lon="-2.1152432">
        <ele>958.0</ele>
        <time>2021-07-27T19:19:31Z</time>
      </trkpt>
      <trkpt lat="39.99136" lon="-2.1151652">
        <ele>958.0</ele>
        <time>2021-07-27T19:19:32Z</time>
      </trkpt>
      <trkpt lat="39.99133" lon="-2.1150854">
        <ele>957.0</ele>
        <time>2021-07-27T19:19:33Z</time>
      </trkpt>
      <trkpt lat="39.991302" lon="-2.1150086">
        <ele>957.0</ele>
        <time>2021-07-27T19:19:34Z</time>
      </trkpt>
      <trkpt lat="39.99128" lon="-2.1149228">
        <ele>957.0</ele>
        <time>2021-07-27T19:19:35Z</time>
      </trkpt>
      <trkpt lat="39.991257" lon="-2.1148355">
        <ele>957.0</ele>
        <time>2021-07-27T19:19:36Z</time>
      </trkpt>
      <trkpt lat="39.99124" lon="-2.1147475">
        <ele>956.0</ele>
        <time>2021-07-27T19:19:37Z</time>
      </trkpt>
      <trkpt lat="39.99123" lon="-2.1146593">
        <ele>956.0</ele>
        <time>2021-07-27T19:19:38Z</time>
      </trkpt>
      <trkpt lat="39.991222" lon="-2.1145725">
        <ele>956.0</ele>
        <time>2021-07-27T19:19:39Z</time>
      </trkpt>
      <trkpt lat="39.991215" lon="-2.114486">
        <ele>956.0</ele>
        <time>2021-07-27T19:19:40Z</time>
      </trkpt>
      <trkpt lat="39.991207" lon="-2.1144">
        <ele>956.0</ele>
        <time>2021-07-27T19:19:41Z</time>
      </trkpt>
      <trkpt lat="39.9912" lon="-2.1143146">
        <ele>956.0</ele>
        <time>2021-07-27T19:19:42Z</time>
      </trkpt>
      <trkpt lat="39.99119" lon="-2.114231">
        <ele>955.0</ele>
        <time>2021-07-27T19:19:43Z</time>
      </trkpt>
      <trkpt lat="39.991184" lon="-2.1141498">
        <ele>955.0</ele>
        <time>2021-07-27T19:19:44Z</time>
      </trkpt>
      <trkpt lat="39.99117" lon="-2.1140697">
        <ele>955.0</ele>
        <time>2021-07-27T19:19:45Z</time>
      </trkpt>
      <trkpt lat="39.991154" lon="-2.1139905">
        <ele>955.0</ele>
        <time>2021-07-27T19:19:46Z</time>
      </trkpt>
      <trkpt lat="39.99114" lon="-2.1139176">
        <ele>955.0</ele>
        <time>2021-07-27T19:19:47Z</time>
      </trkpt>
      <trkpt lat="39.991123" lon="-2.1138446">
        <ele>955.0</ele>
        <time>2021-07-27T19:19:48Z</time>
      </trkpt>
      <trkpt lat="39.991104" lon="-2.1137726">
        <ele>955.0</ele>
        <time>2021-07-27T19:19:49Z</time>
      </trkpt>
      <trkpt lat="39.991085" lon="-2.1136963">
        <ele>955.0</ele>
        <time>2021-07-27T19:19:50Z</time>
      </trkpt>
      <trkpt lat="39.991062" lon="-2.1136277">
        <ele>955.0</ele>
        <time>2021-07-27T19:19:51Z</time>
      </trkpt>
      <trkpt lat="39.991043" lon="-2.1135545">
        <ele>955.0</ele>
        <time>2021-07-27T19:19:52Z</time>
      </trkpt>
      <trkpt lat="39.99102" lon="-2.113484">
        <ele>955.0</ele>
        <time>2021-07-27T19:19:53Z</time>
      </trkpt>
      <trkpt lat="39.990997" lon="-2.1134186">
        <ele>955.0</ele>
        <time>2021-07-27T19:19:54Z</time>
      </trkpt>
      <trkpt lat="39.99098" lon="-2.1133523">
        <ele>955.0</ele>
        <time>2021-07-27T19:19:55Z</time>
      </trkpt>
      <trkpt lat="39.99096" lon="-2.1132865">
        <ele>955.0</ele>
        <time>2021-07-27T19:19:56Z</time>
      </trkpt>
      <trkpt lat="39.990936" lon="-2.1132207">
        <ele>955.0</ele>
        <time>2021-07-27T19:19:57Z</time>
      </trkpt>
      <trkpt lat="39.990913" lon="-2.1131554">
        <ele>955.0</ele>
        <time>2021-07-27T19:19:58Z</time>
      </trkpt>
      <trkpt lat="39.99089" lon="-2.1130903">
        <ele>955.0</ele>
        <time>2021-07-27T19:19:59Z</time>
      </trkpt>
      <trkpt lat="39.99086" lon="-2.1130238">
        <ele>955.0</ele>
        <time>2021-07-27T19:20:00Z</time>
      </trkpt>
      <trkpt lat="39.99083" lon="-2.1129663">
        <ele>955.0</ele>
        <time>2021-07-27T19:20:01Z</time>
      </trkpt>
      <trkpt lat="39.990795" lon="-2.1129203">
        <ele>955.0</ele>
        <time>2021-07-27T19:20:02Z</time>
      </trkpt>
      <trkpt lat="39.990757" lon="-2.1128893">
        <ele>955.0</ele>
        <time>2021-07-27T19:20:03Z</time>
      </trkpt>
      <trkpt lat="39.990677" lon="-2.1128733">
        <ele>955.0</ele>
        <time>2021-07-27T19:20:05Z</time>
      </trkpt>
      <trkpt lat="39.9906" lon="-2.112903">
        <ele>955.0</ele>
        <time>2021-07-27T19:20:07Z</time>
      </trkpt>
      <trkpt lat="39.990532" lon="-2.1129541">
        <ele>954.0</ele>
        <time>2021-07-27T19:20:09Z</time>
      </trkpt>
      <trkpt lat="39.990456" lon="-2.113019">
        <ele>954.0</ele>
        <time>2021-07-27T19:20:11Z</time>
      </trkpt>
      <trkpt lat="39.99038" lon="-2.1130884">
        <ele>954.0</ele>
        <time>2021-07-27T19:20:13Z</time>
      </trkpt>
      <trkpt lat="39.99031" lon="-2.1131554">
        <ele>953.0</ele>
        <time>2021-07-27T19:20:15Z</time>
      </trkpt>
      <trkpt lat="39.99025" lon="-2.1132038">
        <ele>953.0</ele>
        <time>2021-07-27T19:20:17Z</time>
      </trkpt>
      <trkpt lat="39.99021" lon="-2.1132329">
        <ele>952.0</ele>
        <time>2021-07-27T19:20:19Z</time>
      </trkpt>
      <trkpt lat="39.99018" lon="-2.1132627">
        <ele>952.0</ele>
        <time>2021-07-27T19:20:25Z</time>
      </trkpt>
    </trkseg>
  </trk>
</gpx>
